<?xml version='1.0' encoding='UTF-8'?><gpx version="1.1" creator="JPX - https://github.com/jenetics/jpx" xmlns="http://www.topografix.com/GPX/1/1"><trk><trkseg><trkpt lat="44.0688007" lon="8.2155279"><ele>3.0</ele><time>2026-04-17T15:40:18.091Z</time></trkpt><trkpt lat="44.0687829" lon="8.215392"><ele>3.0</ele><time>2026-04-17T15:41:36.089Z</time></trkpt><trkpt lat="44.0686955" lon="8.2153476"><ele>3.0</ele><time>2026-04-17T15:41:38.089Z</time></trkpt><trkpt lat="44.0686174" lon="8.2153114"><ele>3.0</ele><time>2026-04-17T15:41:39.09Z</time></trkpt><trkpt lat="44.0684996" lon="8.2152357"><ele>3.0</ele><time>2026-04-17T15:41:40.09Z</time></trkpt><trkpt lat="44.0683569" lon="8.2151312"><ele>2.6666666666666665</ele><time>2026-04-17T15:41:41.09Z</time></trkpt><trkpt lat="44.0682079" lon="8.2150168"><ele>2.333333333333333</ele><time>2026-04-17T15:41:42.09Z</time></trkpt><trkpt lat="44.0680524" lon="8.2149054"><ele>2.0</ele><time>2026-04-17T15:41:43.089Z</time></trkpt><trkpt lat="44.0678919" lon="8.2148014"><ele>1.6666666666666665</ele><time>2026-04-17T15:41:44.09Z</time></trkpt><trkpt lat="44.0677344" lon="8.2147154"><ele>1.3333333333333333</ele><time>2026-04-17T15:41:45.089Z</time></trkpt><trkpt lat="44.0675688" lon="8.2146286"><ele>1.0</ele><time>2026-04-17T15:41:46.09Z</time></trkpt><trkpt lat="44.0674047" lon="8.2145478"><ele>1.0</ele><time>2026-04-17T15:41:47.089Z</time></trkpt><trkpt lat="44.0672171" lon="8.2144958"><ele>1.0</ele><time>2026-04-17T15:41:48.09Z</time></trkpt><trkpt lat="44.0670257" lon="8.2144156"><ele>1.0</ele><time>2026-04-17T15:41:49.089Z</time></trkpt><trkpt lat="44.0668279" lon="8.2143327"><ele>1.0</ele><time>2026-04-17T15:41:50.09Z</time></trkpt><trkpt lat="44.06662" lon="8.2142462"><ele>1.0</ele><time>2026-04-17T15:41:51.09Z</time></trkpt><trkpt lat="44.0664128" lon="8.2141508"><ele>1.0</ele><time>2026-04-17T15:41:52.089Z</time></trkpt><trkpt lat="44.0662164" lon="8.2140545"><ele>1.6666666666666665</ele><time>2026-04-17T15:41:53.09Z</time></trkpt><trkpt lat="44.0660337" lon="8.2139739"><ele>2.3333333333333335</ele><time>2026-04-17T15:41:54.09Z</time></trkpt><trkpt lat="44.065875" lon="8.213853"><ele>3.0</ele><time>2026-04-17T15:41:55.09Z</time></trkpt><trkpt lat="44.0657179" lon="8.2137802"><ele>3.0</ele><time>2026-04-17T15:41:56.09Z</time></trkpt><trkpt lat="44.0655503" lon="8.2137157"><ele>3.0</ele><time>2026-04-17T15:41:57.089Z</time></trkpt><trkpt lat="44.0653891" lon="8.2136486"><ele>3.0</ele><time>2026-04-17T15:41:58.09Z</time></trkpt><trkpt lat="44.0652254" lon="8.2135997"><ele>3.0</ele><time>2026-04-17T15:41:59.09Z</time></trkpt><trkpt lat="44.0650737" lon="8.2135416"><ele>3.0</ele><time>2026-04-17T15:42:00.089Z</time></trkpt><trkpt lat="44.0649215" lon="8.2134794"><ele>3.0</ele><time>2026-04-17T15:42:01.09Z</time></trkpt><trkpt lat="44.0647725" lon="8.2134131"><ele>3.0</ele><time>2026-04-17T15:42:02.089Z</time></trkpt><trkpt lat="44.0646332" lon="8.2133465"><ele>3.0</ele><time>2026-04-17T15:42:03.09Z</time></trkpt><trkpt lat="44.0644995" lon="8.2132784"><ele>3.0</ele><time>2026-04-17T15:42:04.09Z</time></trkpt><trkpt lat="44.0643582" lon="8.2132069"><ele>3.0</ele><time>2026-04-17T15:42:05.089Z</time></trkpt><trkpt lat="44.0642008" lon="8.2131235"><ele>3.333333333333333</ele><time>2026-04-17T15:42:06.089Z</time></trkpt><trkpt lat="44.0640301" lon="8.2130382"><ele>3.6666666666666665</ele><time>2026-04-17T15:42:07.09Z</time></trkpt><trkpt lat="44.0638478" lon="8.2129624"><ele>4.0</ele><time>2026-04-17T15:42:08.089Z</time></trkpt><trkpt lat="44.0636545" lon="8.2128828"><ele>4.0</ele><time>2026-04-17T15:42:09.089Z</time></trkpt><trkpt lat="44.0634599" lon="8.2127987"><ele>4.0</ele><time>2026-04-17T15:42:10.09Z</time></trkpt><trkpt lat="44.0632546" lon="8.2127221"><ele>4.0</ele><time>2026-04-17T15:42:11.09Z</time></trkpt><trkpt lat="44.0630459" lon="8.212632"><ele>3.6666666666666665</ele><time>2026-04-17T15:42:12.089Z</time></trkpt><trkpt lat="44.0628401" lon="8.2125478"><ele>3.333333333333333</ele><time>2026-04-17T15:42:13.089Z</time></trkpt><trkpt lat="44.0626435" lon="8.212478"><ele>3.0</ele><time>2026-04-17T15:42:14.09Z</time></trkpt><trkpt lat="44.0624523" lon="8.2124047"><ele>3.0</ele><time>2026-04-17T15:42:15.089Z</time></trkpt><trkpt lat="44.0622663" lon="8.2123305"><ele>3.0</ele><time>2026-04-17T15:42:16.09Z</time></trkpt><trkpt lat="44.062078" lon="8.2122597"><ele>3.0</ele><time>2026-04-17T15:42:17.089Z</time></trkpt><trkpt lat="44.0618886" lon="8.212179"><ele>3.0</ele><time>2026-04-17T15:42:18.09Z</time></trkpt><trkpt lat="44.0616926" lon="8.2120938"><ele>3.0</ele><time>2026-04-17T15:42:19.09Z</time></trkpt><trkpt lat="44.0614948" lon="8.2120099"><ele>3.0</ele><time>2026-04-17T15:42:20.09Z</time></trkpt><trkpt lat="44.0613004" lon="8.2119237"><ele>3.0</ele><time>2026-04-17T15:42:21.089Z</time></trkpt><trkpt lat="44.061103" lon="8.2118461"><ele>3.0</ele><time>2026-04-17T15:42:22.089Z</time></trkpt><trkpt lat="44.0609081" lon="8.2117755"><ele>3.0</ele><time>2026-04-17T15:42:23.089Z</time></trkpt><trkpt lat="44.0607118" lon="8.2117111"><ele>3.0</ele><time>2026-04-17T15:42:24.089Z</time></trkpt><trkpt lat="44.0605176" lon="8.2116421"><ele>3.0</ele><time>2026-04-17T15:42:25.089Z</time></trkpt><trkpt lat="44.0603215" lon="8.2115822"><ele>3.0</ele><time>2026-04-17T15:42:26.09Z</time></trkpt><trkpt lat="44.0601302" lon="8.2115235"><ele>3.333333333333333</ele><time>2026-04-17T15:42:27.089Z</time></trkpt><trkpt lat="44.0599425" lon="8.2114744"><ele>3.6666666666666665</ele><time>2026-04-17T15:42:28.089Z</time></trkpt><trkpt lat="44.0597681" lon="8.2114269"><ele>4.0</ele><time>2026-04-17T15:42:29.09Z</time></trkpt><trkpt lat="44.059596" lon="8.211386"><ele>4.0</ele><time>2026-04-17T15:42:30.09Z</time></trkpt><trkpt lat="44.0594186" lon="8.2113369"><ele>4.0</ele><time>2026-04-17T15:42:31.089Z</time></trkpt><trkpt lat="44.0592358" lon="8.2112853"><ele>4.0</ele><time>2026-04-17T15:42:32.089Z</time></trkpt><trkpt lat="44.0590564" lon="8.2112321"><ele>3.6666666666666665</ele><time>2026-04-17T15:42:33.09Z</time></trkpt><trkpt lat="44.0588793" lon="8.2111815"><ele>3.333333333333333</ele><time>2026-04-17T15:42:34.09Z</time></trkpt><trkpt lat="44.0587046" lon="8.2111323"><ele>3.0</ele><time>2026-04-17T15:42:35.089Z</time></trkpt><trkpt lat="44.0585405" lon="8.2110899"><ele>3.0</ele><time>2026-04-17T15:42:36.089Z</time></trkpt><trkpt lat="44.0583938" lon="8.2110556"><ele>3.0</ele><time>2026-04-17T15:42:37.09Z</time></trkpt><trkpt lat="44.058266" lon="8.2110317"><ele>3.0</ele><time>2026-04-17T15:42:38.09Z</time></trkpt><trkpt lat="44.0581569" lon="8.2110027"><ele>3.0</ele><time>2026-04-17T15:42:39.09Z</time></trkpt><trkpt lat="44.0580711" lon="8.2109663"><ele>3.1666666666666665</ele><time>2026-04-17T15:42:40.089Z</time></trkpt><trkpt lat="44.058005" lon="8.2109343"><ele>3.333333333333333</ele><time>2026-04-17T15:42:41.089Z</time></trkpt><trkpt lat="44.0579094" lon="8.2108999"><ele>3.5</ele><time>2026-04-17T15:42:43.09Z</time></trkpt><trkpt lat="44.0578284" lon="8.2108703"><ele>3.6666666666666665</ele><time>2026-04-17T15:42:45.09Z</time></trkpt><trkpt lat="44.057778" lon="8.2108038"><ele>3.833333333333333</ele><time>2026-04-17T15:42:48.089Z</time></trkpt><trkpt lat="44.0577183" lon="8.2107586"><ele>4.0</ele><time>2026-04-17T15:42:51.09Z</time></trkpt><trkpt lat="44.0576157" lon="8.2107232"><ele>4.0</ele><time>2026-04-17T15:43:01.09Z</time></trkpt><trkpt lat="44.0575182" lon="8.2106797"><ele>4.0</ele><time>2026-04-17T15:43:02.089Z</time></trkpt><trkpt lat="44.0574059" lon="8.2106345"><ele>4.0</ele><time>2026-04-17T15:43:03.089Z</time></trkpt><trkpt lat="44.0572757" lon="8.2105734"><ele>4.0</ele><time>2026-04-17T15:43:04.09Z</time></trkpt><trkpt lat="44.0571309" lon="8.2105024"><ele>4.0</ele><time>2026-04-17T15:43:05.089Z</time></trkpt><trkpt lat="44.0569837" lon="8.210427"><ele>4.0</ele><time>2026-04-17T15:43:06.089Z</time></trkpt><trkpt lat="44.0568382" lon="8.210359"><ele>4.0</ele><time>2026-04-17T15:43:07.089Z</time></trkpt><trkpt lat="44.0566966" lon="8.2102911"><ele>4.0</ele><time>2026-04-17T15:43:08.09Z</time></trkpt><trkpt lat="44.0565561" lon="8.2102063"><ele>4.0</ele><time>2026-04-17T15:43:09.089Z</time></trkpt><trkpt lat="44.0564176" lon="8.2101213"><ele>4.0</ele><time>2026-04-17T15:43:10.089Z</time></trkpt><trkpt lat="44.0562732" lon="8.2100352"><ele>4.0</ele><time>2026-04-17T15:43:11.09Z</time></trkpt><trkpt lat="44.0561246" lon="8.2099497"><ele>4.0</ele><time>2026-04-17T15:43:12.09Z</time></trkpt><trkpt lat="44.0559656" lon="8.2098683"><ele>4.0</ele><time>2026-04-17T15:43:13.089Z</time></trkpt><trkpt lat="44.0558084" lon="8.2097754"><ele>4.0</ele><time>2026-04-17T15:43:14.089Z</time></trkpt><trkpt lat="44.0556432" lon="8.2096809"><ele>4.0</ele><time>2026-04-17T15:43:15.089Z</time></trkpt><trkpt lat="44.0554835" lon="8.209589"><ele>4.0</ele><time>2026-04-17T15:43:16.089Z</time></trkpt><trkpt lat="44.0553198" lon="8.2094997"><ele>4.0</ele><time>2026-04-17T15:43:17.09Z</time></trkpt><trkpt lat="44.0551546" lon="8.2094103"><ele>4.0</ele><time>2026-04-17T15:43:18.09Z</time></trkpt><trkpt lat="44.0549981" lon="8.2093249"><ele>4.0</ele><time>2026-04-17T15:43:19.09Z</time></trkpt><trkpt lat="44.0548578" lon="8.2092423"><ele>4.25</ele><time>2026-04-17T15:43:20.089Z</time></trkpt><trkpt lat="44.0547296" lon="8.2091689"><ele>4.5</ele><time>2026-04-17T15:43:21.09Z</time></trkpt><trkpt lat="44.0546145" lon="8.2091053"><ele>4.75</ele><time>2026-04-17T15:43:22.089Z</time></trkpt><trkpt lat="44.0545055" lon="8.2090406"><ele>5.0</ele><time>2026-04-17T15:43:23.089Z</time></trkpt><trkpt lat="44.0543986" lon="8.2089709"><ele>5.0</ele><time>2026-04-17T15:43:24.09Z</time></trkpt><trkpt lat="44.0543209" lon="8.2088935"><ele>5.0</ele><time>2026-04-17T15:43:25.089Z</time></trkpt><trkpt lat="44.0542693" lon="8.2087972"><ele>5.0</ele><time>2026-04-17T15:43:26.09Z</time></trkpt><trkpt lat="44.0542406" lon="8.2086749"><ele>5.0</ele><time>2026-04-17T15:43:27.089Z</time></trkpt><trkpt lat="44.0542383" lon="8.2085234"><ele>5.0</ele><time>2026-04-17T15:43:28.089Z</time></trkpt><trkpt lat="44.0542533" lon="8.208351"><ele>4.75</ele><time>2026-04-17T15:43:29.089Z</time></trkpt><trkpt lat="44.0542813" lon="8.2081585"><ele>4.5</ele><time>2026-04-17T15:43:30.09Z</time></trkpt><trkpt lat="44.0543067" lon="8.207966"><ele>4.25</ele><time>2026-04-17T15:43:31.09Z</time></trkpt><trkpt lat="44.0543316" lon="8.207777"><ele>4.0</ele><time>2026-04-17T15:43:32.09Z</time></trkpt><trkpt lat="44.0543462" lon="8.2075901"><ele>4.0</ele><time>2026-04-17T15:43:33.089Z</time></trkpt><trkpt lat="44.0543565" lon="8.2074021"><ele>4.0</ele><time>2026-04-17T15:43:34.09Z</time></trkpt><trkpt lat="44.0543711" lon="8.2072331"><ele>4.0</ele><time>2026-04-17T15:43:35.089Z</time></trkpt><trkpt lat="44.0543821" lon="8.2070787"><ele>4.0</ele><time>2026-04-17T15:43:36.089Z</time></trkpt><trkpt lat="44.0543922" lon="8.206945"><ele>4.166666666666666</ele><time>2026-04-17T15:43:37.089Z</time></trkpt><trkpt lat="44.0544008" lon="8.2068278"><ele>4.333333333333333</ele><time>2026-04-17T15:43:38.09Z</time></trkpt><trkpt lat="44.0544115" lon="8.2067093"><ele>4.5</ele><time>2026-04-17T15:43:39.09Z</time></trkpt><trkpt lat="44.0544252" lon="8.2065974"><ele>4.666666666666667</ele><time>2026-04-17T15:43:40.089Z</time></trkpt><trkpt lat="44.0544371" lon="8.2064929"><ele>4.833333333333334</ele><time>2026-04-17T15:43:41.089Z</time></trkpt><trkpt lat="44.0544414" lon="8.2064037"><ele>5.0</ele><time>2026-04-17T15:43:42.089Z</time></trkpt><trkpt lat="44.0544505" lon="8.2062488"><ele>5.0</ele><time>2026-04-17T15:43:44.089Z</time></trkpt><trkpt lat="44.0544572" lon="8.2061281"><ele>5.0</ele><time>2026-04-17T15:43:52.089Z</time></trkpt><trkpt lat="44.0544597" lon="8.2059733"><ele>5.0</ele><time>2026-04-17T15:43:54.09Z</time></trkpt><trkpt lat="44.0544658" lon="8.2058697"><ele>5.0</ele><time>2026-04-17T15:43:55.089Z</time></trkpt><trkpt lat="44.0544816" lon="8.2057765"><ele>5.0</ele><time>2026-04-17T15:43:56.09Z</time></trkpt><trkpt lat="44.0545008" lon="8.2056881"><ele>5.0</ele><time>2026-04-17T15:43:57.089Z</time></trkpt><trkpt lat="44.0545239" lon="8.2056025"><ele>5.0</ele><time>2026-04-17T15:43:58.09Z</time></trkpt><trkpt lat="44.0545604" lon="8.2055175"><ele>5.0</ele><time>2026-04-17T15:43:59.089Z</time></trkpt><trkpt lat="44.0546048" lon="8.205431"><ele>5.0</ele><time>2026-04-17T15:44:00.09Z</time></trkpt><trkpt lat="44.0546627" lon="8.205347"><ele>5.0</ele><time>2026-04-17T15:44:01.089Z</time></trkpt><trkpt lat="44.0547068" lon="8.2052598"><ele>5.0</ele><time>2026-04-17T15:44:02.089Z</time></trkpt><trkpt lat="44.0547574" lon="8.2051643"><ele>5.0</ele><time>2026-04-17T15:44:03.089Z</time></trkpt><trkpt lat="44.0548224" lon="8.2050663"><ele>5.0</ele><time>2026-04-17T15:44:04.09Z</time></trkpt><trkpt lat="44.054884" lon="8.2049688"><ele>5.0</ele><time>2026-04-17T15:44:05.089Z</time></trkpt><trkpt lat="44.0549312" lon="8.2048762"><ele>5.0</ele><time>2026-04-17T15:44:06.089Z</time></trkpt><trkpt lat="44.0549853" lon="8.20478"><ele>5.0</ele><time>2026-04-17T15:44:07.089Z</time></trkpt><trkpt lat="44.0550366" lon="8.2046707"><ele>5.0</ele><time>2026-04-17T15:44:08.09Z</time></trkpt><trkpt lat="44.0550926" lon="8.2045606"><ele>4.833333333333334</ele><time>2026-04-17T15:44:09.09Z</time></trkpt><trkpt lat="44.0551504" lon="8.2044566"><ele>4.666666666666667</ele><time>2026-04-17T15:44:10.09Z</time></trkpt><trkpt lat="44.055208" lon="8.2043784"><ele>4.5</ele><time>2026-04-17T15:44:11.089Z</time></trkpt><trkpt lat="44.0552693" lon="8.2043059"><ele>4.333333333333333</ele><time>2026-04-17T15:44:12.089Z</time></trkpt><trkpt lat="44.0553313" lon="8.2042259"><ele>4.166666666666666</ele><time>2026-04-17T15:44:13.089Z</time></trkpt><trkpt lat="44.0554001" lon="8.204138"><ele>4.0</ele><time>2026-04-17T15:44:14.089Z</time></trkpt><trkpt lat="44.0554627" lon="8.2040508"><ele>4.800000000000001</ele><time>2026-04-17T15:44:15.09Z</time></trkpt><trkpt lat="44.0555228" lon="8.2039641"><ele>5.6000000000000005</ele><time>2026-04-17T15:44:16.089Z</time></trkpt><trkpt lat="44.0555881" lon="8.2038759"><ele>6.4</ele><time>2026-04-17T15:44:17.09Z</time></trkpt><trkpt lat="44.0556539" lon="8.2037775"><ele>7.2</ele><time>2026-04-17T15:44:18.09Z</time></trkpt><trkpt lat="44.0557179" lon="8.203667"><ele>8.0</ele><time>2026-04-17T15:44:19.089Z</time></trkpt><trkpt lat="44.0557784" lon="8.2035382"><ele>7.800000000000001</ele><time>2026-04-17T15:44:20.089Z</time></trkpt><trkpt lat="44.055826" lon="8.2034128"><ele>7.6000000000000005</ele><time>2026-04-17T15:44:21.09Z</time></trkpt><trkpt lat="44.0558764" lon="8.203275"><ele>7.3999999999999995</ele><time>2026-04-17T15:44:22.09Z</time></trkpt><trkpt lat="44.0559166" lon="8.203128"><ele>7.199999999999999</ele><time>2026-04-17T15:44:23.09Z</time></trkpt><trkpt lat="44.0559497" lon="8.2029816"><ele>7.0</ele><time>2026-04-17T15:44:24.089Z</time></trkpt><trkpt lat="44.055982" lon="8.2028269"><ele>6.8</ele><time>2026-04-17T15:44:25.09Z</time></trkpt><trkpt lat="44.0560013" lon="8.2026829"><ele>6.6</ele><time>2026-04-17T15:44:26.089Z</time></trkpt><trkpt lat="44.0560168" lon="8.2025386"><ele>6.3999999999999995</ele><time>2026-04-17T15:44:27.09Z</time></trkpt><trkpt lat="44.0560167" lon="8.2023924"><ele>6.199999999999999</ele><time>2026-04-17T15:44:28.089Z</time></trkpt><trkpt lat="44.0560183" lon="8.2022528"><ele>6.0</ele><time>2026-04-17T15:44:29.09Z</time></trkpt><trkpt lat="44.0560181" lon="8.2021204"><ele>6.0</ele><time>2026-04-17T15:44:30.09Z</time></trkpt><trkpt lat="44.0560091" lon="8.2019946"><ele>6.0</ele><time>2026-04-17T15:44:31.089Z</time></trkpt><trkpt lat="44.0559987" lon="8.2018584"><ele>6.0</ele><time>2026-04-17T15:44:32.09Z</time></trkpt><trkpt lat="44.0559897" lon="8.2017179"><ele>6.0</ele><time>2026-04-17T15:44:33.089Z</time></trkpt><trkpt lat="44.0559865" lon="8.2015628"><ele>6.0</ele><time>2026-04-17T15:44:34.09Z</time></trkpt><trkpt lat="44.0559764" lon="8.2014007"><ele>6.0</ele><time>2026-04-17T15:44:35.09Z</time></trkpt><trkpt lat="44.0559842" lon="8.201254"><ele>6.0</ele><time>2026-04-17T15:44:36.089Z</time></trkpt><trkpt lat="44.0559647" lon="8.2011256"><ele>6.0</ele><time>2026-04-17T15:44:37.089Z</time></trkpt><trkpt lat="44.0559416" lon="8.201004"><ele>6.0</ele><time>2026-04-17T15:44:38.089Z</time></trkpt><trkpt lat="44.0559308" lon="8.2008828"><ele>6.0</ele><time>2026-04-17T15:44:39.089Z</time></trkpt><trkpt lat="44.0559249" lon="8.2007599"><ele>6.199999999999999</ele><time>2026-04-17T15:44:40.089Z</time></trkpt><trkpt lat="44.0559228" lon="8.2006319"><ele>6.3999999999999995</ele><time>2026-04-17T15:44:41.089Z</time></trkpt><trkpt lat="44.0559138" lon="8.200502"><ele>6.6</ele><time>2026-04-17T15:44:42.089Z</time></trkpt><trkpt lat="44.0558474" lon="8.2003459"><ele>6.8</ele><time>2026-04-17T15:44:43.09Z</time></trkpt><trkpt lat="44.055848" lon="8.2002131"><ele>7.0</ele><time>2026-04-17T15:44:44.09Z</time></trkpt><trkpt lat="44.0558537" lon="8.2000865"><ele>7.0</ele><time>2026-04-17T15:44:45.09Z</time></trkpt><trkpt lat="44.0558607" lon="8.1999527"><ele>6.999999999999999</ele><time>2026-04-17T15:44:46.089Z</time></trkpt><trkpt lat="44.0558605" lon="8.1998163"><ele>6.999999999999999</ele><time>2026-04-17T15:44:47.089Z</time></trkpt><trkpt lat="44.0558618" lon="8.1996831"><ele>7.0</ele><time>2026-04-17T15:44:48.09Z</time></trkpt><trkpt lat="44.0558637" lon="8.1995509"><ele>7.0</ele><time>2026-04-17T15:44:49.09Z</time></trkpt><trkpt lat="44.0558673" lon="8.1994244"><ele>7.000000000000001</ele><time>2026-04-17T15:44:50.089Z</time></trkpt><trkpt lat="44.0558817" lon="8.1993221"><ele>7.0</ele><time>2026-04-17T15:44:51.09Z</time></trkpt><trkpt lat="44.0559054" lon="8.1992058"><ele>7.0</ele><time>2026-04-17T15:44:53.089Z</time></trkpt><trkpt lat="44.0559428" lon="8.1991251"><ele>7.0</ele><time>2026-04-17T15:44:56.09Z</time></trkpt><trkpt lat="44.0559595" lon="8.1990176"><ele>7.000000000000001</ele><time>2026-04-17T15:44:58.089Z</time></trkpt><trkpt lat="44.055991" lon="8.1988751"><ele>7.0</ele><time>2026-04-17T15:45:00.089Z</time></trkpt><trkpt lat="44.056006" lon="8.1987899"><ele>6.8</ele><time>2026-04-17T15:45:01.089Z</time></trkpt><trkpt lat="44.0560323" lon="8.1986247"><ele>6.6</ele><time>2026-04-17T15:45:03.089Z</time></trkpt><trkpt lat="44.0560645" lon="8.1985243"><ele>6.3999999999999995</ele><time>2026-04-17T15:45:05.09Z</time></trkpt><trkpt lat="44.0560917" lon="8.1984155"><ele>6.199999999999999</ele><time>2026-04-17T15:45:07.09Z</time></trkpt><trkpt lat="44.0561346" lon="8.1982438"><ele>6.0</ele><time>2026-04-17T15:45:09.089Z</time></trkpt><trkpt lat="44.0561631" lon="8.1981386"><ele>6.4</ele><time>2026-04-17T15:45:10.09Z</time></trkpt><trkpt lat="44.0561886" lon="8.1980236"><ele>6.8</ele><time>2026-04-17T15:45:11.089Z</time></trkpt><trkpt lat="44.0562156" lon="8.1978837"><ele>7.200000000000001</ele><time>2026-04-17T15:45:12.089Z</time></trkpt><trkpt lat="44.0562387" lon="8.1977311"><ele>7.6000000000000005</ele><time>2026-04-17T15:45:13.09Z</time></trkpt><trkpt lat="44.0562576" lon="8.1975761"><ele>8.0</ele><time>2026-04-17T15:45:14.09Z</time></trkpt><trkpt lat="44.056263" lon="8.1974159"><ele>8.4</ele><time>2026-04-17T15:45:15.09Z</time></trkpt><trkpt lat="44.0562588" lon="8.1972639"><ele>8.8</ele><time>2026-04-17T15:45:16.089Z</time></trkpt><trkpt lat="44.0562484" lon="8.1971197"><ele>9.2</ele><time>2026-04-17T15:45:17.09Z</time></trkpt><trkpt lat="44.0562385" lon="8.1969705"><ele>9.6</ele><time>2026-04-17T15:45:18.089Z</time></trkpt><trkpt lat="44.0562195" lon="8.1968314"><ele>10.0</ele><time>2026-04-17T15:45:19.09Z</time></trkpt><trkpt lat="44.0562105" lon="8.1967034"><ele>10.0</ele><time>2026-04-17T15:45:20.09Z</time></trkpt><trkpt lat="44.0562059" lon="8.1965896"><ele>10.0</ele><time>2026-04-17T15:45:21.09Z</time></trkpt><trkpt lat="44.0561975" lon="8.1964818"><ele>10.0</ele><time>2026-04-17T15:45:22.09Z</time></trkpt><trkpt lat="44.056188" lon="8.1963796"><ele>10.0</ele><time>2026-04-17T15:45:23.09Z</time></trkpt><trkpt lat="44.0561769" lon="8.1962835"><ele>10.0</ele><time>2026-04-17T15:45:24.09Z</time></trkpt><trkpt lat="44.0561643" lon="8.1961492"><ele>10.0</ele><time>2026-04-17T15:45:26.089Z</time></trkpt><trkpt lat="44.0561666" lon="8.1960266"><ele>10.2</ele><time>2026-04-17T15:45:29.09Z</time></trkpt><trkpt lat="44.0561645" lon="8.1959075"><ele>10.4</ele><time>2026-04-17T15:45:31.09Z</time></trkpt><trkpt lat="44.0561574" lon="8.1957374"><ele>10.600000000000001</ele><time>2026-04-17T15:45:33.09Z</time></trkpt><trkpt lat="44.0561537" lon="8.1955931"><ele>10.8</ele><time>2026-04-17T15:45:35.09Z</time></trkpt><trkpt lat="44.0561521" lon="8.1954981"><ele>11.0</ele><time>2026-04-17T15:45:37.09Z</time></trkpt><trkpt lat="44.0561559" lon="8.1954014"><ele>10.600000000000001</ele><time>2026-04-17T15:45:40.09Z</time></trkpt><trkpt lat="44.0561524" lon="8.1952799"><ele>10.200000000000001</ele><time>2026-04-17T15:45:42.09Z</time></trkpt><trkpt lat="44.0561451" lon="8.1951104"><ele>9.8</ele><time>2026-04-17T15:45:44.09Z</time></trkpt><trkpt lat="44.056133" lon="8.1949393"><ele>9.4</ele><time>2026-04-17T15:45:46.089Z</time></trkpt><trkpt lat="44.0561283" lon="8.194835"><ele>9.0</ele><time>2026-04-17T15:45:47.089Z</time></trkpt><trkpt lat="44.056125" lon="8.1947333"><ele>8.833333333333334</ele><time>2026-04-17T15:45:48.089Z</time></trkpt><trkpt lat="44.056115" lon="8.1946283"><ele>8.666666666666666</ele><time>2026-04-17T15:45:49.089Z</time></trkpt><trkpt lat="44.056105" lon="8.1945217"><ele>8.5</ele><time>2026-04-17T15:45:50.09Z</time></trkpt><trkpt lat="44.0561017" lon="8.1944183"><ele>8.333333333333332</ele><time>2026-04-17T15:45:51.089Z</time></trkpt><trkpt lat="44.0560967" lon="8.1943067"><ele>8.166666666666666</ele><time>2026-04-17T15:45:52.089Z</time></trkpt><trkpt lat="44.056085" lon="8.19416"><ele>8.0</ele><time>2026-04-17T15:45:53.089Z</time></trkpt><trkpt lat="44.0560733" lon="8.1939867"><ele>9.0</ele><time>2026-04-17T15:45:54.09Z</time></trkpt><trkpt lat="44.05606" lon="8.1937533"><ele>10.0</ele><time>2026-04-17T15:45:55.09Z</time></trkpt><trkpt lat="44.0560617" lon="8.1935267"><ele>11.0</ele><time>2026-04-17T15:45:56.089Z</time></trkpt><trkpt lat="44.0560633" lon="8.1933117"><ele>11.0</ele><time>2026-04-17T15:45:57.089Z</time></trkpt><trkpt lat="44.05606" lon="8.19309"><ele>11.0</ele><time>2026-04-17T15:45:58.09Z</time></trkpt><trkpt lat="44.0560517" lon="8.1928317"><ele>11.0</ele><time>2026-04-17T15:45:59.089Z</time></trkpt><trkpt lat="44.0560367" lon="8.1925483"><ele>10.666666666666666</ele><time>2026-04-17T15:46:00.09Z</time></trkpt><trkpt lat="44.0560233" lon="8.1922617"><ele>10.333333333333334</ele><time>2026-04-17T15:46:01.09Z</time></trkpt><trkpt lat="44.0560083" lon="8.191955"><ele>10.0</ele><time>2026-04-17T15:46:02.089Z</time></trkpt><trkpt lat="44.056" lon="8.191655"><ele>10.0</ele><time>2026-04-17T15:46:03.089Z</time></trkpt><trkpt lat="44.0559783" lon="8.1913767"><ele>10.0</ele><time>2026-04-17T15:46:04.089Z</time></trkpt><trkpt lat="44.05596" lon="8.1911017"><ele>10.0</ele><time>2026-04-17T15:46:05.09Z</time></trkpt><trkpt lat="44.0559467" lon="8.1908583"><ele>9.666666666666668</ele><time>2026-04-17T15:46:06.09Z</time></trkpt><trkpt lat="44.0559333" lon="8.1906217"><ele>9.333333333333334</ele><time>2026-04-17T15:46:07.09Z</time></trkpt><trkpt lat="44.0559083" lon="8.1903817"><ele>9.0</ele><time>2026-04-17T15:46:08.09Z</time></trkpt><trkpt lat="44.0559033" lon="8.190145"><ele>9.0</ele><time>2026-04-17T15:46:09.089Z</time></trkpt><trkpt lat="44.0558933" lon="8.1899167"><ele>9.0</ele><time>2026-04-17T15:46:10.09Z</time></trkpt><trkpt lat="44.055885" lon="8.1897083"><ele>9.0</ele><time>2026-04-17T15:46:11.089Z</time></trkpt><trkpt lat="44.0558717" lon="8.1895017"><ele>9.0</ele><time>2026-04-17T15:46:12.09Z</time></trkpt><trkpt lat="44.0558617" lon="8.1893067"><ele>9.0</ele><time>2026-04-17T15:46:13.09Z</time></trkpt><trkpt lat="44.0558517" lon="8.18913"><ele>9.0</ele><time>2026-04-17T15:46:14.089Z</time></trkpt><trkpt lat="44.055835" lon="8.188985"><ele>9.0</ele><time>2026-04-17T15:46:15.09Z</time></trkpt><trkpt lat="44.05582" lon="8.1888517"><ele>9.166666666666666</ele><time>2026-04-17T15:46:16.09Z</time></trkpt><trkpt lat="44.05578" lon="8.188725"><ele>9.333333333333334</ele><time>2026-04-17T15:46:17.09Z</time></trkpt><trkpt lat="44.055755" lon="8.1885917"><ele>9.5</ele><time>2026-04-17T15:46:18.09Z</time></trkpt><trkpt lat="44.0557183" lon="8.1884817"><ele>9.666666666666668</ele><time>2026-04-17T15:46:19.09Z</time></trkpt><trkpt lat="44.0556833" lon="8.18838"><ele>9.833333333333334</ele><time>2026-04-17T15:46:20.089Z</time></trkpt><trkpt lat="44.0556517" lon="8.1882933"><ele>10.0</ele><time>2026-04-17T15:46:21.09Z</time></trkpt><trkpt lat="44.0556233" lon="8.188215"><ele>10.0</ele><time>2026-04-17T15:46:22.09Z</time></trkpt><trkpt lat="44.0555783" lon="8.1881117"><ele>10.0</ele><time>2026-04-17T15:46:24.089Z</time></trkpt><trkpt lat="44.055535" lon="8.188025"><ele>10.0</ele><time>2026-04-17T15:46:26.09Z</time></trkpt><trkpt lat="44.0554983" lon="8.1879383"><ele>10.0</ele><time>2026-04-17T15:46:28.089Z</time></trkpt><trkpt lat="44.0554617" lon="8.1878367"><ele>10.0</ele><time>2026-04-17T15:46:33.089Z</time></trkpt><trkpt lat="44.05546" lon="8.187695"><ele>10.0</ele><time>2026-04-17T15:46:36.089Z</time></trkpt><trkpt lat="44.05547" lon="8.1875083"><ele>10.0</ele><time>2026-04-17T15:46:38.09Z</time></trkpt><trkpt lat="44.05547" lon="8.1873983"><ele>10.0</ele><time>2026-04-17T15:46:39.09Z</time></trkpt><trkpt lat="44.0554683" lon="8.18729"><ele>10.0</ele><time>2026-04-17T15:46:40.09Z</time></trkpt><trkpt lat="44.055465" lon="8.1871767"><ele>10.0</ele><time>2026-04-17T15:46:41.089Z</time></trkpt><trkpt lat="44.05548" lon="8.18705"><ele>10.0</ele><time>2026-04-17T15:46:42.09Z</time></trkpt><trkpt lat="44.0555117" lon="8.1869233"><ele>10.0</ele><time>2026-04-17T15:46:43.089Z</time></trkpt><trkpt lat="44.05556" lon="8.1868"><ele>9.75</ele><time>2026-04-17T15:46:44.089Z</time></trkpt><trkpt lat="44.0556183" lon="8.1866717"><ele>9.5</ele><time>2026-04-17T15:46:45.089Z</time></trkpt><trkpt lat="44.0556817" lon="8.18655"><ele>9.25</ele><time>2026-04-17T15:46:46.09Z</time></trkpt><trkpt lat="44.055755" lon="8.186435"><ele>9.0</ele><time>2026-04-17T15:46:47.089Z</time></trkpt><trkpt lat="44.05584" lon="8.18631"><ele>9.5</ele><time>2026-04-17T15:46:48.089Z</time></trkpt><trkpt lat="44.0559267" lon="8.1861767"><ele>10.0</ele><time>2026-04-17T15:46:49.089Z</time></trkpt><trkpt lat="44.05601" lon="8.186045"><ele>10.5</ele><time>2026-04-17T15:46:50.089Z</time></trkpt><trkpt lat="44.056095" lon="8.18591"><ele>11.0</ele><time>2026-04-17T15:46:51.09Z</time></trkpt><trkpt lat="44.0561883" lon="8.1857683"><ele>10.333333333333332</ele><time>2026-04-17T15:46:52.089Z</time></trkpt><trkpt lat="44.0562833" lon="8.1856117"><ele>9.666666666666666</ele><time>2026-04-17T15:46:53.09Z</time></trkpt><trkpt lat="44.0563883" lon="8.1854533"><ele>9.0</ele><time>2026-04-17T15:46:54.089Z</time></trkpt><trkpt lat="44.0564867" lon="8.1852867"><ele>9.0</ele><time>2026-04-17T15:46:55.09Z</time></trkpt><trkpt lat="44.056585" lon="8.185125"><ele>9.0</ele><time>2026-04-17T15:46:56.09Z</time></trkpt><trkpt lat="44.056685" lon="8.1849617"><ele>9.0</ele><time>2026-04-17T15:46:57.089Z</time></trkpt><trkpt lat="44.0567767" lon="8.1848133"><ele>9.0</ele><time>2026-04-17T15:46:58.09Z</time></trkpt><trkpt lat="44.0568867" lon="8.1846567"><ele>8.666666666666666</ele><time>2026-04-17T15:46:59.09Z</time></trkpt><trkpt lat="44.05699" lon="8.1844867"><ele>8.333333333333332</ele><time>2026-04-17T15:47:00.09Z</time></trkpt><trkpt lat="44.0570967" lon="8.1843183"><ele>8.0</ele><time>2026-04-17T15:47:01.09Z</time></trkpt><trkpt lat="44.0571983" lon="8.1841483"><ele>8.666666666666666</ele><time>2026-04-17T15:47:02.089Z</time></trkpt><trkpt lat="44.0573133" lon="8.1839867"><ele>9.333333333333334</ele><time>2026-04-17T15:47:03.09Z</time></trkpt><trkpt lat="44.0574317" lon="8.183795"><ele>10.0</ele><time>2026-04-17T15:47:04.089Z</time></trkpt><trkpt lat="44.0575467" lon="8.1836183"><ele>10.0</ele><time>2026-04-17T15:47:05.089Z</time></trkpt><trkpt lat="44.0576533" lon="8.18344"><ele>10.0</ele><time>2026-04-17T15:47:06.09Z</time></trkpt><trkpt lat="44.05776" lon="8.183265"><ele>10.0</ele><time>2026-04-17T15:47:07.089Z</time></trkpt><trkpt lat="44.0578567" lon="8.1831217"><ele>10.0</ele><time>2026-04-17T15:47:08.09Z</time></trkpt><trkpt lat="44.05795" lon="8.1829867"><ele>10.0</ele><time>2026-04-17T15:47:09.089Z</time></trkpt><trkpt lat="44.0580517" lon="8.182845"><ele>10.0</ele><time>2026-04-17T15:47:10.09Z</time></trkpt><trkpt lat="44.0581583" lon="8.1827083"><ele>10.0</ele><time>2026-04-17T15:47:11.09Z</time></trkpt><trkpt lat="44.058265" lon="8.1825683"><ele>10.25</ele><time>2026-04-17T15:47:12.089Z</time></trkpt><trkpt lat="44.0583683" lon="8.1824283"><ele>10.5</ele><time>2026-04-17T15:47:13.09Z</time></trkpt><trkpt lat="44.0584683" lon="8.18229"><ele>10.75</ele><time>2026-04-17T15:47:14.089Z</time></trkpt><trkpt lat="44.0585733" lon="8.1821667"><ele>11.0</ele><time>2026-04-17T15:47:15.089Z</time></trkpt><trkpt lat="44.05867" lon="8.1820567"><ele>10.5</ele><time>2026-04-17T15:47:16.089Z</time></trkpt><trkpt lat="44.0587633" lon="8.1819583"><ele>10.0</ele><time>2026-04-17T15:47:17.09Z</time></trkpt><trkpt lat="44.0588483" lon="8.1818667"><ele>9.5</ele><time>2026-04-17T15:47:18.089Z</time></trkpt><trkpt lat="44.0589433" lon="8.181765"><ele>9.0</ele><time>2026-04-17T15:47:19.09Z</time></trkpt><trkpt lat="44.0590367" lon="8.1816733"><ele>9.5</ele><time>2026-04-17T15:47:20.09Z</time></trkpt><trkpt lat="44.0591267" lon="8.1815683"><ele>10.0</ele><time>2026-04-17T15:47:21.089Z</time></trkpt><trkpt lat="44.0592233" lon="8.1814683"><ele>10.5</ele><time>2026-04-17T15:47:22.089Z</time></trkpt><trkpt lat="44.05931" lon="8.1813717"><ele>11.0</ele><time>2026-04-17T15:47:23.089Z</time></trkpt><trkpt lat="44.0593933" lon="8.1812683"><ele>11.0</ele><time>2026-04-17T15:47:24.089Z</time></trkpt><trkpt lat="44.0594633" lon="8.1811767"><ele>11.0</ele><time>2026-04-17T15:47:25.09Z</time></trkpt><trkpt lat="44.0595233" lon="8.1811167"><ele>11.0</ele><time>2026-04-17T15:47:26.089Z</time></trkpt><trkpt lat="44.0596367" lon="8.1810467"><ele>11.0</ele><time>2026-04-17T15:47:28.089Z</time></trkpt><trkpt lat="44.0597017" lon="8.1810367"><ele>11.0</ele><time>2026-04-17T15:47:29.09Z</time></trkpt><trkpt lat="44.05981" lon="8.181015"><ele>11.0</ele><time>2026-04-17T15:47:31.09Z</time></trkpt><trkpt lat="44.0598617" lon="8.1809133"><ele>11.0</ele><time>2026-04-17T15:47:33.089Z</time></trkpt><trkpt lat="44.0598367" lon="8.1807567"><ele>11.0</ele><time>2026-04-17T15:47:35.089Z</time></trkpt><trkpt lat="44.0597933" lon="8.18068"><ele>11.0</ele><time>2026-04-17T15:47:36.09Z</time></trkpt><trkpt lat="44.0597083" lon="8.180605"><ele>11.0</ele><time>2026-04-17T15:47:37.09Z</time></trkpt><trkpt lat="44.0596333" lon="8.180525"><ele>11.0</ele><time>2026-04-17T15:47:38.09Z</time></trkpt><trkpt lat="44.0595683" lon="8.1804367"><ele>11.0</ele><time>2026-04-17T15:47:39.089Z</time></trkpt><trkpt lat="44.0595083" lon="8.1803483"><ele>11.0</ele><time>2026-04-17T15:47:40.089Z</time></trkpt><trkpt lat="44.05945" lon="8.1802567"><ele>11.0</ele><time>2026-04-17T15:47:41.089Z</time></trkpt><trkpt lat="44.0593917" lon="8.1801683"><ele>11.0</ele><time>2026-04-17T15:47:42.089Z</time></trkpt><trkpt lat="44.0593233" lon="8.180075"><ele>11.0</ele><time>2026-04-17T15:47:43.09Z</time></trkpt><trkpt lat="44.0592517" lon="8.1799733"><ele>11.0</ele><time>2026-04-17T15:47:44.089Z</time></trkpt><trkpt lat="44.0591767" lon="8.1798667"><ele>11.0</ele><time>2026-04-17T15:47:45.09Z</time></trkpt><trkpt lat="44.0591" lon="8.1797533"><ele>11.0</ele><time>2026-04-17T15:47:46.089Z</time></trkpt><trkpt lat="44.0590133" lon="8.1796433"><ele>11.0</ele><time>2026-04-17T15:47:47.089Z</time></trkpt><trkpt lat="44.05894" lon="8.17953"><ele>11.0</ele><time>2026-04-17T15:47:48.09Z</time></trkpt><trkpt lat="44.05887" lon="8.1794167"><ele>11.0</ele><time>2026-04-17T15:47:49.089Z</time></trkpt><trkpt lat="44.0587967" lon="8.1793133"><ele>11.0</ele><time>2026-04-17T15:47:50.089Z</time></trkpt><trkpt lat="44.058725" lon="8.1792133"><ele>11.0</ele><time>2026-04-17T15:47:51.09Z</time></trkpt><trkpt lat="44.058655" lon="8.1791"><ele>11.0</ele><time>2026-04-17T15:47:52.088Z</time></trkpt><trkpt lat="44.05858" lon="8.1789783"><ele>11.0</ele><time>2026-04-17T15:47:53.088Z</time></trkpt><trkpt lat="44.0585017" lon="8.17885"><ele>11.25</ele><time>2026-04-17T15:47:54.089Z</time></trkpt><trkpt lat="44.0584233" lon="8.17872"><ele>11.5</ele><time>2026-04-17T15:47:55.089Z</time></trkpt><trkpt lat="44.058345" lon="8.1785933"><ele>11.75</ele><time>2026-04-17T15:47:56.089Z</time></trkpt><trkpt lat="44.0582633" lon="8.1784617"><ele>12.0</ele><time>2026-04-17T15:47:57.088Z</time></trkpt><trkpt lat="44.0582" lon="8.1783433"><ele>12.0</ele><time>2026-04-17T15:47:58.089Z</time></trkpt><trkpt lat="44.0581467" lon="8.1782217"><ele>12.0</ele><time>2026-04-17T15:47:59.089Z</time></trkpt><trkpt lat="44.0581033" lon="8.1780917"><ele>12.0</ele><time>2026-04-17T15:48:00.088Z</time></trkpt><trkpt lat="44.0580567" lon="8.17796"><ele>12.0</ele><time>2026-04-17T15:48:01.089Z</time></trkpt><trkpt lat="44.0580083" lon="8.1778283"><ele>12.0</ele><time>2026-04-17T15:48:02.089Z</time></trkpt><trkpt lat="44.05797" lon="8.1776867"><ele>12.0</ele><time>2026-04-17T15:48:03.089Z</time></trkpt><trkpt lat="44.057935" lon="8.1775483"><ele>12.0</ele><time>2026-04-17T15:48:04.088Z</time></trkpt><trkpt lat="44.0578967" lon="8.177415"><ele>12.0</ele><time>2026-04-17T15:48:05.088Z</time></trkpt><trkpt lat="44.0578533" lon="8.1772783"><ele>12.0</ele><time>2026-04-17T15:48:06.089Z</time></trkpt><trkpt lat="44.0578233" lon="8.1771267"><ele>12.0</ele><time>2026-04-17T15:48:07.088Z</time></trkpt><trkpt lat="44.0577883" lon="8.1769883"><ele>12.0</ele><time>2026-04-17T15:48:08.089Z</time></trkpt><trkpt lat="44.0577517" lon="8.17685"><ele>12.0</ele><time>2026-04-17T15:48:09.088Z</time></trkpt><trkpt lat="44.05771" lon="8.1767117"><ele>12.0</ele><time>2026-04-17T15:48:10.089Z</time></trkpt><trkpt lat="44.0576667" lon="8.1765533"><ele>12.0</ele><time>2026-04-17T15:48:11.089Z</time></trkpt><trkpt lat="44.0576033" lon="8.176375"><ele>12.0</ele><time>2026-04-17T15:48:12.089Z</time></trkpt><trkpt lat="44.0575583" lon="8.1762117"><ele>12.0</ele><time>2026-04-17T15:48:13.089Z</time></trkpt><trkpt lat="44.0575167" lon="8.1760533"><ele>12.0</ele><time>2026-04-17T15:48:14.089Z</time></trkpt><trkpt lat="44.0574717" lon="8.1759033"><ele>12.0</ele><time>2026-04-17T15:48:15.089Z</time></trkpt><trkpt lat="44.0574283" lon="8.1757467"><ele>12.399999999999999</ele><time>2026-04-17T15:48:16.088Z</time></trkpt><trkpt lat="44.0573883" lon="8.175595"><ele>12.799999999999999</ele><time>2026-04-17T15:48:17.089Z</time></trkpt><trkpt lat="44.0573533" lon="8.1754567"><ele>13.2</ele><time>2026-04-17T15:48:18.089Z</time></trkpt><trkpt lat="44.0573117" lon="8.17533"><ele>13.6</ele><time>2026-04-17T15:48:19.088Z</time></trkpt><trkpt lat="44.0572667" lon="8.1751933"><ele>14.0</ele><time>2026-04-17T15:48:20.089Z</time></trkpt><trkpt lat="44.057245" lon="8.1750567"><ele>14.0</ele><time>2026-04-17T15:48:21.088Z</time></trkpt><trkpt lat="44.0571933" lon="8.1749133"><ele>14.0</ele><time>2026-04-17T15:48:22.089Z</time></trkpt><trkpt lat="44.0571467" lon="8.1747533"><ele>14.0</ele><time>2026-04-17T15:48:23.088Z</time></trkpt><trkpt lat="44.0571033" lon="8.1745867"><ele>14.0</ele><time>2026-04-17T15:48:24.089Z</time></trkpt><trkpt lat="44.0570617" lon="8.17442"><ele>14.2</ele><time>2026-04-17T15:48:25.088Z</time></trkpt><trkpt lat="44.0570167" lon="8.1742683"><ele>14.399999999999999</ele><time>2026-04-17T15:48:26.089Z</time></trkpt><trkpt lat="44.05699" lon="8.17412"><ele>14.6</ele><time>2026-04-17T15:48:27.089Z</time></trkpt><trkpt lat="44.0569533" lon="8.1739883"><ele>14.8</ele><time>2026-04-17T15:48:28.089Z</time></trkpt><trkpt lat="44.0569267" lon="8.1738533"><ele>15.0</ele><time>2026-04-17T15:48:29.089Z</time></trkpt><trkpt lat="44.0568933" lon="8.1737133"><ele>15.6</ele><time>2026-04-17T15:48:30.089Z</time></trkpt><trkpt lat="44.0568567" lon="8.1735733"><ele>16.2</ele><time>2026-04-17T15:48:31.088Z</time></trkpt><trkpt lat="44.0568183" lon="8.173435"><ele>16.8</ele><time>2026-04-17T15:48:32.089Z</time></trkpt><trkpt lat="44.0568" lon="8.1733117"><ele>17.4</ele><time>2026-04-17T15:48:33.088Z</time></trkpt><trkpt lat="44.0567917" lon="8.1732117"><ele>18.0</ele><time>2026-04-17T15:48:34.089Z</time></trkpt><trkpt lat="44.0567917" lon="8.17311"><ele>18.6</ele><time>2026-04-17T15:48:35.088Z</time></trkpt><trkpt lat="44.0568133" lon="8.172975"><ele>19.200000000000003</ele><time>2026-04-17T15:48:36.089Z</time></trkpt><trkpt lat="44.0568567" lon="8.1728383"><ele>19.8</ele><time>2026-04-17T15:48:37.089Z</time></trkpt><trkpt lat="44.0569067" lon="8.172705"><ele>20.400000000000002</ele><time>2026-04-17T15:48:38.088Z</time></trkpt><trkpt lat="44.0569733" lon="8.17257"><ele>21.0</ele><time>2026-04-17T15:48:39.089Z</time></trkpt><trkpt lat="44.05705" lon="8.1724517"><ele>21.0</ele><time>2026-04-17T15:48:40.089Z</time></trkpt><trkpt lat="44.057125" lon="8.1723483"><ele>21.0</ele><time>2026-04-17T15:48:41.089Z</time></trkpt><trkpt lat="44.057185" lon="8.172255"><ele>21.0</ele><time>2026-04-17T15:48:42.088Z</time></trkpt><trkpt lat="44.0572283" lon="8.1721883"><ele>21.0</ele><time>2026-04-17T15:48:43.088Z</time></trkpt><trkpt lat="44.0572767" lon="8.1720983"><ele>21.0</ele><time>2026-04-17T15:48:46.088Z</time></trkpt><trkpt lat="44.05727" lon="8.1720033"><ele>21.0</ele><time>2026-04-17T15:48:49.088Z</time></trkpt><trkpt lat="44.057215" lon="8.1720467"><ele>21.0</ele><time>2026-04-17T16:03:08.086Z</time></trkpt><trkpt lat="44.0571783" lon="8.1721333"><ele>21.0</ele><time>2026-04-17T16:03:11.086Z</time></trkpt><trkpt lat="44.057145" lon="8.17221"><ele>21.0</ele><time>2026-04-17T16:03:12.087Z</time></trkpt><trkpt lat="44.0570917" lon="8.1723183"><ele>21.0</ele><time>2026-04-17T16:03:13.087Z</time></trkpt><trkpt lat="44.0570267" lon="8.17244"><ele>21.0</ele><time>2026-04-17T16:03:14.086Z</time></trkpt><trkpt lat="44.0569533" lon="8.1725683"><ele>21.0</ele><time>2026-04-17T16:03:15.087Z</time></trkpt><trkpt lat="44.05689" lon="8.1726983"><ele>21.0</ele><time>2026-04-17T16:03:16.086Z</time></trkpt><trkpt lat="44.0568567" lon="8.1728217"><ele>21.0</ele><time>2026-04-17T16:03:17.087Z</time></trkpt><trkpt lat="44.056815" lon="8.1729433"><ele>21.0</ele><time>2026-04-17T16:03:18.086Z</time></trkpt><trkpt lat="44.05679" lon="8.17305"><ele>21.0</ele><time>2026-04-17T16:03:19.087Z</time></trkpt><trkpt lat="44.0567633" lon="8.1731533"><ele>21.0</ele><time>2026-04-17T16:03:21.086Z</time></trkpt><trkpt lat="44.056705" lon="8.1730367"><ele>21.0</ele><time>2026-04-17T16:03:25.086Z</time></trkpt><trkpt lat="44.0566817" lon="8.1729267"><ele>21.0</ele><time>2026-04-17T16:03:26.087Z</time></trkpt><trkpt lat="44.0566467" lon="8.1727833"><ele>21.0</ele><time>2026-04-17T16:03:27.087Z</time></trkpt><trkpt lat="44.0566217" lon="8.1726367"><ele>21.0</ele><time>2026-04-17T16:03:28.087Z</time></trkpt><trkpt lat="44.0565917" lon="8.172465"><ele>19.25</ele><time>2026-04-17T16:03:29.087Z</time></trkpt><trkpt lat="44.05657" lon="8.1722967"><ele>17.5</ele><time>2026-04-17T16:03:30.086Z</time></trkpt><trkpt lat="44.0565583" lon="8.1721383"><ele>15.75</ele><time>2026-04-17T16:03:31.087Z</time></trkpt><trkpt lat="44.0565633" lon="8.17198"><ele>14.0</ele><time>2026-04-17T16:03:32.087Z</time></trkpt><trkpt lat="44.0565617" lon="8.1717967"><ele>14.0</ele><time>2026-04-17T16:03:33.087Z</time></trkpt><trkpt lat="44.056565" lon="8.17161"><ele>14.0</ele><time>2026-04-17T16:03:34.086Z</time></trkpt><trkpt lat="44.0565717" lon="8.17143"><ele>14.0</ele><time>2026-04-17T16:03:35.086Z</time></trkpt><trkpt lat="44.0565733" lon="8.1712617"><ele>14.0</ele><time>2026-04-17T16:03:36.086Z</time></trkpt><trkpt lat="44.05657" lon="8.171125"><ele>13.799999999999999</ele><time>2026-04-17T16:03:37.087Z</time></trkpt><trkpt lat="44.05657" lon="8.171005"><ele>13.599999999999998</ele><time>2026-04-17T16:03:38.086Z</time></trkpt><trkpt lat="44.05658" lon="8.1709117"><ele>13.4</ele><time>2026-04-17T16:03:39.087Z</time></trkpt><trkpt lat="44.056585" lon="8.170775"><ele>13.2</ele><time>2026-04-17T16:03:41.086Z</time></trkpt><trkpt lat="44.0565233" lon="8.170725"><ele>13.0</ele><time>2026-04-17T16:03:43.086Z</time></trkpt><trkpt lat="44.0563933" lon="8.170725"><ele>12.999999999999998</ele><time>2026-04-17T16:03:45.086Z</time></trkpt><trkpt lat="44.0563017" lon="8.17072"><ele>13.0</ele><time>2026-04-17T16:03:46.086Z</time></trkpt><trkpt lat="44.0562117" lon="8.1707017"><ele>13.0</ele><time>2026-04-17T16:03:47.086Z</time></trkpt><trkpt lat="44.0561567" lon="8.1706417"><ele>13.0</ele><time>2026-04-17T16:03:48.087Z</time></trkpt><trkpt lat="44.056105" lon="8.1705467"><ele>12.999999999999998</ele><time>2026-04-17T16:03:49.086Z</time></trkpt><trkpt lat="44.056065" lon="8.1704133"><ele>13.0</ele><time>2026-04-17T16:03:50.087Z</time></trkpt><trkpt lat="44.0560083" lon="8.17025"><ele>13.0</ele><time>2026-04-17T16:03:51.087Z</time></trkpt><trkpt lat="44.055935" lon="8.1700767"><ele>13.0</ele><time>2026-04-17T16:03:52.087Z</time></trkpt><trkpt lat="44.05588" lon="8.1699083"><ele>13.0</ele><time>2026-04-17T16:03:53.086Z</time></trkpt><trkpt lat="44.0558067" lon="8.1697417"><ele>13.0</ele><time>2026-04-17T16:03:54.087Z</time></trkpt><trkpt lat="44.0557333" lon="8.16955"><ele>13.0</ele><time>2026-04-17T16:03:55.086Z</time></trkpt><trkpt lat="44.055655" lon="8.1693817"><ele>13.0</ele><time>2026-04-17T16:03:56.087Z</time></trkpt><trkpt lat="44.0555717" lon="8.16925"><ele>13.0</ele><time>2026-04-17T16:03:57.086Z</time></trkpt><trkpt lat="44.0554917" lon="8.1691167"><ele>13.0</ele><time>2026-04-17T16:03:58.087Z</time></trkpt><trkpt lat="44.0554233" lon="8.1689917"><ele>13.2</ele><time>2026-04-17T16:03:59.086Z</time></trkpt><trkpt lat="44.0553467" lon="8.168895"><ele>13.4</ele><time>2026-04-17T16:04:00.087Z</time></trkpt><trkpt lat="44.0552683" lon="8.168825"><ele>13.599999999999998</ele><time>2026-04-17T16:04:01.086Z</time></trkpt><trkpt lat="44.055175" lon="8.16877"><ele>13.799999999999999</ele><time>2026-04-17T16:04:02.086Z</time></trkpt><trkpt lat="44.055055" lon="8.1687267"><ele>14.0</ele><time>2026-04-17T16:04:03.087Z</time></trkpt><trkpt lat="44.05495" lon="8.1687017"><ele>14.25</ele><time>2026-04-17T16:04:04.086Z</time></trkpt><trkpt lat="44.05482" lon="8.1687117"><ele>14.5</ele><time>2026-04-17T16:04:05.085Z</time></trkpt><trkpt lat="44.0546767" lon="8.1687417"><ele>14.75</ele><time>2026-04-17T16:04:06.085Z</time></trkpt><trkpt lat="44.0545467" lon="8.1687567"><ele>15.0</ele><time>2026-04-17T16:04:07.085Z</time></trkpt><trkpt lat="44.054425" lon="8.1687583"><ele>15.0</ele><time>2026-04-17T16:04:08.086Z</time></trkpt><trkpt lat="44.0543167" lon="8.1687567"><ele>15.0</ele><time>2026-04-17T16:04:09.085Z</time></trkpt><trkpt lat="44.0542083" lon="8.1687567"><ele>15.0</ele><time>2026-04-17T16:04:10.086Z</time></trkpt><trkpt lat="44.054105" lon="8.1687433"><ele>15.0</ele><time>2026-04-17T16:04:11.086Z</time></trkpt><trkpt lat="44.054025" lon="8.1687083"><ele>15.0</ele><time>2026-04-17T16:04:12.086Z</time></trkpt><trkpt lat="44.05396" lon="8.1686667"><ele>14.666666666666666</ele><time>2026-04-17T16:04:13.085Z</time></trkpt><trkpt lat="44.0539133" lon="8.1685967"><ele>14.333333333333332</ele><time>2026-04-17T16:04:14.085Z</time></trkpt><trkpt lat="44.053895" lon="8.1685033"><ele>14.0</ele><time>2026-04-17T16:04:15.085Z</time></trkpt><trkpt lat="44.0538867" lon="8.16841"><ele>13.666666666666666</ele><time>2026-04-17T16:04:16.085Z</time></trkpt><trkpt lat="44.0538583" lon="8.1682117"><ele>13.333333333333332</ele><time>2026-04-17T16:04:18.085Z</time></trkpt><trkpt lat="44.05385" lon="8.168105"><ele>13.0</ele><time>2026-04-17T16:04:19.085Z</time></trkpt><trkpt lat="44.0538267" lon="8.1679767"><ele>13.0</ele><time>2026-04-17T16:04:20.085Z</time></trkpt><trkpt lat="44.0538083" lon="8.16784"><ele>13.0</ele><time>2026-04-17T16:04:21.086Z</time></trkpt><trkpt lat="44.053795" lon="8.167705"><ele>13.0</ele><time>2026-04-17T16:04:22.086Z</time></trkpt><trkpt lat="44.0537767" lon="8.1675817"><ele>13.0</ele><time>2026-04-17T16:04:23.085Z</time></trkpt><trkpt lat="44.0537567" lon="8.167455"><ele>13.0</ele><time>2026-04-17T16:04:24.085Z</time></trkpt><trkpt lat="44.0537433" lon="8.1673217"><ele>13.5</ele><time>2026-04-17T16:04:25.086Z</time></trkpt><trkpt lat="44.0537267" lon="8.1671917"><ele>14.0</ele><time>2026-04-17T16:04:26.085Z</time></trkpt><trkpt lat="44.0537017" lon="8.1670583"><ele>14.5</ele><time>2026-04-17T16:04:27.086Z</time></trkpt><trkpt lat="44.0536667" lon="8.1668967"><ele>15.0</ele><time>2026-04-17T16:04:28.086Z</time></trkpt><trkpt lat="44.0536167" lon="8.1667067"><ele>15.0</ele><time>2026-04-17T16:04:29.086Z</time></trkpt><trkpt lat="44.0535667" lon="8.16655"><ele>15.0</ele><time>2026-04-17T16:04:30.085Z</time></trkpt><trkpt lat="44.0535367" lon="8.1664483"><ele>15.0</ele><time>2026-04-17T16:04:31.086Z</time></trkpt><trkpt lat="44.0535267" lon="8.166355"><ele>15.0</ele><time>2026-04-17T16:04:33.086Z</time></trkpt><trkpt lat="44.05353" lon="8.16649"><ele>15.0</ele><time>2026-04-17T16:04:41.085Z</time></trkpt><trkpt lat="44.0534617" lon="8.166535"><ele>15.0</ele><time>2026-04-17T16:04:48.086Z</time></trkpt><trkpt lat="44.0534083" lon="8.1664333"><ele>15.333333333333334</ele><time>2026-04-17T16:04:51.086Z</time></trkpt><trkpt lat="44.0533683" lon="8.166295"><ele>15.666666666666668</ele><time>2026-04-17T16:04:53.086Z</time></trkpt><trkpt lat="44.0533317" lon="8.166205"><ele>16.0</ele><time>2026-04-17T16:04:54.085Z</time></trkpt><trkpt lat="44.0532783" lon="8.1661317"><ele>16.333333333333336</ele><time>2026-04-17T16:04:55.085Z</time></trkpt><trkpt lat="44.0532217" lon="8.1660767"><ele>16.666666666666668</ele><time>2026-04-17T16:04:56.086Z</time></trkpt><trkpt lat="44.05315" lon="8.1660367"><ele>17.0</ele><time>2026-04-17T16:04:58.086Z</time></trkpt><trkpt lat="44.0530833" lon="8.165995"><ele>16.428571428571427</ele><time>2026-04-17T16:06:19.086Z</time></trkpt><trkpt lat="44.0530183" lon="8.16601"><ele>15.857142857142858</ele><time>2026-04-17T16:06:22.086Z</time></trkpt><trkpt lat="44.0529333" lon="8.1659883"><ele>15.285714285714285</ele><time>2026-04-17T16:06:25.085Z</time></trkpt><trkpt lat="44.0528583" lon="8.1659533"><ele>14.714285714285714</ele><time>2026-04-17T16:06:27.085Z</time></trkpt><trkpt lat="44.0527867" lon="8.165995"><ele>14.142857142857142</ele><time>2026-04-17T16:06:30.086Z</time></trkpt><trkpt lat="44.0527983" lon="8.1660917"><ele>13.571428571428571</ele><time>2026-04-17T16:06:33.086Z</time></trkpt><trkpt lat="44.0528067" lon="8.1661867"><ele>13.0</ele><time>2026-04-17T16:06:35.086Z</time></trkpt><trkpt lat="44.0527983" lon="8.16628"><ele>13.0</ele><time>2026-04-17T16:06:37.086Z</time></trkpt><trkpt lat="44.0527417" lon="8.166335"><ele>13.0</ele><time>2026-04-17T16:06:40.085Z</time></trkpt><trkpt lat="44.052655" lon="8.16641"><ele>13.0</ele><time>2026-04-17T16:06:42.085Z</time></trkpt><trkpt lat="44.0525517" lon="8.1664667"><ele>13.0</ele><time>2026-04-17T16:06:44.085Z</time></trkpt><trkpt lat="44.05253" lon="8.1665883"><ele>13.0</ele><time>2026-04-17T16:06:47.086Z</time></trkpt><trkpt lat="44.052535" lon="8.1667083"><ele>12.833333333333332</ele><time>2026-04-17T16:06:49.085Z</time></trkpt><trkpt lat="44.052535" lon="8.1668567"><ele>12.666666666666666</ele><time>2026-04-17T16:06:51.086Z</time></trkpt><trkpt lat="44.0525233" lon="8.1669967"><ele>12.5</ele><time>2026-04-17T16:06:53.086Z</time></trkpt><trkpt lat="44.0525017" lon="8.16712"><ele>12.333333333333332</ele><time>2026-04-17T16:06:55.086Z</time></trkpt><trkpt lat="44.0524817" lon="8.1672183"><ele>12.166666666666666</ele><time>2026-04-17T16:06:57.085Z</time></trkpt><trkpt lat="44.05247" lon="8.167305"><ele>12.0</ele><time>2026-04-17T16:07:00.086Z</time></trkpt><trkpt lat="44.05248" lon="8.1674417"><ele>12.0</ele><time>2026-04-17T16:07:13.086Z</time></trkpt><trkpt lat="44.0524967" lon="8.167565"><ele>12.0</ele><time>2026-04-17T16:07:15.085Z</time></trkpt><trkpt lat="44.052505" lon="8.1676633"><ele>12.0</ele><time>2026-04-17T16:07:17.086Z</time></trkpt><trkpt lat="44.0524983" lon="8.1677583"><ele>12.0</ele><time>2026-04-17T16:07:19.086Z</time></trkpt><trkpt lat="44.0524933" lon="8.1678933"><ele>12.0</ele><time>2026-04-17T16:07:22.086Z</time></trkpt><trkpt lat="44.0525067" lon="8.1679817"><ele>12.0</ele><time>2026-04-17T16:07:24.086Z</time></trkpt><trkpt lat="44.05253" lon="8.1681067"><ele>12.166666666666666</ele><time>2026-04-17T16:07:26.085Z</time></trkpt><trkpt lat="44.05255" lon="8.1682233"><ele>12.333333333333332</ele><time>2026-04-17T16:07:28.086Z</time></trkpt><trkpt lat="44.0525767" lon="8.1683367"><ele>12.5</ele><time>2026-04-17T16:07:30.086Z</time></trkpt><trkpt lat="44.052585" lon="8.16844"><ele>12.666666666666666</ele><time>2026-04-17T16:07:32.085Z</time></trkpt><trkpt lat="44.0525683" lon="8.168555"><ele>12.833333333333332</ele><time>2026-04-17T16:07:34.085Z</time></trkpt><trkpt lat="44.05251" lon="8.168665"><ele>13.0</ele><time>2026-04-17T16:07:36.086Z</time></trkpt><trkpt lat="44.0524283" lon="8.1687817"><ele>13.166666666666666</ele><time>2026-04-17T16:07:38.086Z</time></trkpt><trkpt lat="44.0524083" lon="8.1688883"><ele>13.333333333333332</ele><time>2026-04-17T16:07:40.086Z</time></trkpt><trkpt lat="44.0524367" lon="8.169025"><ele>13.5</ele><time>2026-04-17T16:07:42.085Z</time></trkpt><trkpt lat="44.052455" lon="8.1691233"><ele>13.666666666666668</ele><time>2026-04-17T16:07:43.086Z</time></trkpt><trkpt lat="44.052465" lon="8.16921"><ele>13.833333333333334</ele><time>2026-04-17T16:07:44.086Z</time></trkpt><trkpt lat="44.052465" lon="8.1693767"><ele>14.0</ele><time>2026-04-17T16:07:46.085Z</time></trkpt><trkpt lat="44.05243" lon="8.16953"><ele>14.000000000000002</ele><time>2026-04-17T16:07:48.086Z</time></trkpt><trkpt lat="44.0524167" lon="8.16966"><ele>14.0</ele><time>2026-04-17T16:07:50.086Z</time></trkpt><trkpt lat="44.0524433" lon="8.16978"><ele>14.0</ele><time>2026-04-17T16:07:52.085Z</time></trkpt><trkpt lat="44.052445" lon="8.1699017"><ele>14.0</ele><time>2026-04-17T16:07:54.086Z</time></trkpt><trkpt lat="44.052485" lon="8.1699933"><ele>14.000000000000002</ele><time>2026-04-17T16:07:57.086Z</time></trkpt><trkpt lat="44.0525233" lon="8.1700783"><ele>14.0</ele><time>2026-04-17T16:07:59.085Z</time></trkpt><trkpt lat="44.052545" lon="8.170195"><ele>14.000000000000002</ele><time>2026-04-17T16:08:01.085Z</time></trkpt><trkpt lat="44.0524867" lon="8.1702767"><ele>14.0</ele><time>2026-04-17T16:08:05.085Z</time></trkpt><trkpt lat="44.0524067" lon="8.1702583"><ele>14.0</ele><time>2026-04-17T16:08:07.085Z</time></trkpt><trkpt lat="44.052315" lon="8.1702067"><ele>14.0</ele><time>2026-04-17T16:08:16.085Z</time></trkpt><trkpt lat="44.0523983" lon="8.1701617"><ele>14.000000000000002</ele><time>2026-04-17T16:08:19.085Z</time></trkpt><trkpt lat="44.0524783" lon="8.1701967"><ele>14.0</ele><time>2026-04-17T16:08:21.085Z</time></trkpt><trkpt lat="44.0525583" lon="8.1702733"><ele>13.833333333333334</ele><time>2026-04-17T16:08:23.086Z</time></trkpt><trkpt lat="44.0526217" lon="8.1703767"><ele>13.666666666666668</ele><time>2026-04-17T16:08:25.086Z</time></trkpt><trkpt lat="44.0526717" lon="8.1704483"><ele>13.5</ele><time>2026-04-17T16:08:27.085Z</time></trkpt><trkpt lat="44.05274" lon="8.1705233"><ele>13.333333333333332</ele><time>2026-04-17T16:08:30.085Z</time></trkpt><trkpt lat="44.052805" lon="8.1706017"><ele>13.166666666666666</ele><time>2026-04-17T16:08:32.086Z</time></trkpt><trkpt lat="44.0528783" lon="8.17071"><ele>13.0</ele><time>2026-04-17T16:08:34.086Z</time></trkpt><trkpt lat="44.0529383" lon="8.17082"><ele>12.8</ele><time>2026-04-17T16:08:36.085Z</time></trkpt><trkpt lat="44.0529333" lon="8.1709967"><ele>12.600000000000001</ele><time>2026-04-17T16:08:38.085Z</time></trkpt><trkpt lat="44.0529233" lon="8.1710967"><ele>12.399999999999999</ele><time>2026-04-17T16:08:39.085Z</time></trkpt><trkpt lat="44.0529117" lon="8.171195"><ele>12.2</ele><time>2026-04-17T16:08:40.086Z</time></trkpt><trkpt lat="44.0528867" lon="8.1713533"><ele>12.0</ele><time>2026-04-17T16:08:42.085Z</time></trkpt><trkpt lat="44.0528417" lon="8.1714417"><ele>12.0</ele><time>2026-04-17T16:08:44.085Z</time></trkpt><trkpt lat="44.0527767" lon="8.171495"><ele>12.0</ele><time>2026-04-17T16:08:46.084Z</time></trkpt><trkpt lat="44.0527267" lon="8.171575"><ele>12.0</ele><time>2026-04-17T16:08:48.085Z</time></trkpt><trkpt lat="44.0526817" lon="8.17169"><ele>12.0</ele><time>2026-04-17T16:08:50.085Z</time></trkpt><trkpt lat="44.0526567" lon="8.1717717"><ele>12.0</ele><time>2026-04-17T16:08:52.085Z</time></trkpt><trkpt lat="44.0526383" lon="8.1718767"><ele>12.0</ele><time>2026-04-17T16:09:09.084Z</time></trkpt><trkpt lat="44.0526533" lon="8.172"><ele>11.8</ele><time>2026-04-17T16:09:11.084Z</time></trkpt><trkpt lat="44.05265" lon="8.1721733"><ele>11.6</ele><time>2026-04-17T16:09:13.085Z</time></trkpt><trkpt lat="44.0526283" lon="8.1723217"><ele>11.4</ele><time>2026-04-17T16:09:15.084Z</time></trkpt><trkpt lat="44.0526133" lon="8.1724667"><ele>11.200000000000001</ele><time>2026-04-17T16:09:17.085Z</time></trkpt><trkpt lat="44.0525983" lon="8.1726167"><ele>11.0</ele><time>2026-04-17T16:09:19.084Z</time></trkpt><trkpt lat="44.05257" lon="8.172755"><ele>10.833333333333332</ele><time>2026-04-17T16:09:21.085Z</time></trkpt><trkpt lat="44.05255" lon="8.1728767"><ele>10.666666666666666</ele><time>2026-04-17T16:09:23.084Z</time></trkpt><trkpt lat="44.0525467" lon="8.1729967"><ele>10.5</ele><time>2026-04-17T16:09:25.085Z</time></trkpt><trkpt lat="44.05251" lon="8.1730817"><ele>10.333333333333334</ele><time>2026-04-17T16:09:28.085Z</time></trkpt><trkpt lat="44.0524283" lon="8.173135"><ele>10.166666666666668</ele><time>2026-04-17T16:09:31.084Z</time></trkpt><trkpt lat="44.0523683" lon="8.1732333"><ele>10.0</ele><time>2026-04-17T16:09:34.085Z</time></trkpt><trkpt lat="44.05233" lon="8.1733133"><ele>10.6</ele><time>2026-04-17T16:09:36.084Z</time></trkpt><trkpt lat="44.0522633" lon="8.1733567"><ele>11.2</ele><time>2026-04-17T16:09:39.085Z</time></trkpt><trkpt lat="44.0522717" lon="8.173235"><ele>11.8</ele><time>2026-04-17T16:09:57.085Z</time></trkpt><trkpt lat="44.052265" lon="8.1730783"><ele>12.4</ele><time>2026-04-17T16:09:59.084Z</time></trkpt><trkpt lat="44.05225" lon="8.17291"><ele>13.0</ele><time>2026-04-17T16:10:01.084Z</time></trkpt><trkpt lat="44.052205" lon="8.17276"><ele>12.999999999999998</ele><time>2026-04-17T16:10:03.084Z</time></trkpt><trkpt lat="44.052165" lon="8.17266"><ele>13.0</ele><time>2026-04-17T16:10:05.084Z</time></trkpt><trkpt lat="44.05211" lon="8.172605"><ele>13.0</ele><time>2026-04-17T16:10:22.085Z</time></trkpt><trkpt lat="44.0520067" lon="8.17261"><ele>13.0</ele><time>2026-04-17T16:10:25.084Z</time></trkpt><trkpt lat="44.05194" lon="8.1726217"><ele>12.999999999999998</ele><time>2026-04-17T16:10:27.084Z</time></trkpt><trkpt lat="44.051825" lon="8.17261"><ele>13.0</ele><time>2026-04-17T16:10:38.084Z</time></trkpt><trkpt lat="44.0517933" lon="8.17272"><ele>13.0</ele><time>2026-04-17T16:10:44.085Z</time></trkpt><trkpt lat="44.0517633" lon="8.17291"><ele>13.0</ele><time>2026-04-17T16:10:46.084Z</time></trkpt><trkpt lat="44.0517483" lon="8.1730233"><ele>13.0</ele><time>2026-04-17T16:10:47.085Z</time></trkpt><trkpt lat="44.0517317" lon="8.1731617"><ele>13.0</ele><time>2026-04-17T16:10:48.084Z</time></trkpt><trkpt lat="44.051715" lon="8.1733033"><ele>13.0</ele><time>2026-04-17T16:10:49.085Z</time></trkpt><trkpt lat="44.0517" lon="8.1734483"><ele>13.0</ele><time>2026-04-17T16:10:50.085Z</time></trkpt><trkpt lat="44.0516833" lon="8.1736067"><ele>13.0</ele><time>2026-04-17T16:10:51.084Z</time></trkpt><trkpt lat="44.051665" lon="8.17377"><ele>13.0</ele><time>2026-04-17T16:10:52.085Z</time></trkpt><trkpt lat="44.0516467" lon="8.173935"><ele>13.0</ele><time>2026-04-17T16:10:53.084Z</time></trkpt><trkpt lat="44.0516233" lon="8.174105"><ele>13.0</ele><time>2026-04-17T16:10:54.084Z</time></trkpt><trkpt lat="44.0516" lon="8.174285"><ele>13.0</ele><time>2026-04-17T16:10:55.085Z</time></trkpt><trkpt lat="44.05158" lon="8.1744567"><ele>13.0</ele><time>2026-04-17T16:10:56.085Z</time></trkpt><trkpt lat="44.05155" lon="8.17465"><ele>13.0</ele><time>2026-04-17T16:10:57.085Z</time></trkpt><trkpt lat="44.0515217" lon="8.1748283"><ele>12.333333333333332</ele><time>2026-04-17T16:10:58.085Z</time></trkpt><trkpt lat="44.0515083" lon="8.1749883"><ele>11.666666666666666</ele><time>2026-04-17T16:10:59.085Z</time></trkpt><trkpt lat="44.0514983" lon="8.1751167"><ele>11.0</ele><time>2026-04-17T16:11:00.085Z</time></trkpt><trkpt lat="44.0514833" lon="8.1752233"><ele>10.333333333333332</ele><time>2026-04-17T16:11:01.085Z</time></trkpt><trkpt lat="44.051465" lon="8.1753233"><ele>9.666666666666666</ele><time>2026-04-17T16:11:02.084Z</time></trkpt><trkpt lat="44.051445" lon="8.1754083"><ele>9.0</ele><time>2026-04-17T16:11:03.084Z</time></trkpt><trkpt lat="44.051385" lon="8.1754917"><ele>9.0</ele><time>2026-04-17T16:11:05.084Z</time></trkpt><trkpt lat="44.05131" lon="8.1754933"><ele>9.0</ele><time>2026-04-17T16:11:06.084Z</time></trkpt><trkpt lat="44.0512233" lon="8.1754783"><ele>9.0</ele><time>2026-04-17T16:11:07.085Z</time></trkpt><trkpt lat="44.0511267" lon="8.17546"><ele>9.0</ele><time>2026-04-17T16:11:08.085Z</time></trkpt><trkpt lat="44.0510183" lon="8.1754483"><ele>9.0</ele><time>2026-04-17T16:11:09.085Z</time></trkpt><trkpt lat="44.0509133" lon="8.1754383"><ele>9.0</ele><time>2026-04-17T16:11:10.084Z</time></trkpt><trkpt lat="44.050815" lon="8.1754267"><ele>9.0</ele><time>2026-04-17T16:11:11.085Z</time></trkpt><trkpt lat="44.0507117" lon="8.17542"><ele>9.0</ele><time>2026-04-17T16:11:12.085Z</time></trkpt><trkpt lat="44.0506217" lon="8.1754"><ele>9.0</ele><time>2026-04-17T16:11:13.084Z</time></trkpt><trkpt lat="44.05054" lon="8.1753717"><ele>9.0</ele><time>2026-04-17T16:11:14.084Z</time></trkpt><trkpt lat="44.050445" lon="8.175335"><ele>9.4</ele><time>2026-04-17T16:11:15.084Z</time></trkpt><trkpt lat="44.0503383" lon="8.1753067"><ele>9.8</ele><time>2026-04-17T16:11:16.085Z</time></trkpt><trkpt lat="44.0502267" lon="8.1752767"><ele>10.200000000000001</ele><time>2026-04-17T16:11:17.085Z</time></trkpt><trkpt lat="44.0501183" lon="8.1752383"><ele>10.600000000000001</ele><time>2026-04-17T16:11:18.084Z</time></trkpt><trkpt lat="44.050015" lon="8.1751833"><ele>11.0</ele><time>2026-04-17T16:11:19.085Z</time></trkpt><trkpt lat="44.049905" lon="8.1751233"><ele>11.75</ele><time>2026-04-17T16:11:20.084Z</time></trkpt><trkpt lat="44.0497867" lon="8.1750583"><ele>12.5</ele><time>2026-04-17T16:11:21.084Z</time></trkpt><trkpt lat="44.0496717" lon="8.175"><ele>13.25</ele><time>2026-04-17T16:11:22.085Z</time></trkpt><trkpt lat="44.049555" lon="8.1749483"><ele>14.0</ele><time>2026-04-17T16:11:23.084Z</time></trkpt><trkpt lat="44.04947" lon="8.1749033"><ele>14.0</ele><time>2026-04-17T16:11:24.084Z</time></trkpt><trkpt lat="44.0494033" lon="8.1748667"><ele>13.999999999999998</ele><time>2026-04-17T16:11:25.085Z</time></trkpt><trkpt lat="44.0493583" lon="8.17476"><ele>13.999999999999998</ele><time>2026-04-17T16:11:27.085Z</time></trkpt><trkpt lat="44.049355" lon="8.1745817"><ele>14.0</ele><time>2026-04-17T16:11:29.085Z</time></trkpt><trkpt lat="44.0493467" lon="8.17446"><ele>14.0</ele><time>2026-04-17T16:11:30.085Z</time></trkpt><trkpt lat="44.0493317" lon="8.17431"><ele>14.0</ele><time>2026-04-17T16:11:31.085Z</time></trkpt><trkpt lat="44.0492917" lon="8.1741483"><ele>13.999999999999998</ele><time>2026-04-17T16:11:32.084Z</time></trkpt><trkpt lat="44.0492533" lon="8.174005"><ele>13.999999999999998</ele><time>2026-04-17T16:11:33.085Z</time></trkpt><trkpt lat="44.049225" lon="8.1738783"><ele>14.0</ele><time>2026-04-17T16:11:34.085Z</time></trkpt><trkpt lat="44.0491983" lon="8.173775"><ele>14.0</ele><time>2026-04-17T16:11:35.084Z</time></trkpt><trkpt lat="44.0491667" lon="8.1736833"><ele>13.833333333333334</ele><time>2026-04-17T16:11:36.085Z</time></trkpt><trkpt lat="44.0491417" lon="8.1735967"><ele>13.666666666666668</ele><time>2026-04-17T16:11:37.085Z</time></trkpt><trkpt lat="44.0490467" lon="8.173495"><ele>13.5</ele><time>2026-04-17T16:11:39.084Z</time></trkpt><trkpt lat="44.0489733" lon="8.17349"><ele>13.333333333333332</ele><time>2026-04-17T16:11:40.084Z</time></trkpt><trkpt lat="44.04889" lon="8.17348"><ele>13.166666666666666</ele><time>2026-04-17T16:11:41.084Z</time></trkpt><trkpt lat="44.0487917" lon="8.17346"><ele>13.0</ele><time>2026-04-17T16:11:42.084Z</time></trkpt><trkpt lat="44.0486717" lon="8.1734483"><ele>13.0</ele><time>2026-04-17T16:11:43.085Z</time></trkpt><trkpt lat="44.048555" lon="8.173425"><ele>13.0</ele><time>2026-04-17T16:11:44.085Z</time></trkpt><trkpt lat="44.04843" lon="8.1733983"><ele>13.0</ele><time>2026-04-17T16:11:45.084Z</time></trkpt><trkpt lat="44.0482967" lon="8.1733767"><ele>13.0</ele><time>2026-04-17T16:11:46.084Z</time></trkpt><trkpt lat="44.0481817" lon="8.173345"><ele>13.8</ele><time>2026-04-17T16:11:47.085Z</time></trkpt><trkpt lat="44.04807" lon="8.1733017"><ele>14.600000000000001</ele><time>2026-04-17T16:11:48.085Z</time></trkpt><trkpt lat="44.04798" lon="8.17325"><ele>15.399999999999999</ele><time>2026-04-17T16:11:49.085Z</time></trkpt><trkpt lat="44.0478967" lon="8.1731967"><ele>16.2</ele><time>2026-04-17T16:11:50.084Z</time></trkpt><trkpt lat="44.0478233" lon="8.17315"><ele>17.0</ele><time>2026-04-17T16:11:51.085Z</time></trkpt><trkpt lat="44.0477433" lon="8.173105"><ele>17.2</ele><time>2026-04-17T16:11:52.085Z</time></trkpt><trkpt lat="44.0476733" lon="8.1730667"><ele>17.4</ele><time>2026-04-17T16:11:53.084Z</time></trkpt><trkpt lat="44.0476083" lon="8.1730217"><ele>17.6</ele><time>2026-04-17T16:11:54.085Z</time></trkpt><trkpt lat="44.0475283" lon="8.1729383"><ele>17.8</ele><time>2026-04-17T16:11:56.085Z</time></trkpt><trkpt lat="44.0474517" lon="8.1729333"><ele>18.0</ele><time>2026-04-17T16:12:02.084Z</time></trkpt><trkpt lat="44.047365" lon="8.1730733"><ele>18.5</ele><time>2026-04-17T16:12:04.085Z</time></trkpt><trkpt lat="44.0473117" lon="8.173205"><ele>19.0</ele><time>2026-04-17T16:12:05.084Z</time></trkpt><trkpt lat="44.0472567" lon="8.1733567"><ele>19.5</ele><time>2026-04-17T16:12:06.085Z</time></trkpt><trkpt lat="44.0471983" lon="8.1734983"><ele>20.0</ele><time>2026-04-17T16:12:07.085Z</time></trkpt><trkpt lat="44.0471433" lon="8.173625"><ele>20.0</ele><time>2026-04-17T16:12:08.084Z</time></trkpt><trkpt lat="44.047095" lon="8.1737533"><ele>20.0</ele><time>2026-04-17T16:12:09.084Z</time></trkpt><trkpt lat="44.0470617" lon="8.173885"><ele>20.0</ele><time>2026-04-17T16:12:10.084Z</time></trkpt><trkpt lat="44.0470217" lon="8.1740233"><ele>20.0</ele><time>2026-04-17T16:12:11.084Z</time></trkpt><trkpt lat="44.0469917" lon="8.1741867"><ele>20.0</ele><time>2026-04-17T16:12:12.085Z</time></trkpt><trkpt lat="44.0469683" lon="8.1743617"><ele>19.75</ele><time>2026-04-17T16:12:13.085Z</time></trkpt><trkpt lat="44.0469467" lon="8.174535"><ele>19.5</ele><time>2026-04-17T16:12:14.085Z</time></trkpt><trkpt lat="44.04692" lon="8.174735"><ele>19.25</ele><time>2026-04-17T16:12:15.085Z</time></trkpt><trkpt lat="44.0468817" lon="8.1749117"><ele>19.0</ele><time>2026-04-17T16:12:16.085Z</time></trkpt><trkpt lat="44.0468517" lon="8.1750733"><ele>19.0</ele><time>2026-04-17T16:12:17.084Z</time></trkpt><trkpt lat="44.04682" lon="8.1752417"><ele>19.0</ele><time>2026-04-17T16:12:18.085Z</time></trkpt><trkpt lat="44.0467933" lon="8.1754167"><ele>19.0</ele><time>2026-04-17T16:12:19.084Z</time></trkpt><trkpt lat="44.04676" lon="8.17559"><ele>19.0</ele><time>2026-04-17T16:12:20.084Z</time></trkpt><trkpt lat="44.04672" lon="8.1757617"><ele>18.25</ele><time>2026-04-17T16:12:21.084Z</time></trkpt><trkpt lat="44.0466817" lon="8.1759433"><ele>17.5</ele><time>2026-04-17T16:12:22.084Z</time></trkpt><trkpt lat="44.0466483" lon="8.1761367"><ele>16.75</ele><time>2026-04-17T16:12:23.084Z</time></trkpt><trkpt lat="44.0466217" lon="8.1763383"><ele>16.0</ele><time>2026-04-17T16:12:24.085Z</time></trkpt><trkpt lat="44.0465967" lon="8.1765083"><ele>17.75</ele><time>2026-04-17T16:12:25.085Z</time></trkpt><trkpt lat="44.0465767" lon="8.1766717"><ele>19.5</ele><time>2026-04-17T16:12:26.084Z</time></trkpt><trkpt lat="44.04653" lon="8.1768717"><ele>21.25</ele><time>2026-04-17T16:12:27.084Z</time></trkpt><trkpt lat="44.0465017" lon="8.177065"><ele>23.0</ele><time>2026-04-17T16:12:28.085Z</time></trkpt><trkpt lat="44.0464633" lon="8.177245"><ele>21.75</ele><time>2026-04-17T16:12:29.085Z</time></trkpt><trkpt lat="44.04641" lon="8.1774117"><ele>20.5</ele><time>2026-04-17T16:12:30.085Z</time></trkpt><trkpt lat="44.0463383" lon="8.1775733"><ele>19.25</ele><time>2026-04-17T16:12:31.084Z</time></trkpt><trkpt lat="44.0462817" lon="8.1777483"><ele>18.0</ele><time>2026-04-17T16:12:32.084Z</time></trkpt><trkpt lat="44.0462367" lon="8.1779317"><ele>18.0</ele><time>2026-04-17T16:12:33.085Z</time></trkpt><trkpt lat="44.0461967" lon="8.178135"><ele>18.0</ele><time>2026-04-17T16:12:34.085Z</time></trkpt><trkpt lat="44.04614" lon="8.1783433"><ele>18.0</ele><time>2026-04-17T16:12:35.085Z</time></trkpt><trkpt lat="44.0460883" lon="8.178545"><ele>17.0</ele><time>2026-04-17T16:12:36.085Z</time></trkpt><trkpt lat="44.046035" lon="8.178735"><ele>16.0</ele><time>2026-04-17T16:12:37.084Z</time></trkpt><trkpt lat="44.0459817" lon="8.178915"><ele>15.0</ele><time>2026-04-17T16:12:38.084Z</time></trkpt><trkpt lat="44.045935" lon="8.1790767"><ele>14.0</ele><time>2026-04-17T16:12:39.085Z</time></trkpt><trkpt lat="44.04589" lon="8.1792233"><ele>13.5</ele><time>2026-04-17T16:12:40.084Z</time></trkpt><trkpt lat="44.04585" lon="8.17938"><ele>13.0</ele><time>2026-04-17T16:12:41.085Z</time></trkpt><trkpt lat="44.0458117" lon="8.1795417"><ele>12.5</ele><time>2026-04-17T16:12:42.084Z</time></trkpt><trkpt lat="44.045785" lon="8.1797233"><ele>12.0</ele><time>2026-04-17T16:12:43.085Z</time></trkpt><trkpt lat="44.0457683" lon="8.1798917"><ele>14.25</ele><time>2026-04-17T16:12:44.085Z</time></trkpt><trkpt lat="44.0457517" lon="8.18007"><ele>16.5</ele><time>2026-04-17T16:12:45.085Z</time></trkpt><trkpt lat="44.0457467" lon="8.18024"><ele>18.75</ele><time>2026-04-17T16:12:46.085Z</time></trkpt><trkpt lat="44.0457533" lon="8.1804233"><ele>21.0</ele><time>2026-04-17T16:12:47.085Z</time></trkpt><trkpt lat="44.045765" lon="8.1806233"><ele>20.5</ele><time>2026-04-17T16:12:48.085Z</time></trkpt><trkpt lat="44.0457717" lon="8.1807983"><ele>20.0</ele><time>2026-04-17T16:12:49.084Z</time></trkpt><trkpt lat="44.0458033" lon="8.1809883"><ele>19.5</ele><time>2026-04-17T16:12:50.084Z</time></trkpt><trkpt lat="44.045815" lon="8.1811667"><ele>19.0</ele><time>2026-04-17T16:12:51.084Z</time></trkpt><trkpt lat="44.0458183" lon="8.1813217"><ele>18.25</ele><time>2026-04-17T16:12:52.085Z</time></trkpt><trkpt lat="44.0458217" lon="8.1814783"><ele>17.5</ele><time>2026-04-17T16:12:53.084Z</time></trkpt><trkpt lat="44.04582" lon="8.1816567"><ele>16.75</ele><time>2026-04-17T16:12:54.084Z</time></trkpt><trkpt lat="44.0458317" lon="8.181815"><ele>16.0</ele><time>2026-04-17T16:12:55.084Z</time></trkpt><trkpt lat="44.0458383" lon="8.1819767"><ele>15.75</ele><time>2026-04-17T16:12:56.085Z</time></trkpt><trkpt lat="44.045845" lon="8.1821383"><ele>15.5</ele><time>2026-04-17T16:12:57.084Z</time></trkpt><trkpt lat="44.0458467" lon="8.1822983"><ele>15.25</ele><time>2026-04-17T16:12:58.084Z</time></trkpt><trkpt lat="44.0458433" lon="8.18246"><ele>15.0</ele><time>2026-04-17T16:12:59.085Z</time></trkpt><trkpt lat="44.045835" lon="8.1826083"><ele>15.0</ele><time>2026-04-17T16:13:00.085Z</time></trkpt><trkpt lat="44.04584" lon="8.1827667"><ele>15.0</ele><time>2026-04-17T16:13:01.085Z</time></trkpt><trkpt lat="44.0458583" lon="8.1829183"><ele>15.0</ele><time>2026-04-17T16:13:02.085Z</time></trkpt><trkpt lat="44.0458783" lon="8.183065"><ele>15.0</ele><time>2026-04-17T16:13:03.084Z</time></trkpt><trkpt lat="44.045915" lon="8.183205"><ele>15.0</ele><time>2026-04-17T16:13:04.085Z</time></trkpt><trkpt lat="44.04595" lon="8.1833583"><ele>15.25</ele><time>2026-04-17T16:13:05.085Z</time></trkpt><trkpt lat="44.0459933" lon="8.1835083"><ele>15.5</ele><time>2026-04-17T16:13:06.084Z</time></trkpt><trkpt lat="44.0460283" lon="8.1836467"><ele>15.75</ele><time>2026-04-17T16:13:07.085Z</time></trkpt><trkpt lat="44.0460733" lon="8.1837983"><ele>16.0</ele><time>2026-04-17T16:13:08.085Z</time></trkpt><trkpt lat="44.0461067" lon="8.1839617"><ele>16.400000000000002</ele><time>2026-04-17T16:13:09.084Z</time></trkpt><trkpt lat="44.0461417" lon="8.18412"><ele>16.8</ele><time>2026-04-17T16:13:10.085Z</time></trkpt><trkpt lat="44.0461517" lon="8.1842817"><ele>17.200000000000003</ele><time>2026-04-17T16:13:11.084Z</time></trkpt><trkpt lat="44.04617" lon="8.1844017"><ele>17.6</ele><time>2026-04-17T16:13:12.084Z</time></trkpt><trkpt lat="44.0461717" lon="8.184535"><ele>18.0</ele><time>2026-04-17T16:13:13.085Z</time></trkpt><trkpt lat="44.0461833" lon="8.1846717"><ele>18.0</ele><time>2026-04-17T16:13:14.085Z</time></trkpt><trkpt lat="44.04618" lon="8.1847967"><ele>18.0</ele><time>2026-04-17T16:13:15.085Z</time></trkpt><trkpt lat="44.04618" lon="8.1849167"><ele>18.0</ele><time>2026-04-17T16:13:16.084Z</time></trkpt><trkpt lat="44.04619" lon="8.1850467"><ele>18.0</ele><time>2026-04-17T16:13:17.084Z</time></trkpt><trkpt lat="44.0461767" lon="8.1851817"><ele>18.0</ele><time>2026-04-17T16:13:18.085Z</time></trkpt><trkpt lat="44.0461483" lon="8.185335"><ele>18.0</ele><time>2026-04-17T16:13:19.085Z</time></trkpt><trkpt lat="44.0461033" lon="8.1854867"><ele>18.0</ele><time>2026-04-17T16:13:20.083Z</time></trkpt><trkpt lat="44.0460567" lon="8.1856533"><ele>18.0</ele><time>2026-04-17T16:13:21.083Z</time></trkpt><trkpt lat="44.04601" lon="8.1858117"><ele>18.0</ele><time>2026-04-17T16:13:22.084Z</time></trkpt><trkpt lat="44.0459717" lon="8.1860067"><ele>18.0</ele><time>2026-04-17T16:13:23.084Z</time></trkpt><trkpt lat="44.04596" lon="8.1861483"><ele>18.0</ele><time>2026-04-17T16:13:24.083Z</time></trkpt><trkpt lat="44.0459567" lon="8.1862883"><ele>18.0</ele><time>2026-04-17T16:13:25.084Z</time></trkpt><trkpt lat="44.0459333" lon="8.1864033"><ele>18.0</ele><time>2026-04-17T16:13:26.083Z</time></trkpt><trkpt lat="44.0459383" lon="8.1865133"><ele>18.0</ele><time>2026-04-17T16:13:27.084Z</time></trkpt><trkpt lat="44.045935" lon="8.18662"><ele>18.0</ele><time>2026-04-17T16:13:28.084Z</time></trkpt><trkpt lat="44.04594" lon="8.186715"><ele>18.0</ele><time>2026-04-17T16:13:29.084Z</time></trkpt><trkpt lat="44.045925" lon="8.1868467"><ele>18.0</ele><time>2026-04-17T16:13:31.083Z</time></trkpt><trkpt lat="44.0458383" lon="8.1868633"><ele>18.0</ele><time>2026-04-17T16:13:33.084Z</time></trkpt><trkpt lat="44.0457533" lon="8.1868617"><ele>18.0</ele><time>2026-04-17T16:13:34.083Z</time></trkpt><trkpt lat="44.0456533" lon="8.186865"><ele>18.0</ele><time>2026-04-17T16:13:35.084Z</time></trkpt><trkpt lat="44.0455433" lon="8.1868667"><ele>18.0</ele><time>2026-04-17T16:13:36.084Z</time></trkpt><trkpt lat="44.0454433" lon="8.1868683"><ele>18.0</ele><time>2026-04-17T16:13:37.084Z</time></trkpt><trkpt lat="44.045335" lon="8.18689"><ele>18.0</ele><time>2026-04-17T16:13:38.083Z</time></trkpt><trkpt lat="44.0452433" lon="8.1868933"><ele>18.0</ele><time>2026-04-17T16:13:39.083Z</time></trkpt><trkpt lat="44.0451633" lon="8.1869017"><ele>18.0</ele><time>2026-04-17T16:13:40.083Z</time></trkpt><trkpt lat="44.0450817" lon="8.186905"><ele>18.0</ele><time>2026-04-17T16:13:41.084Z</time></trkpt><trkpt lat="44.045" lon="8.1869133"><ele>18.0</ele><time>2026-04-17T16:13:42.084Z</time></trkpt><trkpt lat="44.044925" lon="8.186915"><ele>18.0</ele><time>2026-04-17T16:13:43.084Z</time></trkpt><trkpt lat="44.0448467" lon="8.1869233"><ele>18.0</ele><time>2026-04-17T16:13:44.084Z</time></trkpt><trkpt lat="44.0447617" lon="8.186925"><ele>18.0</ele><time>2026-04-17T16:13:45.083Z</time></trkpt><trkpt lat="44.04467" lon="8.1869317"><ele>18.0</ele><time>2026-04-17T16:13:46.083Z</time></trkpt><trkpt lat="44.04457" lon="8.18693"><ele>18.6</ele><time>2026-04-17T16:13:47.083Z</time></trkpt><trkpt lat="44.0444667" lon="8.1869167"><ele>19.200000000000003</ele><time>2026-04-17T16:13:48.084Z</time></trkpt><trkpt lat="44.0443717" lon="8.1868967"><ele>19.8</ele><time>2026-04-17T16:13:49.084Z</time></trkpt><trkpt lat="44.044295" lon="8.186885"><ele>20.400000000000002</ele><time>2026-04-17T16:13:50.083Z</time></trkpt><trkpt lat="44.0442133" lon="8.186885"><ele>21.0</ele><time>2026-04-17T16:13:51.084Z</time></trkpt><trkpt lat="44.0441217" lon="8.1868933"><ele>21.5</ele><time>2026-04-17T16:13:52.083Z</time></trkpt><trkpt lat="44.0440317" lon="8.1868967"><ele>22.0</ele><time>2026-04-17T16:13:53.083Z</time></trkpt><trkpt lat="44.0439467" lon="8.1868983"><ele>22.5</ele><time>2026-04-17T16:13:54.084Z</time></trkpt><trkpt lat="44.0438667" lon="8.1869033"><ele>23.0</ele><time>2026-04-17T16:13:55.084Z</time></trkpt><trkpt lat="44.0437933" lon="8.1868983"><ele>23.5</ele><time>2026-04-17T16:13:56.083Z</time></trkpt><trkpt lat="44.0437183" lon="8.1869033"><ele>24.0</ele><time>2026-04-17T16:13:57.083Z</time></trkpt><trkpt lat="44.043645" lon="8.1869183"><ele>24.0</ele><time>2026-04-17T16:13:58.083Z</time></trkpt><trkpt lat="44.0435667" lon="8.186945"><ele>24.0</ele><time>2026-04-17T16:13:59.084Z</time></trkpt><trkpt lat="44.0434833" lon="8.1869783"><ele>24.0</ele><time>2026-04-17T16:14:00.083Z</time></trkpt><trkpt lat="44.0434" lon="8.18701"><ele>24.0</ele><time>2026-04-17T16:14:01.083Z</time></trkpt><trkpt lat="44.0433167" lon="8.18704"><ele>24.0</ele><time>2026-04-17T16:14:02.084Z</time></trkpt><trkpt lat="44.043235" lon="8.18707"><ele>24.0</ele><time>2026-04-17T16:14:03.083Z</time></trkpt><trkpt lat="44.04316" lon="8.18709"><ele>25.333333333333332</ele><time>2026-04-17T16:14:04.083Z</time></trkpt><trkpt lat="44.0430867" lon="8.187105"><ele>26.666666666666664</ele><time>2026-04-17T16:14:05.083Z</time></trkpt><trkpt lat="44.0430183" lon="8.1871333"><ele>28.0</ele><time>2026-04-17T16:14:06.084Z</time></trkpt><trkpt lat="44.0429017" lon="8.187185"><ele>29.333333333333332</ele><time>2026-04-17T16:14:08.084Z</time></trkpt><trkpt lat="44.0428283" lon="8.18722"><ele>30.666666666666664</ele><time>2026-04-17T16:14:10.084Z</time></trkpt><trkpt lat="44.04278" lon="8.187155"><ele>32.0</ele><time>2026-04-17T16:14:13.083Z</time></trkpt><trkpt lat="44.0427183" lon="8.1871767"><ele>32.0</ele><time>2026-04-17T16:15:04.084Z</time></trkpt><trkpt lat="44.0427167" lon="8.1872717"><ele>31.999999999999996</ele><time>2026-04-17T16:15:06.084Z</time></trkpt><trkpt lat="44.0427233" lon="8.1873633"><ele>32.0</ele><time>2026-04-17T16:15:08.084Z</time></trkpt><trkpt lat="44.0427567" lon="8.187465"><ele>32.0</ele><time>2026-04-17T16:15:11.083Z</time></trkpt><trkpt lat="44.0427533" lon="8.1875583"><ele>31.999999999999996</ele><time>2026-04-17T16:15:13.084Z</time></trkpt><trkpt lat="44.0427517" lon="8.187665"><ele>32.0</ele><time>2026-04-17T16:15:15.083Z</time></trkpt><trkpt lat="44.0427483" lon="8.1877717"><ele>32.0</ele><time>2026-04-17T16:15:17.083Z</time></trkpt><trkpt lat="44.0427533" lon="8.18786"><ele>32.83333333333333</ele><time>2026-04-17T16:15:19.083Z</time></trkpt><trkpt lat="44.042755" lon="8.1879933"><ele>33.666666666666664</ele><time>2026-04-17T16:15:22.084Z</time></trkpt><trkpt lat="44.042785" lon="8.1881"><ele>34.5</ele><time>2026-04-17T16:15:24.084Z</time></trkpt><trkpt lat="44.0428083" lon="8.1881833"><ele>35.333333333333336</ele><time>2026-04-17T16:15:26.084Z</time></trkpt><trkpt lat="44.0427533" lon="8.1883017"><ele>36.16666666666667</ele><time>2026-04-17T16:15:34.083Z</time></trkpt><trkpt lat="44.042695" lon="8.1884217"><ele>37.0</ele><time>2026-04-17T16:15:36.083Z</time></trkpt><trkpt lat="44.04274" lon="8.1882867"><ele>37.0</ele><time>2026-04-17T16:16:10.083Z</time></trkpt><trkpt lat="44.0428" lon="8.1881617"><ele>37.0</ele><time>2026-04-17T16:16:12.083Z</time></trkpt><trkpt lat="44.0427767" lon="8.1880417"><ele>37.0</ele><time>2026-04-17T16:16:15.084Z</time></trkpt><trkpt lat="44.042775" lon="8.187935"><ele>37.0</ele><time>2026-04-17T16:16:18.084Z</time></trkpt><trkpt lat="44.0428333" lon="8.187815"><ele>37.0</ele><time>2026-04-17T16:16:20.083Z</time></trkpt><trkpt lat="44.0428683" lon="8.1877317"><ele>37.0</ele><time>2026-04-17T16:16:21.084Z</time></trkpt><trkpt lat="44.0429033" lon="8.1876517"><ele>37.0</ele><time>2026-04-17T16:16:22.083Z</time></trkpt><trkpt lat="44.0429417" lon="8.18758"><ele>37.0</ele><time>2026-04-17T16:16:23.083Z</time></trkpt><trkpt lat="44.0430333" lon="8.1874817"><ele>37.0</ele><time>2026-04-17T16:16:25.083Z</time></trkpt><trkpt lat="44.04311" lon="8.1874633"><ele>37.0</ele><time>2026-04-17T16:16:27.083Z</time></trkpt><trkpt lat="44.04316" lon="8.1875167"><ele>37.0</ele><time>2026-04-17T16:16:29.083Z</time></trkpt><trkpt lat="44.043225" lon="8.187565"><ele>37.0</ele><time>2026-04-17T16:16:33.083Z</time></trkpt><trkpt lat="44.0432517" lon="8.187675"><ele>37.0</ele><time>2026-04-17T16:16:38.083Z</time></trkpt><trkpt lat="44.0432133" lon="8.18777"><ele>37.0</ele><time>2026-04-17T16:16:41.083Z</time></trkpt><trkpt lat="44.0432567" lon="8.1878367"><ele>37.0</ele><time>2026-04-17T16:16:46.084Z</time></trkpt><trkpt lat="44.0433317" lon="8.187785"><ele>37.0</ele><time>2026-04-17T16:16:49.084Z</time></trkpt><trkpt lat="44.04341" lon="8.1877"><ele>37.0</ele><time>2026-04-17T16:16:52.083Z</time></trkpt><trkpt lat="44.0434833" lon="8.1877133"><ele>37.0</ele><time>2026-04-17T16:16:55.083Z</time></trkpt><trkpt lat="44.043545" lon="8.1877367"><ele>36.142857142857146</ele><time>2026-04-17T16:16:57.084Z</time></trkpt><trkpt lat="44.0436133" lon="8.1877767"><ele>35.285714285714285</ele><time>2026-04-17T16:16:59.084Z</time></trkpt><trkpt lat="44.04365" lon="8.18785"><ele>34.42857142857143</ele><time>2026-04-17T16:17:01.083Z</time></trkpt><trkpt lat="44.0436967" lon="8.1879483"><ele>33.57142857142857</ele><time>2026-04-17T16:18:08.083Z</time></trkpt><trkpt lat="44.0437483" lon="8.1880183"><ele>32.714285714285715</ele><time>2026-04-17T16:18:11.083Z</time></trkpt><trkpt lat="44.043755" lon="8.18811"><ele>31.857142857142858</ele><time>2026-04-17T16:18:13.082Z</time></trkpt><trkpt lat="44.0437667" lon="8.1882"><ele>31.0</ele><time>2026-04-17T16:18:15.082Z</time></trkpt><trkpt lat="44.0437867" lon="8.1882883"><ele>34.5</ele><time>2026-04-17T16:18:18.083Z</time></trkpt><trkpt lat="44.0438267" lon="8.18838"><ele>38.0</ele><time>2026-04-17T16:18:21.083Z</time></trkpt><trkpt lat="44.0438367" lon="8.18849"><ele>41.5</ele><time>2026-04-17T16:18:24.082Z</time></trkpt><trkpt lat="44.043795" lon="8.1885867"><ele>45.0</ele><time>2026-04-17T16:18:28.083Z</time></trkpt><trkpt lat="44.043725" lon="8.1886733"><ele>48.49999999999999</ele><time>2026-04-17T16:18:31.082Z</time></trkpt><trkpt lat="44.0436567" lon="8.18876"><ele>52.0</ele><time>2026-04-17T16:18:34.083Z</time></trkpt><trkpt lat="44.0436583" lon="8.1888833"><ele>51.99999999999999</ele><time>2026-04-17T16:18:37.082Z</time></trkpt><trkpt lat="44.0436383" lon="8.1889817"><ele>52.0</ele><time>2026-04-17T16:18:40.082Z</time></trkpt><trkpt lat="44.043605" lon="8.18906"><ele>52.0</ele><time>2026-04-17T16:18:42.082Z</time></trkpt><trkpt lat="44.0435717" lon="8.189145"><ele>52.0</ele><time>2026-04-17T16:18:44.082Z</time></trkpt><trkpt lat="44.0435017" lon="8.1892267"><ele>51.99999999999999</ele><time>2026-04-17T16:18:59.083Z</time></trkpt><trkpt lat="44.0434433" lon="8.1893117"><ele>52.0</ele><time>2026-04-17T16:19:01.083Z</time></trkpt><trkpt lat="44.0433767" lon="8.1893983"><ele>54.99999999999999</ele><time>2026-04-17T16:19:03.083Z</time></trkpt><trkpt lat="44.0433233" lon="8.18951"><ele>58.0</ele><time>2026-04-17T16:19:05.083Z</time></trkpt><trkpt lat="44.043355" lon="8.1896133"><ele>61.0</ele><time>2026-04-17T16:19:07.083Z</time></trkpt><trkpt lat="44.04342" lon="8.1897083"><ele>64.0</ele><time>2026-04-17T16:19:10.083Z</time></trkpt><trkpt lat="44.04343" lon="8.1898017"><ele>67.0</ele><time>2026-04-17T16:19:12.082Z</time></trkpt><trkpt lat="44.0434167" lon="8.1899217"><ele>70.0</ele><time>2026-04-17T16:19:14.083Z</time></trkpt><trkpt lat="44.043375" lon="8.1900283"><ele>69.16666666666666</ele><time>2026-04-17T16:19:16.083Z</time></trkpt><trkpt lat="44.0433267" lon="8.1901433"><ele>68.33333333333333</ele><time>2026-04-17T16:19:18.083Z</time></trkpt><trkpt lat="44.04328" lon="8.1902833"><ele>67.5</ele><time>2026-04-17T16:19:20.083Z</time></trkpt><trkpt lat="44.0432417" lon="8.190385"><ele>66.66666666666667</ele><time>2026-04-17T16:19:22.083Z</time></trkpt><trkpt lat="44.0432183" lon="8.19047"><ele>65.83333333333334</ele><time>2026-04-17T16:19:24.083Z</time></trkpt><trkpt lat="44.04322" lon="8.1905983"><ele>65.0</ele><time>2026-04-17T16:19:27.082Z</time></trkpt><trkpt lat="44.043225" lon="8.1907033"><ele>68.16666666666667</ele><time>2026-04-17T16:19:30.083Z</time></trkpt><trkpt lat="44.0432217" lon="8.190815"><ele>71.33333333333334</ele><time>2026-04-17T16:19:32.083Z</time></trkpt><trkpt lat="44.0432367" lon="8.190945"><ele>74.5</ele><time>2026-04-17T16:19:34.083Z</time></trkpt><trkpt lat="44.043225" lon="8.1910667"><ele>77.66666666666667</ele><time>2026-04-17T16:19:36.082Z</time></trkpt><trkpt lat="44.04318" lon="8.1911717"><ele>80.83333333333333</ele><time>2026-04-17T16:19:41.082Z</time></trkpt><trkpt lat="44.0431533" lon="8.1912933"><ele>84.0</ele><time>2026-04-17T16:19:44.083Z</time></trkpt><trkpt lat="44.0431433" lon="8.1913933"><ele>84.0</ele><time>2026-04-17T16:19:46.082Z</time></trkpt><trkpt lat="44.0431633" lon="8.191485"><ele>84.0</ele><time>2026-04-17T16:19:48.083Z</time></trkpt><trkpt lat="44.0431433" lon="8.19161"><ele>84.0</ele><time>2026-04-17T16:19:51.082Z</time></trkpt><trkpt lat="44.043115" lon="8.19172"><ele>84.0</ele><time>2026-04-17T16:19:54.082Z</time></trkpt><trkpt lat="44.0430967" lon="8.1918117"><ele>84.0</ele><time>2026-04-17T16:19:56.083Z</time></trkpt><trkpt lat="44.04312" lon="8.1919267"><ele>84.0</ele><time>2026-04-17T16:19:59.082Z</time></trkpt><trkpt lat="44.0430833" lon="8.1920283"><ele>87.66666666666667</ele><time>2026-04-17T16:20:02.082Z</time></trkpt><trkpt lat="44.0430967" lon="8.1921367"><ele>91.33333333333334</ele><time>2026-04-17T16:20:04.082Z</time></trkpt><trkpt lat="44.043095" lon="8.192265"><ele>95.0</ele><time>2026-04-17T16:20:06.082Z</time></trkpt><trkpt lat="44.0430617" lon="8.1923517"><ele>98.66666666666667</ele><time>2026-04-17T16:20:08.083Z</time></trkpt><trkpt lat="44.0429983" lon="8.1924217"><ele>102.33333333333334</ele><time>2026-04-17T16:20:10.082Z</time></trkpt><trkpt lat="44.0429717" lon="8.1925117"><ele>106.0</ele><time>2026-04-17T16:20:12.082Z</time></trkpt><trkpt lat="44.0429617" lon="8.192635"><ele>109.83333333333334</ele><time>2026-04-17T16:20:14.082Z</time></trkpt><trkpt lat="44.04296" lon="8.1927567"><ele>113.66666666666667</ele><time>2026-04-17T16:20:16.083Z</time></trkpt><trkpt lat="44.0429617" lon="8.1928483"><ele>117.5</ele><time>2026-04-17T16:20:18.082Z</time></trkpt><trkpt lat="44.042935" lon="8.1929583"><ele>121.33333333333334</ele><time>2026-04-17T16:20:20.082Z</time></trkpt><trkpt lat="44.0429367" lon="8.19309"><ele>125.16666666666667</ele><time>2026-04-17T16:20:22.082Z</time></trkpt><trkpt lat="44.0429383" lon="8.1932533"><ele>129.0</ele><time>2026-04-17T16:20:24.082Z</time></trkpt><trkpt lat="44.04294" lon="8.1934267"><ele>132.0</ele><time>2026-04-17T16:20:26.083Z</time></trkpt><trkpt lat="44.0429033" lon="8.19357"><ele>135.0</ele><time>2026-04-17T16:20:28.083Z</time></trkpt><trkpt lat="44.0428767" lon="8.193695"><ele>138.0</ele><time>2026-04-17T16:20:30.083Z</time></trkpt><trkpt lat="44.04286" lon="8.1937983"><ele>141.0</ele><time>2026-04-17T16:20:32.083Z</time></trkpt><trkpt lat="44.042815" lon="8.1939017"><ele>144.0</ele><time>2026-04-17T16:20:35.082Z</time></trkpt><trkpt lat="44.0428" lon="8.1939983"><ele>147.0</ele><time>2026-04-17T16:20:37.082Z</time></trkpt><trkpt lat="44.0427617" lon="8.1941033"><ele>150.33333333333334</ele><time>2026-04-17T16:20:39.083Z</time></trkpt><trkpt lat="44.0427067" lon="8.1941767"><ele>153.66666666666666</ele><time>2026-04-17T16:20:41.082Z</time></trkpt><trkpt lat="44.0426767" lon="8.1942783"><ele>157.0</ele><time>2026-04-17T16:20:43.083Z</time></trkpt><trkpt lat="44.0426467" lon="8.1943867"><ele>160.33333333333331</ele><time>2026-04-17T16:20:45.083Z</time></trkpt><trkpt lat="44.0426" lon="8.1945033"><ele>163.66666666666666</ele><time>2026-04-17T16:20:47.083Z</time></trkpt><trkpt lat="44.0425567" lon="8.1946283"><ele>167.0</ele><time>2026-04-17T16:20:49.082Z</time></trkpt><trkpt lat="44.0425117" lon="8.1947683"><ele>169.83333333333331</ele><time>2026-04-17T16:20:51.083Z</time></trkpt><trkpt lat="44.0425017" lon="8.19489"><ele>172.66666666666666</ele><time>2026-04-17T16:20:53.083Z</time></trkpt><trkpt lat="44.042515" lon="8.1950533"><ele>175.5</ele><time>2026-04-17T16:20:55.082Z</time></trkpt><trkpt lat="44.0425267" lon="8.1951483"><ele>178.33333333333334</ele><time>2026-04-17T16:20:56.082Z</time></trkpt><trkpt lat="44.0425333" lon="8.1952383"><ele>181.16666666666669</ele><time>2026-04-17T16:20:57.083Z</time></trkpt><trkpt lat="44.0425417" lon="8.19533"><ele>184.0</ele><time>2026-04-17T16:20:58.082Z</time></trkpt><trkpt lat="44.0425483" lon="8.1954183"><ele>184.0</ele><time>2026-04-17T16:20:59.083Z</time></trkpt><trkpt lat="44.04256" lon="8.1955133"><ele>184.0</ele><time>2026-04-17T16:21:01.083Z</time></trkpt><trkpt lat="44.0426217" lon="8.1955317"><ele>184.0</ele><time>2026-04-17T16:21:03.083Z</time></trkpt><trkpt lat="44.042675" lon="8.1955817"><ele>184.0</ele><time>2026-04-17T16:21:05.082Z</time></trkpt><trkpt lat="44.0427433" lon="8.195675"><ele>184.0</ele><time>2026-04-17T16:21:07.083Z</time></trkpt><trkpt lat="44.042855" lon="8.19577"><ele>184.0</ele><time>2026-04-17T16:21:09.083Z</time></trkpt><trkpt lat="44.042955" lon="8.1958283"><ele>187.33333333333334</ele><time>2026-04-17T16:21:11.083Z</time></trkpt><trkpt lat="44.0430183" lon="8.1959133"><ele>190.66666666666669</ele><time>2026-04-17T16:21:14.082Z</time></trkpt><trkpt lat="44.04307" lon="8.1959817"><ele>194.0</ele><time>2026-04-17T16:21:17.082Z</time></trkpt><trkpt lat="44.0431083" lon="8.1960817"><ele>197.33333333333334</ele><time>2026-04-17T16:21:20.083Z</time></trkpt><trkpt lat="44.04313" lon="8.196175"><ele>200.66666666666666</ele><time>2026-04-17T16:21:22.082Z</time></trkpt><trkpt lat="44.0431517" lon="8.1962667"><ele>204.0</ele><time>2026-04-17T16:21:24.083Z</time></trkpt><trkpt lat="44.0431967" lon="8.1963583"><ele>204.0</ele><time>2026-04-17T16:21:27.083Z</time></trkpt><trkpt lat="44.0431983" lon="8.1964517"><ele>204.0</ele><time>2026-04-17T16:21:30.083Z</time></trkpt><trkpt lat="44.0431517" lon="8.196545"><ele>204.0</ele><time>2026-04-17T16:21:32.082Z</time></trkpt><trkpt lat="44.0430733" lon="8.1966817"><ele>204.0</ele><time>2026-04-17T16:21:34.083Z</time></trkpt><trkpt lat="44.0430283" lon="8.1967717"><ele>204.0</ele><time>2026-04-17T16:21:35.083Z</time></trkpt><trkpt lat="44.042985" lon="8.196845"><ele>204.0</ele><time>2026-04-17T16:21:36.082Z</time></trkpt><trkpt lat="44.0429083" lon="8.1969467"><ele>207.39999999999998</ele><time>2026-04-17T16:21:38.083Z</time></trkpt><trkpt lat="44.0428267" lon="8.1969717"><ele>210.8</ele><time>2026-04-17T16:21:40.082Z</time></trkpt><trkpt lat="44.0427317" lon="8.1970517"><ele>214.20000000000002</ele><time>2026-04-17T16:21:42.082Z</time></trkpt><trkpt lat="44.0426533" lon="8.197125"><ele>217.60000000000002</ele><time>2026-04-17T16:21:44.083Z</time></trkpt><trkpt lat="44.0425483" lon="8.19718"><ele>221.0</ele><time>2026-04-17T16:21:46.083Z</time></trkpt><trkpt lat="44.0425067" lon="8.19725"><ele>221.66666666666669</ele><time>2026-04-17T16:21:47.083Z</time></trkpt><trkpt lat="44.0424633" lon="8.1973317"><ele>222.33333333333334</ele><time>2026-04-17T16:21:48.082Z</time></trkpt><trkpt lat="44.0424167" lon="8.197405"><ele>223.0</ele><time>2026-04-17T16:21:49.082Z</time></trkpt><trkpt lat="44.0423833" lon="8.19748"><ele>223.66666666666669</ele><time>2026-04-17T16:21:50.083Z</time></trkpt><trkpt lat="44.0423667" lon="8.1975733"><ele>224.33333333333334</ele><time>2026-04-17T16:21:51.082Z</time></trkpt><trkpt lat="44.0423083" lon="8.1977183"><ele>225.0</ele><time>2026-04-17T16:21:53.083Z</time></trkpt><trkpt lat="44.0422617" lon="8.1977817"><ele>225.0</ele><time>2026-04-17T16:21:54.083Z</time></trkpt><trkpt lat="44.042165" lon="8.19786"><ele>225.0</ele><time>2026-04-17T16:21:56.083Z</time></trkpt><trkpt lat="44.042055" lon="8.1978933"><ele>225.0</ele><time>2026-04-17T16:21:58.082Z</time></trkpt><trkpt lat="44.0419917" lon="8.1979117"><ele>225.0</ele><time>2026-04-17T16:21:59.083Z</time></trkpt><trkpt lat="44.0419017" lon="8.1979633"><ele>225.0</ele><time>2026-04-17T16:22:01.083Z</time></trkpt><trkpt lat="44.0418367" lon="8.1979083"><ele>225.0</ele><time>2026-04-17T16:22:38.081Z</time></trkpt><trkpt lat="44.0417533" lon="8.19785"><ele>225.0</ele><time>2026-04-17T16:22:40.082Z</time></trkpt><trkpt lat="44.0416783" lon="8.1978267"><ele>225.0</ele><time>2026-04-17T16:22:41.082Z</time></trkpt><trkpt lat="44.0416033" lon="8.197795"><ele>225.0</ele><time>2026-04-17T16:22:42.081Z</time></trkpt><trkpt lat="44.0415317" lon="8.1977667"><ele>225.0</ele><time>2026-04-17T16:22:43.081Z</time></trkpt><trkpt lat="44.0414617" lon="8.1977283"><ele>225.0</ele><time>2026-04-17T16:22:44.082Z</time></trkpt><trkpt lat="44.0413983" lon="8.1976783"><ele>225.5</ele><time>2026-04-17T16:22:45.082Z</time></trkpt><trkpt lat="44.04134" lon="8.19764"><ele>226.0</ele><time>2026-04-17T16:22:46.081Z</time></trkpt><trkpt lat="44.0412683" lon="8.1975633"><ele>226.5</ele><time>2026-04-17T16:22:48.082Z</time></trkpt><trkpt lat="44.041195" lon="8.1974617"><ele>227.0</ele><time>2026-04-17T16:22:50.081Z</time></trkpt><trkpt lat="44.0411317" lon="8.19737"><ele>227.5</ele><time>2026-04-17T16:22:52.082Z</time></trkpt><trkpt lat="44.0410867" lon="8.1972583"><ele>228.0</ele><time>2026-04-17T16:22:55.082Z</time></trkpt><trkpt lat="44.0410333" lon="8.1971467"><ele>228.0</ele><time>2026-04-17T16:22:57.082Z</time></trkpt><trkpt lat="44.0409817" lon="8.197"><ele>228.0</ele><time>2026-04-17T16:22:59.082Z</time></trkpt><trkpt lat="44.0409533" lon="8.1968667"><ele>228.0</ele><time>2026-04-17T16:23:01.081Z</time></trkpt><trkpt lat="44.0409367" lon="8.1967567"><ele>228.0</ele><time>2026-04-17T16:23:03.082Z</time></trkpt><trkpt lat="44.0409217" lon="8.196635"><ele>228.0</ele><time>2026-04-17T16:23:51.082Z</time></trkpt><trkpt lat="44.0409" lon="8.196515"><ele>228.4</ele><time>2026-04-17T16:23:54.082Z</time></trkpt><trkpt lat="44.0408533" lon="8.1963967"><ele>228.8</ele><time>2026-04-17T16:23:56.082Z</time></trkpt><trkpt lat="44.04079" lon="8.1962617"><ele>229.2</ele><time>2026-04-17T16:23:58.082Z</time></trkpt><trkpt lat="44.040725" lon="8.1961567"><ele>229.6</ele><time>2026-04-17T16:24:00.082Z</time></trkpt><trkpt lat="44.04066" lon="8.1961067"><ele>230.0</ele><time>2026-04-17T16:24:02.081Z</time></trkpt><trkpt lat="44.040615" lon="8.1960317"><ele>230.0</ele><time>2026-04-17T16:24:04.082Z</time></trkpt><trkpt lat="44.040565" lon="8.195905"><ele>230.0</ele><time>2026-04-17T16:24:34.081Z</time></trkpt><trkpt lat="44.0405333" lon="8.1957967"><ele>230.0</ele><time>2026-04-17T16:24:36.082Z</time></trkpt><trkpt lat="44.0404933" lon="8.195685"><ele>230.0</ele><time>2026-04-17T16:24:38.081Z</time></trkpt><trkpt lat="44.0404617" lon="8.1955733"><ele>230.0</ele><time>2026-04-17T16:24:40.082Z</time></trkpt><trkpt lat="44.0404217" lon="8.1954633"><ele>226.66666666666669</ele><time>2026-04-17T16:24:42.081Z</time></trkpt><trkpt lat="44.0403633" lon="8.195365"><ele>223.33333333333334</ele><time>2026-04-17T16:24:44.081Z</time></trkpt><trkpt lat="44.0402917" lon="8.1952717"><ele>220.0</ele><time>2026-04-17T16:24:46.081Z</time></trkpt><trkpt lat="44.0402233" lon="8.1952033"><ele>216.66666666666669</ele><time>2026-04-17T16:24:48.082Z</time></trkpt><trkpt lat="44.0401367" lon="8.1952333"><ele>213.33333333333334</ele><time>2026-04-17T16:24:51.081Z</time></trkpt><trkpt lat="44.0400783" lon="8.1952683"><ele>210.0</ele><time>2026-04-17T16:24:53.081Z</time></trkpt><trkpt lat="44.0400167" lon="8.1953117"><ele>210.0</ele><time>2026-04-17T16:24:56.081Z</time></trkpt><trkpt lat="44.0399717" lon="8.195245"><ele>210.0</ele><time>2026-04-17T16:25:00.081Z</time></trkpt><trkpt lat="44.04" lon="8.1951083"><ele>210.0</ele><time>2026-04-17T16:25:02.082Z</time></trkpt><trkpt lat="44.0399733" lon="8.1949683"><ele>210.0</ele><time>2026-04-17T16:25:04.081Z</time></trkpt><trkpt lat="44.03988" lon="8.194855"><ele>210.0</ele><time>2026-04-17T16:25:06.082Z</time></trkpt><trkpt lat="44.0398" lon="8.1948233"><ele>207.2</ele><time>2026-04-17T16:25:08.082Z</time></trkpt><trkpt lat="44.0397183" lon="8.19479"><ele>204.4</ele><time>2026-04-17T16:25:10.082Z</time></trkpt><trkpt lat="44.0396367" lon="8.1947533"><ele>201.60000000000002</ele><time>2026-04-17T16:25:12.082Z</time></trkpt><trkpt lat="44.0395433" lon="8.1946733"><ele>198.8</ele><time>2026-04-17T16:25:14.081Z</time></trkpt><trkpt lat="44.0394383" lon="8.1945783"><ele>196.0</ele><time>2026-04-17T16:25:16.082Z</time></trkpt><trkpt lat="44.039335" lon="8.1945017"><ele>196.0</ele><time>2026-04-17T16:25:18.082Z</time></trkpt><trkpt lat="44.0392317" lon="8.1945017"><ele>196.0</ele><time>2026-04-17T16:25:20.081Z</time></trkpt><trkpt lat="44.0391417" lon="8.194475"><ele>196.0</ele><time>2026-04-17T16:25:22.081Z</time></trkpt><trkpt lat="44.0390267" lon="8.19442"><ele>196.0</ele><time>2026-04-17T16:25:24.081Z</time></trkpt><trkpt lat="44.0389617" lon="8.19438"><ele>196.0</ele><time>2026-04-17T16:25:25.082Z</time></trkpt><trkpt lat="44.038905" lon="8.1943383"><ele>195.8</ele><time>2026-04-17T16:25:26.082Z</time></trkpt><trkpt lat="44.038835" lon="8.1942467"><ele>195.60000000000002</ele><time>2026-04-17T16:25:28.081Z</time></trkpt><trkpt lat="44.038785" lon="8.194125"><ele>195.4</ele><time>2026-04-17T16:25:37.081Z</time></trkpt><trkpt lat="44.0388067" lon="8.1939617"><ele>195.2</ele><time>2026-04-17T16:25:39.082Z</time></trkpt><trkpt lat="44.0388267" lon="8.193845"><ele>195.0</ele><time>2026-04-17T16:25:40.082Z</time></trkpt><trkpt lat="44.03884" lon="8.1937233"><ele>195.0</ele><time>2026-04-17T16:25:41.081Z</time></trkpt><trkpt lat="44.03885" lon="8.1936217"><ele>195.0</ele><time>2026-04-17T16:25:42.081Z</time></trkpt><trkpt lat="44.0388583" lon="8.19353"><ele>195.0</ele><time>2026-04-17T16:25:43.081Z</time></trkpt><trkpt lat="44.038885" lon="8.1934417"><ele>195.0</ele><time>2026-04-17T16:25:44.082Z</time></trkpt><trkpt lat="44.038915" lon="8.1933567"><ele>195.0</ele><time>2026-04-17T16:25:45.081Z</time></trkpt><trkpt lat="44.038945" lon="8.1932667"><ele>195.0</ele><time>2026-04-17T16:25:46.082Z</time></trkpt><trkpt lat="44.0389817" lon="8.193175"><ele>195.0</ele><time>2026-04-17T16:25:47.082Z</time></trkpt><trkpt lat="44.039025" lon="8.1930683"><ele>191.2</ele><time>2026-04-17T16:25:48.082Z</time></trkpt><trkpt lat="44.0390683" lon="8.1929717"><ele>187.4</ele><time>2026-04-17T16:25:49.081Z</time></trkpt><trkpt lat="44.0391033" lon="8.1928833"><ele>183.60000000000002</ele><time>2026-04-17T16:25:50.081Z</time></trkpt><trkpt lat="44.039135" lon="8.1927333"><ele>179.8</ele><time>2026-04-17T16:25:52.081Z</time></trkpt><trkpt lat="44.0391167" lon="8.1925783"><ele>176.0</ele><time>2026-04-17T16:25:54.081Z</time></trkpt><trkpt lat="44.0390767" lon="8.192465"><ele>176.0</ele><time>2026-04-17T16:25:56.081Z</time></trkpt><trkpt lat="44.039005" lon="8.1924367"><ele>176.0</ele><time>2026-04-17T16:25:58.082Z</time></trkpt><trkpt lat="44.0389033" lon="8.1924733"><ele>176.0</ele><time>2026-04-17T16:26:00.082Z</time></trkpt><trkpt lat="44.0388217" lon="8.1925133"><ele>176.0</ele><time>2026-04-17T16:26:02.081Z</time></trkpt><trkpt lat="44.0387617" lon="8.192455"><ele>176.0</ele><time>2026-04-17T16:26:04.082Z</time></trkpt><trkpt lat="44.0387217" lon="8.1923867"><ele>176.0</ele><time>2026-04-17T16:26:05.082Z</time></trkpt><trkpt lat="44.03864" lon="8.192275"><ele>172.8</ele><time>2026-04-17T16:26:07.082Z</time></trkpt><trkpt lat="44.0385333" lon="8.1922283"><ele>169.60000000000002</ele><time>2026-04-17T16:26:09.082Z</time></trkpt><trkpt lat="44.0384533" lon="8.192145"><ele>166.4</ele><time>2026-04-17T16:26:11.082Z</time></trkpt><trkpt lat="44.0383783" lon="8.1920867"><ele>163.2</ele><time>2026-04-17T16:26:13.081Z</time></trkpt><trkpt lat="44.0383033" lon="8.1920667"><ele>160.0</ele><time>2026-04-17T16:26:15.082Z</time></trkpt><trkpt lat="44.0383533" lon="8.1919733"><ele>160.0</ele><time>2026-04-17T16:27:25.08Z</time></trkpt><trkpt lat="44.03843" lon="8.19188"><ele>160.0</ele><time>2026-04-17T16:27:27.081Z</time></trkpt><trkpt lat="44.0384817" lon="8.1918217"><ele>160.0</ele><time>2026-04-17T16:27:28.081Z</time></trkpt><trkpt lat="44.0385333" lon="8.1917583"><ele>160.0</ele><time>2026-04-17T16:27:29.08Z</time></trkpt><trkpt lat="44.03859" lon="8.1917017"><ele>160.0</ele><time>2026-04-17T16:27:30.081Z</time></trkpt><trkpt lat="44.0386467" lon="8.1916533"><ele>160.0</ele><time>2026-04-17T16:27:31.08Z</time></trkpt><trkpt lat="44.0387683" lon="8.1916217"><ele>160.0</ele><time>2026-04-17T16:27:33.081Z</time></trkpt><trkpt lat="44.0388367" lon="8.1916067"><ele>160.0</ele><time>2026-04-17T16:27:34.081Z</time></trkpt><trkpt lat="44.0389033" lon="8.1915817"><ele>160.0</ele><time>2026-04-17T16:27:35.081Z</time></trkpt><trkpt lat="44.03898" lon="8.19154"><ele>160.0</ele><time>2026-04-17T16:27:36.08Z</time></trkpt><trkpt lat="44.039055" lon="8.19148"><ele>160.0</ele><time>2026-04-17T16:27:37.08Z</time></trkpt><trkpt lat="44.0391217" lon="8.1914133"><ele>160.0</ele><time>2026-04-17T16:27:38.081Z</time></trkpt><trkpt lat="44.03918" lon="8.191335"><ele>157.5</ele><time>2026-04-17T16:27:39.081Z</time></trkpt><trkpt lat="44.03924" lon="8.19125"><ele>155.0</ele><time>2026-04-17T16:27:40.08Z</time></trkpt><trkpt lat="44.0392933" lon="8.1911367"><ele>152.5</ele><time>2026-04-17T16:27:41.081Z</time></trkpt><trkpt lat="44.0393433" lon="8.1910317"><ele>150.0</ele><time>2026-04-17T16:27:42.08Z</time></trkpt><trkpt lat="44.0394017" lon="8.190935"><ele>147.5</ele><time>2026-04-17T16:27:43.081Z</time></trkpt><trkpt lat="44.0394617" lon="8.1908733"><ele>145.0</ele><time>2026-04-17T16:27:44.081Z</time></trkpt><trkpt lat="44.039565" lon="8.1908317"><ele>145.0</ele><time>2026-04-17T16:27:46.081Z</time></trkpt><trkpt lat="44.0396567" lon="8.1909267"><ele>145.0</ele><time>2026-04-17T16:27:48.08Z</time></trkpt><trkpt lat="44.0396983" lon="8.19109"><ele>145.0</ele><time>2026-04-17T16:27:50.08Z</time></trkpt><trkpt lat="44.0396983" lon="8.1912083"><ele>145.0</ele><time>2026-04-17T16:27:51.08Z</time></trkpt><trkpt lat="44.0397033" lon="8.1913167"><ele>145.0</ele><time>2026-04-17T16:27:52.081Z</time></trkpt><trkpt lat="44.0397067" lon="8.1914133"><ele>145.0</ele><time>2026-04-17T16:27:53.08Z</time></trkpt><trkpt lat="44.0397267" lon="8.1915783"><ele>145.0</ele><time>2026-04-17T16:27:55.08Z</time></trkpt><trkpt lat="44.03975" lon="8.19171"><ele>145.0</ele><time>2026-04-17T16:27:57.081Z</time></trkpt><trkpt lat="44.039815" lon="8.1916333"><ele>145.0</ele><time>2026-04-17T16:28:01.08Z</time></trkpt><trkpt lat="44.0398333" lon="8.1915417"><ele>145.0</ele><time>2026-04-17T16:28:02.08Z</time></trkpt><trkpt lat="44.0398467" lon="8.1914067"><ele>145.0</ele><time>2026-04-17T16:28:03.08Z</time></trkpt><trkpt lat="44.0398767" lon="8.1912833"><ele>145.0</ele><time>2026-04-17T16:28:04.08Z</time></trkpt><trkpt lat="44.0399067" lon="8.1911617"><ele>145.0</ele><time>2026-04-17T16:28:05.081Z</time></trkpt><trkpt lat="44.0399317" lon="8.1910483"><ele>145.0</ele><time>2026-04-17T16:28:06.081Z</time></trkpt><trkpt lat="44.0399417" lon="8.1909433"><ele>145.0</ele><time>2026-04-17T16:28:07.08Z</time></trkpt><trkpt lat="44.0399383" lon="8.1908467"><ele>145.0</ele><time>2026-04-17T16:28:08.081Z</time></trkpt><trkpt lat="44.0399233" lon="8.1907283"><ele>141.5</ele><time>2026-04-17T16:28:09.08Z</time></trkpt><trkpt lat="44.0399133" lon="8.19061"><ele>138.0</ele><time>2026-04-17T16:28:10.081Z</time></trkpt><trkpt lat="44.0399067" lon="8.1904967"><ele>134.5</ele><time>2026-04-17T16:28:11.081Z</time></trkpt><trkpt lat="44.03992" lon="8.1904"><ele>131.0</ele><time>2026-04-17T16:28:12.081Z</time></trkpt><trkpt lat="44.0399333" lon="8.1902417"><ele>127.50000000000001</ele><time>2026-04-17T16:28:14.081Z</time></trkpt><trkpt lat="44.0399183" lon="8.1901183"><ele>124.0</ele><time>2026-04-17T16:28:16.08Z</time></trkpt><trkpt lat="44.0398217" lon="8.19013"><ele>124.0</ele><time>2026-04-17T16:28:57.08Z</time></trkpt><trkpt lat="44.0396883" lon="8.1901717"><ele>124.0</ele><time>2026-04-17T16:28:59.081Z</time></trkpt><trkpt lat="44.0395867" lon="8.19019"><ele>124.0</ele><time>2026-04-17T16:29:00.081Z</time></trkpt><trkpt lat="44.039495" lon="8.1902183"><ele>124.0</ele><time>2026-04-17T16:29:01.08Z</time></trkpt><trkpt lat="44.0394133" lon="8.1902483"><ele>124.0</ele><time>2026-04-17T16:29:02.08Z</time></trkpt><trkpt lat="44.0393333" lon="8.1902533"><ele>124.00000000000001</ele><time>2026-04-17T16:29:03.081Z</time></trkpt><trkpt lat="44.0392483" lon="8.19025"><ele>124.0</ele><time>2026-04-17T16:29:04.081Z</time></trkpt><trkpt lat="44.03917" lon="8.1902283"><ele>124.0</ele><time>2026-04-17T16:29:05.081Z</time></trkpt><trkpt lat="44.0390967" lon="8.19017"><ele>124.0</ele><time>2026-04-17T16:29:06.08Z</time></trkpt><trkpt lat="44.0390517" lon="8.1900817"><ele>124.00000000000001</ele><time>2026-04-17T16:29:07.081Z</time></trkpt><trkpt lat="44.039015" lon="8.1900017"><ele>124.0</ele><time>2026-04-17T16:29:08.081Z</time></trkpt><trkpt lat="44.038975" lon="8.1899317"><ele>123.33333333333334</ele><time>2026-04-17T16:29:09.08Z</time></trkpt><trkpt lat="44.0389167" lon="8.1898767"><ele>122.66666666666667</ele><time>2026-04-17T16:29:10.081Z</time></trkpt><trkpt lat="44.03884" lon="8.18982"><ele>122.0</ele><time>2026-04-17T16:29:11.081Z</time></trkpt><trkpt lat="44.03875" lon="8.189785"><ele>121.33333333333334</ele><time>2026-04-17T16:29:12.08Z</time></trkpt><trkpt lat="44.0386617" lon="8.1897583"><ele>120.66666666666667</ele><time>2026-04-17T16:29:13.08Z</time></trkpt><trkpt lat="44.03858" lon="8.18974"><ele>120.0</ele><time>2026-04-17T16:29:14.081Z</time></trkpt><trkpt lat="44.038495" lon="8.18973"><ele>120.0</ele><time>2026-04-17T16:29:15.08Z</time></trkpt><trkpt lat="44.03841" lon="8.1897283"><ele>120.0</ele><time>2026-04-17T16:29:16.08Z</time></trkpt><trkpt lat="44.0383383" lon="8.1897383"><ele>120.0</ele><time>2026-04-17T16:29:17.081Z</time></trkpt><trkpt lat="44.0382733" lon="8.1897567"><ele>120.0</ele><time>2026-04-17T16:29:18.081Z</time></trkpt><trkpt lat="44.0381767" lon="8.18982"><ele>120.0</ele><time>2026-04-17T16:29:20.08Z</time></trkpt><trkpt lat="44.0381017" lon="8.189855"><ele>120.0</ele><time>2026-04-17T16:29:23.08Z</time></trkpt><trkpt lat="44.03807" lon="8.1897567"><ele>123.71428571428572</ele><time>2026-04-17T16:29:25.08Z</time></trkpt><trkpt lat="44.03807" lon="8.1896567"><ele>127.42857142857142</ele><time>2026-04-17T16:29:26.081Z</time></trkpt><trkpt lat="44.038055" lon="8.1895633"><ele>131.14285714285714</ele><time>2026-04-17T16:29:27.081Z</time></trkpt><trkpt lat="44.0380383" lon="8.1894583"><ele>134.85714285714286</ele><time>2026-04-17T16:29:29.08Z</time></trkpt><trkpt lat="44.0380083" lon="8.1893683"><ele>138.57142857142858</ele><time>2026-04-17T16:29:32.08Z</time></trkpt><trkpt lat="44.0380017" lon="8.1892717"><ele>142.28571428571428</ele><time>2026-04-17T16:29:35.08Z</time></trkpt><trkpt lat="44.0380033" lon="8.1891833"><ele>146.0</ele><time>2026-04-17T16:29:37.081Z</time></trkpt><trkpt lat="44.0380617" lon="8.189015"><ele>149.4</ele><time>2026-04-17T16:29:39.08Z</time></trkpt><trkpt lat="44.0381317" lon="8.1889"><ele>152.8</ele><time>2026-04-17T16:29:40.08Z</time></trkpt><trkpt lat="44.0381883" lon="8.188765"><ele>156.20000000000002</ele><time>2026-04-17T16:29:41.081Z</time></trkpt><trkpt lat="44.0382517" lon="8.1886267"><ele>159.6</ele><time>2026-04-17T16:29:42.08Z</time></trkpt><trkpt lat="44.03832" lon="8.18851"><ele>163.0</ele><time>2026-04-17T16:29:43.081Z</time></trkpt><trkpt lat="44.0383983" lon="8.1884"><ele>158.0</ele><time>2026-04-17T16:29:44.081Z</time></trkpt><trkpt lat="44.03848" lon="8.1883067"><ele>153.0</ele><time>2026-04-17T16:29:45.081Z</time></trkpt><trkpt lat="44.0385517" lon="8.1882133"><ele>148.0</ele><time>2026-04-17T16:29:46.08Z</time></trkpt><trkpt lat="44.0386167" lon="8.1881167"><ele>143.0</ele><time>2026-04-17T16:29:47.08Z</time></trkpt><trkpt lat="44.038665" lon="8.1880183"><ele>138.0</ele><time>2026-04-17T16:29:48.081Z</time></trkpt><trkpt lat="44.0387417" lon="8.187935"><ele>138.0</ele><time>2026-04-17T16:29:49.08Z</time></trkpt><trkpt lat="44.0388233" lon="8.187845"><ele>138.0</ele><time>2026-04-17T16:29:50.08Z</time></trkpt><trkpt lat="44.038885" lon="8.1877333"><ele>138.0</ele><time>2026-04-17T16:29:51.08Z</time></trkpt><trkpt lat="44.038935" lon="8.1876217"><ele>138.0</ele><time>2026-04-17T16:29:52.08Z</time></trkpt><trkpt lat="44.0389733" lon="8.187505"><ele>138.0</ele><time>2026-04-17T16:29:53.08Z</time></trkpt><trkpt lat="44.0390117" lon="8.18741"><ele>140.16666666666666</ele><time>2026-04-17T16:29:54.081Z</time></trkpt><trkpt lat="44.0390567" lon="8.1873333"><ele>142.33333333333334</ele><time>2026-04-17T16:29:55.08Z</time></trkpt><trkpt lat="44.039105" lon="8.18726"><ele>144.5</ele><time>2026-04-17T16:29:56.081Z</time></trkpt><trkpt lat="44.0392317" lon="8.1872217"><ele>146.66666666666669</ele><time>2026-04-17T16:29:58.08Z</time></trkpt><trkpt lat="44.0393033" lon="8.18718"><ele>148.83333333333334</ele><time>2026-04-17T16:29:59.081Z</time></trkpt><trkpt lat="44.0393633" lon="8.1871217"><ele>151.0</ele><time>2026-04-17T16:30:00.081Z</time></trkpt><trkpt lat="44.0394033" lon="8.1870383"><ele>145.2</ele><time>2026-04-17T16:30:01.081Z</time></trkpt><trkpt lat="44.0394383" lon="8.18692"><ele>139.39999999999998</ele><time>2026-04-17T16:30:02.08Z</time></trkpt><trkpt lat="44.0394733" lon="8.1868067"><ele>133.6</ele><time>2026-04-17T16:30:03.081Z</time></trkpt><trkpt lat="44.0395117" lon="8.1866817"><ele>127.8</ele><time>2026-04-17T16:30:04.081Z</time></trkpt><trkpt lat="44.0395633" lon="8.1865617"><ele>122.0</ele><time>2026-04-17T16:30:05.081Z</time></trkpt><trkpt lat="44.0396183" lon="8.186465"><ele>121.99999999999999</ele><time>2026-04-17T16:30:06.08Z</time></trkpt><trkpt lat="44.0396783" lon="8.1863917"><ele>122.0</ele><time>2026-04-17T16:30:07.08Z</time></trkpt><trkpt lat="44.0397367" lon="8.1863367"><ele>122.0</ele><time>2026-04-17T16:30:08.081Z</time></trkpt><trkpt lat="44.03981" lon="8.1863067"><ele>122.0</ele><time>2026-04-17T16:30:09.08Z</time></trkpt><trkpt lat="44.0398883" lon="8.1862833"><ele>121.99999999999999</ele><time>2026-04-17T16:30:10.08Z</time></trkpt><trkpt lat="44.03996" lon="8.186225"><ele>122.0</ele><time>2026-04-17T16:30:11.081Z</time></trkpt><trkpt lat="44.0400317" lon="8.1861517"><ele>117.33333333333333</ele><time>2026-04-17T16:30:12.08Z</time></trkpt><trkpt lat="44.0401033" lon="8.18607"><ele>112.66666666666666</ele><time>2026-04-17T16:30:13.08Z</time></trkpt><trkpt lat="44.0401733" lon="8.1859917"><ele>108.0</ele><time>2026-04-17T16:30:14.08Z</time></trkpt><trkpt lat="44.0402417" lon="8.185905"><ele>103.33333333333333</ele><time>2026-04-17T16:30:15.08Z</time></trkpt><trkpt lat="44.040295" lon="8.18582"><ele>98.66666666666666</ele><time>2026-04-17T16:30:16.08Z</time></trkpt><trkpt lat="44.0403533" lon="8.1857583"><ele>94.0</ele><time>2026-04-17T16:30:17.08Z</time></trkpt><trkpt lat="44.0404083" lon="8.1857133"><ele>93.71428571428571</ele><time>2026-04-17T16:30:18.08Z</time></trkpt><trkpt lat="44.04047" lon="8.1856567"><ele>93.42857142857142</ele><time>2026-04-17T16:30:19.08Z</time></trkpt><trkpt lat="44.04054" lon="8.1855983"><ele>93.14285714285714</ele><time>2026-04-17T16:30:20.081Z</time></trkpt><trkpt lat="44.0406133" lon="8.185565"><ele>92.85714285714286</ele><time>2026-04-17T16:30:21.08Z</time></trkpt><trkpt lat="44.0406783" lon="8.1855417"><ele>92.57142857142857</ele><time>2026-04-17T16:30:22.08Z</time></trkpt><trkpt lat="44.0407483" lon="8.1855033"><ele>92.28571428571429</ele><time>2026-04-17T16:30:23.081Z</time></trkpt><trkpt lat="44.0408083" lon="8.1854533"><ele>92.0</ele><time>2026-04-17T16:30:24.081Z</time></trkpt><trkpt lat="44.0408933" lon="8.1853317"><ele>90.19999999999999</ele><time>2026-04-17T16:30:26.08Z</time></trkpt><trkpt lat="44.041005" lon="8.185225"><ele>88.4</ele><time>2026-04-17T16:30:28.081Z</time></trkpt><trkpt lat="44.0410717" lon="8.185185"><ele>86.6</ele><time>2026-04-17T16:30:29.08Z</time></trkpt><trkpt lat="44.04113" lon="8.1851483"><ele>84.80000000000001</ele><time>2026-04-17T16:30:30.08Z</time></trkpt><trkpt lat="44.0412117" lon="8.1850917"><ele>83.0</ele><time>2026-04-17T16:30:32.08Z</time></trkpt><trkpt lat="44.04117" lon="8.1849567"><ele>83.0</ele><time>2026-04-17T16:30:38.08Z</time></trkpt><trkpt lat="44.041045" lon="8.18496"><ele>83.0</ele><time>2026-04-17T16:30:40.081Z</time></trkpt><trkpt lat="44.040975" lon="8.1849883"><ele>83.0</ele><time>2026-04-17T16:30:41.08Z</time></trkpt><trkpt lat="44.0408983" lon="8.18503"><ele>83.0</ele><time>2026-04-17T16:30:42.08Z</time></trkpt><trkpt lat="44.0408167" lon="8.1850567"><ele>83.0</ele><time>2026-04-17T16:30:43.08Z</time></trkpt><trkpt lat="44.0407367" lon="8.185085"><ele>83.0</ele><time>2026-04-17T16:30:44.081Z</time></trkpt><trkpt lat="44.0406617" lon="8.1851183"><ele>84.80000000000001</ele><time>2026-04-17T16:30:45.08Z</time></trkpt><trkpt lat="44.0405767" lon="8.18516"><ele>86.6</ele><time>2026-04-17T16:30:46.081Z</time></trkpt><trkpt lat="44.0404833" lon="8.1851967"><ele>88.4</ele><time>2026-04-17T16:30:47.08Z</time></trkpt><trkpt lat="44.0403817" lon="8.1852267"><ele>90.19999999999999</ele><time>2026-04-17T16:30:48.081Z</time></trkpt><trkpt lat="44.04028" lon="8.185245"><ele>92.0</ele><time>2026-04-17T16:30:49.08Z</time></trkpt><trkpt lat="44.040185" lon="8.1852583"><ele>92.0</ele><time>2026-04-17T16:30:50.08Z</time></trkpt><trkpt lat="44.0401033" lon="8.185285"><ele>92.0</ele><time>2026-04-17T16:30:51.081Z</time></trkpt><trkpt lat="44.040035" lon="8.1852767"><ele>92.0</ele><time>2026-04-17T16:30:52.08Z</time></trkpt><trkpt lat="44.039995" lon="8.1853633"><ele>92.0</ele><time>2026-04-17T16:31:23.08Z</time></trkpt><trkpt lat="44.039985" lon="8.1854533"><ele>92.0</ele><time>2026-04-17T16:31:26.079Z</time></trkpt><trkpt lat="44.039945" lon="8.1855333"><ele>92.0</ele><time>2026-04-17T16:31:29.08Z</time></trkpt><trkpt lat="44.0398917" lon="8.1855867"><ele>92.0</ele><time>2026-04-17T16:31:31.079Z</time></trkpt><trkpt lat="44.0398233" lon="8.185595"><ele>94.0</ele><time>2026-04-17T16:31:33.079Z</time></trkpt><trkpt lat="44.0397683" lon="8.185655"><ele>96.0</ele><time>2026-04-17T16:31:38.079Z</time></trkpt><trkpt lat="44.0397033" lon="8.185705"><ele>98.0</ele><time>2026-04-17T16:31:42.08Z</time></trkpt><trkpt lat="44.0396467" lon="8.185745"><ele>100.0</ele><time>2026-04-17T16:31:44.08Z</time></trkpt><trkpt lat="44.0395683" lon="8.1857917"><ele>102.0</ele><time>2026-04-17T16:31:46.08Z</time></trkpt><trkpt lat="44.03948" lon="8.1857933"><ele>104.0</ele><time>2026-04-17T16:31:49.079Z</time></trkpt><trkpt lat="44.0394333" lon="8.1858617"><ele>106.0</ele><time>2026-04-17T16:31:51.079Z</time></trkpt><trkpt lat="44.0393683" lon="8.1859483"><ele>108.66666666666667</ele><time>2026-04-17T16:31:53.08Z</time></trkpt><trkpt lat="44.0393067" lon="8.1860067"><ele>111.33333333333334</ele><time>2026-04-17T16:31:55.08Z</time></trkpt><trkpt lat="44.0392633" lon="8.1861067"><ele>114.0</ele><time>2026-04-17T16:31:58.08Z</time></trkpt><trkpt lat="44.0391967" lon="8.18616"><ele>116.66666666666666</ele><time>2026-04-17T16:32:00.08Z</time></trkpt><trkpt lat="44.03913" lon="8.1862233"><ele>119.33333333333333</ele><time>2026-04-17T16:32:02.079Z</time></trkpt><trkpt lat="44.0390783" lon="8.186295"><ele>122.0</ele><time>2026-04-17T16:32:04.08Z</time></trkpt><trkpt lat="44.0390083" lon="8.1862967"><ele>124.57142857142856</ele><time>2026-04-17T16:32:08.079Z</time></trkpt><trkpt lat="44.0389433" lon="8.186325"><ele>127.14285714285714</ele><time>2026-04-17T16:32:12.079Z</time></trkpt><trkpt lat="44.0388883" lon="8.1863983"><ele>129.71428571428572</ele><time>2026-04-17T16:32:15.079Z</time></trkpt><trkpt lat="44.03882" lon="8.1864217"><ele>132.28571428571428</ele><time>2026-04-17T16:32:19.079Z</time></trkpt><trkpt lat="44.0387417" lon="8.1864217"><ele>134.85714285714286</ele><time>2026-04-17T16:32:24.08Z</time></trkpt><trkpt lat="44.038675" lon="8.1864083"><ele>137.42857142857142</ele><time>2026-04-17T16:32:29.08Z</time></trkpt><trkpt lat="44.0386033" lon="8.186425"><ele>140.0</ele><time>2026-04-17T16:32:32.08Z</time></trkpt><trkpt lat="44.0385383" lon="8.18643"><ele>140.0</ele><time>2026-04-17T16:32:34.08Z</time></trkpt><trkpt lat="44.038475" lon="8.1864617"><ele>140.0</ele><time>2026-04-17T16:32:37.08Z</time></trkpt><trkpt lat="44.0383667" lon="8.1865167"><ele>140.0</ele><time>2026-04-17T16:32:45.08Z</time></trkpt><trkpt lat="44.038305" lon="8.1865433"><ele>140.0</ele><time>2026-04-17T16:32:48.08Z</time></trkpt><trkpt lat="44.03823" lon="8.18658"><ele>140.0</ele><time>2026-04-17T16:32:51.08Z</time></trkpt><trkpt lat="44.0381467" lon="8.18664"><ele>140.0</ele><time>2026-04-17T16:32:54.079Z</time></trkpt><trkpt lat="44.0380683" lon="8.1866733"><ele>145.8</ele><time>2026-04-17T16:32:56.08Z</time></trkpt><trkpt lat="44.037995" lon="8.186705"><ele>151.6</ele><time>2026-04-17T16:32:59.08Z</time></trkpt><trkpt lat="44.0379333" lon="8.1867867"><ele>157.39999999999998</ele><time>2026-04-17T16:33:16.079Z</time></trkpt><trkpt lat="44.0378933" lon="8.186885"><ele>163.2</ele><time>2026-04-17T16:33:18.079Z</time></trkpt><trkpt lat="44.0378167" lon="8.1869983"><ele>169.0</ele><time>2026-04-17T16:33:20.08Z</time></trkpt><trkpt lat="44.0377283" lon="8.1870533"><ele>169.0</ele><time>2026-04-17T16:33:22.08Z</time></trkpt><trkpt lat="44.037635" lon="8.18708"><ele>169.0</ele><time>2026-04-17T16:33:25.08Z</time></trkpt><trkpt lat="44.0375683" lon="8.1870983"><ele>169.0</ele><time>2026-04-17T16:33:27.079Z</time></trkpt><trkpt lat="44.03749" lon="8.1871167"><ele>169.0</ele><time>2026-04-17T16:33:29.08Z</time></trkpt><trkpt lat="44.0374233" lon="8.1871183"><ele>169.0</ele><time>2026-04-17T16:33:31.08Z</time></trkpt><trkpt lat="44.03734" lon="8.1871383"><ele>169.0</ele><time>2026-04-17T16:33:34.079Z</time></trkpt><trkpt lat="44.0372767" lon="8.1871733"><ele>173.33333333333334</ele><time>2026-04-17T16:33:37.079Z</time></trkpt><trkpt lat="44.03721" lon="8.1872133"><ele>177.66666666666669</ele><time>2026-04-17T16:33:40.08Z</time></trkpt><trkpt lat="44.0371383" lon="8.18727"><ele>182.0</ele><time>2026-04-17T16:34:10.08Z</time></trkpt><trkpt lat="44.037075" lon="8.187275"><ele>186.33333333333334</ele><time>2026-04-17T16:34:13.08Z</time></trkpt><trkpt lat="44.037" lon="8.187325"><ele>190.66666666666666</ele><time>2026-04-17T16:34:16.08Z</time></trkpt><trkpt lat="44.03693" lon="8.1873933"><ele>195.0</ele><time>2026-04-17T16:34:19.079Z</time></trkpt><trkpt lat="44.0368767" lon="8.187465"><ele>197.5</ele><time>2026-04-17T16:34:22.08Z</time></trkpt><trkpt lat="44.0368033" lon="8.1875133"><ele>200.0</ele><time>2026-04-17T16:34:25.079Z</time></trkpt><trkpt lat="44.0367333" lon="8.1875567"><ele>202.5</ele><time>2026-04-17T16:34:28.079Z</time></trkpt><trkpt lat="44.03668" lon="8.1876117"><ele>205.0</ele><time>2026-04-17T16:34:30.079Z</time></trkpt><trkpt lat="44.0366067" lon="8.1876717"><ele>207.5</ele><time>2026-04-17T16:34:32.08Z</time></trkpt><trkpt lat="44.0365217" lon="8.1877417"><ele>210.0</ele><time>2026-04-17T16:34:34.079Z</time></trkpt><trkpt lat="44.0364633" lon="8.187805"><ele>213.0</ele><time>2026-04-17T16:34:36.079Z</time></trkpt><trkpt lat="44.036395" lon="8.187845"><ele>216.0</ele><time>2026-04-17T16:34:41.08Z</time></trkpt><trkpt lat="44.0363267" lon="8.1878683"><ele>219.0</ele><time>2026-04-17T16:34:43.079Z</time></trkpt><trkpt lat="44.03622" lon="8.1879367"><ele>222.0</ele><time>2026-04-17T16:34:45.079Z</time></trkpt><trkpt lat="44.036125" lon="8.1879867"><ele>225.0</ele><time>2026-04-17T16:34:47.079Z</time></trkpt><trkpt lat="44.0360633" lon="8.18796"><ele>228.0</ele><time>2026-04-17T16:34:49.079Z</time></trkpt><trkpt lat="44.0359817" lon="8.1878867"><ele>228.0</ele><time>2026-04-17T16:34:51.08Z</time></trkpt><trkpt lat="44.0359117" lon="8.1878217"><ele>228.0</ele><time>2026-04-17T16:34:52.079Z</time></trkpt><trkpt lat="44.0358367" lon="8.1877583"><ele>228.0</ele><time>2026-04-17T16:34:53.079Z</time></trkpt><trkpt lat="44.035755" lon="8.187705"><ele>228.0</ele><time>2026-04-17T16:34:54.08Z</time></trkpt><trkpt lat="44.0356833" lon="8.1876617"><ele>228.0</ele><time>2026-04-17T16:34:55.079Z</time></trkpt><trkpt lat="44.0356083" lon="8.1876133"><ele>228.0</ele><time>2026-04-17T16:34:56.079Z</time></trkpt><trkpt lat="44.0355433" lon="8.1875733"><ele>231.2</ele><time>2026-04-17T16:34:57.08Z</time></trkpt><trkpt lat="44.0354467" lon="8.1875533"><ele>234.4</ele><time>2026-04-17T16:34:59.079Z</time></trkpt><trkpt lat="44.0353683" lon="8.1875667"><ele>237.59999999999997</ele><time>2026-04-17T16:35:01.079Z</time></trkpt><trkpt lat="44.0353083" lon="8.1875317"><ele>240.79999999999998</ele><time>2026-04-17T16:35:03.079Z</time></trkpt><trkpt lat="44.0351933" lon="8.18754"><ele>244.0</ele><time>2026-04-17T16:35:26.08Z</time></trkpt><trkpt lat="44.0351383" lon="8.1876483"><ele>243.99999999999997</ele><time>2026-04-17T16:35:28.079Z</time></trkpt><trkpt lat="44.0350883" lon="8.18777"><ele>244.0</ele><time>2026-04-17T16:35:30.079Z</time></trkpt><trkpt lat="44.0350983" lon="8.1878683"><ele>244.0</ele><time>2026-04-17T16:35:32.079Z</time></trkpt><trkpt lat="44.0351033" lon="8.18796"><ele>244.0</ele><time>2026-04-17T16:35:35.079Z</time></trkpt><trkpt lat="44.0350317" lon="8.187985"><ele>243.99999999999997</ele><time>2026-04-17T16:35:39.079Z</time></trkpt><trkpt lat="44.03496" lon="8.1880183"><ele>244.0</ele><time>2026-04-17T16:35:41.079Z</time></trkpt><trkpt lat="44.0348817" lon="8.1880617"><ele>247.16666666666666</ele><time>2026-04-17T16:35:43.08Z</time></trkpt><trkpt lat="44.0348067" lon="8.1880717"><ele>250.33333333333331</ele><time>2026-04-17T16:35:45.08Z</time></trkpt><trkpt lat="44.0347" lon="8.1880733"><ele>253.5</ele><time>2026-04-17T16:35:48.079Z</time></trkpt><trkpt lat="44.03462" lon="8.1880883"><ele>256.6666666666667</ele><time>2026-04-17T16:35:50.08Z</time></trkpt><trkpt lat="44.0345433" lon="8.188135"><ele>259.83333333333337</ele><time>2026-04-17T16:35:52.079Z</time></trkpt><trkpt lat="44.034475" lon="8.1881733"><ele>263.0</ele><time>2026-04-17T16:35:54.08Z</time></trkpt><trkpt lat="44.0343833" lon="8.188225"><ele>264.2</ele><time>2026-04-17T16:35:56.079Z</time></trkpt><trkpt lat="44.034305" lon="8.18825"><ele>265.4</ele><time>2026-04-17T16:35:58.078Z</time></trkpt><trkpt lat="44.0342317" lon="8.18825"><ele>266.59999999999997</ele><time>2026-04-17T16:36:00.079Z</time></trkpt><trkpt lat="44.0341083" lon="8.188215"><ele>267.8</ele><time>2026-04-17T16:37:51.079Z</time></trkpt><trkpt lat="44.03403" lon="8.1882"><ele>269.0</ele><time>2026-04-17T16:37:53.078Z</time></trkpt><trkpt lat="44.033915" lon="8.1882067"><ele>272.6666666666667</ele><time>2026-04-17T16:37:55.079Z</time></trkpt><trkpt lat="44.0337917" lon="8.1882333"><ele>276.33333333333337</ele><time>2026-04-17T16:37:57.079Z</time></trkpt><trkpt lat="44.0336917" lon="8.1882617"><ele>280.0</ele><time>2026-04-17T16:37:59.079Z</time></trkpt><trkpt lat="44.033635" lon="8.1883033"><ele>283.6666666666667</ele><time>2026-04-17T16:38:13.078Z</time></trkpt><trkpt lat="44.0336283" lon="8.1883983"><ele>287.3333333333333</ele><time>2026-04-17T16:38:15.078Z</time></trkpt><trkpt lat="44.0336517" lon="8.188495"><ele>291.0</ele><time>2026-04-17T16:38:30.078Z</time></trkpt><trkpt lat="44.03368" lon="8.188595"><ele>291.0</ele><time>2026-04-17T16:38:32.078Z</time></trkpt><trkpt lat="44.033685" lon="8.188685"><ele>291.0</ele><time>2026-04-17T16:38:34.078Z</time></trkpt><trkpt lat="44.0336833" lon="8.18879"><ele>291.0</ele><time>2026-04-17T16:39:01.079Z</time></trkpt><trkpt lat="44.0335933" lon="8.1888083"><ele>291.0</ele><time>2026-04-17T16:39:04.078Z</time></trkpt><trkpt lat="44.03352" lon="8.1888033"><ele>291.0</ele><time>2026-04-17T16:39:06.078Z</time></trkpt><trkpt lat="44.0334533" lon="8.1887417"><ele>291.0</ele><time>2026-04-17T16:39:08.079Z</time></trkpt><trkpt lat="44.0333783" lon="8.1887167"><ele>291.0</ele><time>2026-04-17T16:39:11.079Z</time></trkpt><trkpt lat="44.0333167" lon="8.1886333"><ele>291.0</ele><time>2026-04-17T16:39:15.079Z</time></trkpt><trkpt lat="44.0332683" lon="8.1885317"><ele>291.0</ele><time>2026-04-17T16:39:18.078Z</time></trkpt><trkpt lat="44.0332183" lon="8.188465"><ele>291.0</ele><time>2026-04-17T16:39:20.078Z</time></trkpt><trkpt lat="44.033165" lon="8.1884083"><ele>291.0</ele><time>2026-04-17T16:39:22.079Z</time></trkpt><trkpt lat="44.0331033" lon="8.1883467"><ele>291.0</ele><time>2026-04-17T16:39:24.079Z</time></trkpt><trkpt lat="44.03304" lon="8.1882933"><ele>292.3333333333333</ele><time>2026-04-17T16:39:26.078Z</time></trkpt><trkpt lat="44.0329683" lon="8.188255"><ele>293.6666666666667</ele><time>2026-04-17T16:39:28.079Z</time></trkpt><trkpt lat="44.0329117" lon="8.1881717"><ele>295.0</ele><time>2026-04-17T16:39:31.079Z</time></trkpt><trkpt lat="44.03285" lon="8.1880633"><ele>296.33333333333337</ele><time>2026-04-17T16:39:34.079Z</time></trkpt><trkpt lat="44.0327717" lon="8.18798"><ele>297.6666666666667</ele><time>2026-04-17T16:39:36.079Z</time></trkpt><trkpt lat="44.03271" lon="8.1879417"><ele>299.0</ele><time>2026-04-17T16:39:37.078Z</time></trkpt><trkpt lat="44.03263" lon="8.1879083"><ele>299.0</ele><time>2026-04-17T16:39:38.079Z</time></trkpt><trkpt lat="44.0325517" lon="8.1878683"><ele>299.0</ele><time>2026-04-17T16:39:39.079Z</time></trkpt><trkpt lat="44.0324633" lon="8.18783"><ele>299.0</ele><time>2026-04-17T16:39:40.078Z</time></trkpt><trkpt lat="44.0323683" lon="8.187785"><ele>299.0</ele><time>2026-04-17T16:39:41.079Z</time></trkpt><trkpt lat="44.0322917" lon="8.1877367"><ele>299.0</ele><time>2026-04-17T16:39:42.078Z</time></trkpt><trkpt lat="44.0322183" lon="8.1877033"><ele>299.0</ele><time>2026-04-17T16:39:43.079Z</time></trkpt><trkpt lat="44.03209" lon="8.1877"><ele>301.85714285714283</ele><time>2026-04-17T16:39:45.079Z</time></trkpt><trkpt lat="44.03202" lon="8.1877033"><ele>304.7142857142857</ele><time>2026-04-17T16:39:46.079Z</time></trkpt><trkpt lat="44.0319567" lon="8.18772"><ele>307.57142857142856</ele><time>2026-04-17T16:39:47.079Z</time></trkpt><trkpt lat="44.031895" lon="8.187745"><ele>310.42857142857144</ele><time>2026-04-17T16:39:48.078Z</time></trkpt><trkpt lat="44.0318217" lon="8.1877483"><ele>313.2857142857143</ele><time>2026-04-17T16:39:50.078Z</time></trkpt><trkpt lat="44.0317567" lon="8.18776"><ele>316.14285714285717</ele><time>2026-04-17T16:39:52.078Z</time></trkpt><trkpt lat="44.03168" lon="8.187795"><ele>319.0</ele><time>2026-04-17T16:39:54.079Z</time></trkpt><trkpt lat="44.0316183" lon="8.1877633"><ele>327.2</ele><time>2026-04-17T16:39:56.079Z</time></trkpt><trkpt lat="44.0315567" lon="8.187685"><ele>335.4</ele><time>2026-04-17T16:39:58.079Z</time></trkpt><trkpt lat="44.031475" lon="8.187605"><ele>343.6</ele><time>2026-04-17T16:40:00.079Z</time></trkpt><trkpt lat="44.0313633" lon="8.1875333"><ele>351.8</ele><time>2026-04-17T16:40:02.078Z</time></trkpt><trkpt lat="44.031285" lon="8.1874717"><ele>360.0</ele><time>2026-04-17T16:40:04.078Z</time></trkpt><trkpt lat="44.0312283" lon="8.1874283"><ele>360.0</ele><time>2026-04-17T16:40:06.079Z</time></trkpt><trkpt lat="44.0311833" lon="8.1873667"><ele>360.0</ele><time>2026-04-17T16:40:08.078Z</time></trkpt><trkpt lat="44.0311617" lon="8.1872483"><ele>360.0</ele><time>2026-04-17T16:40:10.078Z</time></trkpt><trkpt lat="44.0311417" lon="8.1871567"><ele>360.0</ele><time>2026-04-17T16:40:11.079Z</time></trkpt><trkpt lat="44.0311233" lon="8.18706"><ele>360.0</ele><time>2026-04-17T16:40:12.079Z</time></trkpt><trkpt lat="44.031115" lon="8.1868983"><ele>360.0</ele><time>2026-04-17T16:40:14.079Z</time></trkpt><trkpt lat="44.0310917" lon="8.1867717"><ele>358.0</ele><time>2026-04-17T16:40:16.078Z</time></trkpt><trkpt lat="44.0310133" lon="8.1867"><ele>356.0</ele><time>2026-04-17T16:40:18.079Z</time></trkpt><trkpt lat="44.030955" lon="8.1866667"><ele>354.0</ele><time>2026-04-17T16:40:19.078Z</time></trkpt><trkpt lat="44.0308933" lon="8.1866317"><ele>352.0</ele><time>2026-04-17T16:40:20.079Z</time></trkpt><trkpt lat="44.0307883" lon="8.1865933"><ele>350.0</ele><time>2026-04-17T16:40:22.079Z</time></trkpt><trkpt lat="44.0306967" lon="8.186555"><ele>348.0</ele><time>2026-04-17T16:40:24.078Z</time></trkpt><trkpt lat="44.03064" lon="8.1864817"><ele>356.8333333333333</ele><time>2026-04-17T16:40:26.079Z</time></trkpt><trkpt lat="44.0306033" lon="8.186385"><ele>365.66666666666663</ele><time>2026-04-17T16:40:28.078Z</time></trkpt><trkpt lat="44.030555" lon="8.186305"><ele>374.5</ele><time>2026-04-17T16:40:30.078Z</time></trkpt><trkpt lat="44.0305717" lon="8.1861867"><ele>383.3333333333333</ele><time>2026-04-17T16:40:33.077Z</time></trkpt><trkpt lat="44.0306083" lon="8.1861"><ele>392.16666666666663</ele><time>2026-04-17T16:40:35.078Z</time></trkpt><trkpt lat="44.0306467" lon="8.185985"><ele>401.0</ele><time>2026-04-17T16:40:37.078Z</time></trkpt><trkpt lat="44.0306817" lon="8.1858317"><ele>404.6</ele><time>2026-04-17T16:40:39.078Z</time></trkpt><trkpt lat="44.0307217" lon="8.1856667"><ele>408.20000000000005</ele><time>2026-04-17T16:40:41.077Z</time></trkpt><trkpt lat="44.0307483" lon="8.1855633"><ele>411.79999999999995</ele><time>2026-04-17T16:40:42.078Z</time></trkpt><trkpt lat="44.03077" lon="8.18543"><ele>415.4</ele><time>2026-04-17T16:40:44.077Z</time></trkpt><trkpt lat="44.030825" lon="8.18534"><ele>419.0</ele><time>2026-04-17T16:40:46.077Z</time></trkpt><trkpt lat="44.0308533" lon="8.1852567"><ele>421.49999999999994</ele><time>2026-04-17T16:40:48.077Z</time></trkpt><trkpt lat="44.0308433" lon="8.185145"><ele>424.0</ele><time>2026-04-17T16:40:50.078Z</time></trkpt><trkpt lat="44.0308483" lon="8.1850483"><ele>426.5</ele><time>2026-04-17T16:40:52.077Z</time></trkpt><trkpt lat="44.0308633" lon="8.18495"><ele>429.0</ele><time>2026-04-17T16:40:54.077Z</time></trkpt><trkpt lat="44.030835" lon="8.1848033"><ele>431.49999999999994</ele><time>2026-04-17T16:41:00.077Z</time></trkpt><trkpt lat="44.030815" lon="8.1847133"><ele>434.0</ele><time>2026-04-17T16:41:02.077Z</time></trkpt><trkpt lat="44.030795" lon="8.1845933"><ele>433.99999999999994</ele><time>2026-04-17T16:41:05.077Z</time></trkpt><trkpt lat="44.0308017" lon="8.1844833"><ele>434.0</ele><time>2026-04-17T16:41:07.077Z</time></trkpt><trkpt lat="44.0308033" lon="8.18439"><ele>434.0</ele><time>2026-04-17T16:41:09.077Z</time></trkpt><trkpt lat="44.0308033" lon="8.18425"><ele>434.0</ele><time>2026-04-17T16:41:11.078Z</time></trkpt><trkpt lat="44.0307967" lon="8.1841567"><ele>433.99999999999994</ele><time>2026-04-17T16:41:12.077Z</time></trkpt><trkpt lat="44.0307633" lon="8.18401"><ele>434.0</ele><time>2026-04-17T16:41:14.078Z</time></trkpt><trkpt lat="44.0307233" lon="8.18389"><ele>433.99999999999994</ele><time>2026-04-17T16:41:16.077Z</time></trkpt><trkpt lat="44.030725" lon="8.1838"><ele>434.0</ele><time>2026-04-17T16:41:18.078Z</time></trkpt><trkpt lat="44.030785" lon="8.1837267"><ele>434.0</ele><time>2026-04-17T16:41:20.077Z</time></trkpt><trkpt lat="44.0308517" lon="8.183615"><ele>434.0</ele><time>2026-04-17T16:41:22.077Z</time></trkpt><trkpt lat="44.0309033" lon="8.1835067"><ele>433.99999999999994</ele><time>2026-04-17T16:41:24.078Z</time></trkpt><trkpt lat="44.0309383" lon="8.1833733"><ele>434.0</ele><time>2026-04-17T16:41:26.078Z</time></trkpt><trkpt lat="44.030935" lon="8.1832467"><ele>432.3333333333333</ele><time>2026-04-17T16:41:28.078Z</time></trkpt><trkpt lat="44.030915" lon="8.18316"><ele>430.66666666666663</ele><time>2026-04-17T16:41:30.077Z</time></trkpt><trkpt lat="44.0308467" lon="8.1830967"><ele>429.0</ele><time>2026-04-17T16:41:37.078Z</time></trkpt><trkpt lat="44.0307533" lon="8.1830117"><ele>427.33333333333337</ele><time>2026-04-17T16:41:39.077Z</time></trkpt><trkpt lat="44.0306967" lon="8.182955"><ele>425.6666666666667</ele><time>2026-04-17T16:41:40.077Z</time></trkpt><trkpt lat="44.0306317" lon="8.1828917"><ele>424.0</ele><time>2026-04-17T16:41:41.078Z</time></trkpt><trkpt lat="44.0305783" lon="8.1828333"><ele>424.00000000000006</ele><time>2026-04-17T16:41:42.078Z</time></trkpt><trkpt lat="44.0304783" lon="8.1827283"><ele>424.0</ele><time>2026-04-17T16:41:44.077Z</time></trkpt><trkpt lat="44.030405" lon="8.1826433"><ele>424.0</ele><time>2026-04-17T16:41:46.077Z</time></trkpt><trkpt lat="44.0303583" lon="8.18258"><ele>424.0</ele><time>2026-04-17T16:41:48.078Z</time></trkpt><trkpt lat="44.030315" lon="8.1825133"><ele>424.00000000000006</ele><time>2026-04-17T16:41:50.078Z</time></trkpt><trkpt lat="44.0302833" lon="8.1823883"><ele>424.0</ele><time>2026-04-17T16:41:53.077Z</time></trkpt><trkpt lat="44.030275" lon="8.182285"><ele>422.33333333333337</ele><time>2026-04-17T16:41:55.077Z</time></trkpt><trkpt lat="44.03027" lon="8.18217"><ele>420.6666666666667</ele><time>2026-04-17T16:41:58.077Z</time></trkpt><trkpt lat="44.0302683" lon="8.1820733"><ele>419.0</ele><time>2026-04-17T16:42:00.077Z</time></trkpt><trkpt lat="44.03025" lon="8.1819733"><ele>417.33333333333337</ele><time>2026-04-17T16:42:03.077Z</time></trkpt><trkpt lat="44.0302283" lon="8.18187"><ele>415.6666666666667</ele><time>2026-04-17T16:42:06.077Z</time></trkpt><trkpt lat="44.030185" lon="8.1817783"><ele>414.0</ele><time>2026-04-17T16:42:10.077Z</time></trkpt><trkpt lat="44.030175" lon="8.1816617"><ele>414.0</ele><time>2026-04-17T16:42:14.078Z</time></trkpt><trkpt lat="44.030165" lon="8.1815533"><ele>414.0</ele><time>2026-04-17T16:42:17.077Z</time></trkpt><trkpt lat="44.0301483" lon="8.1814467"><ele>414.0</ele><time>2026-04-17T16:42:20.078Z</time></trkpt><trkpt lat="44.0301483" lon="8.1813417"><ele>414.0</ele><time>2026-04-17T16:42:24.078Z</time></trkpt><trkpt lat="44.0301433" lon="8.1812467"><ele>414.0</ele><time>2026-04-17T16:42:27.078Z</time></trkpt><trkpt lat="44.0301367" lon="8.181125"><ele>414.0</ele><time>2026-04-17T16:42:29.077Z</time></trkpt><trkpt lat="44.03012" lon="8.180965"><ele>416.2</ele><time>2026-04-17T16:42:31.078Z</time></trkpt><trkpt lat="44.0301" lon="8.18081"><ele>418.4</ele><time>2026-04-17T16:42:33.078Z</time></trkpt><trkpt lat="44.0301083" lon="8.1806667"><ele>420.6</ele><time>2026-04-17T16:42:35.078Z</time></trkpt><trkpt lat="44.030155" lon="8.1805367"><ele>422.8</ele><time>2026-04-17T16:42:37.077Z</time></trkpt><trkpt lat="44.030195" lon="8.1804067"><ele>425.0</ele><time>2026-04-17T16:42:39.077Z</time></trkpt><trkpt lat="44.03021" lon="8.1803083"><ele>425.99999999999994</ele><time>2026-04-17T16:42:41.078Z</time></trkpt><trkpt lat="44.030185" lon="8.1802167"><ele>427.0</ele><time>2026-04-17T16:42:44.077Z</time></trkpt><trkpt lat="44.0301483" lon="8.180125"><ele>428.0</ele><time>2026-04-17T16:42:46.078Z</time></trkpt><trkpt lat="44.0301167" lon="8.1800467"><ele>429.0</ele><time>2026-04-17T16:42:48.077Z</time></trkpt><trkpt lat="44.0300783" lon="8.1799583"><ele>429.99999999999994</ele><time>2026-04-17T16:42:50.078Z</time></trkpt><trkpt lat="44.0300533" lon="8.1798583"><ele>431.0</ele><time>2026-04-17T16:42:52.077Z</time></trkpt><trkpt lat="44.0300383" lon="8.179725"><ele>431.7142857142857</ele><time>2026-04-17T16:42:54.077Z</time></trkpt><trkpt lat="44.030035" lon="8.1796267"><ele>432.4285714285714</ele><time>2026-04-17T16:42:55.078Z</time></trkpt><trkpt lat="44.030035" lon="8.1795333"><ele>433.1428571428571</ele><time>2026-04-17T16:42:56.077Z</time></trkpt><trkpt lat="44.03003" lon="8.179435"><ele>433.8571428571429</ele><time>2026-04-17T16:42:57.078Z</time></trkpt><trkpt lat="44.030025" lon="8.179345"><ele>434.57142857142856</ele><time>2026-04-17T16:42:58.077Z</time></trkpt><trkpt lat="44.0300333" lon="8.1792"><ele>435.2857142857143</ele><time>2026-04-17T16:43:00.077Z</time></trkpt><trkpt lat="44.030035" lon="8.1791083"><ele>436.0</ele><time>2026-04-17T16:43:02.077Z</time></trkpt><trkpt lat="44.0300233" lon="8.179005"><ele>437.83333333333337</ele><time>2026-04-17T16:43:05.077Z</time></trkpt><trkpt lat="44.0300017" lon="8.1789183"><ele>439.6666666666667</ele><time>2026-04-17T16:43:07.078Z</time></trkpt><trkpt lat="44.0300067" lon="8.1788033"><ele>441.5</ele><time>2026-04-17T16:43:10.078Z</time></trkpt><trkpt lat="44.0300217" lon="8.17869"><ele>443.33333333333337</ele><time>2026-04-17T16:43:13.078Z</time></trkpt><trkpt lat="44.0300283" lon="8.1785867"><ele>445.1666666666667</ele><time>2026-04-17T16:43:16.078Z</time></trkpt><trkpt lat="44.03003" lon="8.1784783"><ele>447.0</ele><time>2026-04-17T16:43:19.078Z</time></trkpt><trkpt lat="44.0300433" lon="8.1783783"><ele>447.0</ele><time>2026-04-17T16:43:21.078Z</time></trkpt><trkpt lat="44.030025" lon="8.1782867"><ele>447.0</ele><time>2026-04-17T16:43:23.078Z</time></trkpt><trkpt lat="44.0300167" lon="8.1781933"><ele>447.0</ele><time>2026-04-17T16:43:25.077Z</time></trkpt><trkpt lat="44.029995" lon="8.17809"><ele>447.0</ele><time>2026-04-17T16:43:27.077Z</time></trkpt><trkpt lat="44.0299433" lon="8.1779733"><ele>447.0</ele><time>2026-04-17T16:43:30.078Z</time></trkpt><trkpt lat="44.0298933" lon="8.1779083"><ele>447.0</ele><time>2026-04-17T16:43:33.077Z</time></trkpt><trkpt lat="44.0298917" lon="8.17776"><ele>444.6</ele><time>2026-04-17T16:46:57.077Z</time></trkpt><trkpt lat="44.0299067" lon="8.1776267"><ele>442.20000000000005</ele><time>2026-04-17T16:46:59.077Z</time></trkpt><trkpt lat="44.0298983" lon="8.17748"><ele>439.8</ele><time>2026-04-17T16:47:01.077Z</time></trkpt><trkpt lat="44.0299183" lon="8.1773517"><ele>437.4</ele><time>2026-04-17T16:47:03.077Z</time></trkpt><trkpt lat="44.0299517" lon="8.1772383"><ele>435.0</ele><time>2026-04-17T16:47:05.077Z</time></trkpt><trkpt lat="44.0299733" lon="8.177135"><ele>437.0</ele><time>2026-04-17T16:47:07.076Z</time></trkpt><trkpt lat="44.0299933" lon="8.1770067"><ele>439.0</ele><time>2026-04-17T16:47:09.076Z</time></trkpt><trkpt lat="44.0300183" lon="8.17687"><ele>441.0</ele><time>2026-04-17T16:47:11.076Z</time></trkpt><trkpt lat="44.0300433" lon="8.176765"><ele>443.0</ele><time>2026-04-17T16:47:13.077Z</time></trkpt><trkpt lat="44.0300567" lon="8.1766133"><ele>445.0</ele><time>2026-04-17T16:47:15.077Z</time></trkpt><trkpt lat="44.0300733" lon="8.1765017"><ele>445.0</ele><time>2026-04-17T16:47:17.077Z</time></trkpt><trkpt lat="44.0301117" lon="8.1763717"><ele>445.0</ele><time>2026-04-17T16:47:19.076Z</time></trkpt><trkpt lat="44.030145" lon="8.1762483"><ele>445.0</ele><time>2026-04-17T16:47:21.077Z</time></trkpt><trkpt lat="44.0302083" lon="8.1761183"><ele>445.0</ele><time>2026-04-17T16:47:23.076Z</time></trkpt><trkpt lat="44.0302483" lon="8.17604"><ele>445.0</ele><time>2026-04-17T16:47:24.077Z</time></trkpt><trkpt lat="44.0302917" lon="8.1759533"><ele>445.0</ele><time>2026-04-17T16:47:25.076Z</time></trkpt><trkpt lat="44.03033" lon="8.17587"><ele>445.0</ele><time>2026-04-17T16:47:26.076Z</time></trkpt><trkpt lat="44.03037" lon="8.1757917"><ele>445.0</ele><time>2026-04-17T16:47:27.076Z</time></trkpt><trkpt lat="44.0304317" lon="8.1756633"><ele>445.0</ele><time>2026-04-17T16:47:29.076Z</time></trkpt><trkpt lat="44.0304783" lon="8.1754733"><ele>445.0</ele><time>2026-04-17T16:47:31.077Z</time></trkpt><trkpt lat="44.030505" lon="8.1753733"><ele>443.6666666666667</ele><time>2026-04-17T16:47:32.077Z</time></trkpt><trkpt lat="44.0305283" lon="8.1752783"><ele>442.33333333333337</ele><time>2026-04-17T16:47:33.077Z</time></trkpt><trkpt lat="44.0305517" lon="8.1751883"><ele>441.0</ele><time>2026-04-17T16:47:34.077Z</time></trkpt><trkpt lat="44.0305883" lon="8.1751"><ele>439.66666666666663</ele><time>2026-04-17T16:47:35.077Z</time></trkpt><trkpt lat="44.0306267" lon="8.17501"><ele>438.3333333333333</ele><time>2026-04-17T16:47:36.076Z</time></trkpt><trkpt lat="44.030655" lon="8.1748917"><ele>437.0</ele><time>2026-04-17T16:47:38.077Z</time></trkpt><trkpt lat="44.0306433" lon="8.1747233"><ele>436.66666666666663</ele><time>2026-04-17T16:47:40.076Z</time></trkpt><trkpt lat="44.03065" lon="8.174605"><ele>436.3333333333333</ele><time>2026-04-17T16:47:41.076Z</time></trkpt><trkpt lat="44.0306533" lon="8.1744767"><ele>436.0</ele><time>2026-04-17T16:47:42.076Z</time></trkpt><trkpt lat="44.0306467" lon="8.1743617"><ele>435.66666666666663</ele><time>2026-04-17T16:47:43.077Z</time></trkpt><trkpt lat="44.030665" lon="8.1742367"><ele>435.3333333333333</ele><time>2026-04-17T16:47:45.076Z</time></trkpt><trkpt lat="44.03072" lon="8.1741733"><ele>435.0</ele><time>2026-04-17T16:47:47.077Z</time></trkpt><trkpt lat="44.0307633" lon="8.1740567"><ele>435.8</ele><time>2026-04-17T16:47:50.076Z</time></trkpt><trkpt lat="44.0307733" lon="8.173945"><ele>436.6</ele><time>2026-04-17T16:47:53.076Z</time></trkpt><trkpt lat="44.0307367" lon="8.173795"><ele>437.4</ele><time>2026-04-17T16:47:55.077Z</time></trkpt><trkpt lat="44.0307333" lon="8.173655"><ele>438.2</ele><time>2026-04-17T16:47:57.077Z</time></trkpt><trkpt lat="44.03076" lon="8.173555"><ele>439.0</ele><time>2026-04-17T16:47:59.077Z</time></trkpt><trkpt lat="44.0307633" lon="8.1734167"><ele>439.0</ele><time>2026-04-17T16:48:01.077Z</time></trkpt><trkpt lat="44.0307283" lon="8.1732617"><ele>439.0</ele><time>2026-04-17T16:48:03.076Z</time></trkpt><trkpt lat="44.0306867" lon="8.1731017"><ele>439.0</ele><time>2026-04-17T16:48:05.077Z</time></trkpt><trkpt lat="44.0306667" lon="8.1730167"><ele>439.0</ele><time>2026-04-17T16:48:06.076Z</time></trkpt><trkpt lat="44.0306217" lon="8.1728683"><ele>439.0</ele><time>2026-04-17T16:48:08.076Z</time></trkpt><trkpt lat="44.030565" lon="8.1727517"><ele>440.2</ele><time>2026-04-17T16:48:10.077Z</time></trkpt><trkpt lat="44.0305217" lon="8.1726017"><ele>441.4</ele><time>2026-04-17T16:48:12.077Z</time></trkpt><trkpt lat="44.0305117" lon="8.172445"><ele>442.6</ele><time>2026-04-17T16:48:14.077Z</time></trkpt><trkpt lat="44.0304933" lon="8.1722883"><ele>443.8</ele><time>2026-04-17T16:48:16.077Z</time></trkpt><trkpt lat="44.0305067" lon="8.1721683"><ele>445.0</ele><time>2026-04-17T16:48:18.077Z</time></trkpt><trkpt lat="44.0305517" lon="8.1720167"><ele>445.6666666666667</ele><time>2026-04-17T16:48:20.077Z</time></trkpt><trkpt lat="44.0305617" lon="8.17193"><ele>446.33333333333337</ele><time>2026-04-17T16:48:21.076Z</time></trkpt><trkpt lat="44.03056" lon="8.1718"><ele>447.0</ele><time>2026-04-17T16:48:23.077Z</time></trkpt><trkpt lat="44.0305567" lon="8.171705"><ele>447.66666666666663</ele><time>2026-04-17T16:48:25.077Z</time></trkpt><trkpt lat="44.030555" lon="8.1716167"><ele>448.3333333333333</ele><time>2026-04-17T16:48:27.077Z</time></trkpt><trkpt lat="44.0305383" lon="8.171485"><ele>449.0</ele><time>2026-04-17T16:48:29.076Z</time></trkpt><trkpt lat="44.0305267" lon="8.1713417"><ele>449.16666666666663</ele><time>2026-04-17T16:48:31.076Z</time></trkpt><trkpt lat="44.0305333" lon="8.17121"><ele>449.3333333333333</ele><time>2026-04-17T16:48:33.076Z</time></trkpt><trkpt lat="44.0305633" lon="8.1710817"><ele>449.5</ele><time>2026-04-17T16:48:35.077Z</time></trkpt><trkpt lat="44.0306" lon="8.1709767"><ele>449.66666666666663</ele><time>2026-04-17T16:48:37.077Z</time></trkpt><trkpt lat="44.0306033" lon="8.1708717"><ele>449.8333333333333</ele><time>2026-04-17T16:48:39.077Z</time></trkpt><trkpt lat="44.0306167" lon="8.17076"><ele>450.0</ele><time>2026-04-17T16:48:41.076Z</time></trkpt><trkpt lat="44.0306383" lon="8.1706767"><ele>450.1666666666667</ele><time>2026-04-17T16:48:46.077Z</time></trkpt><trkpt lat="44.0306433" lon="8.1705783"><ele>450.33333333333337</ele><time>2026-04-17T16:48:48.077Z</time></trkpt><trkpt lat="44.030655" lon="8.1704367"><ele>450.5</ele><time>2026-04-17T16:48:50.076Z</time></trkpt><trkpt lat="44.03067" lon="8.17033"><ele>450.6666666666667</ele><time>2026-04-17T16:48:52.077Z</time></trkpt><trkpt lat="44.03066" lon="8.170225"><ele>450.83333333333337</ele><time>2026-04-17T16:48:54.076Z</time></trkpt><trkpt lat="44.0306517" lon="8.170105"><ele>451.0</ele><time>2026-04-17T16:48:56.077Z</time></trkpt><trkpt lat="44.0306767" lon="8.170015"><ele>451.00000000000006</ele><time>2026-04-17T16:48:58.077Z</time></trkpt><trkpt lat="44.0307117" lon="8.1699183"><ele>451.0</ele><time>2026-04-17T16:49:00.076Z</time></trkpt><trkpt lat="44.0307433" lon="8.1697883"><ele>451.0</ele><time>2026-04-17T16:49:02.076Z</time></trkpt><trkpt lat="44.03077" lon="8.169695"><ele>451.0</ele><time>2026-04-17T16:49:04.076Z</time></trkpt><trkpt lat="44.0307783" lon="8.1695783"><ele>451.00000000000006</ele><time>2026-04-17T16:49:06.076Z</time></trkpt><trkpt lat="44.030765" lon="8.16948"><ele>451.0</ele><time>2026-04-17T16:49:07.076Z</time></trkpt><trkpt lat="44.0307417" lon="8.16937"><ele>454.4</ele><time>2026-04-17T16:49:08.076Z</time></trkpt><trkpt lat="44.0307183" lon="8.16927"><ele>457.8</ele><time>2026-04-17T16:49:09.076Z</time></trkpt><trkpt lat="44.03065" lon="8.1691333"><ele>461.19999999999993</ele><time>2026-04-17T16:49:11.076Z</time></trkpt><trkpt lat="44.0305917" lon="8.1690233"><ele>464.59999999999997</ele><time>2026-04-17T16:49:13.076Z</time></trkpt><trkpt lat="44.03055" lon="8.1688983"><ele>468.0</ele><time>2026-04-17T16:49:16.077Z</time></trkpt><trkpt lat="44.0305017" lon="8.1688267"><ele>469.7142857142857</ele><time>2026-04-17T16:49:17.076Z</time></trkpt><trkpt lat="44.0304333" lon="8.168755"><ele>471.42857142857144</ele><time>2026-04-17T16:49:18.077Z</time></trkpt><trkpt lat="44.0303717" lon="8.1686867"><ele>473.14285714285717</ele><time>2026-04-17T16:49:19.077Z</time></trkpt><trkpt lat="44.0303167" lon="8.1686317"><ele>474.8571428571429</ele><time>2026-04-17T16:49:20.076Z</time></trkpt><trkpt lat="44.03028" lon="8.16855"><ele>476.57142857142856</ele><time>2026-04-17T16:49:38.077Z</time></trkpt><trkpt lat="44.0302567" lon="8.1684583"><ele>478.28571428571433</ele><time>2026-04-17T16:49:40.077Z</time></trkpt><trkpt lat="44.0301983" lon="8.1683917"><ele>480.0</ele><time>2026-04-17T16:49:42.076Z</time></trkpt><trkpt lat="44.0301217" lon="8.1683133"><ele>480.0</ele><time>2026-04-17T16:49:44.076Z</time></trkpt><trkpt lat="44.0300767" lon="8.1682283"><ele>480.0</ele><time>2026-04-17T16:49:46.076Z</time></trkpt><trkpt lat="44.0300433" lon="8.1681133"><ele>480.0</ele><time>2026-04-17T16:49:48.076Z</time></trkpt><trkpt lat="44.0299917" lon="8.1679817"><ele>480.0</ele><time>2026-04-17T16:49:50.076Z</time></trkpt><trkpt lat="44.0299533" lon="8.16789"><ele>480.0</ele><time>2026-04-17T16:49:52.076Z</time></trkpt><trkpt lat="44.0298983" lon="8.1678267"><ele>480.0</ele><time>2026-04-17T16:49:54.076Z</time></trkpt><trkpt lat="44.0298283" lon="8.1677633"><ele>484.0</ele><time>2026-04-17T16:49:56.075Z</time></trkpt><trkpt lat="44.02978" lon="8.16766"><ele>488.0</ele><time>2026-04-17T16:49:59.075Z</time></trkpt><trkpt lat="44.029785" lon="8.1675567"><ele>492.0</ele><time>2026-04-17T16:50:01.076Z</time></trkpt><trkpt lat="44.02977" lon="8.16741"><ele>496.0</ele><time>2026-04-17T16:50:03.075Z</time></trkpt><trkpt lat="44.0297667" lon="8.1673167"><ele>500.0</ele><time>2026-04-17T16:50:04.076Z</time></trkpt><trkpt lat="44.0297733" lon="8.1671533"><ele>504.8333333333333</ele><time>2026-04-17T16:50:06.076Z</time></trkpt><trkpt lat="44.0297633" lon="8.16702"><ele>509.66666666666663</ele><time>2026-04-17T16:50:08.075Z</time></trkpt><trkpt lat="44.029755" lon="8.1668967"><ele>514.5</ele><time>2026-04-17T16:50:10.076Z</time></trkpt><trkpt lat="44.02976" lon="8.1668083"><ele>519.3333333333334</ele><time>2026-04-17T16:50:12.076Z</time></trkpt><trkpt lat="44.0297767" lon="8.1666917"><ele>524.1666666666667</ele><time>2026-04-17T16:50:14.076Z</time></trkpt><trkpt lat="44.029795" lon="8.16656"><ele>529.0</ele><time>2026-04-17T16:50:16.076Z</time></trkpt><trkpt lat="44.0298117" lon="8.1664167"><ele>531.8333333333334</ele><time>2026-04-17T16:50:18.075Z</time></trkpt><trkpt lat="44.02981" lon="8.16629"><ele>534.6666666666667</ele><time>2026-04-17T16:50:20.076Z</time></trkpt><trkpt lat="44.0298117" lon="8.1661767"><ele>537.5</ele><time>2026-04-17T16:50:22.076Z</time></trkpt><trkpt lat="44.029835" lon="8.1660583"><ele>540.3333333333334</ele><time>2026-04-17T16:50:24.075Z</time></trkpt><trkpt lat="44.0298483" lon="8.1659483"><ele>543.1666666666666</ele><time>2026-04-17T16:50:26.076Z</time></trkpt><trkpt lat="44.0298767" lon="8.1658433"><ele>546.0</ele><time>2026-04-17T16:50:28.076Z</time></trkpt><trkpt lat="44.02994" lon="8.1657617"><ele>543.8571428571429</ele><time>2026-04-17T16:50:30.075Z</time></trkpt><trkpt lat="44.0299683" lon="8.1656817"><ele>541.7142857142858</ele><time>2026-04-17T16:50:32.076Z</time></trkpt><trkpt lat="44.0299683" lon="8.1655667"><ele>539.5714285714286</ele><time>2026-04-17T16:50:35.076Z</time></trkpt><trkpt lat="44.0299783" lon="8.165475"><ele>537.4285714285714</ele><time>2026-04-17T16:50:39.076Z</time></trkpt><trkpt lat="44.0299933" lon="8.16534"><ele>535.2857142857143</ele><time>2026-04-17T16:51:01.076Z</time></trkpt><trkpt lat="44.0300033" lon="8.1652533"><ele>533.1428571428571</ele><time>2026-04-17T16:51:02.076Z</time></trkpt><trkpt lat="44.0300133" lon="8.1651533"><ele>531.0</ele><time>2026-04-17T16:51:03.075Z</time></trkpt><trkpt lat="44.0300183" lon="8.165065"><ele>531.0</ele><time>2026-04-17T16:51:04.076Z</time></trkpt><trkpt lat="44.0300367" lon="8.164925"><ele>531.0</ele><time>2026-04-17T16:51:06.076Z</time></trkpt><trkpt lat="44.0300733" lon="8.16482"><ele>531.0</ele><time>2026-04-17T16:51:08.076Z</time></trkpt><trkpt lat="44.0301283" lon="8.16473"><ele>531.0</ele><time>2026-04-17T16:51:10.076Z</time></trkpt><trkpt lat="44.0301617" lon="8.164645"><ele>531.0</ele><time>2026-04-17T16:51:12.075Z</time></trkpt><trkpt lat="44.030205" lon="8.164535"><ele>531.0</ele><time>2026-04-17T16:51:14.076Z</time></trkpt><trkpt lat="44.0302367" lon="8.1644517"><ele>533.6666666666666</ele><time>2026-04-17T16:51:15.075Z</time></trkpt><trkpt lat="44.0302667" lon="8.1643683"><ele>536.3333333333334</ele><time>2026-04-17T16:51:16.076Z</time></trkpt><trkpt lat="44.0303167" lon="8.1642867"><ele>539.0</ele><time>2026-04-17T16:51:17.076Z</time></trkpt><trkpt lat="44.0303583" lon="8.164215"><ele>541.6666666666667</ele><time>2026-04-17T16:51:18.076Z</time></trkpt><trkpt lat="44.030445" lon="8.164095"><ele>544.3333333333334</ele><time>2026-04-17T16:51:20.075Z</time></trkpt><trkpt lat="44.0305383" lon="8.1640067"><ele>547.0</ele><time>2026-04-17T16:51:22.076Z</time></trkpt><trkpt lat="44.0306017" lon="8.1639133"><ele>546.0</ele><time>2026-04-17T16:51:24.076Z</time></trkpt><trkpt lat="44.0306883" lon="8.16383"><ele>545.0</ele><time>2026-04-17T16:51:26.076Z</time></trkpt><trkpt lat="44.030745" lon="8.1637917"><ele>544.0</ele><time>2026-04-17T16:51:27.075Z</time></trkpt><trkpt lat="44.03083" lon="8.1637467"><ele>543.0</ele><time>2026-04-17T16:51:29.076Z</time></trkpt><trkpt lat="44.0309" lon="8.163705"><ele>542.0</ele><time>2026-04-17T16:51:31.075Z</time></trkpt><trkpt lat="44.031015" lon="8.1636633"><ele>542.0</ele><time>2026-04-17T16:51:33.076Z</time></trkpt><trkpt lat="44.0311083" lon="8.163595"><ele>542.0</ele><time>2026-04-17T16:51:35.076Z</time></trkpt><trkpt lat="44.0311567" lon="8.16349"><ele>542.0</ele><time>2026-04-17T16:51:37.076Z</time></trkpt><trkpt lat="44.0311817" lon="8.1633283"><ele>542.0</ele><time>2026-04-17T16:51:39.075Z</time></trkpt><trkpt lat="44.0311983" lon="8.1632433"><ele>542.0</ele><time>2026-04-17T16:51:40.076Z</time></trkpt><trkpt lat="44.031225" lon="8.1631017"><ele>542.0</ele><time>2026-04-17T16:51:42.076Z</time></trkpt><trkpt lat="44.0312517" lon="8.1629883"><ele>542.0</ele><time>2026-04-17T16:51:44.075Z</time></trkpt><trkpt lat="44.0312283" lon="8.1628817"><ele>542.0</ele><time>2026-04-17T16:51:46.075Z</time></trkpt><trkpt lat="44.031185" lon="8.162735"><ele>542.0</ele><time>2026-04-17T16:51:48.076Z</time></trkpt><trkpt lat="44.03112" lon="8.1625817"><ele>542.0</ele><time>2026-04-17T16:51:50.076Z</time></trkpt><trkpt lat="44.0310817" lon="8.1624933"><ele>542.0</ele><time>2026-04-17T16:51:51.075Z</time></trkpt><trkpt lat="44.0310433" lon="8.162405"><ele>542.0</ele><time>2026-04-17T16:51:52.075Z</time></trkpt><trkpt lat="44.0310017" lon="8.162315"><ele>542.0</ele><time>2026-04-17T16:51:53.076Z</time></trkpt><trkpt lat="44.03096" lon="8.1622417"><ele>542.0</ele><time>2026-04-17T16:51:54.076Z</time></trkpt><trkpt lat="44.0308717" lon="8.1621467"><ele>542.0</ele><time>2026-04-17T16:51:56.076Z</time></trkpt><trkpt lat="44.03078" lon="8.1620367"><ele>541.8333333333333</ele><time>2026-04-17T16:51:58.076Z</time></trkpt><trkpt lat="44.0307317" lon="8.16197"><ele>541.6666666666666</ele><time>2026-04-17T16:51:59.076Z</time></trkpt><trkpt lat="44.0306817" lon="8.1619133"><ele>541.5</ele><time>2026-04-17T16:52:00.076Z</time></trkpt><trkpt lat="44.0305933" lon="8.1617867"><ele>541.3333333333334</ele><time>2026-04-17T16:52:02.075Z</time></trkpt><trkpt lat="44.0305383" lon="8.1617083"><ele>541.1666666666667</ele><time>2026-04-17T16:52:03.076Z</time></trkpt><trkpt lat="44.0304833" lon="8.16164"><ele>541.0</ele><time>2026-04-17T16:52:04.075Z</time></trkpt><trkpt lat="44.0304167" lon="8.1615167"><ele>538.1666666666667</ele><time>2026-04-17T16:52:06.075Z</time></trkpt><trkpt lat="44.0303117" lon="8.1614333"><ele>535.3333333333334</ele><time>2026-04-17T16:52:08.075Z</time></trkpt><trkpt lat="44.0302633" lon="8.1613767"><ele>532.5</ele><time>2026-04-17T16:52:09.076Z</time></trkpt><trkpt lat="44.030205" lon="8.1613167"><ele>529.6666666666666</ele><time>2026-04-17T16:52:10.076Z</time></trkpt><trkpt lat="44.0301567" lon="8.1612583"><ele>526.8333333333333</ele><time>2026-04-17T16:52:11.076Z</time></trkpt><trkpt lat="44.03007" lon="8.1611783"><ele>524.0</ele><time>2026-04-17T16:52:13.075Z</time></trkpt><trkpt lat="44.0299567" lon="8.1611467"><ele>524.0</ele><time>2026-04-17T16:52:15.075Z</time></trkpt><trkpt lat="44.0298483" lon="8.1611183"><ele>524.0</ele><time>2026-04-17T16:52:17.075Z</time></trkpt><trkpt lat="44.02977" lon="8.1610467"><ele>524.0</ele><time>2026-04-17T16:52:19.075Z</time></trkpt><trkpt lat="44.02965" lon="8.1609783"><ele>524.0</ele><time>2026-04-17T16:52:21.076Z</time></trkpt><trkpt lat="44.0295533" lon="8.16096"><ele>524.0</ele><time>2026-04-17T16:52:23.075Z</time></trkpt><trkpt lat="44.0294333" lon="8.1609817"><ele>524.0</ele><time>2026-04-17T16:52:25.076Z</time></trkpt><trkpt lat="44.029335" lon="8.1609583"><ele>524.0</ele><time>2026-04-17T16:52:27.076Z</time></trkpt><trkpt lat="44.0292767" lon="8.16091"><ele>524.0</ele><time>2026-04-17T16:52:28.075Z</time></trkpt><trkpt lat="44.0292183" lon="8.16087"><ele>524.0</ele><time>2026-04-17T16:52:29.075Z</time></trkpt><trkpt lat="44.0291483" lon="8.1608133"><ele>524.0</ele><time>2026-04-17T16:52:30.075Z</time></trkpt><trkpt lat="44.02909" lon="8.1607633"><ele>524.0</ele><time>2026-04-17T16:52:31.075Z</time></trkpt><trkpt lat="44.0290283" lon="8.1607133"><ele>524.5</ele><time>2026-04-17T16:52:32.076Z</time></trkpt><trkpt lat="44.0289667" lon="8.1606583"><ele>525.0</ele><time>2026-04-17T16:52:33.076Z</time></trkpt><trkpt lat="44.0288667" lon="8.160585"><ele>525.5</ele><time>2026-04-17T16:52:35.076Z</time></trkpt><trkpt lat="44.0287767" lon="8.1605433"><ele>526.0</ele><time>2026-04-17T16:52:37.076Z</time></trkpt><trkpt lat="44.0287067" lon="8.1605233"><ele>526.5</ele><time>2026-04-17T16:52:39.075Z</time></trkpt><trkpt lat="44.0286283" lon="8.16047"><ele>527.0</ele><time>2026-04-17T16:52:41.075Z</time></trkpt><trkpt lat="44.0285733" lon="8.1604167"><ele>527.0</ele><time>2026-04-17T16:52:42.076Z</time></trkpt><trkpt lat="44.02849" lon="8.1603117"><ele>527.0</ele><time>2026-04-17T16:52:44.075Z</time></trkpt><trkpt lat="44.02842" lon="8.1601933"><ele>527.0</ele><time>2026-04-17T16:52:46.076Z</time></trkpt><trkpt lat="44.0283733" lon="8.1601317"><ele>527.0</ele><time>2026-04-17T16:52:47.076Z</time></trkpt><trkpt lat="44.02831" lon="8.1600433"><ele>527.0</ele><time>2026-04-17T16:52:48.075Z</time></trkpt><trkpt lat="44.0282367" lon="8.15993"><ele>526.5</ele><time>2026-04-17T16:52:49.075Z</time></trkpt><trkpt lat="44.0281883" lon="8.159855"><ele>526.0</ele><time>2026-04-17T16:52:50.075Z</time></trkpt><trkpt lat="44.028145" lon="8.1597883"><ele>525.5</ele><time>2026-04-17T16:52:51.076Z</time></trkpt><trkpt lat="44.028065" lon="8.1596467"><ele>525.0</ele><time>2026-04-17T16:52:53.076Z</time></trkpt><trkpt lat="44.02798" lon="8.159535"><ele>524.5</ele><time>2026-04-17T16:52:55.075Z</time></trkpt><trkpt lat="44.0279233" lon="8.159495"><ele>524.0</ele><time>2026-04-17T16:52:56.075Z</time></trkpt><trkpt lat="44.0278617" lon="8.1594567"><ele>524.0</ele><time>2026-04-17T16:52:57.075Z</time></trkpt><trkpt lat="44.027785" lon="8.1593967"><ele>524.0</ele><time>2026-04-17T16:52:58.075Z</time></trkpt><trkpt lat="44.0277083" lon="8.1593267"><ele>524.0</ele><time>2026-04-17T16:52:59.075Z</time></trkpt><trkpt lat="44.0276417" lon="8.1592433"><ele>524.0</ele><time>2026-04-17T16:53:00.075Z</time></trkpt><trkpt lat="44.02759" lon="8.159175"><ele>524.0</ele><time>2026-04-17T16:53:01.076Z</time></trkpt><trkpt lat="44.0275383" lon="8.1591217"><ele>524.0</ele><time>2026-04-17T16:53:02.076Z</time></trkpt><trkpt lat="44.02749" lon="8.1590583"><ele>519.2</ele><time>2026-04-17T16:53:03.076Z</time></trkpt><trkpt lat="44.027425" lon="8.1589683"><ele>514.4</ele><time>2026-04-17T16:53:04.076Z</time></trkpt><trkpt lat="44.027355" lon="8.158875"><ele>509.6</ele><time>2026-04-17T16:53:05.076Z</time></trkpt><trkpt lat="44.027305" lon="8.158755"><ele>504.8</ele><time>2026-04-17T16:53:06.075Z</time></trkpt><trkpt lat="44.0272617" lon="8.1586317"><ele>500.0</ele><time>2026-04-17T16:53:07.076Z</time></trkpt><trkpt lat="44.0271933" lon="8.1584967"><ele>500.0</ele><time>2026-04-17T16:53:09.076Z</time></trkpt><trkpt lat="44.0271467" lon="8.1583433"><ele>500.0</ele><time>2026-04-17T16:53:11.076Z</time></trkpt><trkpt lat="44.0271383" lon="8.158255"><ele>500.0</ele><time>2026-04-17T16:53:12.075Z</time></trkpt><trkpt lat="44.0271167" lon="8.1581533"><ele>500.0</ele><time>2026-04-17T16:53:13.075Z</time></trkpt><trkpt lat="44.0270833" lon="8.1580567"><ele>500.0</ele><time>2026-04-17T16:53:14.076Z</time></trkpt><trkpt lat="44.0270033" lon="8.1579367"><ele>500.4</ele><time>2026-04-17T16:53:16.076Z</time></trkpt><trkpt lat="44.0269367" lon="8.1578033"><ele>500.8</ele><time>2026-04-17T16:53:18.075Z</time></trkpt><trkpt lat="44.0269" lon="8.157685"><ele>501.20000000000005</ele><time>2026-04-17T16:53:19.076Z</time></trkpt><trkpt lat="44.026875" lon="8.1575567"><ele>501.6</ele><time>2026-04-17T16:53:20.075Z</time></trkpt><trkpt lat="44.0268517" lon="8.157445"><ele>502.0</ele><time>2026-04-17T16:53:21.075Z</time></trkpt><trkpt lat="44.0268167" lon="8.1573317"><ele>502.6666666666667</ele><time>2026-04-17T16:53:22.076Z</time></trkpt><trkpt lat="44.0267883" lon="8.1572283"><ele>503.33333333333337</ele><time>2026-04-17T16:53:23.075Z</time></trkpt><trkpt lat="44.0267733" lon="8.15713"><ele>504.0</ele><time>2026-04-17T16:53:24.076Z</time></trkpt><trkpt lat="44.0267633" lon="8.1570333"><ele>504.66666666666663</ele><time>2026-04-17T16:53:25.076Z</time></trkpt><trkpt lat="44.02674" lon="8.156885"><ele>505.3333333333333</ele><time>2026-04-17T16:53:27.075Z</time></trkpt><trkpt lat="44.0266867" lon="8.1567733"><ele>506.0</ele><time>2026-04-17T16:53:29.075Z</time></trkpt><trkpt lat="44.0266467" lon="8.156705"><ele>501.99999999999994</ele><time>2026-04-17T16:53:30.076Z</time></trkpt><trkpt lat="44.0265967" lon="8.1566267"><ele>498.0</ele><time>2026-04-17T16:53:31.076Z</time></trkpt><trkpt lat="44.026535" lon="8.15653"><ele>494.0</ele><time>2026-04-17T16:53:32.075Z</time></trkpt><trkpt lat="44.02646" lon="8.156435"><ele>490.0</ele><time>2026-04-17T16:53:33.076Z</time></trkpt><trkpt lat="44.0263933" lon="8.156355"><ele>485.99999999999994</ele><time>2026-04-17T16:53:34.075Z</time></trkpt><trkpt lat="44.0263433" lon="8.1562983"><ele>482.0</ele><time>2026-04-17T16:53:35.075Z</time></trkpt><trkpt lat="44.026295" lon="8.1562133"><ele>481.99999999999994</ele><time>2026-04-17T16:53:37.075Z</time></trkpt><trkpt lat="44.026275" lon="8.1560733"><ele>482.0</ele><time>2026-04-17T16:53:39.076Z</time></trkpt><trkpt lat="44.0262533" lon="8.15599"><ele>482.0</ele><time>2026-04-17T16:53:40.076Z</time></trkpt><trkpt lat="44.02622" lon="8.1559083"><ele>482.0</ele><time>2026-04-17T16:53:41.076Z</time></trkpt><trkpt lat="44.0261967" lon="8.1558267"><ele>481.99999999999994</ele><time>2026-04-17T16:53:42.075Z</time></trkpt><trkpt lat="44.02615" lon="8.155675"><ele>482.0</ele><time>2026-04-17T16:53:44.076Z</time></trkpt><trkpt lat="44.02611" lon="8.155605"><ele>481.6</ele><time>2026-04-17T16:53:45.075Z</time></trkpt><trkpt lat="44.0260317" lon="8.1554967"><ele>481.20000000000005</ele><time>2026-04-17T16:53:47.075Z</time></trkpt><trkpt lat="44.0259333" lon="8.1554117"><ele>480.8</ele><time>2026-04-17T16:53:49.075Z</time></trkpt><trkpt lat="44.0258933" lon="8.15532"><ele>480.4</ele><time>2026-04-17T16:53:51.075Z</time></trkpt><trkpt lat="44.02582" lon="8.1552583"><ele>480.0</ele><time>2026-04-17T16:53:54.075Z</time></trkpt><trkpt lat="44.0257017" lon="8.1551733"><ele>479.0</ele><time>2026-04-17T16:53:56.076Z</time></trkpt><trkpt lat="44.0256483" lon="8.1551233"><ele>478.0</ele><time>2026-04-17T16:53:57.076Z</time></trkpt><trkpt lat="44.0255567" lon="8.15504"><ele>477.0</ele><time>2026-04-17T16:53:59.075Z</time></trkpt><trkpt lat="44.0254617" lon="8.1550033"><ele>476.0</ele><time>2026-04-17T16:54:01.075Z</time></trkpt><trkpt lat="44.0254033" lon="8.1549583"><ele>475.0</ele><time>2026-04-17T16:54:03.076Z</time></trkpt><trkpt lat="44.02542" lon="8.1548467"><ele>474.0</ele><time>2026-04-17T16:55:23.075Z</time></trkpt><trkpt lat="44.0254917" lon="8.1547667"><ele>473.1666666666667</ele><time>2026-04-17T16:55:25.074Z</time></trkpt><trkpt lat="44.0255483" lon="8.1547033"><ele>472.33333333333337</ele><time>2026-04-17T16:55:27.074Z</time></trkpt><trkpt lat="44.0256133" lon="8.1546883"><ele>471.5</ele><time>2026-04-17T16:55:29.074Z</time></trkpt><trkpt lat="44.02569" lon="8.1546933"><ele>470.6666666666667</ele><time>2026-04-17T16:55:31.074Z</time></trkpt><trkpt lat="44.0257933" lon="8.1547233"><ele>469.83333333333337</ele><time>2026-04-17T16:55:33.074Z</time></trkpt><trkpt lat="44.0259117" lon="8.154765"><ele>469.0</ele><time>2026-04-17T16:55:35.075Z</time></trkpt><trkpt lat="44.0260183" lon="8.1547917"><ele>469.00000000000006</ele><time>2026-04-17T16:55:37.075Z</time></trkpt><trkpt lat="44.026105" lon="8.1547967"><ele>469.0</ele><time>2026-04-17T16:55:39.074Z</time></trkpt><trkpt lat="44.0261967" lon="8.1547917"><ele>469.0</ele><time>2026-04-17T16:55:41.074Z</time></trkpt><trkpt lat="44.0262917" lon="8.1548383"><ele>469.0</ele><time>2026-04-17T16:55:43.075Z</time></trkpt><trkpt lat="44.02636" lon="8.15489"><ele>469.00000000000006</ele><time>2026-04-17T16:55:46.074Z</time></trkpt><trkpt lat="44.0263133" lon="8.1548217"><ele>469.0</ele><time>2026-04-17T16:56:30.075Z</time></trkpt><trkpt lat="44.026245" lon="8.1547833"><ele>469.00000000000006</ele><time>2026-04-17T16:56:31.074Z</time></trkpt><trkpt lat="44.0261767" lon="8.154765"><ele>469.0</ele><time>2026-04-17T16:56:32.074Z</time></trkpt><trkpt lat="44.0260467" lon="8.1547417"><ele>469.0</ele><time>2026-04-17T16:56:34.074Z</time></trkpt><trkpt lat="44.0259617" lon="8.1547217"><ele>469.0</ele><time>2026-04-17T16:56:35.074Z</time></trkpt><trkpt lat="44.0258917" lon="8.1547"><ele>469.00000000000006</ele><time>2026-04-17T16:56:36.075Z</time></trkpt><trkpt lat="44.0258217" lon="8.1546767"><ele>469.0</ele><time>2026-04-17T16:56:37.074Z</time></trkpt><trkpt lat="44.025745" lon="8.154645"><ele>471.83333333333337</ele><time>2026-04-17T16:56:38.074Z</time></trkpt><trkpt lat="44.0256333" lon="8.1546117"><ele>474.6666666666667</ele><time>2026-04-17T16:56:40.075Z</time></trkpt><trkpt lat="44.02556" lon="8.1545817"><ele>477.5</ele><time>2026-04-17T16:56:42.075Z</time></trkpt><trkpt lat="44.02552" lon="8.1545133"><ele>480.33333333333337</ele><time>2026-04-17T16:56:44.074Z</time></trkpt><trkpt lat="44.0254783" lon="8.154425"><ele>483.1666666666667</ele><time>2026-04-17T16:56:46.074Z</time></trkpt><trkpt lat="44.0254133" lon="8.154395"><ele>486.0</ele><time>2026-04-17T16:56:49.075Z</time></trkpt><trkpt lat="44.0253367" lon="8.154405"><ele>486.0</ele><time>2026-04-17T16:56:51.074Z</time></trkpt><trkpt lat="44.0252733" lon="8.1543417"><ele>486.0</ele><time>2026-04-17T16:56:53.074Z</time></trkpt><trkpt lat="44.0251967" lon="8.1542683"><ele>486.0</ele><time>2026-04-17T16:56:55.074Z</time></trkpt><trkpt lat="44.0251183" lon="8.1542017"><ele>486.0</ele><time>2026-04-17T16:56:57.074Z</time></trkpt><trkpt lat="44.0251833" lon="8.1541817"><ele>486.0</ele><time>2026-04-17T16:57:14.075Z</time></trkpt><trkpt lat="44.0252233" lon="8.1541067"><ele>486.0</ele><time>2026-04-17T16:57:19.075Z</time></trkpt><trkpt lat="44.0252367" lon="8.1539833"><ele>485.8333333333333</ele><time>2026-04-17T16:57:22.074Z</time></trkpt><trkpt lat="44.0252433" lon="8.1538733"><ele>485.66666666666663</ele><time>2026-04-17T16:57:25.075Z</time></trkpt><trkpt lat="44.02532" lon="8.153845"><ele>485.5</ele><time>2026-04-17T16:57:31.074Z</time></trkpt><trkpt lat="44.0253333" lon="8.15372"><ele>485.3333333333333</ele><time>2026-04-17T16:57:35.075Z</time></trkpt><trkpt lat="44.025415" lon="8.153685"><ele>485.16666666666663</ele><time>2026-04-17T16:57:42.074Z</time></trkpt><trkpt lat="44.025485" lon="8.1537383"><ele>485.0</ele><time>2026-04-17T16:57:44.074Z</time></trkpt><trkpt lat="44.025565" lon="8.15379"><ele>485.00000000000006</ele><time>2026-04-17T16:57:46.075Z</time></trkpt><trkpt lat="44.0256233" lon="8.15383"><ele>485.0</ele><time>2026-04-17T16:57:48.074Z</time></trkpt><trkpt lat="44.02568" lon="8.1537867"><ele>485.00000000000006</ele><time>2026-04-17T16:57:53.074Z</time></trkpt><trkpt lat="44.0257033" lon="8.153705"><ele>485.00000000000006</ele><time>2026-04-17T16:57:55.074Z</time></trkpt><trkpt lat="44.0256917" lon="8.153615"><ele>485.0</ele><time>2026-04-17T16:57:57.074Z</time></trkpt><trkpt lat="44.0256467" lon="8.153505"><ele>485.00000000000006</ele><time>2026-04-17T16:58:01.075Z</time></trkpt><trkpt lat="44.0256467" lon="8.1534133"><ele>485.00000000000006</ele><time>2026-04-17T16:58:04.075Z</time></trkpt><trkpt lat="44.025705" lon="8.15337"><ele>484.99999999999994</ele><time>2026-04-17T16:58:07.075Z</time></trkpt><trkpt lat="44.0257033" lon="8.1532667"><ele>485.0</ele><time>2026-04-17T16:58:12.075Z</time></trkpt><trkpt lat="44.0256817" lon="8.1531567"><ele>485.0</ele><time>2026-04-17T16:58:15.075Z</time></trkpt><trkpt lat="44.0257067" lon="8.153065"><ele>485.0</ele><time>2026-04-17T16:58:17.074Z</time></trkpt><trkpt lat="44.0257183" lon="8.1529567"><ele>484.99999999999994</ele><time>2026-04-17T16:58:19.074Z</time></trkpt><trkpt lat="44.0256983" lon="8.1528367"><ele>485.0</ele><time>2026-04-17T16:58:21.075Z</time></trkpt><trkpt lat="44.0256867" lon="8.152735"><ele>483.99999999999994</ele><time>2026-04-17T16:58:23.075Z</time></trkpt><trkpt lat="44.02569" lon="8.1526417"><ele>483.0</ele><time>2026-04-17T16:58:25.074Z</time></trkpt><trkpt lat="44.0257667" lon="8.1526783"><ele>482.0</ele><time>2026-04-17T16:58:33.075Z</time></trkpt><trkpt lat="44.0258533" lon="8.1527017"><ele>481.0</ele><time>2026-04-17T16:58:35.075Z</time></trkpt><trkpt lat="44.0259367" lon="8.1527283"><ele>479.99999999999994</ele><time>2026-04-17T16:58:37.075Z</time></trkpt><trkpt lat="44.0260283" lon="8.1527317"><ele>479.0</ele><time>2026-04-17T16:58:39.074Z</time></trkpt><trkpt lat="44.0260983" lon="8.1527267"><ele>473.2857142857143</ele><time>2026-04-17T16:58:41.075Z</time></trkpt><trkpt lat="44.0261717" lon="8.15267"><ele>467.5714285714286</ele><time>2026-04-17T16:58:44.075Z</time></trkpt><trkpt lat="44.0262467" lon="8.1526333"><ele>461.8571428571429</ele><time>2026-04-17T16:58:47.074Z</time></trkpt><trkpt lat="44.0263117" lon="8.152585"><ele>456.1428571428571</ele><time>2026-04-17T16:58:50.075Z</time></trkpt><trkpt lat="44.0263383" lon="8.152505"><ele>450.42857142857144</ele><time>2026-04-17T16:58:53.075Z</time></trkpt><trkpt lat="44.0263833" lon="8.1524333"><ele>444.7142857142857</ele><time>2026-04-17T16:58:56.074Z</time></trkpt><trkpt lat="44.0264183" lon="8.1523517"><ele>439.0</ele><time>2026-04-17T16:58:58.074Z</time></trkpt><trkpt lat="44.02637" lon="8.1522517"><ele>436.2</ele><time>2026-04-17T16:59:01.074Z</time></trkpt><trkpt lat="44.0263267" lon="8.1521533"><ele>433.4</ele><time>2026-04-17T16:59:04.075Z</time></trkpt><trkpt lat="44.0263017" lon="8.152035"><ele>430.6</ele><time>2026-04-17T16:59:07.074Z</time></trkpt><trkpt lat="44.026255" lon="8.1519533"><ele>427.8</ele><time>2026-04-17T16:59:09.074Z</time></trkpt><trkpt lat="44.026195" lon="8.151825"><ele>425.0</ele><time>2026-04-17T16:59:11.075Z</time></trkpt><trkpt lat="44.0261217" lon="8.1517167"><ele>424.99999999999994</ele><time>2026-04-17T16:59:13.074Z</time></trkpt><trkpt lat="44.02605" lon="8.151625"><ele>425.0</ele><time>2026-04-17T16:59:15.074Z</time></trkpt><trkpt lat="44.026" lon="8.1515683"><ele>425.0</ele><time>2026-04-17T16:59:16.075Z</time></trkpt><trkpt lat="44.02592" lon="8.1514483"><ele>425.0</ele><time>2026-04-17T16:59:18.075Z</time></trkpt><trkpt lat="44.0258733" lon="8.1513767"><ele>424.99999999999994</ele><time>2026-04-17T16:59:19.075Z</time></trkpt><trkpt lat="44.0258267" lon="8.1513167"><ele>425.0</ele><time>2026-04-17T16:59:20.074Z</time></trkpt><trkpt lat="44.0257483" lon="8.1512467"><ele>427.4</ele><time>2026-04-17T16:59:22.075Z</time></trkpt><trkpt lat="44.0256967" lon="8.15119"><ele>429.8</ele><time>2026-04-17T16:59:24.075Z</time></trkpt><trkpt lat="44.0256417" lon="8.1510533"><ele>432.20000000000005</ele><time>2026-04-17T16:59:33.074Z</time></trkpt><trkpt lat="44.0255817" lon="8.1509633"><ele>434.6</ele><time>2026-04-17T16:59:35.075Z</time></trkpt><trkpt lat="44.0255183" lon="8.1508617"><ele>437.0</ele><time>2026-04-17T16:59:37.075Z</time></trkpt><trkpt lat="44.0254533" lon="8.1507667"><ele>433.16666666666663</ele><time>2026-04-17T16:59:39.074Z</time></trkpt><trkpt lat="44.0254083" lon="8.1506867"><ele>429.3333333333333</ele><time>2026-04-17T16:59:41.075Z</time></trkpt><trkpt lat="44.0253567" lon="8.1506117"><ele>425.5</ele><time>2026-04-17T16:59:44.075Z</time></trkpt><trkpt lat="44.0252917" lon="8.1505783"><ele>421.66666666666663</ele><time>2026-04-17T16:59:47.074Z</time></trkpt><trkpt lat="44.0252217" lon="8.1504683"><ele>417.8333333333333</ele><time>2026-04-17T16:59:49.075Z</time></trkpt><trkpt lat="44.0251633" lon="8.1503783"><ele>414.0</ele><time>2026-04-17T16:59:50.074Z</time></trkpt><trkpt lat="44.0251233" lon="8.1502983"><ele>414.0</ele><time>2026-04-17T16:59:51.075Z</time></trkpt><trkpt lat="44.0250633" lon="8.1501983"><ele>414.0</ele><time>2026-04-17T16:59:53.075Z</time></trkpt><trkpt lat="44.024995" lon="8.1500867"><ele>414.0</ele><time>2026-04-17T16:59:55.074Z</time></trkpt><trkpt lat="44.0249483" lon="8.149965"><ele>414.0</ele><time>2026-04-17T16:59:57.075Z</time></trkpt><trkpt lat="44.0249083" lon="8.149845"><ele>414.0</ele><time>2026-04-17T16:59:59.075Z</time></trkpt><trkpt lat="44.0248767" lon="8.1497617"><ele>417.0</ele><time>2026-04-17T17:00:00.075Z</time></trkpt><trkpt lat="44.0248383" lon="8.1496633"><ele>420.0</ele><time>2026-04-17T17:00:01.073Z</time></trkpt><trkpt lat="44.0248" lon="8.1495917"><ele>423.0</ele><time>2026-04-17T17:00:02.073Z</time></trkpt><trkpt lat="44.0247433" lon="8.1494783"><ele>426.0</ele><time>2026-04-17T17:00:04.074Z</time></trkpt><trkpt lat="44.02467" lon="8.1493983"><ele>429.0</ele><time>2026-04-17T17:00:06.073Z</time></trkpt><trkpt lat="44.0245983" lon="8.1493733"><ele>432.0</ele><time>2026-04-17T17:00:08.074Z</time></trkpt><trkpt lat="44.0245267" lon="8.149295"><ele>432.0</ele><time>2026-04-17T17:00:10.074Z</time></trkpt><trkpt lat="44.0244783" lon="8.14922"><ele>432.00000000000006</ele><time>2026-04-17T17:00:12.074Z</time></trkpt><trkpt lat="44.0244333" lon="8.1490983"><ele>432.00000000000006</ele><time>2026-04-17T17:00:14.073Z</time></trkpt><trkpt lat="44.0243767" lon="8.1489867"><ele>432.0</ele><time>2026-04-17T17:00:16.074Z</time></trkpt><trkpt lat="44.0243417" lon="8.1489017"><ele>432.0</ele><time>2026-04-17T17:00:17.073Z</time></trkpt><trkpt lat="44.0242833" lon="8.1487717"><ele>433.6</ele><time>2026-04-17T17:00:19.074Z</time></trkpt><trkpt lat="44.0242117" lon="8.1486917"><ele>435.20000000000005</ele><time>2026-04-17T17:00:21.074Z</time></trkpt><trkpt lat="44.0241183" lon="8.1486217"><ele>436.8</ele><time>2026-04-17T17:00:23.073Z</time></trkpt><trkpt lat="44.0240217" lon="8.14858"><ele>438.4</ele><time>2026-04-17T17:00:25.073Z</time></trkpt><trkpt lat="44.0239217" lon="8.1485483"><ele>440.0</ele><time>2026-04-17T17:00:27.073Z</time></trkpt><trkpt lat="44.02384" lon="8.148515"><ele>439.99999999999994</ele><time>2026-04-17T17:00:29.073Z</time></trkpt><trkpt lat="44.0237633" lon="8.14846"><ele>440.0</ele><time>2026-04-17T17:00:31.074Z</time></trkpt><trkpt lat="44.023715" lon="8.1484017"><ele>440.0</ele><time>2026-04-17T17:00:33.073Z</time></trkpt><trkpt lat="44.023685" lon="8.14832"><ele>440.0</ele><time>2026-04-17T17:00:35.073Z</time></trkpt><trkpt lat="44.023655" lon="8.14823"><ele>440.0</ele><time>2026-04-17T17:00:37.074Z</time></trkpt><trkpt lat="44.023615" lon="8.1481383"><ele>439.99999999999994</ele><time>2026-04-17T17:00:39.074Z</time></trkpt><trkpt lat="44.0235667" lon="8.14806"><ele>440.0</ele><time>2026-04-17T17:00:41.074Z</time></trkpt><trkpt lat="44.0235033" lon="8.1480017"><ele>437.49999999999994</ele><time>2026-04-17T17:00:43.074Z</time></trkpt><trkpt lat="44.0234467" lon="8.1479517"><ele>435.0</ele><time>2026-04-17T17:00:45.074Z</time></trkpt><trkpt lat="44.0233717" lon="8.1479083"><ele>432.5</ele><time>2026-04-17T17:00:47.073Z</time></trkpt><trkpt lat="44.023305" lon="8.14784"><ele>430.0</ele><time>2026-04-17T17:00:49.073Z</time></trkpt><trkpt lat="44.0232267" lon="8.1477683"><ele>427.49999999999994</ele><time>2026-04-17T17:00:51.074Z</time></trkpt><trkpt lat="44.0231717" lon="8.1476667"><ele>425.0</ele><time>2026-04-17T17:00:53.074Z</time></trkpt><trkpt lat="44.0231267" lon="8.1475583"><ele>431.16666666666663</ele><time>2026-04-17T17:00:55.074Z</time></trkpt><trkpt lat="44.0231017" lon="8.1474567"><ele>437.3333333333333</ele><time>2026-04-17T17:00:58.074Z</time></trkpt><trkpt lat="44.0230683" lon="8.1473717"><ele>443.5</ele><time>2026-04-17T17:01:00.074Z</time></trkpt><trkpt lat="44.02305" lon="8.1472533"><ele>449.66666666666663</ele><time>2026-04-17T17:01:02.074Z</time></trkpt><trkpt lat="44.023055" lon="8.147125"><ele>455.8333333333333</ele><time>2026-04-17T17:01:04.074Z</time></trkpt><trkpt lat="44.02307" lon="8.1470067"><ele>462.0</ele><time>2026-04-17T17:01:06.073Z</time></trkpt><trkpt lat="44.0231083" lon="8.1469233"><ele>461.5</ele><time>2026-04-17T17:01:08.074Z</time></trkpt><trkpt lat="44.0231467" lon="8.1468517"><ele>461.0</ele><time>2026-04-17T17:01:10.073Z</time></trkpt><trkpt lat="44.0231817" lon="8.14674"><ele>460.5</ele><time>2026-04-17T17:01:14.074Z</time></trkpt><trkpt lat="44.023235" lon="8.14663"><ele>460.0</ele><time>2026-04-17T17:01:17.073Z</time></trkpt><trkpt lat="44.0233083" lon="8.1465783"><ele>459.5</ele><time>2026-04-17T17:01:19.074Z</time></trkpt><trkpt lat="44.02339" lon="8.1465467"><ele>459.0</ele><time>2026-04-17T17:01:21.073Z</time></trkpt><trkpt lat="44.0234583" lon="8.1464817"><ele>459.0</ele><time>2026-04-17T17:01:23.074Z</time></trkpt><trkpt lat="44.0235117" lon="8.1464083"><ele>459.0</ele><time>2026-04-17T17:01:26.074Z</time></trkpt><trkpt lat="44.0235417" lon="8.1463233"><ele>459.0</ele><time>2026-04-17T17:01:29.073Z</time></trkpt><trkpt lat="44.023595" lon="8.1462467"><ele>459.0</ele><time>2026-04-17T17:01:32.074Z</time></trkpt><trkpt lat="44.0236517" lon="8.1462033"><ele>459.0</ele><time>2026-04-17T17:01:34.074Z</time></trkpt><trkpt lat="44.0237483" lon="8.146185"><ele>459.0</ele><time>2026-04-17T17:01:37.073Z</time></trkpt><trkpt lat="44.0238217" lon="8.1461883"><ele>459.0</ele><time>2026-04-17T17:01:39.074Z</time></trkpt><trkpt lat="44.0239017" lon="8.146195"><ele>459.0</ele><time>2026-04-17T17:01:42.074Z</time></trkpt><trkpt lat="44.0239667" lon="8.1461983"><ele>459.0</ele><time>2026-04-17T17:02:28.074Z</time></trkpt><trkpt lat="44.02406" lon="8.1461967"><ele>459.0</ele><time>2026-04-17T17:02:31.074Z</time></trkpt><trkpt lat="44.02413" lon="8.1461567"><ele>459.0</ele><time>2026-04-17T17:02:34.073Z</time></trkpt><trkpt lat="44.0242" lon="8.1460667"><ele>459.0</ele><time>2026-04-17T17:02:37.073Z</time></trkpt><trkpt lat="44.02427" lon="8.1459383"><ele>454.8333333333333</ele><time>2026-04-17T17:02:39.073Z</time></trkpt><trkpt lat="44.0243017" lon="8.145855"><ele>450.66666666666663</ele><time>2026-04-17T17:02:40.074Z</time></trkpt><trkpt lat="44.0243533" lon="8.1457417"><ele>446.5</ele><time>2026-04-17T17:02:42.073Z</time></trkpt><trkpt lat="44.0243967" lon="8.14565"><ele>442.3333333333333</ele><time>2026-04-17T17:02:44.074Z</time></trkpt><trkpt lat="44.0244283" lon="8.14556"><ele>438.16666666666663</ele><time>2026-04-17T17:02:46.074Z</time></trkpt><trkpt lat="44.0244783" lon="8.1454533"><ele>434.0</ele><time>2026-04-17T17:02:49.073Z</time></trkpt><trkpt lat="44.02452" lon="8.1453267"><ele>434.0</ele><time>2026-04-17T17:02:51.074Z</time></trkpt><trkpt lat="44.0245667" lon="8.14521"><ele>434.0</ele><time>2026-04-17T17:02:53.074Z</time></trkpt><trkpt lat="44.0246167" lon="8.1451183"><ele>434.0</ele><time>2026-04-17T17:02:55.074Z</time></trkpt><trkpt lat="44.0246583" lon="8.1449967"><ele>434.0</ele><time>2026-04-17T17:02:58.073Z</time></trkpt><trkpt lat="44.0246783" lon="8.1448717"><ele>434.0</ele><time>2026-04-17T17:03:00.073Z</time></trkpt><trkpt lat="44.0246983" lon="8.1447283"><ele>431.3333333333333</ele><time>2026-04-17T17:03:02.074Z</time></trkpt><trkpt lat="44.0246917" lon="8.1446333"><ele>428.66666666666663</ele><time>2026-04-17T17:03:04.074Z</time></trkpt><trkpt lat="44.0246733" lon="8.1444883"><ele>426.0</ele><time>2026-04-17T17:03:06.073Z</time></trkpt><trkpt lat="44.02464" lon="8.1443483"><ele>423.33333333333337</ele><time>2026-04-17T17:03:08.073Z</time></trkpt><trkpt lat="44.0246017" lon="8.1442633"><ele>420.6666666666667</ele><time>2026-04-17T17:03:10.073Z</time></trkpt><trkpt lat="44.024555" lon="8.1441783"><ele>418.0</ele><time>2026-04-17T17:03:12.074Z</time></trkpt><trkpt lat="44.0244883" lon="8.1440883"><ele>420.00000000000006</ele><time>2026-04-17T17:03:14.073Z</time></trkpt><trkpt lat="44.0244417" lon="8.1440217"><ele>422.0</ele><time>2026-04-17T17:03:15.074Z</time></trkpt><trkpt lat="44.0243967" lon="8.14396"><ele>424.0</ele><time>2026-04-17T17:03:16.074Z</time></trkpt><trkpt lat="44.0242917" lon="8.1438617"><ele>426.0</ele><time>2026-04-17T17:03:18.074Z</time></trkpt><trkpt lat="44.0242233" lon="8.143815"><ele>428.00000000000006</ele><time>2026-04-17T17:03:20.073Z</time></trkpt><trkpt lat="44.0241667" lon="8.1437567"><ele>430.0</ele><time>2026-04-17T17:03:22.074Z</time></trkpt><trkpt lat="44.0241417" lon="8.14365"><ele>430.00000000000006</ele><time>2026-04-17T17:03:24.074Z</time></trkpt><trkpt lat="44.0241517" lon="8.143505"><ele>430.0</ele><time>2026-04-17T17:03:27.074Z</time></trkpt><trkpt lat="44.0241567" lon="8.1434167"><ele>430.0</ele><time>2026-04-17T17:03:29.073Z</time></trkpt><trkpt lat="44.0241267" lon="8.1432983"><ele>430.0</ele><time>2026-04-17T17:03:31.074Z</time></trkpt><trkpt lat="44.024085" lon="8.1431783"><ele>430.00000000000006</ele><time>2026-04-17T17:03:33.074Z</time></trkpt><trkpt lat="44.0240533" lon="8.1430967"><ele>430.0</ele><time>2026-04-17T17:03:35.073Z</time></trkpt><trkpt lat="44.0240283" lon="8.1429933"><ele>429.2</ele><time>2026-04-17T17:03:38.074Z</time></trkpt><trkpt lat="44.0240417" lon="8.1428867"><ele>428.4</ele><time>2026-04-17T17:03:40.074Z</time></trkpt><trkpt lat="44.0241017" lon="8.1427533"><ele>427.6</ele><time>2026-04-17T17:03:42.074Z</time></trkpt><trkpt lat="44.0241433" lon="8.1426183"><ele>426.8</ele><time>2026-04-17T17:03:44.074Z</time></trkpt><trkpt lat="44.0241633" lon="8.1424833"><ele>426.0</ele><time>2026-04-17T17:03:46.073Z</time></trkpt><trkpt lat="44.02418" lon="8.1423533"><ele>419.0</ele><time>2026-04-17T17:03:48.073Z</time></trkpt><trkpt lat="44.0241917" lon="8.1422633"><ele>412.0</ele><time>2026-04-17T17:03:50.073Z</time></trkpt><trkpt lat="44.0242267" lon="8.1421617"><ele>405.0</ele><time>2026-04-17T17:03:53.074Z</time></trkpt><trkpt lat="44.0242467" lon="8.1420583"><ele>398.0</ele><time>2026-04-17T17:03:55.073Z</time></trkpt><trkpt lat="44.0242717" lon="8.141945"><ele>391.0</ele><time>2026-04-17T17:03:57.073Z</time></trkpt><trkpt lat="44.0243133" lon="8.1418517"><ele>384.0</ele><time>2026-04-17T17:03:59.074Z</time></trkpt><trkpt lat="44.0244017" lon="8.1417983"><ele>384.0</ele><time>2026-04-17T17:04:02.074Z</time></trkpt><trkpt lat="44.0244617" lon="8.14173"><ele>384.0</ele><time>2026-04-17T17:04:05.073Z</time></trkpt><trkpt lat="44.0244667" lon="8.141625"><ele>384.0</ele><time>2026-04-17T17:04:08.073Z</time></trkpt><trkpt lat="44.024465" lon="8.1414983"><ele>384.0</ele><time>2026-04-17T17:04:11.074Z</time></trkpt><trkpt lat="44.0244617" lon="8.1413783"><ele>384.0</ele><time>2026-04-17T17:04:13.074Z</time></trkpt><trkpt lat="44.0244517" lon="8.1412567"><ele>384.0</ele><time>2026-04-17T17:04:15.073Z</time></trkpt><trkpt lat="44.0244317" lon="8.1411333"><ele>383.3333333333333</ele><time>2026-04-17T17:04:17.074Z</time></trkpt><trkpt lat="44.0244017" lon="8.1409817"><ele>382.6666666666667</ele><time>2026-04-17T17:04:19.073Z</time></trkpt><trkpt lat="44.0243883" lon="8.140885"><ele>382.0</ele><time>2026-04-17T17:04:20.074Z</time></trkpt><trkpt lat="44.0243733" lon="8.1407983"><ele>381.33333333333337</ele><time>2026-04-17T17:04:21.074Z</time></trkpt><trkpt lat="44.0243633" lon="8.1407033"><ele>380.6666666666667</ele><time>2026-04-17T17:04:22.073Z</time></trkpt><trkpt lat="44.02436" lon="8.1405517"><ele>380.0</ele><time>2026-04-17T17:04:24.074Z</time></trkpt><trkpt lat="44.02438" lon="8.14046"><ele>377.6666666666667</ele><time>2026-04-17T17:04:26.074Z</time></trkpt><trkpt lat="44.0244033" lon="8.1403583"><ele>375.33333333333337</ele><time>2026-04-17T17:04:28.073Z</time></trkpt><trkpt lat="44.024395" lon="8.140245"><ele>373.0</ele><time>2026-04-17T17:04:30.074Z</time></trkpt><trkpt lat="44.0244033" lon="8.1401267"><ele>370.6666666666667</ele><time>2026-04-17T17:04:32.074Z</time></trkpt><trkpt lat="44.0244233" lon="8.14"><ele>368.3333333333333</ele><time>2026-04-17T17:04:34.073Z</time></trkpt><trkpt lat="44.0244583" lon="8.1399117"><ele>366.0</ele><time>2026-04-17T17:04:36.073Z</time></trkpt><trkpt lat="44.0245183" lon="8.1398167"><ele>362.0</ele><time>2026-04-17T17:04:39.074Z</time></trkpt><trkpt lat="44.0245817" lon="8.1397083"><ele>358.0</ele><time>2026-04-17T17:04:41.074Z</time></trkpt><trkpt lat="44.0246517" lon="8.1395967"><ele>354.0</ele><time>2026-04-17T17:04:43.074Z</time></trkpt><trkpt lat="44.02471" lon="8.1394783"><ele>350.0</ele><time>2026-04-17T17:04:45.074Z</time></trkpt><trkpt lat="44.0247017" lon="8.1393883"><ele>346.0</ele><time>2026-04-17T17:04:48.073Z</time></trkpt><trkpt lat="44.0246133" lon="8.1393533"><ele>346.0</ele><time>2026-04-17T17:04:50.074Z</time></trkpt><trkpt lat="44.0245483" lon="8.1393183"><ele>346.0</ele><time>2026-04-17T17:04:52.073Z</time></trkpt><trkpt lat="44.024455" lon="8.139275"><ele>346.0</ele><time>2026-04-17T17:04:55.074Z</time></trkpt><trkpt lat="44.0243667" lon="8.1392633"><ele>346.0</ele><time>2026-04-17T17:04:57.074Z</time></trkpt><trkpt lat="44.0242717" lon="8.1392383"><ele>346.0</ele><time>2026-04-17T17:04:59.074Z</time></trkpt><trkpt lat="44.0241967" lon="8.13917"><ele>346.0</ele><time>2026-04-17T17:05:01.073Z</time></trkpt><trkpt lat="44.0241233" lon="8.1390767"><ele>340.5</ele><time>2026-04-17T17:05:03.074Z</time></trkpt><trkpt lat="44.024045" lon="8.1389717"><ele>335.0</ele><time>2026-04-17T17:05:05.073Z</time></trkpt><trkpt lat="44.024" lon="8.1389"><ele>329.5</ele><time>2026-04-17T17:05:07.073Z</time></trkpt><trkpt lat="44.0239433" lon="8.1388167"><ele>324.0</ele><time>2026-04-17T17:05:09.073Z</time></trkpt><trkpt lat="44.0238733" lon="8.1387667"><ele>318.5</ele><time>2026-04-17T17:05:11.074Z</time></trkpt><trkpt lat="44.0237933" lon="8.1388183"><ele>313.0</ele><time>2026-04-17T17:05:17.073Z</time></trkpt><trkpt lat="44.0237583" lon="8.1389033"><ele>313.0</ele><time>2026-04-17T17:05:19.073Z</time></trkpt><trkpt lat="44.023725" lon="8.1389867"><ele>313.0</ele><time>2026-04-17T17:05:21.074Z</time></trkpt><trkpt lat="44.02367" lon="8.1390817"><ele>313.0</ele><time>2026-04-17T17:05:23.074Z</time></trkpt><trkpt lat="44.0236017" lon="8.13919"><ele>313.0</ele><time>2026-04-17T17:05:25.074Z</time></trkpt><trkpt lat="44.023525" lon="8.13926"><ele>313.0</ele><time>2026-04-17T17:05:27.074Z</time></trkpt><trkpt lat="44.0234467" lon="8.139305"><ele>313.0</ele><time>2026-04-17T17:05:29.073Z</time></trkpt><trkpt lat="44.0233833" lon="8.1393033"><ele>311.8</ele><time>2026-04-17T17:05:30.073Z</time></trkpt><trkpt lat="44.0232833" lon="8.1392567"><ele>310.6</ele><time>2026-04-17T17:05:32.073Z</time></trkpt><trkpt lat="44.0231683" lon="8.139225"><ele>309.4</ele><time>2026-04-17T17:05:34.073Z</time></trkpt><trkpt lat="44.0231017" lon="8.1392383"><ele>308.2</ele><time>2026-04-17T17:05:35.073Z</time></trkpt><trkpt lat="44.0230117" lon="8.1392983"><ele>307.0</ele><time>2026-04-17T17:05:37.072Z</time></trkpt><trkpt lat="44.0229033" lon="8.13934"><ele>307.0</ele><time>2026-04-17T17:05:39.073Z</time></trkpt><trkpt lat="44.0227817" lon="8.1393483"><ele>307.0</ele><time>2026-04-17T17:05:41.072Z</time></trkpt><trkpt lat="44.022715" lon="8.1393433"><ele>307.0</ele><time>2026-04-17T17:05:43.073Z</time></trkpt><trkpt lat="44.0226433" lon="8.1393117"><ele>307.0</ele><time>2026-04-17T17:05:48.072Z</time></trkpt><trkpt lat="44.0225567" lon="8.1393167"><ele>307.0</ele><time>2026-04-17T17:05:51.073Z</time></trkpt><trkpt lat="44.022505" lon="8.1393667"><ele>307.0</ele><time>2026-04-17T17:05:54.072Z</time></trkpt><trkpt lat="44.0224117" lon="8.139475"><ele>307.6</ele><time>2026-04-17T17:05:59.072Z</time></trkpt><trkpt lat="44.0223433" lon="8.1395483"><ele>308.2</ele><time>2026-04-17T17:06:00.073Z</time></trkpt><trkpt lat="44.0222717" lon="8.1396233"><ele>308.8</ele><time>2026-04-17T17:06:01.072Z</time></trkpt><trkpt lat="44.0221917" lon="8.1397"><ele>309.4</ele><time>2026-04-17T17:06:02.072Z</time></trkpt><trkpt lat="44.0221017" lon="8.139775"><ele>310.0</ele><time>2026-04-17T17:06:03.073Z</time></trkpt><trkpt lat="44.0219983" lon="8.13982"><ele>310.0</ele><time>2026-04-17T17:06:04.072Z</time></trkpt><trkpt lat="44.0219017" lon="8.1398217"><ele>310.0</ele><time>2026-04-17T17:06:05.073Z</time></trkpt><trkpt lat="44.0218117" lon="8.13979"><ele>310.0</ele><time>2026-04-17T17:06:06.073Z</time></trkpt><trkpt lat="44.0217133" lon="8.1397117"><ele>310.0</ele><time>2026-04-17T17:06:07.072Z</time></trkpt><trkpt lat="44.0216" lon="8.1396583"><ele>310.0</ele><time>2026-04-17T17:06:08.072Z</time></trkpt><trkpt lat="44.0214733" lon="8.139615"><ele>309.25</ele><time>2026-04-17T17:06:09.073Z</time></trkpt><trkpt lat="44.02134" lon="8.1396017"><ele>308.5</ele><time>2026-04-17T17:06:10.072Z</time></trkpt><trkpt lat="44.0212083" lon="8.13962"><ele>307.75</ele><time>2026-04-17T17:06:11.072Z</time></trkpt><trkpt lat="44.0210617" lon="8.1396533"><ele>307.0</ele><time>2026-04-17T17:06:12.072Z</time></trkpt><trkpt lat="44.0209183" lon="8.1396933"><ele>309.0</ele><time>2026-04-17T17:06:13.073Z</time></trkpt><trkpt lat="44.0207567" lon="8.1397283"><ele>311.0</ele><time>2026-04-17T17:06:14.073Z</time></trkpt><trkpt lat="44.0205817" lon="8.1397633"><ele>313.0</ele><time>2026-04-17T17:06:15.072Z</time></trkpt><trkpt lat="44.0204033" lon="8.1397833"><ele>313.0</ele><time>2026-04-17T17:06:16.073Z</time></trkpt><trkpt lat="44.0202183" lon="8.139775"><ele>313.0</ele><time>2026-04-17T17:06:17.073Z</time></trkpt><trkpt lat="44.0200417" lon="8.1397533"><ele>313.0</ele><time>2026-04-17T17:06:18.072Z</time></trkpt><trkpt lat="44.0198617" lon="8.1397333"><ele>316.3333333333333</ele><time>2026-04-17T17:06:19.073Z</time></trkpt><trkpt lat="44.0196867" lon="8.1397133"><ele>319.6666666666667</ele><time>2026-04-17T17:06:20.072Z</time></trkpt><trkpt lat="44.019505" lon="8.1396867"><ele>323.0</ele><time>2026-04-17T17:06:21.072Z</time></trkpt><trkpt lat="44.0193283" lon="8.139655"><ele>323.0</ele><time>2026-04-17T17:06:22.073Z</time></trkpt><trkpt lat="44.0191783" lon="8.1396383"><ele>323.0</ele><time>2026-04-17T17:06:23.072Z</time></trkpt><trkpt lat="44.0190483" lon="8.1396467"><ele>323.0</ele><time>2026-04-17T17:06:24.073Z</time></trkpt><trkpt lat="44.01893" lon="8.1397"><ele>323.0</ele><time>2026-04-17T17:06:25.073Z</time></trkpt><trkpt lat="44.0188283" lon="8.1397867"><ele>320.75</ele><time>2026-04-17T17:06:26.073Z</time></trkpt><trkpt lat="44.01872" lon="8.1398633"><ele>318.5</ele><time>2026-04-17T17:06:27.073Z</time></trkpt><trkpt lat="44.018595" lon="8.1399333"><ele>316.25</ele><time>2026-04-17T17:06:28.073Z</time></trkpt><trkpt lat="44.0184683" lon="8.1400217"><ele>314.0</ele><time>2026-04-17T17:06:29.072Z</time></trkpt><trkpt lat="44.01836" lon="8.14014"><ele>316.6666666666667</ele><time>2026-04-17T17:06:30.072Z</time></trkpt><trkpt lat="44.01826" lon="8.1402833"><ele>319.3333333333333</ele><time>2026-04-17T17:06:31.072Z</time></trkpt><trkpt lat="44.0181567" lon="8.1404367"><ele>322.0</ele><time>2026-04-17T17:06:32.072Z</time></trkpt><trkpt lat="44.0180367" lon="8.1406167"><ele>329.3333333333333</ele><time>2026-04-17T17:06:33.073Z</time></trkpt><trkpt lat="44.0179117" lon="8.140765"><ele>336.6666666666667</ele><time>2026-04-17T17:06:34.072Z</time></trkpt><trkpt lat="44.01779" lon="8.140885"><ele>344.0</ele><time>2026-04-17T17:06:35.073Z</time></trkpt><trkpt lat="44.01764" lon="8.1409833"><ele>346.0</ele><time>2026-04-17T17:06:36.072Z</time></trkpt><trkpt lat="44.01748" lon="8.1410467"><ele>348.0</ele><time>2026-04-17T17:06:37.072Z</time></trkpt><trkpt lat="44.0173167" lon="8.1410933"><ele>350.0</ele><time>2026-04-17T17:06:38.073Z</time></trkpt><trkpt lat="44.01716" lon="8.1411183"><ele>350.0</ele><time>2026-04-17T17:06:39.073Z</time></trkpt><trkpt lat="44.01701" lon="8.141125"><ele>350.0</ele><time>2026-04-17T17:06:40.073Z</time></trkpt><trkpt lat="44.01688" lon="8.1411033"><ele>350.0</ele><time>2026-04-17T17:06:41.073Z</time></trkpt><trkpt lat="44.0167667" lon="8.1410167"><ele>350.0</ele><time>2026-04-17T17:06:42.072Z</time></trkpt><trkpt lat="44.0166483" lon="8.1408783"><ele>349.25</ele><time>2026-04-17T17:06:43.073Z</time></trkpt><trkpt lat="44.0165267" lon="8.1407383"><ele>348.5</ele><time>2026-04-17T17:06:44.073Z</time></trkpt><trkpt lat="44.016405" lon="8.140635"><ele>347.75</ele><time>2026-04-17T17:06:45.072Z</time></trkpt><trkpt lat="44.0162917" lon="8.1405683"><ele>347.0</ele><time>2026-04-17T17:06:46.072Z</time></trkpt><trkpt lat="44.0162017" lon="8.1405667"><ele>347.0</ele><time>2026-04-17T17:06:47.073Z</time></trkpt><trkpt lat="44.0161483" lon="8.140685"><ele>347.0</ele><time>2026-04-17T17:06:48.072Z</time></trkpt><trkpt lat="44.0161183" lon="8.1408117"><ele>347.0</ele><time>2026-04-17T17:06:49.072Z</time></trkpt><trkpt lat="44.0161033" lon="8.14097"><ele>347.0</ele><time>2026-04-17T17:06:50.073Z</time></trkpt><trkpt lat="44.01607" lon="8.1411383"><ele>347.0</ele><time>2026-04-17T17:06:51.073Z</time></trkpt><trkpt lat="44.016015" lon="8.141285"><ele>347.0</ele><time>2026-04-17T17:06:52.072Z</time></trkpt><trkpt lat="44.0159217" lon="8.14142"><ele>347.0</ele><time>2026-04-17T17:06:53.072Z</time></trkpt><trkpt lat="44.0158017" lon="8.1415383"><ele>347.0</ele><time>2026-04-17T17:06:54.072Z</time></trkpt><trkpt lat="44.015675" lon="8.1416317"><ele>347.0</ele><time>2026-04-17T17:06:55.072Z</time></trkpt><trkpt lat="44.0155283" lon="8.141685"><ele>357.6666666666667</ele><time>2026-04-17T17:06:56.072Z</time></trkpt><trkpt lat="44.0153733" lon="8.1416917"><ele>368.3333333333333</ele><time>2026-04-17T17:06:57.072Z</time></trkpt><trkpt lat="44.01522" lon="8.14166"><ele>379.0</ele><time>2026-04-17T17:06:58.072Z</time></trkpt><trkpt lat="44.015065" lon="8.1416183"><ele>377.75</ele><time>2026-04-17T17:06:59.073Z</time></trkpt><trkpt lat="44.014925" lon="8.1415667"><ele>376.5</ele><time>2026-04-17T17:07:00.073Z</time></trkpt><trkpt lat="44.0147983" lon="8.1414967"><ele>375.25</ele><time>2026-04-17T17:07:01.073Z</time></trkpt><trkpt lat="44.0147" lon="8.1414017"><ele>374.0</ele><time>2026-04-17T17:07:02.073Z</time></trkpt><trkpt lat="44.0146317" lon="8.1412867"><ele>374.0</ele><time>2026-04-17T17:07:03.072Z</time></trkpt><trkpt lat="44.0145683" lon="8.1411283"><ele>374.0</ele><time>2026-04-17T17:07:04.072Z</time></trkpt><trkpt lat="44.014515" lon="8.140995"><ele>374.0</ele><time>2026-04-17T17:07:05.073Z</time></trkpt><trkpt lat="44.0144483" lon="8.14088"><ele>374.0</ele><time>2026-04-17T17:07:06.073Z</time></trkpt><trkpt lat="44.014345" lon="8.1408"><ele>374.0</ele><time>2026-04-17T17:07:07.072Z</time></trkpt><trkpt lat="44.01421" lon="8.140815"><ele>374.0</ele><time>2026-04-17T17:07:08.072Z</time></trkpt><trkpt lat="44.014065" lon="8.140835"><ele>374.0</ele><time>2026-04-17T17:07:09.072Z</time></trkpt><trkpt lat="44.0139167" lon="8.1408333"><ele>374.0</ele><time>2026-04-17T17:07:10.073Z</time></trkpt><trkpt lat="44.0137683" lon="8.1408083"><ele>376.5</ele><time>2026-04-17T17:07:11.073Z</time></trkpt><trkpt lat="44.013635" lon="8.1407567"><ele>379.0</ele><time>2026-04-17T17:07:12.073Z</time></trkpt><trkpt lat="44.0135267" lon="8.1406817"><ele>381.5</ele><time>2026-04-17T17:07:13.072Z</time></trkpt><trkpt lat="44.0134217" lon="8.1406267"><ele>384.0</ele><time>2026-04-17T17:07:14.072Z</time></trkpt><trkpt lat="44.01332" lon="8.1406183"><ele>384.6666666666667</ele><time>2026-04-17T17:07:15.073Z</time></trkpt><trkpt lat="44.013245" lon="8.14063"><ele>385.33333333333337</ele><time>2026-04-17T17:07:16.072Z</time></trkpt><trkpt lat="44.0131833" lon="8.1406717"><ele>386.0</ele><time>2026-04-17T17:07:17.072Z</time></trkpt><trkpt lat="44.0131233" lon="8.1407333"><ele>386.6666666666667</ele><time>2026-04-17T17:07:19.072Z</time></trkpt><trkpt lat="44.0130333" lon="8.1406917"><ele>387.33333333333337</ele><time>2026-04-17T17:07:40.072Z</time></trkpt><trkpt lat="44.0129567" lon="8.140725"><ele>388.0</ele><time>2026-04-17T17:07:42.073Z</time></trkpt><trkpt lat="44.0129267" lon="8.1408383"><ele>389.1428571428571</ele><time>2026-04-17T17:07:44.072Z</time></trkpt><trkpt lat="44.0128917" lon="8.14092"><ele>390.28571428571433</ele><time>2026-04-17T17:07:46.072Z</time></trkpt><trkpt lat="44.0128267" lon="8.1409183"><ele>391.42857142857144</ele><time>2026-04-17T17:07:48.072Z</time></trkpt><trkpt lat="44.012735" lon="8.1408683"><ele>392.57142857142856</ele><time>2026-04-17T17:07:50.073Z</time></trkpt><trkpt lat="44.0126733" lon="8.1408383"><ele>393.71428571428567</ele><time>2026-04-17T17:07:51.072Z</time></trkpt><trkpt lat="44.01261" lon="8.1408133"><ele>394.8571428571429</ele><time>2026-04-17T17:07:52.073Z</time></trkpt><trkpt lat="44.012535" lon="8.140785"><ele>396.0</ele><time>2026-04-17T17:07:53.073Z</time></trkpt><trkpt lat="44.0124683" lon="8.1407617"><ele>398.6</ele><time>2026-04-17T17:07:54.073Z</time></trkpt><trkpt lat="44.0124033" lon="8.1407383"><ele>401.20000000000005</ele><time>2026-04-17T17:07:55.072Z</time></trkpt><trkpt lat="44.0122883" lon="8.140675"><ele>403.79999999999995</ele><time>2026-04-17T17:07:57.072Z</time></trkpt><trkpt lat="44.01218" lon="8.1406283"><ele>406.4</ele><time>2026-04-17T17:07:59.073Z</time></trkpt><trkpt lat="44.0120933" lon="8.1405817"><ele>409.0</ele><time>2026-04-17T17:08:01.072Z</time></trkpt><trkpt lat="44.0120583" lon="8.1404917"><ele>411.6666666666667</ele><time>2026-04-17T17:08:04.072Z</time></trkpt><trkpt lat="44.012025" lon="8.1404117"><ele>414.33333333333337</ele><time>2026-04-17T17:08:17.073Z</time></trkpt><trkpt lat="44.0119483" lon="8.1403583"><ele>417.0</ele><time>2026-04-17T17:08:20.073Z</time></trkpt><trkpt lat="44.011855" lon="8.1402917"><ele>419.66666666666663</ele><time>2026-04-17T17:08:22.072Z</time></trkpt><trkpt lat="44.0117983" lon="8.1402517"><ele>422.3333333333333</ele><time>2026-04-17T17:08:23.073Z</time></trkpt><trkpt lat="44.011715" lon="8.140205"><ele>425.0</ele><time>2026-04-17T17:08:25.073Z</time></trkpt><trkpt lat="44.0116617" lon="8.1401483"><ele>424.99999999999994</ele><time>2026-04-17T17:08:27.073Z</time></trkpt><trkpt lat="44.0116083" lon="8.140095"><ele>425.0</ele><time>2026-04-17T17:08:30.072Z</time></trkpt><trkpt lat="44.0115733" lon="8.1399917"><ele>425.0</ele><time>2026-04-17T17:08:33.072Z</time></trkpt><trkpt lat="44.0115317" lon="8.1399017"><ele>425.0</ele><time>2026-04-17T17:08:36.072Z</time></trkpt><trkpt lat="44.01147" lon="8.1398467"><ele>424.99999999999994</ele><time>2026-04-17T17:08:39.073Z</time></trkpt><trkpt lat="44.01139" lon="8.1398183"><ele>425.0</ele><time>2026-04-17T17:08:42.073Z</time></trkpt><trkpt lat="44.01132" lon="8.1398383"><ele>425.8333333333333</ele><time>2026-04-17T17:09:29.072Z</time></trkpt><trkpt lat="44.0112483" lon="8.1398917"><ele>426.66666666666663</ele><time>2026-04-17T17:09:32.072Z</time></trkpt><trkpt lat="44.01117" lon="8.1399317"><ele>427.5</ele><time>2026-04-17T17:09:34.072Z</time></trkpt><trkpt lat="44.011075" lon="8.14"><ele>428.33333333333337</ele><time>2026-04-17T17:09:36.072Z</time></trkpt><trkpt lat="44.010975" lon="8.1400717"><ele>429.1666666666667</ele><time>2026-04-17T17:09:38.073Z</time></trkpt><trkpt lat="44.0109167" lon="8.1401067"><ele>430.0</ele><time>2026-04-17T17:09:39.073Z</time></trkpt><trkpt lat="44.0108567" lon="8.14014"><ele>425.6666666666667</ele><time>2026-04-17T17:09:40.073Z</time></trkpt><trkpt lat="44.0107967" lon="8.14018"><ele>421.33333333333337</ele><time>2026-04-17T17:09:41.073Z</time></trkpt><trkpt lat="44.0107283" lon="8.14021"><ele>417.0</ele><time>2026-04-17T17:09:42.073Z</time></trkpt><trkpt lat="44.010665" lon="8.14023"><ele>412.66666666666663</ele><time>2026-04-17T17:09:43.072Z</time></trkpt><trkpt lat="44.0105517" lon="8.1402267"><ele>408.3333333333333</ele><time>2026-04-17T17:09:45.073Z</time></trkpt><trkpt lat="44.01049" lon="8.1402083"><ele>404.0</ele><time>2026-04-17T17:09:46.073Z</time></trkpt><trkpt lat="44.0103833" lon="8.140235"><ele>403.99999999999994</ele><time>2026-04-17T17:09:48.073Z</time></trkpt><trkpt lat="44.0103183" lon="8.1403017"><ele>404.0</ele><time>2026-04-17T17:09:50.073Z</time></trkpt><trkpt lat="44.01025" lon="8.140295"><ele>404.0</ele><time>2026-04-17T17:09:53.072Z</time></trkpt><trkpt lat="44.0101717" lon="8.1402267"><ele>404.0</ele><time>2026-04-17T17:10:26.072Z</time></trkpt><trkpt lat="44.010105" lon="8.140195"><ele>403.99999999999994</ele><time>2026-04-17T17:10:30.072Z</time></trkpt><trkpt lat="44.0100417" lon="8.1401583"><ele>404.0</ele><time>2026-04-17T17:10:33.072Z</time></trkpt><trkpt lat="44.0099683" lon="8.1401233"><ele>399.66666666666663</ele><time>2026-04-17T17:10:36.073Z</time></trkpt><trkpt lat="44.0098983" lon="8.1401183"><ele>395.3333333333333</ele><time>2026-04-17T17:10:38.073Z</time></trkpt><trkpt lat="44.0098" lon="8.140085"><ele>391.0</ele><time>2026-04-17T17:10:40.072Z</time></trkpt><trkpt lat="44.0096933" lon="8.14003"><ele>386.66666666666663</ele><time>2026-04-17T17:10:42.073Z</time></trkpt><trkpt lat="44.0096217" lon="8.1400183"><ele>382.3333333333333</ele><time>2026-04-17T17:10:44.073Z</time></trkpt><trkpt lat="44.0095617" lon="8.14005"><ele>378.0</ele><time>2026-04-17T17:10:46.072Z</time></trkpt><trkpt lat="44.0094717" lon="8.1400367"><ele>378.0</ele><time>2026-04-17T17:10:49.073Z</time></trkpt><trkpt lat="44.0093967" lon="8.1399617"><ele>378.0</ele><time>2026-04-17T17:10:51.073Z</time></trkpt><trkpt lat="44.0093083" lon="8.1399483"><ele>378.0</ele><time>2026-04-17T17:10:53.072Z</time></trkpt><trkpt lat="44.0092233" lon="8.1399517"><ele>378.0</ele><time>2026-04-17T17:10:55.072Z</time></trkpt><trkpt lat="44.00912" lon="8.13993"><ele>378.0</ele><time>2026-04-17T17:10:57.072Z</time></trkpt><trkpt lat="44.009025" lon="8.13991"><ele>376.0</ele><time>2026-04-17T17:10:59.072Z</time></trkpt><trkpt lat="44.0089383" lon="8.1399283"><ele>374.0</ele><time>2026-04-17T17:11:01.073Z</time></trkpt><trkpt lat="44.008875" lon="8.139925"><ele>372.0</ele><time>2026-04-17T17:11:03.073Z</time></trkpt><trkpt lat="44.0088067" lon="8.1399433"><ele>370.0</ele><time>2026-04-17T17:11:05.073Z</time></trkpt><trkpt lat="44.0087417" lon="8.1399467"><ele>368.0</ele><time>2026-04-17T17:11:07.073Z</time></trkpt><trkpt lat="44.0086617" lon="8.1399417"><ele>366.0</ele><time>2026-04-17T17:11:09.071Z</time></trkpt><trkpt lat="44.008585" lon="8.1399333"><ele>364.0</ele><time>2026-04-17T17:11:11.071Z</time></trkpt><trkpt lat="44.0085167" lon="8.1399333"><ele>364.0</ele><time>2026-04-17T17:11:13.071Z</time></trkpt><trkpt lat="44.00843" lon="8.13995"><ele>364.0</ele><time>2026-04-17T17:11:15.072Z</time></trkpt><trkpt lat="44.0083333" lon="8.1399767"><ele>364.0</ele><time>2026-04-17T17:11:17.071Z</time></trkpt><trkpt lat="44.0082067" lon="8.139975"><ele>364.0</ele><time>2026-04-17T17:11:19.072Z</time></trkpt><trkpt lat="44.0080933" lon="8.1399183"><ele>364.0</ele><time>2026-04-17T17:11:21.072Z</time></trkpt><trkpt lat="44.0080217" lon="8.1398683"><ele>360.0</ele><time>2026-04-17T17:11:23.071Z</time></trkpt><trkpt lat="44.0079683" lon="8.139815"><ele>356.0</ele><time>2026-04-17T17:11:26.072Z</time></trkpt><trkpt lat="44.0079067" lon="8.13973"><ele>352.0</ele><time>2026-04-17T17:11:35.072Z</time></trkpt><trkpt lat="44.0078583" lon="8.13964"><ele>348.0</ele><time>2026-04-17T17:11:38.071Z</time></trkpt><trkpt lat="44.0077883" lon="8.1395817"><ele>344.0</ele><time>2026-04-17T17:12:57.071Z</time></trkpt><trkpt lat="44.0077217" lon="8.1395333"><ele>340.0</ele><time>2026-04-17T17:12:58.072Z</time></trkpt><trkpt lat="44.0076383" lon="8.139505"><ele>340.0</ele><time>2026-04-17T17:12:59.072Z</time></trkpt><trkpt lat="44.007555" lon="8.1394917"><ele>340.0</ele><time>2026-04-17T17:13:00.072Z</time></trkpt><trkpt lat="44.0074883" lon="8.139505"><ele>340.0</ele><time>2026-04-17T17:13:01.071Z</time></trkpt><trkpt lat="44.0074067" lon="8.1395433"><ele>340.0</ele><time>2026-04-17T17:13:03.072Z</time></trkpt><trkpt lat="44.0074817" lon="8.139455"><ele>340.0</ele><time>2026-04-17T17:13:07.072Z</time></trkpt><trkpt lat="44.0075667" lon="8.139445"><ele>340.0</ele><time>2026-04-17T17:13:08.071Z</time></trkpt><trkpt lat="44.0076533" lon="8.1394483"><ele>340.0</ele><time>2026-04-17T17:13:09.072Z</time></trkpt><trkpt lat="44.0077367" lon="8.1394683"><ele>340.0</ele><time>2026-04-17T17:13:10.071Z</time></trkpt><trkpt lat="44.00781" lon="8.1394867"><ele>340.0</ele><time>2026-04-17T17:13:11.071Z</time></trkpt><trkpt lat="44.0078733" lon="8.1394767"><ele>340.0</ele><time>2026-04-17T17:13:12.072Z</time></trkpt><trkpt lat="44.0079333" lon="8.139365"><ele>340.0</ele><time>2026-04-17T17:13:14.072Z</time></trkpt><trkpt lat="44.007805" lon="8.1392833"><ele>340.0</ele><time>2026-04-17T17:13:16.071Z</time></trkpt><trkpt lat="44.0077017" lon="8.13927"><ele>340.0</ele><time>2026-04-17T17:13:17.072Z</time></trkpt><trkpt lat="44.0075783" lon="8.1392617"><ele>340.0</ele><time>2026-04-17T17:13:18.072Z</time></trkpt><trkpt lat="44.0074517" lon="8.1392533"><ele>340.0</ele><time>2026-04-17T17:13:19.071Z</time></trkpt><trkpt lat="44.0073267" lon="8.1392583"><ele>338.75</ele><time>2026-04-17T17:13:20.071Z</time></trkpt><trkpt lat="44.0072017" lon="8.1392517"><ele>337.5</ele><time>2026-04-17T17:13:21.071Z</time></trkpt><trkpt lat="44.0070833" lon="8.1392533"><ele>336.25</ele><time>2026-04-17T17:13:22.072Z</time></trkpt><trkpt lat="44.00696" lon="8.1392367"><ele>335.0</ele><time>2026-04-17T17:13:23.071Z</time></trkpt><trkpt lat="44.006845" lon="8.1392117"><ele>335.0</ele><time>2026-04-17T17:13:24.072Z</time></trkpt><trkpt lat="44.0067367" lon="8.1392"><ele>335.0</ele><time>2026-04-17T17:13:25.071Z</time></trkpt><trkpt lat="44.006625" lon="8.1391883"><ele>335.0</ele><time>2026-04-17T17:13:26.071Z</time></trkpt><trkpt lat="44.0065033" lon="8.1391633"><ele>335.0</ele><time>2026-04-17T17:13:27.071Z</time></trkpt><trkpt lat="44.0063817" lon="8.1391183"><ele>333.5</ele><time>2026-04-17T17:13:28.071Z</time></trkpt><trkpt lat="44.00626" lon="8.1390633"><ele>332.0</ele><time>2026-04-17T17:13:29.071Z</time></trkpt><trkpt lat="44.0061433" lon="8.139"><ele>330.5</ele><time>2026-04-17T17:13:30.072Z</time></trkpt><trkpt lat="44.0060333" lon="8.1389583"><ele>329.0</ele><time>2026-04-17T17:13:31.071Z</time></trkpt><trkpt lat="44.0059533" lon="8.138915"><ele>328.0</ele><time>2026-04-17T17:13:32.072Z</time></trkpt><trkpt lat="44.00588" lon="8.1388883"><ele>327.0</ele><time>2026-04-17T17:13:33.072Z</time></trkpt><trkpt lat="44.0057967" lon="8.1388817"><ele>326.0</ele><time>2026-04-17T17:13:34.072Z</time></trkpt><trkpt lat="44.00573" lon="8.1388867"><ele>325.0</ele><time>2026-04-17T17:13:35.072Z</time></trkpt><trkpt lat="44.005665" lon="8.13891"><ele>324.0</ele><time>2026-04-17T17:13:36.071Z</time></trkpt><trkpt lat="44.0055717" lon="8.1389367"><ele>323.0</ele><time>2026-04-17T17:13:38.072Z</time></trkpt><trkpt lat="44.0054783" lon="8.13896"><ele>326.79999999999995</ele><time>2026-04-17T17:13:56.071Z</time></trkpt><trkpt lat="44.005415" lon="8.1389867"><ele>330.6</ele><time>2026-04-17T17:13:57.072Z</time></trkpt><trkpt lat="44.0053317" lon="8.1390367"><ele>334.4</ele><time>2026-04-17T17:13:58.072Z</time></trkpt><trkpt lat="44.0052333" lon="8.1391017"><ele>338.20000000000005</ele><time>2026-04-17T17:13:59.072Z</time></trkpt><trkpt lat="44.005115" lon="8.1391817"><ele>342.0</ele><time>2026-04-17T17:14:00.071Z</time></trkpt><trkpt lat="44.0049733" lon="8.1392717"><ele>345.75</ele><time>2026-04-17T17:14:01.072Z</time></trkpt><trkpt lat="44.0048367" lon="8.139375"><ele>349.5</ele><time>2026-04-17T17:14:02.072Z</time></trkpt><trkpt lat="44.0047033" lon="8.139445"><ele>353.25</ele><time>2026-04-17T17:14:03.072Z</time></trkpt><trkpt lat="44.0045733" lon="8.1394883"><ele>357.0</ele><time>2026-04-17T17:14:04.072Z</time></trkpt><trkpt lat="44.0044483" lon="8.1395367"><ele>357.0</ele><time>2026-04-17T17:14:05.072Z</time></trkpt><trkpt lat="44.0043517" lon="8.1395867"><ele>357.0</ele><time>2026-04-17T17:14:06.072Z</time></trkpt><trkpt lat="44.0042667" lon="8.1396817"><ele>357.0</ele><time>2026-04-17T17:14:07.071Z</time></trkpt><trkpt lat="44.0042067" lon="8.1398333"><ele>357.0</ele><time>2026-04-17T17:14:08.071Z</time></trkpt><trkpt lat="44.0041667" lon="8.1400017"><ele>349.5</ele><time>2026-04-17T17:14:09.072Z</time></trkpt><trkpt lat="44.004125" lon="8.140175"><ele>342.0</ele><time>2026-04-17T17:14:10.072Z</time></trkpt><trkpt lat="44.0040717" lon="8.1403317"><ele>334.5</ele><time>2026-04-17T17:14:11.072Z</time></trkpt><trkpt lat="44.0040083" lon="8.1405033"><ele>327.0</ele><time>2026-04-17T17:14:12.071Z</time></trkpt><trkpt lat="44.00395" lon="8.1406667"><ele>324.5</ele><time>2026-04-17T17:14:13.071Z</time></trkpt><trkpt lat="44.0038917" lon="8.1408217"><ele>322.0</ele><time>2026-04-17T17:14:14.071Z</time></trkpt><trkpt lat="44.003825" lon="8.1409683"><ele>319.5</ele><time>2026-04-17T17:14:15.072Z</time></trkpt><trkpt lat="44.003725" lon="8.1411067"><ele>317.0</ele><time>2026-04-17T17:14:16.071Z</time></trkpt><trkpt lat="44.0036217" lon="8.141245"><ele>317.0</ele><time>2026-04-17T17:14:17.071Z</time></trkpt><trkpt lat="44.0035267" lon="8.1413867"><ele>317.0</ele><time>2026-04-17T17:14:18.072Z</time></trkpt><trkpt lat="44.0034583" lon="8.14151"><ele>317.0</ele><time>2026-04-17T17:14:19.072Z</time></trkpt><trkpt lat="44.003405" lon="8.1416017"><ele>317.0</ele><time>2026-04-17T17:14:20.072Z</time></trkpt><trkpt lat="44.0033533" lon="8.141655"><ele>317.0</ele><time>2026-04-17T17:14:21.071Z</time></trkpt><trkpt lat="44.0032833" lon="8.1416717"><ele>313.6666666666667</ele><time>2026-04-17T17:14:23.071Z</time></trkpt><trkpt lat="44.0032117" lon="8.141635"><ele>310.33333333333337</ele><time>2026-04-17T17:14:26.072Z</time></trkpt><trkpt lat="44.0031467" lon="8.1416283"><ele>307.0</ele><time>2026-04-17T17:14:29.071Z</time></trkpt><trkpt lat="44.003075" lon="8.1416667"><ele>303.6666666666667</ele><time>2026-04-17T17:14:31.072Z</time></trkpt><trkpt lat="44.0029883" lon="8.141735"><ele>300.3333333333333</ele><time>2026-04-17T17:14:33.071Z</time></trkpt><trkpt lat="44.0029167" lon="8.1418117"><ele>297.0</ele><time>2026-04-17T17:14:35.071Z</time></trkpt><trkpt lat="44.0028483" lon="8.14183"><ele>297.0</ele><time>2026-04-17T17:14:37.072Z</time></trkpt><trkpt lat="44.002765" lon="8.1419017"><ele>297.0</ele><time>2026-04-17T17:14:39.071Z</time></trkpt><trkpt lat="44.0026633" lon="8.1419783"><ele>297.0</ele><time>2026-04-17T17:14:41.071Z</time></trkpt><trkpt lat="44.0025733" lon="8.1420283"><ele>297.0</ele><time>2026-04-17T17:14:43.072Z</time></trkpt><trkpt lat="44.0025017" lon="8.1420717"><ele>297.0</ele><time>2026-04-17T17:14:45.071Z</time></trkpt><trkpt lat="44.002455" lon="8.1421533"><ele>293.5</ele><time>2026-04-17T17:14:48.071Z</time></trkpt><trkpt lat="44.0024" lon="8.14222"><ele>290.0</ele><time>2026-04-17T17:14:50.071Z</time></trkpt><trkpt lat="44.0023067" lon="8.1422717"><ele>286.5</ele><time>2026-04-17T17:14:52.071Z</time></trkpt><trkpt lat="44.0022517" lon="8.1423233"><ele>283.0</ele><time>2026-04-17T17:14:53.072Z</time></trkpt><trkpt lat="44.00218" lon="8.1423633"><ele>279.5</ele><time>2026-04-17T17:14:54.072Z</time></trkpt><trkpt lat="44.00211" lon="8.142435"><ele>276.0</ele><time>2026-04-17T17:14:55.072Z</time></trkpt><trkpt lat="44.0020117" lon="8.1425367"><ele>276.0</ele><time>2026-04-17T17:14:56.072Z</time></trkpt><trkpt lat="44.0019033" lon="8.142675"><ele>276.0</ele><time>2026-04-17T17:14:57.071Z</time></trkpt><trkpt lat="44.001795" lon="8.1428217"><ele>276.0</ele><time>2026-04-17T17:14:58.072Z</time></trkpt><trkpt lat="44.0016883" lon="8.1429617"><ele>276.0</ele><time>2026-04-17T17:14:59.072Z</time></trkpt><trkpt lat="44.001585" lon="8.1430883"><ele>272.5</ele><time>2026-04-17T17:15:00.071Z</time></trkpt><trkpt lat="44.00148" lon="8.1432117"><ele>269.0</ele><time>2026-04-17T17:15:01.072Z</time></trkpt><trkpt lat="44.001375" lon="8.1433433"><ele>265.5</ele><time>2026-04-17T17:15:02.072Z</time></trkpt><trkpt lat="44.0012683" lon="8.1434833"><ele>262.0</ele><time>2026-04-17T17:15:03.072Z</time></trkpt><trkpt lat="44.001155" lon="8.1436167"><ele>262.0</ele><time>2026-04-17T17:15:04.071Z</time></trkpt><trkpt lat="44.0010433" lon="8.14375"><ele>262.0</ele><time>2026-04-17T17:15:05.071Z</time></trkpt><trkpt lat="44.0009483" lon="8.1438917"><ele>262.0</ele><time>2026-04-17T17:15:06.072Z</time></trkpt><trkpt lat="44.00086" lon="8.1440183"><ele>262.0</ele><time>2026-04-17T17:15:07.072Z</time></trkpt><trkpt lat="44.00079" lon="8.14415"><ele>260.8</ele><time>2026-04-17T17:15:08.072Z</time></trkpt><trkpt lat="44.0007367" lon="8.1442867"><ele>259.6</ele><time>2026-04-17T17:15:09.072Z</time></trkpt><trkpt lat="44.000705" lon="8.1444133"><ele>258.40000000000003</ele><time>2026-04-17T17:15:10.072Z</time></trkpt><trkpt lat="44.0006667" lon="8.1445633"><ele>257.2</ele><time>2026-04-17T17:15:11.072Z</time></trkpt><trkpt lat="44.0006283" lon="8.1447033"><ele>256.0</ele><time>2026-04-17T17:15:12.072Z</time></trkpt><trkpt lat="44.00057" lon="8.14482"><ele>259.2</ele><time>2026-04-17T17:15:13.072Z</time></trkpt><trkpt lat="44.0005083" lon="8.144915"><ele>262.40000000000003</ele><time>2026-04-17T17:15:14.072Z</time></trkpt><trkpt lat="44.00043" lon="8.1450017"><ele>265.6</ele><time>2026-04-17T17:15:15.071Z</time></trkpt><trkpt lat="44.0003367" lon="8.1451"><ele>268.8</ele><time>2026-04-17T17:15:16.071Z</time></trkpt><trkpt lat="44.0002367" lon="8.145215"><ele>272.0</ele><time>2026-04-17T17:15:17.072Z</time></trkpt><trkpt lat="44.000135" lon="8.1453483"><ele>272.0</ele><time>2026-04-17T17:15:18.071Z</time></trkpt><trkpt lat="44.000025" lon="8.1454783"><ele>272.0</ele><time>2026-04-17T17:15:19.072Z</time></trkpt><trkpt lat="43.9999133" lon="8.14561"><ele>272.0</ele><time>2026-04-17T17:15:20.071Z</time></trkpt><trkpt lat="43.9998033" lon="8.14574"><ele>272.0</ele><time>2026-04-17T17:15:21.072Z</time></trkpt><trkpt lat="43.9997217" lon="8.1458683"><ele>273.2</ele><time>2026-04-17T17:15:22.071Z</time></trkpt><trkpt lat="43.9996333" lon="8.14599"><ele>274.4</ele><time>2026-04-17T17:15:23.071Z</time></trkpt><trkpt lat="43.9995567" lon="8.146105"><ele>275.6</ele><time>2026-04-17T17:15:24.071Z</time></trkpt><trkpt lat="43.999495" lon="8.1462217"><ele>276.8</ele><time>2026-04-17T17:15:25.072Z</time></trkpt><trkpt lat="43.9994417" lon="8.1463333"><ele>278.0</ele><time>2026-04-17T17:15:26.072Z</time></trkpt><trkpt lat="43.9993967" lon="8.1464217"><ele>278.0</ele><time>2026-04-17T17:15:27.071Z</time></trkpt><trkpt lat="43.9993567" lon="8.1465033"><ele>278.0</ele><time>2026-04-17T17:15:28.072Z</time></trkpt><trkpt lat="43.9992967" lon="8.146605"><ele>278.0</ele><time>2026-04-17T17:15:30.072Z</time></trkpt><trkpt lat="43.9992183" lon="8.14664"><ele>278.0</ele><time>2026-04-17T17:16:10.071Z</time></trkpt><trkpt lat="43.9991433" lon="8.1467183"><ele>278.0</ele><time>2026-04-17T17:16:12.072Z</time></trkpt><trkpt lat="43.9990983" lon="8.1467817"><ele>278.0</ele><time>2026-04-17T17:16:13.071Z</time></trkpt><trkpt lat="43.9990433" lon="8.14686"><ele>278.33333333333337</ele><time>2026-04-17T17:16:14.071Z</time></trkpt><trkpt lat="43.9989883" lon="8.1469317"><ele>278.6666666666667</ele><time>2026-04-17T17:16:15.072Z</time></trkpt><trkpt lat="43.9989233" lon="8.147005"><ele>279.0</ele><time>2026-04-17T17:16:16.072Z</time></trkpt><trkpt lat="43.9988567" lon="8.147075"><ele>279.3333333333333</ele><time>2026-04-17T17:16:17.071Z</time></trkpt><trkpt lat="43.99879" lon="8.1471417"><ele>279.66666666666663</ele><time>2026-04-17T17:16:18.071Z</time></trkpt><trkpt lat="43.99871" lon="8.1472083"><ele>280.0</ele><time>2026-04-17T17:16:19.071Z</time></trkpt><trkpt lat="43.9986367" lon="8.1472767"><ele>280.0</ele><time>2026-04-17T17:16:20.071Z</time></trkpt><trkpt lat="43.998575" lon="8.1473483"><ele>280.0</ele><time>2026-04-17T17:16:21.071Z</time></trkpt><trkpt lat="43.9985217" lon="8.1474017"><ele>280.0</ele><time>2026-04-17T17:16:22.072Z</time></trkpt><trkpt lat="43.9984567" lon="8.147435"><ele>280.0</ele><time>2026-04-17T17:16:23.072Z</time></trkpt><trkpt lat="43.9983517" lon="8.147405"><ele>280.0</ele><time>2026-04-17T17:16:25.072Z</time></trkpt><trkpt lat="43.9982467" lon="8.1473533"><ele>280.0</ele><time>2026-04-17T17:16:27.071Z</time></trkpt><trkpt lat="43.9981717" lon="8.1473533"><ele>279.4</ele><time>2026-04-17T17:16:28.072Z</time></trkpt><trkpt lat="43.9980817" lon="8.1473767"><ele>278.8</ele><time>2026-04-17T17:16:29.071Z</time></trkpt><trkpt lat="43.9980083" lon="8.1474167"><ele>278.2</ele><time>2026-04-17T17:16:30.071Z</time></trkpt><trkpt lat="43.9979467" lon="8.147495"><ele>277.6</ele><time>2026-04-17T17:16:32.072Z</time></trkpt><trkpt lat="43.9979233" lon="8.1476217"><ele>277.0</ele><time>2026-04-17T17:16:34.071Z</time></trkpt><trkpt lat="43.9978633" lon="8.1477617"><ele>280.5</ele><time>2026-04-17T17:16:36.071Z</time></trkpt><trkpt lat="43.9978167" lon="8.14787"><ele>284.0</ele><time>2026-04-17T17:16:37.071Z</time></trkpt><trkpt lat="43.9977633" lon="8.1479667"><ele>287.5</ele><time>2026-04-17T17:16:38.071Z</time></trkpt><trkpt lat="43.9977133" lon="8.1480433"><ele>291.0</ele><time>2026-04-17T17:16:39.072Z</time></trkpt><trkpt lat="43.9976683" lon="8.14811"><ele>294.5</ele><time>2026-04-17T17:16:40.071Z</time></trkpt><trkpt lat="43.997575" lon="8.1482317"><ele>298.0</ele><time>2026-04-17T17:16:42.071Z</time></trkpt><trkpt lat="43.9974667" lon="8.1483317"><ele>299.16666666666663</ele><time>2026-04-17T17:16:44.071Z</time></trkpt><trkpt lat="43.9974083" lon="8.1483983"><ele>300.3333333333333</ele><time>2026-04-17T17:16:45.071Z</time></trkpt><trkpt lat="43.99736" lon="8.1484933"><ele>301.5</ele><time>2026-04-17T17:16:46.072Z</time></trkpt><trkpt lat="43.99733" lon="8.1485967"><ele>302.6666666666667</ele><time>2026-04-17T17:16:47.072Z</time></trkpt><trkpt lat="43.9972817" lon="8.1487017"><ele>303.83333333333337</ele><time>2026-04-17T17:16:48.071Z</time></trkpt><trkpt lat="43.9972283" lon="8.1488167"><ele>305.0</ele><time>2026-04-17T17:16:49.071Z</time></trkpt><trkpt lat="43.9971617" lon="8.1489533"><ele>304.6</ele><time>2026-04-17T17:16:50.071Z</time></trkpt><trkpt lat="43.9970867" lon="8.149075"><ele>304.2</ele><time>2026-04-17T17:16:51.071Z</time></trkpt><trkpt lat="43.9970217" lon="8.1491717"><ele>303.8</ele><time>2026-04-17T17:16:52.072Z</time></trkpt><trkpt lat="43.9969383" lon="8.1492367"><ele>303.4</ele><time>2026-04-17T17:16:53.071Z</time></trkpt><trkpt lat="43.9968583" lon="8.1492983"><ele>303.0</ele><time>2026-04-17T17:16:54.072Z</time></trkpt><trkpt lat="43.99678" lon="8.149355"><ele>303.0</ele><time>2026-04-17T17:16:55.071Z</time></trkpt><trkpt lat="43.99671" lon="8.1494"><ele>303.0</ele><time>2026-04-17T17:16:56.072Z</time></trkpt><trkpt lat="43.9965967" lon="8.149445"><ele>303.0</ele><time>2026-04-17T17:16:58.071Z</time></trkpt><trkpt lat="43.9964867" lon="8.14949"><ele>303.0</ele><time>2026-04-17T17:17:00.071Z</time></trkpt><trkpt lat="43.996425" lon="8.1495183"><ele>303.0</ele><time>2026-04-17T17:17:01.071Z</time></trkpt><trkpt lat="43.996365" lon="8.1495517"><ele>303.0</ele><time>2026-04-17T17:17:02.071Z</time></trkpt><trkpt lat="43.9962833" lon="8.1496617"><ele>303.5</ele><time>2026-04-17T17:17:04.071Z</time></trkpt><trkpt lat="43.99617" lon="8.1497517"><ele>304.0</ele><time>2026-04-17T17:17:06.07Z</time></trkpt><trkpt lat="43.9961083" lon="8.14979"><ele>304.5</ele><time>2026-04-17T17:17:07.071Z</time></trkpt><trkpt lat="43.9960467" lon="8.14982"><ele>305.0</ele><time>2026-04-17T17:17:08.07Z</time></trkpt><trkpt lat="43.9959783" lon="8.1498583"><ele>305.5</ele><time>2026-04-17T17:17:09.071Z</time></trkpt><trkpt lat="43.995915" lon="8.1498967"><ele>306.0</ele><time>2026-04-17T17:17:10.07Z</time></trkpt><trkpt lat="43.995855" lon="8.1499683"><ele>309.8333333333333</ele><time>2026-04-17T17:17:11.07Z</time></trkpt><trkpt lat="43.9958083" lon="8.1500733"><ele>313.6666666666667</ele><time>2026-04-17T17:17:12.071Z</time></trkpt><trkpt lat="43.99576" lon="8.1501433"><ele>317.5</ele><time>2026-04-17T17:17:13.07Z</time></trkpt><trkpt lat="43.9956933" lon="8.1502217"><ele>321.33333333333337</ele><time>2026-04-17T17:17:14.071Z</time></trkpt><trkpt lat="43.99561" lon="8.1502717"><ele>325.1666666666667</ele><time>2026-04-17T17:17:15.071Z</time></trkpt><trkpt lat="43.995535" lon="8.1502867"><ele>329.0</ele><time>2026-04-17T17:17:16.07Z</time></trkpt><trkpt lat="43.9954067" lon="8.1502217"><ele>329.0</ele><time>2026-04-17T17:17:18.071Z</time></trkpt><trkpt lat="43.99535" lon="8.1501667"><ele>329.0</ele><time>2026-04-17T17:17:19.07Z</time></trkpt><trkpt lat="43.9952483" lon="8.1501017"><ele>329.0</ele><time>2026-04-17T17:17:21.07Z</time></trkpt><trkpt lat="43.9951533" lon="8.1501533"><ele>329.0</ele><time>2026-04-17T17:17:23.07Z</time></trkpt><trkpt lat="43.9950583" lon="8.15023"><ele>329.0</ele><time>2026-04-17T17:17:25.07Z</time></trkpt><trkpt lat="43.9949783" lon="8.1503"><ele>328.4</ele><time>2026-04-17T17:17:27.07Z</time></trkpt><trkpt lat="43.994885" lon="8.1504233"><ele>327.79999999999995</ele><time>2026-04-17T17:17:29.07Z</time></trkpt><trkpt lat="43.9948167" lon="8.1505167"><ele>327.20000000000005</ele><time>2026-04-17T17:17:30.071Z</time></trkpt><trkpt lat="43.994745" lon="8.15061"><ele>326.6</ele><time>2026-04-17T17:17:31.071Z</time></trkpt><trkpt lat="43.9946583" lon="8.1506867"><ele>326.0</ele><time>2026-04-17T17:17:32.071Z</time></trkpt><trkpt lat="43.9945817" lon="8.15075"><ele>328.5</ele><time>2026-04-17T17:17:33.071Z</time></trkpt><trkpt lat="43.9945133" lon="8.150805"><ele>331.0</ele><time>2026-04-17T17:17:34.07Z</time></trkpt><trkpt lat="43.9944567" lon="8.1508617"><ele>333.5</ele><time>2026-04-17T17:17:35.07Z</time></trkpt><trkpt lat="43.9943617" lon="8.15095"><ele>336.0</ele><time>2026-04-17T17:17:37.071Z</time></trkpt><trkpt lat="43.99433" lon="8.1510633"><ele>338.5</ele><time>2026-04-17T17:17:39.071Z</time></trkpt><trkpt lat="43.994255" lon="8.1511417"><ele>341.0</ele><time>2026-04-17T17:17:41.071Z</time></trkpt><trkpt lat="43.99419" lon="8.15119"><ele>339.0</ele><time>2026-04-17T17:17:42.07Z</time></trkpt><trkpt lat="43.99412" lon="8.1512333"><ele>337.0</ele><time>2026-04-17T17:17:43.071Z</time></trkpt><trkpt lat="43.9940533" lon="8.15125"><ele>335.0</ele><time>2026-04-17T17:17:44.07Z</time></trkpt><trkpt lat="43.993955" lon="8.15126"><ele>333.0</ele><time>2026-04-17T17:17:46.071Z</time></trkpt><trkpt lat="43.9938667" lon="8.15127"><ele>331.0</ele><time>2026-04-17T17:17:48.071Z</time></trkpt><trkpt lat="43.9937967" lon="8.151335"><ele>329.0</ele><time>2026-04-17T17:17:50.071Z</time></trkpt><trkpt lat="43.9937533" lon="8.1514033"><ele>329.0</ele><time>2026-04-17T17:17:51.07Z</time></trkpt><trkpt lat="43.9937033" lon="8.151495"><ele>329.0</ele><time>2026-04-17T17:17:52.07Z</time></trkpt><trkpt lat="43.9936417" lon="8.15157"><ele>329.0</ele><time>2026-04-17T17:17:53.071Z</time></trkpt><trkpt lat="43.9935767" lon="8.1516317"><ele>329.0</ele><time>2026-04-17T17:17:54.071Z</time></trkpt><trkpt lat="43.9935133" lon="8.1516633"><ele>329.0</ele><time>2026-04-17T17:17:55.071Z</time></trkpt><trkpt lat="43.9934467" lon="8.151665"><ele>329.0</ele><time>2026-04-17T17:17:56.07Z</time></trkpt><trkpt lat="43.9933617" lon="8.1516383"><ele>330.1666666666667</ele><time>2026-04-17T17:17:57.07Z</time></trkpt><trkpt lat="43.9932883" lon="8.15163"><ele>331.33333333333337</ele><time>2026-04-17T17:17:58.07Z</time></trkpt><trkpt lat="43.993205" lon="8.1516233"><ele>332.5</ele><time>2026-04-17T17:17:59.071Z</time></trkpt><trkpt lat="43.9931317" lon="8.1516367"><ele>333.6666666666667</ele><time>2026-04-17T17:18:00.07Z</time></trkpt><trkpt lat="43.9930617" lon="8.1516433"><ele>334.8333333333333</ele><time>2026-04-17T17:18:01.071Z</time></trkpt><trkpt lat="43.9929833" lon="8.1516317"><ele>336.0</ele><time>2026-04-17T17:18:02.071Z</time></trkpt><trkpt lat="43.992905" lon="8.1515967"><ele>336.0</ele><time>2026-04-17T17:18:03.071Z</time></trkpt><trkpt lat="43.99282" lon="8.15155"><ele>336.0</ele><time>2026-04-17T17:18:04.07Z</time></trkpt><trkpt lat="43.99276" lon="8.1514833"><ele>336.0</ele><time>2026-04-17T17:18:05.071Z</time></trkpt><trkpt lat="43.9927017" lon="8.1514117"><ele>336.0</ele><time>2026-04-17T17:18:06.07Z</time></trkpt><trkpt lat="43.992665" lon="8.1513267"><ele>336.0</ele><time>2026-04-17T17:18:07.07Z</time></trkpt><trkpt lat="43.9926" lon="8.1511833"><ele>336.0</ele><time>2026-04-17T17:18:09.07Z</time></trkpt><trkpt lat="43.9925283" lon="8.1510917"><ele>331.2</ele><time>2026-04-17T17:18:11.071Z</time></trkpt><trkpt lat="43.992435" lon="8.1510767"><ele>326.40000000000003</ele><time>2026-04-17T17:18:13.07Z</time></trkpt><trkpt lat="43.99232" lon="8.1510767"><ele>321.6</ele><time>2026-04-17T17:18:15.071Z</time></trkpt><trkpt lat="43.99223" lon="8.1510833"><ele>316.8</ele><time>2026-04-17T17:18:17.07Z</time></trkpt><trkpt lat="43.9921383" lon="8.15111"><ele>312.0</ele><time>2026-04-17T17:18:19.07Z</time></trkpt><trkpt lat="43.992075" lon="8.151145"><ele>312.0</ele><time>2026-04-17T17:18:20.071Z</time></trkpt><trkpt lat="43.9920133" lon="8.151215"><ele>312.0</ele><time>2026-04-17T17:18:21.07Z</time></trkpt><trkpt lat="43.99196" lon="8.1512767"><ele>312.0</ele><time>2026-04-17T17:18:22.07Z</time></trkpt><trkpt lat="43.99185" lon="8.1513317"><ele>312.0</ele><time>2026-04-17T17:18:24.07Z</time></trkpt><trkpt lat="43.9917333" lon="8.1513233"><ele>312.0</ele><time>2026-04-17T17:18:26.07Z</time></trkpt><trkpt lat="43.9916733" lon="8.1512883"><ele>312.0</ele><time>2026-04-17T17:18:27.071Z</time></trkpt><trkpt lat="43.9916217" lon="8.151235"><ele>310.8</ele><time>2026-04-17T17:18:28.071Z</time></trkpt><trkpt lat="43.9915483" lon="8.1511567"><ele>309.6</ele><time>2026-04-17T17:18:30.07Z</time></trkpt><trkpt lat="43.9914533" lon="8.1511567"><ele>308.40000000000003</ele><time>2026-04-17T17:18:32.071Z</time></trkpt><trkpt lat="43.991345" lon="8.15117"><ele>307.2</ele><time>2026-04-17T17:18:34.071Z</time></trkpt><trkpt lat="43.9912283" lon="8.151115"><ele>306.0</ele><time>2026-04-17T17:18:36.07Z</time></trkpt><trkpt lat="43.9911217" lon="8.1510817"><ele>306.0</ele><time>2026-04-17T17:18:38.071Z</time></trkpt><trkpt lat="43.991005" lon="8.1510433"><ele>306.0</ele><time>2026-04-17T17:18:40.071Z</time></trkpt><trkpt lat="43.9909417" lon="8.151015"><ele>306.0</ele><time>2026-04-17T17:18:41.071Z</time></trkpt><trkpt lat="43.9908617" lon="8.1509967"><ele>306.0</ele><time>2026-04-17T17:18:42.071Z</time></trkpt><trkpt lat="43.990785" lon="8.150965"><ele>306.0</ele><time>2026-04-17T17:18:43.07Z</time></trkpt><trkpt lat="43.9907167" lon="8.150945"><ele>306.0</ele><time>2026-04-17T17:18:44.071Z</time></trkpt><trkpt lat="43.9906533" lon="8.1509267"><ele>305.1666666666667</ele><time>2026-04-17T17:18:45.07Z</time></trkpt><trkpt lat="43.9905767" lon="8.1508633"><ele>304.3333333333333</ele><time>2026-04-17T17:18:48.07Z</time></trkpt><trkpt lat="43.99055" lon="8.1507783"><ele>303.5</ele><time>2026-04-17T17:18:50.07Z</time></trkpt><trkpt lat="43.9905367" lon="8.150655"><ele>302.66666666666663</ele><time>2026-04-17T17:18:52.07Z</time></trkpt><trkpt lat="43.9905217" lon="8.1505333"><ele>301.8333333333333</ele><time>2026-04-17T17:18:54.071Z</time></trkpt><trkpt lat="43.9905583" lon="8.1504067"><ele>301.0</ele><time>2026-04-17T17:18:56.07Z</time></trkpt><trkpt lat="43.9905283" lon="8.1502983"><ele>297.0</ele><time>2026-04-17T17:18:58.07Z</time></trkpt><trkpt lat="43.9904467" lon="8.1501817"><ele>293.0</ele><time>2026-04-17T17:19:00.071Z</time></trkpt><trkpt lat="43.9904083" lon="8.1501117"><ele>289.0</ele><time>2026-04-17T17:19:01.07Z</time></trkpt><trkpt lat="43.9903167" lon="8.1500233"><ele>285.0</ele><time>2026-04-17T17:19:03.071Z</time></trkpt><trkpt lat="43.9901867" lon="8.1499417"><ele>281.0</ele><time>2026-04-17T17:19:05.07Z</time></trkpt><trkpt lat="43.9900917" lon="8.1498683"><ele>283.40000000000003</ele><time>2026-04-17T17:19:06.071Z</time></trkpt><trkpt lat="43.9899933" lon="8.149785"><ele>285.8</ele><time>2026-04-17T17:19:07.07Z</time></trkpt><trkpt lat="43.9899" lon="8.1497"><ele>288.20000000000005</ele><time>2026-04-17T17:19:08.07Z</time></trkpt><trkpt lat="43.989815" lon="8.1496317"><ele>290.6</ele><time>2026-04-17T17:19:09.071Z</time></trkpt><trkpt lat="43.9897333" lon="8.1495717"><ele>293.0</ele><time>2026-04-17T17:19:10.07Z</time></trkpt><trkpt lat="43.9896767" lon="8.1495233"><ele>293.0</ele><time>2026-04-17T17:19:11.07Z</time></trkpt><trkpt lat="43.9895883" lon="8.1494067"><ele>293.0</ele><time>2026-04-17T17:19:13.071Z</time></trkpt><trkpt lat="43.9895367" lon="8.14933"><ele>293.0</ele><time>2026-04-17T17:19:14.071Z</time></trkpt><trkpt lat="43.9894933" lon="8.149255"><ele>293.0</ele><time>2026-04-17T17:19:15.071Z</time></trkpt><trkpt lat="43.9894733" lon="8.149165"><ele>293.0</ele><time>2026-04-17T17:19:16.07Z</time></trkpt><trkpt lat="43.9894667" lon="8.149075"><ele>293.0</ele><time>2026-04-17T17:19:17.071Z</time></trkpt><trkpt lat="43.9894833" lon="8.1489283"><ele>292.33333333333337</ele><time>2026-04-17T17:19:19.071Z</time></trkpt><trkpt lat="43.9894833" lon="8.1488117"><ele>291.6666666666667</ele><time>2026-04-17T17:19:21.071Z</time></trkpt><trkpt lat="43.9894517" lon="8.1487317"><ele>291.0</ele><time>2026-04-17T17:19:23.071Z</time></trkpt><trkpt lat="43.9893817" lon="8.1486017"><ele>290.3333333333333</ele><time>2026-04-17T17:19:25.071Z</time></trkpt><trkpt lat="43.98933" lon="8.14852"><ele>289.66666666666663</ele><time>2026-04-17T17:19:26.071Z</time></trkpt><trkpt lat="43.9892717" lon="8.1484183"><ele>289.0</ele><time>2026-04-17T17:19:27.07Z</time></trkpt><trkpt lat="43.9892133" lon="8.1483017"><ele>287.2</ele><time>2026-04-17T17:19:28.071Z</time></trkpt><trkpt lat="43.9891483" lon="8.1481733"><ele>285.4</ele><time>2026-04-17T17:19:29.071Z</time></trkpt><trkpt lat="43.9890867" lon="8.1480617"><ele>283.6</ele><time>2026-04-17T17:19:30.071Z</time></trkpt><trkpt lat="43.98902" lon="8.1479933"><ele>281.8</ele><time>2026-04-17T17:19:31.07Z</time></trkpt><trkpt lat="43.98895" lon="8.147945"><ele>280.0</ele><time>2026-04-17T17:19:32.07Z</time></trkpt><trkpt lat="43.988875" lon="8.1479017"><ele>280.0</ele><time>2026-04-17T17:19:33.07Z</time></trkpt><trkpt lat="43.988805" lon="8.1478683"><ele>280.0</ele><time>2026-04-17T17:19:34.071Z</time></trkpt><trkpt lat="43.9887467" lon="8.1478183"><ele>280.0</ele><time>2026-04-17T17:19:35.071Z</time></trkpt><trkpt lat="43.9886867" lon="8.1477533"><ele>280.0</ele><time>2026-04-17T17:19:36.071Z</time></trkpt><trkpt lat="43.9886217" lon="8.1476733"><ele>280.0</ele><time>2026-04-17T17:19:37.07Z</time></trkpt><trkpt lat="43.9885583" lon="8.14756"><ele>280.0</ele><time>2026-04-17T17:19:38.07Z</time></trkpt><trkpt lat="43.9884967" lon="8.1474417"><ele>278.0</ele><time>2026-04-17T17:19:39.07Z</time></trkpt><trkpt lat="43.98842" lon="8.1473383"><ele>276.0</ele><time>2026-04-17T17:19:40.071Z</time></trkpt><trkpt lat="43.98834" lon="8.1472733"><ele>274.0</ele><time>2026-04-17T17:19:41.07Z</time></trkpt><trkpt lat="43.98826" lon="8.1472317"><ele>272.0</ele><time>2026-04-17T17:19:42.07Z</time></trkpt><trkpt lat="43.98817" lon="8.1471833"><ele>270.0</ele><time>2026-04-17T17:19:43.07Z</time></trkpt><trkpt lat="43.988075" lon="8.1471267"><ele>270.0</ele><time>2026-04-17T17:19:44.071Z</time></trkpt><trkpt lat="43.987995" lon="8.147065"><ele>270.0</ele><time>2026-04-17T17:19:45.071Z</time></trkpt><trkpt lat="43.987925" lon="8.1469967"><ele>270.0</ele><time>2026-04-17T17:19:46.071Z</time></trkpt><trkpt lat="43.9878467" lon="8.1469333"><ele>270.0</ele><time>2026-04-17T17:19:47.071Z</time></trkpt><trkpt lat="43.9877717" lon="8.1468883"><ele>270.0</ele><time>2026-04-17T17:19:48.07Z</time></trkpt><trkpt lat="43.98769" lon="8.1468567"><ele>270.0</ele><time>2026-04-17T17:19:49.07Z</time></trkpt><trkpt lat="43.9876067" lon="8.1468433"><ele>270.0</ele><time>2026-04-17T17:19:50.071Z</time></trkpt><trkpt lat="43.9875233" lon="8.14683"><ele>270.0</ele><time>2026-04-17T17:19:51.07Z</time></trkpt><trkpt lat="43.9874367" lon="8.146825"><ele>270.0</ele><time>2026-04-17T17:19:52.07Z</time></trkpt><trkpt lat="43.98736" lon="8.1468317"><ele>270.0</ele><time>2026-04-17T17:19:53.07Z</time></trkpt><trkpt lat="43.9872833" lon="8.1468033"><ele>270.0</ele><time>2026-04-17T17:20:48.07Z</time></trkpt><trkpt lat="43.9871767" lon="8.1467033"><ele>270.6666666666667</ele><time>2026-04-17T17:20:50.071Z</time></trkpt><trkpt lat="43.9871133" lon="8.1466383"><ele>271.3333333333333</ele><time>2026-04-17T17:20:51.071Z</time></trkpt><trkpt lat="43.98704" lon="8.1465867"><ele>272.0</ele><time>2026-04-17T17:20:52.07Z</time></trkpt><trkpt lat="43.98697" lon="8.1465317"><ele>272.66666666666663</ele><time>2026-04-17T17:20:53.07Z</time></trkpt><trkpt lat="43.9869067" lon="8.14646"><ele>273.3333333333333</ele><time>2026-04-17T17:20:54.07Z</time></trkpt><trkpt lat="43.9868517" lon="8.146385"><ele>274.0</ele><time>2026-04-17T17:20:55.071Z</time></trkpt><trkpt lat="43.9867983" lon="8.14632"><ele>272.4</ele><time>2026-04-17T17:20:56.07Z</time></trkpt><trkpt lat="43.986725" lon="8.1462"><ele>270.79999999999995</ele><time>2026-04-17T17:20:58.071Z</time></trkpt><trkpt lat="43.9866567" lon="8.1460783"><ele>269.20000000000005</ele><time>2026-04-17T17:21:00.07Z</time></trkpt><trkpt lat="43.9866083" lon="8.1460167"><ele>267.6</ele><time>2026-04-17T17:21:01.07Z</time></trkpt><trkpt lat="43.986525" lon="8.1458883"><ele>266.0</ele><time>2026-04-17T17:21:03.07Z</time></trkpt><trkpt lat="43.9864617" lon="8.1458333"><ele>266.0</ele><time>2026-04-17T17:21:05.07Z</time></trkpt><trkpt lat="43.9863567" lon="8.1458633"><ele>266.0</ele><time>2026-04-17T17:21:24.071Z</time></trkpt><trkpt lat="43.9862667" lon="8.1458683"><ele>266.0</ele><time>2026-04-17T17:21:26.071Z</time></trkpt><trkpt lat="43.98616" lon="8.1458633"><ele>266.0</ele><time>2026-04-17T17:21:28.07Z</time></trkpt><trkpt lat="43.9860417" lon="8.1458983"><ele>266.0</ele><time>2026-04-17T17:21:30.07Z</time></trkpt><trkpt lat="43.9859283" lon="8.1459383"><ele>264.6666666666667</ele><time>2026-04-17T17:21:32.071Z</time></trkpt><trkpt lat="43.9858083" lon="8.145955"><ele>263.33333333333337</ele><time>2026-04-17T17:21:34.07Z</time></trkpt><trkpt lat="43.9857383" lon="8.14596"><ele>262.0</ele><time>2026-04-17T17:21:35.07Z</time></trkpt><trkpt lat="43.985665" lon="8.1459867"><ele>260.6666666666667</ele><time>2026-04-17T17:21:36.07Z</time></trkpt><trkpt lat="43.9855983" lon="8.1460117"><ele>259.3333333333333</ele><time>2026-04-17T17:21:37.07Z</time></trkpt><trkpt lat="43.9855333" lon="8.1460283"><ele>258.0</ele><time>2026-04-17T17:21:38.07Z</time></trkpt><trkpt lat="43.98546" lon="8.146035"><ele>258.0</ele><time>2026-04-17T17:21:39.07Z</time></trkpt><trkpt lat="43.98539" lon="8.146035"><ele>258.0</ele><time>2026-04-17T17:21:40.07Z</time></trkpt><trkpt lat="43.9853" lon="8.146045"><ele>258.0</ele><time>2026-04-17T17:21:41.071Z</time></trkpt><trkpt lat="43.985205" lon="8.1460633"><ele>258.0</ele><time>2026-04-17T17:21:42.07Z</time></trkpt><trkpt lat="43.985115" lon="8.1460783"><ele>258.0</ele><time>2026-04-17T17:21:43.071Z</time></trkpt><trkpt lat="43.985045" lon="8.1460917"><ele>258.0</ele><time>2026-04-17T17:21:44.07Z</time></trkpt><trkpt lat="43.9849333" lon="8.1460983"><ele>257.1666666666667</ele><time>2026-04-17T17:21:46.071Z</time></trkpt><trkpt lat="43.9848417" lon="8.1461033"><ele>256.3333333333333</ele><time>2026-04-17T17:21:48.071Z</time></trkpt><trkpt lat="43.9847367" lon="8.1460983"><ele>255.5</ele><time>2026-04-17T17:21:50.07Z</time></trkpt><trkpt lat="43.9846483" lon="8.1460783"><ele>254.66666666666666</ele><time>2026-04-17T17:21:52.07Z</time></trkpt><trkpt lat="43.9845767" lon="8.1460567"><ele>253.83333333333331</ele><time>2026-04-17T17:21:54.071Z</time></trkpt><trkpt lat="43.9845083" lon="8.14607"><ele>253.0</ele><time>2026-04-17T17:21:56.071Z</time></trkpt><trkpt lat="43.9844417" lon="8.1460767"><ele>252.99999999999997</ele><time>2026-04-17T17:21:58.071Z</time></trkpt><trkpt lat="43.98438" lon="8.14611"><ele>253.0</ele><time>2026-04-17T17:22:00.07Z</time></trkpt><trkpt lat="43.9842783" lon="8.1462"><ele>253.0</ele><time>2026-04-17T17:22:02.071Z</time></trkpt><trkpt lat="43.984215" lon="8.146265"><ele>253.0</ele><time>2026-04-17T17:22:03.07Z</time></trkpt><trkpt lat="43.9841483" lon="8.14633"><ele>252.99999999999997</ele><time>2026-04-17T17:22:04.071Z</time></trkpt><trkpt lat="43.9840883" lon="8.1464067"><ele>253.0</ele><time>2026-04-17T17:22:05.071Z</time></trkpt><trkpt lat="43.9840267" lon="8.1464867"><ele>253.16666666666666</ele><time>2026-04-17T17:22:06.071Z</time></trkpt><trkpt lat="43.9839583" lon="8.1465467"><ele>253.33333333333331</ele><time>2026-04-17T17:22:07.071Z</time></trkpt><trkpt lat="43.9838917" lon="8.14661"><ele>253.5</ele><time>2026-04-17T17:22:08.071Z</time></trkpt><trkpt lat="43.9838233" lon="8.1466783"><ele>253.66666666666669</ele><time>2026-04-17T17:22:09.071Z</time></trkpt><trkpt lat="43.9837583" lon="8.1467733"><ele>253.83333333333334</ele><time>2026-04-17T17:22:10.07Z</time></trkpt><trkpt lat="43.98369" lon="8.1468683"><ele>254.0</ele><time>2026-04-17T17:22:11.07Z</time></trkpt><trkpt lat="43.9836183" lon="8.1469417"><ele>254.00000000000003</ele><time>2026-04-17T17:22:12.071Z</time></trkpt><trkpt lat="43.9835467" lon="8.1469817"><ele>254.0</ele><time>2026-04-17T17:22:13.07Z</time></trkpt><trkpt lat="43.98346" lon="8.1470067"><ele>254.0</ele><time>2026-04-17T17:22:14.07Z</time></trkpt><trkpt lat="43.98337" lon="8.14702"><ele>254.0</ele><time>2026-04-17T17:22:15.071Z</time></trkpt><trkpt lat="43.9832867" lon="8.1470283"><ele>254.00000000000003</ele><time>2026-04-17T17:22:16.071Z</time></trkpt><trkpt lat="43.983205" lon="8.147045"><ele>254.0</ele><time>2026-04-17T17:22:17.07Z</time></trkpt><trkpt lat="43.9831317" lon="8.1470667"><ele>252.2</ele><time>2026-04-17T17:22:18.07Z</time></trkpt><trkpt lat="43.983065" lon="8.1470867"><ele>250.39999999999998</ele><time>2026-04-17T17:22:19.071Z</time></trkpt><trkpt lat="43.9829417" lon="8.1471"><ele>248.6</ele><time>2026-04-17T17:22:21.071Z</time></trkpt><trkpt lat="43.9828367" lon="8.1471"><ele>246.8</ele><time>2026-04-17T17:22:23.07Z</time></trkpt><trkpt lat="43.982745" lon="8.1470417"><ele>245.0</ele><time>2026-04-17T17:22:25.071Z</time></trkpt><trkpt lat="43.9826167" lon="8.147015"><ele>245.0</ele><time>2026-04-17T17:22:27.07Z</time></trkpt><trkpt lat="43.9825333" lon="8.1470117"><ele>245.0</ele><time>2026-04-17T17:22:28.071Z</time></trkpt><trkpt lat="43.98245" lon="8.1470067"><ele>245.0</ele><time>2026-04-17T17:22:29.071Z</time></trkpt><trkpt lat="43.98237" lon="8.1470133"><ele>245.0</ele><time>2026-04-17T17:22:30.07Z</time></trkpt><trkpt lat="43.9822767" lon="8.1470467"><ele>245.0</ele><time>2026-04-17T17:22:31.07Z</time></trkpt><trkpt lat="43.9821683" lon="8.1470883"><ele>243.83333333333334</ele><time>2026-04-17T17:22:32.071Z</time></trkpt><trkpt lat="43.98207" lon="8.1471283"><ele>242.66666666666669</ele><time>2026-04-17T17:22:33.07Z</time></trkpt><trkpt lat="43.98198" lon="8.1471617"><ele>241.5</ele><time>2026-04-17T17:22:34.071Z</time></trkpt><trkpt lat="43.9818967" lon="8.1471967"><ele>240.33333333333331</ele><time>2026-04-17T17:22:35.071Z</time></trkpt><trkpt lat="43.9818317" lon="8.14722"><ele>239.16666666666666</ele><time>2026-04-17T17:22:36.071Z</time></trkpt><trkpt lat="43.9817683" lon="8.1472417"><ele>238.0</ele><time>2026-04-17T17:22:38.071Z</time></trkpt><trkpt lat="43.9816983" lon="8.1472783"><ele>236.99999999999997</ele><time>2026-04-17T17:23:03.07Z</time></trkpt><trkpt lat="43.9816333" lon="8.147305"><ele>236.0</ele><time>2026-04-17T17:23:05.069Z</time></trkpt><trkpt lat="43.98155" lon="8.14733"><ele>235.0</ele><time>2026-04-17T17:23:08.069Z</time></trkpt><trkpt lat="43.9814683" lon="8.147355"><ele>234.0</ele><time>2026-04-17T17:23:11.07Z</time></trkpt><trkpt lat="43.9813733" lon="8.1473583"><ele>232.99999999999997</ele><time>2026-04-17T17:23:14.07Z</time></trkpt><trkpt lat="43.981295" lon="8.1473217"><ele>232.0</ele><time>2026-04-17T17:23:16.069Z</time></trkpt><trkpt lat="43.9812567" lon="8.1472283"><ele>232.0</ele><time>2026-04-17T17:23:19.07Z</time></trkpt><trkpt lat="43.9812817" lon="8.1471117"><ele>232.0</ele><time>2026-04-17T17:23:22.069Z</time></trkpt><trkpt lat="43.9812533" lon="8.1470333"><ele>232.0</ele><time>2026-04-17T17:23:26.07Z</time></trkpt><trkpt lat="43.9813317" lon="8.1469733"><ele>232.0</ele><time>2026-04-17T17:23:39.07Z</time></trkpt><trkpt lat="43.9814167" lon="8.1469367"><ele>232.0</ele><time>2026-04-17T17:23:41.07Z</time></trkpt><trkpt lat="43.9815333" lon="8.1468667"><ele>232.00000000000003</ele><time>2026-04-17T17:23:43.069Z</time></trkpt><trkpt lat="43.981595" lon="8.1468167"><ele>232.0</ele><time>2026-04-17T17:23:44.07Z</time></trkpt><trkpt lat="43.981645" lon="8.1467633"><ele>232.00000000000003</ele><time>2026-04-17T17:23:45.069Z</time></trkpt><trkpt lat="43.9817" lon="8.146695"><ele>232.00000000000003</ele><time>2026-04-17T17:23:46.07Z</time></trkpt><trkpt lat="43.981755" lon="8.1466333"><ele>232.0</ele><time>2026-04-17T17:23:47.069Z</time></trkpt><trkpt lat="43.9818167" lon="8.1465767"><ele>232.00000000000003</ele><time>2026-04-17T17:23:48.07Z</time></trkpt><trkpt lat="43.9818817" lon="8.146515"><ele>232.00000000000003</ele><time>2026-04-17T17:23:49.07Z</time></trkpt><trkpt lat="43.9819417" lon="8.146445"><ele>228.39999999999998</ele><time>2026-04-17T17:23:50.069Z</time></trkpt><trkpt lat="43.981995" lon="8.1463767"><ele>224.79999999999998</ele><time>2026-04-17T17:23:51.07Z</time></trkpt><trkpt lat="43.9820583" lon="8.14624"><ele>221.2</ele><time>2026-04-17T17:23:53.07Z</time></trkpt><trkpt lat="43.982105" lon="8.146115"><ele>217.6</ele><time>2026-04-17T17:23:55.069Z</time></trkpt><trkpt lat="43.98218" lon="8.1461017"><ele>214.0</ele><time>2026-04-17T17:23:57.07Z</time></trkpt><trkpt lat="43.9823117" lon="8.1461017"><ele>214.0</ele><time>2026-04-17T17:23:59.069Z</time></trkpt><trkpt lat="43.9823967" lon="8.1461117"><ele>213.99999999999997</ele><time>2026-04-17T17:24:00.069Z</time></trkpt><trkpt lat="43.98249" lon="8.1461083"><ele>213.99999999999997</ele><time>2026-04-17T17:24:02.07Z</time></trkpt><trkpt lat="43.9824183" lon="8.146025"><ele>214.0</ele><time>2026-04-17T17:24:07.069Z</time></trkpt><trkpt lat="43.9823467" lon="8.1459783"><ele>214.0</ele><time>2026-04-17T17:24:10.07Z</time></trkpt><trkpt lat="43.9822683" lon="8.145865"><ele>213.99999999999997</ele><time>2026-04-17T17:24:13.069Z</time></trkpt><trkpt lat="43.9822217" lon="8.1457967"><ele>214.0</ele><time>2026-04-17T17:24:14.069Z</time></trkpt><trkpt lat="43.9821733" lon="8.1457117"><ele>214.0</ele><time>2026-04-17T17:24:15.07Z</time></trkpt><trkpt lat="43.9821283" lon="8.145615"><ele>214.0</ele><time>2026-04-17T17:24:16.07Z</time></trkpt><trkpt lat="43.9820783" lon="8.145515"><ele>213.99999999999997</ele><time>2026-04-17T17:24:17.07Z</time></trkpt><trkpt lat="43.9820283" lon="8.1454133"><ele>214.0</ele><time>2026-04-17T17:24:18.069Z</time></trkpt><trkpt lat="43.98198" lon="8.1453233"><ele>209.99999999999997</ele><time>2026-04-17T17:24:19.069Z</time></trkpt><trkpt lat="43.9819333" lon="8.1452417"><ele>206.0</ele><time>2026-04-17T17:24:20.07Z</time></trkpt><trkpt lat="43.9818883" lon="8.1451667"><ele>202.0</ele><time>2026-04-17T17:24:21.07Z</time></trkpt><trkpt lat="43.9818267" lon="8.145135"><ele>198.0</ele><time>2026-04-17T17:24:25.069Z</time></trkpt><trkpt lat="43.9817583" lon="8.1451167"><ele>194.0</ele><time>2026-04-17T17:24:43.07Z</time></trkpt><trkpt lat="43.981755" lon="8.1450033"><ele>190.0</ele><time>2026-04-17T17:24:45.069Z</time></trkpt><trkpt lat="43.9817467" lon="8.144865"><ele>189.0</ele><time>2026-04-17T17:24:47.07Z</time></trkpt><trkpt lat="43.9817167" lon="8.144725"><ele>188.0</ele><time>2026-04-17T17:24:49.069Z</time></trkpt><trkpt lat="43.981695" lon="8.144625"><ele>187.0</ele><time>2026-04-17T17:24:51.07Z</time></trkpt><trkpt lat="43.9816783" lon="8.1445383"><ele>186.0</ele><time>2026-04-17T17:24:53.07Z</time></trkpt><trkpt lat="43.9816383" lon="8.14443"><ele>185.0</ele><time>2026-04-17T17:24:56.069Z</time></trkpt><trkpt lat="43.9815833" lon="8.1443583"><ele>184.0</ele><time>2026-04-17T17:24:58.069Z</time></trkpt><trkpt lat="43.98154" lon="8.14428"><ele>184.0</ele><time>2026-04-17T17:25:00.07Z</time></trkpt><trkpt lat="43.9815" lon="8.1442033"><ele>184.0</ele><time>2026-04-17T17:25:02.07Z</time></trkpt><trkpt lat="43.9814517" lon="8.1441417"><ele>184.0</ele><time>2026-04-17T17:25:04.07Z</time></trkpt><trkpt lat="43.9813783" lon="8.14409"><ele>184.0</ele><time>2026-04-17T17:25:07.07Z</time></trkpt><trkpt lat="43.9813183" lon="8.1440033"><ele>184.0</ele><time>2026-04-17T17:25:10.07Z</time></trkpt><trkpt lat="43.9812583" lon="8.1439367"><ele>184.0</ele><time>2026-04-17T17:25:13.07Z</time></trkpt><trkpt lat="43.9812133" lon="8.14384"><ele>180.5</ele><time>2026-04-17T17:25:16.07Z</time></trkpt><trkpt lat="43.9811383" lon="8.1437683"><ele>177.0</ele><time>2026-04-17T17:25:19.069Z</time></trkpt><trkpt lat="43.9810833" lon="8.1436917"><ele>173.5</ele><time>2026-04-17T17:25:21.07Z</time></trkpt><trkpt lat="43.9810283" lon="8.143625"><ele>170.0</ele><time>2026-04-17T17:25:23.069Z</time></trkpt><trkpt lat="43.98095" lon="8.1435683"><ele>166.5</ele><time>2026-04-17T17:25:25.07Z</time></trkpt><trkpt lat="43.98087" lon="8.1435533"><ele>163.0</ele><time>2026-04-17T17:25:27.07Z</time></trkpt><trkpt lat="43.98081" lon="8.1434867"><ele>162.57142857142858</ele><time>2026-04-17T17:25:31.069Z</time></trkpt><trkpt lat="43.98076" lon="8.1434217"><ele>162.14285714285714</ele><time>2026-04-17T17:25:33.07Z</time></trkpt><trkpt lat="43.9806967" lon="8.1433633"><ele>161.71428571428572</ele><time>2026-04-17T17:25:35.07Z</time></trkpt><trkpt lat="43.98064" lon="8.143315"><ele>161.28571428571428</ele><time>2026-04-17T17:25:37.07Z</time></trkpt><trkpt lat="43.9805683" lon="8.1432567"><ele>160.85714285714286</ele><time>2026-04-17T17:25:40.069Z</time></trkpt><trkpt lat="43.9805267" lon="8.1431733"><ele>160.42857142857142</ele><time>2026-04-17T17:25:43.069Z</time></trkpt><trkpt lat="43.9804733" lon="8.1431017"><ele>160.0</ele><time>2026-04-17T17:25:48.07Z</time></trkpt><trkpt lat="43.9804067" lon="8.1430983"><ele>156.6</ele><time>2026-04-17T17:25:50.069Z</time></trkpt><trkpt lat="43.9803467" lon="8.143145"><ele>153.2</ele><time>2026-04-17T17:25:53.07Z</time></trkpt><trkpt lat="43.9802933" lon="8.143065"><ele>149.8</ele><time>2026-04-17T17:25:55.07Z</time></trkpt><trkpt lat="43.9802233" lon="8.1429483"><ele>146.4</ele><time>2026-04-17T17:25:57.069Z</time></trkpt><trkpt lat="43.9801117" lon="8.142875"><ele>143.0</ele><time>2026-04-17T17:25:59.069Z</time></trkpt><trkpt lat="43.9800517" lon="8.142825"><ele>143.66666666666666</ele><time>2026-04-17T17:26:00.07Z</time></trkpt><trkpt lat="43.9799867" lon="8.1427767"><ele>144.33333333333331</ele><time>2026-04-17T17:26:01.07Z</time></trkpt><trkpt lat="43.9799267" lon="8.14274"><ele>145.0</ele><time>2026-04-17T17:26:02.069Z</time></trkpt><trkpt lat="43.9798483" lon="8.1426517"><ele>145.66666666666666</ele><time>2026-04-17T17:26:04.07Z</time></trkpt><trkpt lat="43.9797583" lon="8.142545"><ele>146.33333333333334</ele><time>2026-04-17T17:26:06.07Z</time></trkpt><trkpt lat="43.97971" lon="8.1424717"><ele>147.0</ele><time>2026-04-17T17:26:07.069Z</time></trkpt><trkpt lat="43.979655" lon="8.1423983"><ele>147.33333333333334</ele><time>2026-04-17T17:26:08.07Z</time></trkpt><trkpt lat="43.9796" lon="8.1423233"><ele>147.66666666666666</ele><time>2026-04-17T17:26:09.07Z</time></trkpt><trkpt lat="43.979545" lon="8.1422617"><ele>148.0</ele><time>2026-04-17T17:26:10.07Z</time></trkpt><trkpt lat="43.9794783" lon="8.1422017"><ele>148.33333333333331</ele><time>2026-04-17T17:26:11.069Z</time></trkpt><trkpt lat="43.97941" lon="8.1421583"><ele>148.66666666666666</ele><time>2026-04-17T17:26:12.069Z</time></trkpt><trkpt lat="43.979335" lon="8.1421167"><ele>149.0</ele><time>2026-04-17T17:26:13.069Z</time></trkpt><trkpt lat="43.9792633" lon="8.1420733"><ele>149.0</ele><time>2026-04-17T17:26:14.07Z</time></trkpt><trkpt lat="43.9791967" lon="8.1420167"><ele>149.0</ele><time>2026-04-17T17:26:15.069Z</time></trkpt><trkpt lat="43.9791417" lon="8.14194"><ele>149.0</ele><time>2026-04-17T17:26:16.07Z</time></trkpt><trkpt lat="43.9791" lon="8.14183"><ele>149.0</ele><time>2026-04-17T17:26:17.07Z</time></trkpt><trkpt lat="43.9790633" lon="8.141705"><ele>149.0</ele><time>2026-04-17T17:26:18.07Z</time></trkpt><trkpt lat="43.979025" lon="8.1415833"><ele>149.0</ele><time>2026-04-17T17:26:19.07Z</time></trkpt><trkpt lat="43.9790017" lon="8.1414767"><ele>143.6</ele><time>2026-04-17T17:26:20.07Z</time></trkpt><trkpt lat="43.9789833" lon="8.1413867"><ele>138.2</ele><time>2026-04-17T17:26:21.07Z</time></trkpt><trkpt lat="43.9789283" lon="8.14128"><ele>132.79999999999998</ele><time>2026-04-17T17:26:23.07Z</time></trkpt><trkpt lat="43.9788283" lon="8.1411533"><ele>127.39999999999999</ele><time>2026-04-17T17:26:25.069Z</time></trkpt><trkpt lat="43.9787767" lon="8.14107"><ele>122.0</ele><time>2026-04-17T17:26:26.07Z</time></trkpt><trkpt lat="43.9787233" lon="8.140975"><ele>122.0</ele><time>2026-04-17T17:26:27.069Z</time></trkpt><trkpt lat="43.9786833" lon="8.1408767"><ele>121.99999999999999</ele><time>2026-04-17T17:26:28.07Z</time></trkpt><trkpt lat="43.9786033" lon="8.140765"><ele>121.99999999999999</ele><time>2026-04-17T17:26:30.07Z</time></trkpt><trkpt lat="43.9784733" lon="8.1407"><ele>122.0</ele><time>2026-04-17T17:26:32.069Z</time></trkpt><trkpt lat="43.9784033" lon="8.1406767"><ele>122.0</ele><time>2026-04-17T17:26:33.069Z</time></trkpt><trkpt lat="43.978335" lon="8.1406567"><ele>121.99999999999999</ele><time>2026-04-17T17:26:34.069Z</time></trkpt><trkpt lat="43.9782433" lon="8.14061"><ele>122.0</ele><time>2026-04-17T17:26:36.069Z</time></trkpt><trkpt lat="43.9782333" lon="8.1407033"><ele>122.0</ele><time>2026-04-17T17:26:40.069Z</time></trkpt><trkpt lat="43.978265" lon="8.1407867"><ele>122.0</ele><time>2026-04-17T17:26:41.069Z</time></trkpt><trkpt lat="43.9783083" lon="8.1408967"><ele>121.99999999999999</ele><time>2026-04-17T17:26:42.069Z</time></trkpt><trkpt lat="43.97836" lon="8.141025"><ele>122.0</ele><time>2026-04-17T17:26:43.07Z</time></trkpt><trkpt lat="43.97841" lon="8.1411683"><ele>122.0</ele><time>2026-04-17T17:26:44.07Z</time></trkpt><trkpt lat="43.978455" lon="8.1412917"><ele>121.99999999999999</ele><time>2026-04-17T17:26:45.07Z</time></trkpt><trkpt lat="43.9784983" lon="8.1414117"><ele>121.99999999999999</ele><time>2026-04-17T17:26:46.069Z</time></trkpt><trkpt lat="43.9785517" lon="8.1415283"><ele>122.0</ele><time>2026-04-17T17:26:47.07Z</time></trkpt><trkpt lat="43.9786" lon="8.1416583"><ele>122.0</ele><time>2026-04-17T17:26:48.07Z</time></trkpt><trkpt lat="43.9786433" lon="8.1417933"><ele>122.0</ele><time>2026-04-17T17:26:49.069Z</time></trkpt><trkpt lat="43.9786783" lon="8.1419333"><ele>121.99999999999999</ele><time>2026-04-17T17:26:50.07Z</time></trkpt><trkpt lat="43.978705" lon="8.1420633"><ele>121.99999999999999</ele><time>2026-04-17T17:26:51.07Z</time></trkpt><trkpt lat="43.9787417" lon="8.1422"><ele>122.0</ele><time>2026-04-17T17:26:52.069Z</time></trkpt><trkpt lat="43.9787833" lon="8.14231"><ele>122.0</ele><time>2026-04-17T17:26:53.07Z</time></trkpt><trkpt lat="43.9788233" lon="8.1424217"><ele>121.99999999999999</ele><time>2026-04-17T17:26:54.069Z</time></trkpt><trkpt lat="43.97886" lon="8.14254"><ele>122.0</ele><time>2026-04-17T17:26:55.069Z</time></trkpt><trkpt lat="43.9789017" lon="8.1426367"><ele>122.0</ele><time>2026-04-17T17:26:56.07Z</time></trkpt><trkpt lat="43.9789517" lon="8.1427267"><ele>122.0</ele><time>2026-04-17T17:26:57.069Z</time></trkpt><trkpt lat="43.9790017" lon="8.142805"><ele>121.99999999999999</ele><time>2026-04-17T17:26:58.07Z</time></trkpt><trkpt lat="43.9790733" lon="8.1429117"><ele>122.0</ele><time>2026-04-17T17:27:00.07Z</time></trkpt><trkpt lat="43.97906" lon="8.1430133"><ele>122.0</ele><time>2026-04-17T17:27:03.07Z</time></trkpt><trkpt lat="43.97894" lon="8.14303"><ele>121.99999999999999</ele><time>2026-04-17T17:27:05.069Z</time></trkpt><trkpt lat="43.97885" lon="8.1430067"><ele>121.99999999999999</ele><time>2026-04-17T17:27:06.069Z</time></trkpt><trkpt lat="43.9787533" lon="8.1429717"><ele>122.0</ele><time>2026-04-17T17:27:07.069Z</time></trkpt><trkpt lat="43.97866" lon="8.1429283"><ele>122.0</ele><time>2026-04-17T17:27:08.07Z</time></trkpt><trkpt lat="43.97856" lon="8.1428733"><ele>122.0</ele><time>2026-04-17T17:27:09.07Z</time></trkpt><trkpt lat="43.97846" lon="8.142815"><ele>121.99999999999999</ele><time>2026-04-17T17:27:10.069Z</time></trkpt><trkpt lat="43.9783567" lon="8.1427417"><ele>121.99999999999999</ele><time>2026-04-17T17:27:11.069Z</time></trkpt><trkpt lat="43.9782633" lon="8.1426883"><ele>122.0</ele><time>2026-04-17T17:27:12.069Z</time></trkpt><trkpt lat="43.9781733" lon="8.1426317"><ele>122.0</ele><time>2026-04-17T17:27:13.069Z</time></trkpt><trkpt lat="43.9780867" lon="8.14258"><ele>119.28571428571426</ele><time>2026-04-17T17:27:14.07Z</time></trkpt><trkpt lat="43.97801" lon="8.1425367"><ele>116.57142857142857</ele><time>2026-04-17T17:27:15.069Z</time></trkpt><trkpt lat="43.9779317" lon="8.14251"><ele>113.85714285714285</ele><time>2026-04-17T17:27:16.069Z</time></trkpt><trkpt lat="43.977855" lon="8.142505"><ele>111.14285714285714</ele><time>2026-04-17T17:27:17.069Z</time></trkpt><trkpt lat="43.9777867" lon="8.1425117"><ele>108.42857142857142</ele><time>2026-04-17T17:27:18.07Z</time></trkpt><trkpt lat="43.9777217" lon="8.1425133"><ele>105.71428571428571</ele><time>2026-04-17T17:27:19.069Z</time></trkpt><trkpt lat="43.9776517" lon="8.1425083"><ele>103.0</ele><time>2026-04-17T17:27:20.07Z</time></trkpt><trkpt lat="43.9775783" lon="8.1425033"><ele>105.33333333333334</ele><time>2026-04-17T17:27:21.07Z</time></trkpt><trkpt lat="43.9774983" lon="8.14249"><ele>107.66666666666667</ele><time>2026-04-17T17:27:22.07Z</time></trkpt><trkpt lat="43.9774183" lon="8.1424767"><ele>110.0</ele><time>2026-04-17T17:27:23.069Z</time></trkpt><trkpt lat="43.97733" lon="8.14246"><ele>112.33333333333334</ele><time>2026-04-17T17:27:24.07Z</time></trkpt><trkpt lat="43.97724" lon="8.1424183"><ele>114.66666666666667</ele><time>2026-04-17T17:27:25.07Z</time></trkpt><trkpt lat="43.9771517" lon="8.1423717"><ele>117.0</ele><time>2026-04-17T17:27:26.069Z</time></trkpt><trkpt lat="43.9770683" lon="8.1423417"><ele>117.0</ele><time>2026-04-17T17:27:27.07Z</time></trkpt><trkpt lat="43.976995" lon="8.1423383"><ele>116.99999999999999</ele><time>2026-04-17T17:27:28.069Z</time></trkpt><trkpt lat="43.9768983" lon="8.1423833"><ele>116.99999999999999</ele><time>2026-04-17T17:27:30.069Z</time></trkpt><trkpt lat="43.97688" lon="8.14254"><ele>117.0</ele><time>2026-04-17T17:27:32.07Z</time></trkpt><trkpt lat="43.9768617" lon="8.142645"><ele>117.0</ele><time>2026-04-17T17:27:33.07Z</time></trkpt><trkpt lat="43.9768317" lon="8.14277"><ele>117.0</ele><time>2026-04-17T17:27:34.069Z</time></trkpt><trkpt lat="43.9768017" lon="8.14289"><ele>116.99999999999999</ele><time>2026-04-17T17:27:35.069Z</time></trkpt><trkpt lat="43.9767583" lon="8.1430283"><ele>116.99999999999999</ele><time>2026-04-17T17:27:36.069Z</time></trkpt><trkpt lat="43.9767167" lon="8.1431533"><ele>117.0</ele><time>2026-04-17T17:27:37.07Z</time></trkpt><trkpt lat="43.9766983" lon="8.143295"><ele>117.0</ele><time>2026-04-17T17:27:38.07Z</time></trkpt><trkpt lat="43.976695" lon="8.1434217"><ele>118.39999999999999</ele><time>2026-04-17T17:27:39.07Z</time></trkpt><trkpt lat="43.9766917" lon="8.14355"><ele>119.79999999999998</ele><time>2026-04-17T17:27:40.069Z</time></trkpt><trkpt lat="43.9766817" lon="8.1436733"><ele>121.2</ele><time>2026-04-17T17:27:41.069Z</time></trkpt><trkpt lat="43.9766733" lon="8.1438017"><ele>122.6</ele><time>2026-04-17T17:27:42.07Z</time></trkpt><trkpt lat="43.9766667" lon="8.1439333"><ele>124.0</ele><time>2026-04-17T17:27:43.069Z</time></trkpt><trkpt lat="43.9766783" lon="8.1440783"><ele>129.16666666666669</ele><time>2026-04-17T17:27:44.07Z</time></trkpt><trkpt lat="43.9766917" lon="8.1442"><ele>134.33333333333334</ele><time>2026-04-17T17:27:45.069Z</time></trkpt><trkpt lat="43.9767117" lon="8.144305"><ele>139.5</ele><time>2026-04-17T17:27:46.07Z</time></trkpt><trkpt lat="43.9767433" lon="8.1443883"><ele>144.66666666666666</ele><time>2026-04-17T17:27:47.069Z</time></trkpt><trkpt lat="43.97679" lon="8.1444583"><ele>149.83333333333331</ele><time>2026-04-17T17:27:48.069Z</time></trkpt><trkpt lat="43.9768517" lon="8.14452"><ele>155.0</ele><time>2026-04-17T17:27:49.069Z</time></trkpt><trkpt lat="43.9769333" lon="8.14458"><ele>155.0</ele><time>2026-04-17T17:27:50.069Z</time></trkpt><trkpt lat="43.97703" lon="8.1446467"><ele>155.0</ele><time>2026-04-17T17:27:51.07Z</time></trkpt><trkpt lat="43.9771267" lon="8.1447117"><ele>155.0</ele><time>2026-04-17T17:27:52.07Z</time></trkpt><trkpt lat="43.9772333" lon="8.1447783"><ele>155.0</ele><time>2026-04-17T17:27:53.07Z</time></trkpt><trkpt lat="43.9773367" lon="8.14485"><ele>155.0</ele><time>2026-04-17T17:27:54.07Z</time></trkpt><trkpt lat="43.9774217" lon="8.1449183"><ele>154.33333333333331</ele><time>2026-04-17T17:27:55.069Z</time></trkpt><trkpt lat="43.9775033" lon="8.1449733"><ele>153.66666666666666</ele><time>2026-04-17T17:27:56.07Z</time></trkpt><trkpt lat="43.9775833" lon="8.144995"><ele>153.0</ele><time>2026-04-17T17:27:57.07Z</time></trkpt><trkpt lat="43.97767" lon="8.14501"><ele>152.33333333333334</ele><time>2026-04-17T17:27:58.07Z</time></trkpt><trkpt lat="43.9777533" lon="8.14503"><ele>151.66666666666669</ele><time>2026-04-17T17:27:59.07Z</time></trkpt><trkpt lat="43.97783" lon="8.1450483"><ele>151.0</ele><time>2026-04-17T17:28:00.07Z</time></trkpt><trkpt lat="43.9779367" lon="8.1451067"><ele>151.0</ele><time>2026-04-17T17:28:02.069Z</time></trkpt><trkpt lat="43.9780217" lon="8.1452083"><ele>151.0</ele><time>2026-04-17T17:28:04.069Z</time></trkpt><trkpt lat="43.9780383" lon="8.1453167"><ele>151.0</ele><time>2026-04-17T17:28:06.069Z</time></trkpt><trkpt lat="43.97798" lon="8.1454317"><ele>151.0</ele><time>2026-04-17T17:28:08.069Z</time></trkpt><trkpt lat="43.9779233" lon="8.1454883"><ele>151.0</ele><time>2026-04-17T17:28:09.069Z</time></trkpt><trkpt lat="43.9778633" lon="8.14554"><ele>151.0</ele><time>2026-04-17T17:28:10.07Z</time></trkpt><trkpt lat="43.9778133" lon="8.14563"><ele>151.0</ele><time>2026-04-17T17:28:11.069Z</time></trkpt><trkpt lat="43.977755" lon="8.145695"><ele>151.0</ele><time>2026-04-17T17:28:12.069Z</time></trkpt><trkpt lat="43.9776917" lon="8.1457633"><ele>151.0</ele><time>2026-04-17T17:28:13.069Z</time></trkpt><trkpt lat="43.977625" lon="8.1458483"><ele>151.0</ele><time>2026-04-17T17:28:14.07Z</time></trkpt><trkpt lat="43.9775517" lon="8.145925"><ele>151.0</ele><time>2026-04-17T17:28:15.069Z</time></trkpt><trkpt lat="43.9774817" lon="8.14599"><ele>151.0</ele><time>2026-04-17T17:28:16.069Z</time></trkpt><trkpt lat="43.9774183" lon="8.1460667"><ele>147.0</ele><time>2026-04-17T17:28:17.069Z</time></trkpt><trkpt lat="43.9773717" lon="8.1461483"><ele>143.0</ele><time>2026-04-17T17:28:18.069Z</time></trkpt><trkpt lat="43.9773217" lon="8.1462867"><ele>139.0</ele><time>2026-04-17T17:28:20.069Z</time></trkpt><trkpt lat="43.9771983" lon="8.1463017"><ele>135.0</ele><time>2026-04-17T17:28:22.07Z</time></trkpt><trkpt lat="43.977105" lon="8.1463117"><ele>131.0</ele><time>2026-04-17T17:28:23.07Z</time></trkpt><trkpt lat="43.97701" lon="8.1463167"><ele>131.0</ele><time>2026-04-17T17:28:24.069Z</time></trkpt><trkpt lat="43.976915" lon="8.1463383"><ele>131.0</ele><time>2026-04-17T17:28:25.069Z</time></trkpt><trkpt lat="43.9768233" lon="8.1463567"><ele>131.0</ele><time>2026-04-17T17:28:26.069Z</time></trkpt><trkpt lat="43.97676" lon="8.1463767"><ele>131.0</ele><time>2026-04-17T17:28:27.07Z</time></trkpt><trkpt lat="43.976655" lon="8.14647"><ele>131.0</ele><time>2026-04-17T17:28:29.069Z</time></trkpt><trkpt lat="43.9765967" lon="8.1465483"><ele>131.66666666666666</ele><time>2026-04-17T17:28:30.069Z</time></trkpt><trkpt lat="43.9765533" lon="8.1466417"><ele>132.33333333333331</ele><time>2026-04-17T17:28:31.069Z</time></trkpt><trkpt lat="43.97651" lon="8.1467217"><ele>133.0</ele><time>2026-04-17T17:28:32.069Z</time></trkpt><trkpt lat="43.97647" lon="8.146805"><ele>133.66666666666666</ele><time>2026-04-17T17:28:33.07Z</time></trkpt><trkpt lat="43.9764433" lon="8.1468917"><ele>134.33333333333334</ele><time>2026-04-17T17:28:34.069Z</time></trkpt><trkpt lat="43.9764133" lon="8.1469817"><ele>135.0</ele><time>2026-04-17T17:28:35.069Z</time></trkpt><trkpt lat="43.97636" lon="8.147105"><ele>135.0</ele><time>2026-04-17T17:28:37.07Z</time></trkpt><trkpt lat="43.9762517" lon="8.1471283"><ele>135.0</ele><time>2026-04-17T17:28:39.069Z</time></trkpt><trkpt lat="43.9761717" lon="8.1470917"><ele>135.0</ele><time>2026-04-17T17:28:40.07Z</time></trkpt><trkpt lat="43.9760883" lon="8.14703"><ele>135.0</ele><time>2026-04-17T17:28:41.069Z</time></trkpt><trkpt lat="43.9760183" lon="8.1469433"><ele>135.0</ele><time>2026-04-17T17:28:42.07Z</time></trkpt><trkpt lat="43.975955" lon="8.146835"><ele>135.0</ele><time>2026-04-17T17:28:43.07Z</time></trkpt><trkpt lat="43.975915" lon="8.1467333"><ele>135.0</ele><time>2026-04-17T17:28:44.07Z</time></trkpt><trkpt lat="43.9758783" lon="8.146635"><ele>135.0</ele><time>2026-04-17T17:28:45.069Z</time></trkpt><trkpt lat="43.975835" lon="8.14654"><ele>135.0</ele><time>2026-04-17T17:28:46.069Z</time></trkpt><trkpt lat="43.9757717" lon="8.1464533"><ele>135.0</ele><time>2026-04-17T17:28:47.069Z</time></trkpt><trkpt lat="43.9756967" lon="8.14637"><ele>135.0</ele><time>2026-04-17T17:28:48.07Z</time></trkpt><trkpt lat="43.9756233" lon="8.146295"><ele>132.0</ele><time>2026-04-17T17:28:49.069Z</time></trkpt><trkpt lat="43.9755517" lon="8.1462333"><ele>129.0</ele><time>2026-04-17T17:28:50.07Z</time></trkpt><trkpt lat="43.9754883" lon="8.1462067"><ele>126.0</ele><time>2026-04-17T17:28:51.069Z</time></trkpt><trkpt lat="43.975415" lon="8.1462217"><ele>123.0</ele><time>2026-04-17T17:28:53.069Z</time></trkpt><trkpt lat="43.9753567" lon="8.1462567"><ele>120.0</ele><time>2026-04-17T17:28:57.07Z</time></trkpt><trkpt lat="43.9753017" lon="8.1462"><ele>117.0</ele><time>2026-04-17T17:28:59.069Z</time></trkpt><trkpt lat="43.9752017" lon="8.1460667"><ele>117.0</ele><time>2026-04-17T17:29:01.07Z</time></trkpt><trkpt lat="43.9751317" lon="8.1459733"><ele>117.0</ele><time>2026-04-17T17:29:02.07Z</time></trkpt><trkpt lat="43.9750667" lon="8.14588"><ele>117.0</ele><time>2026-04-17T17:29:03.069Z</time></trkpt><trkpt lat="43.9750167" lon="8.1458033"><ele>117.0</ele><time>2026-04-17T17:29:04.069Z</time></trkpt><trkpt lat="43.9749733" lon="8.1457383"><ele>117.0</ele><time>2026-04-17T17:29:05.069Z</time></trkpt><trkpt lat="43.9749117" lon="8.14568"><ele>117.0</ele><time>2026-04-17T17:30:07.068Z</time></trkpt><trkpt lat="43.9748483" lon="8.1456317"><ele>118.33333333333333</ele><time>2026-04-17T17:30:09.069Z</time></trkpt><trkpt lat="43.9747833" lon="8.1456067"><ele>119.66666666666666</ele><time>2026-04-17T17:30:11.068Z</time></trkpt><trkpt lat="43.97471" lon="8.145655"><ele>121.0</ele><time>2026-04-17T17:30:14.068Z</time></trkpt><trkpt lat="43.9747183" lon="8.1457433"><ele>122.33333333333333</ele><time>2026-04-17T17:30:16.068Z</time></trkpt><trkpt lat="43.9746467" lon="8.145795"><ele>123.66666666666666</ele><time>2026-04-17T17:30:22.069Z</time></trkpt><trkpt lat="43.9745517" lon="8.1457467"><ele>125.0</ele><time>2026-04-17T17:30:24.068Z</time></trkpt><trkpt lat="43.97445" lon="8.1457033"><ele>124.99999999999999</ele><time>2026-04-17T17:30:26.068Z</time></trkpt><trkpt lat="43.9743467" lon="8.1456317"><ele>125.0</ele><time>2026-04-17T17:30:28.069Z</time></trkpt><trkpt lat="43.9742883" lon="8.1455883"><ele>125.0</ele><time>2026-04-17T17:30:29.069Z</time></trkpt><trkpt lat="43.9742017" lon="8.14554"><ele>125.0</ele><time>2026-04-17T17:30:30.069Z</time></trkpt><trkpt lat="43.9741317" lon="8.1455067"><ele>124.99999999999999</ele><time>2026-04-17T17:30:31.068Z</time></trkpt><trkpt lat="43.9740683" lon="8.1454617"><ele>125.0</ele><time>2026-04-17T17:30:32.068Z</time></trkpt><trkpt lat="43.9739967" lon="8.1454217"><ele>124.99999999999999</ele><time>2026-04-17T17:30:34.068Z</time></trkpt><trkpt lat="43.97393" lon="8.1454267"><ele>125.0</ele><time>2026-04-17T17:30:36.069Z</time></trkpt><trkpt lat="43.9738417" lon="8.1454017"><ele>125.0</ele><time>2026-04-17T17:30:38.069Z</time></trkpt><trkpt lat="43.9737467" lon="8.145375"><ele>125.0</ele><time>2026-04-17T17:30:40.069Z</time></trkpt><trkpt lat="43.9736683" lon="8.1453267"><ele>124.99999999999999</ele><time>2026-04-17T17:30:42.069Z</time></trkpt><trkpt lat="43.9735917" lon="8.1452783"><ele>125.0</ele><time>2026-04-17T17:30:44.068Z</time></trkpt><trkpt lat="43.973515" lon="8.1452583"><ele>125.0</ele><time>2026-04-17T17:30:46.069Z</time></trkpt><trkpt lat="43.9734233" lon="8.1453017"><ele>125.0</ele><time>2026-04-17T17:30:48.069Z</time></trkpt><trkpt lat="43.9733283" lon="8.145325"><ele>125.0</ele><time>2026-04-17T17:30:50.068Z</time></trkpt><trkpt lat="43.9732" lon="8.1452917"><ele>125.0</ele><time>2026-04-17T17:30:52.068Z</time></trkpt><trkpt lat="43.9731367" lon="8.1452817"><ele>125.0</ele><time>2026-04-17T17:30:53.068Z</time></trkpt><trkpt lat="43.9730617" lon="8.14529"><ele>121.33333333333333</ele><time>2026-04-17T17:30:54.068Z</time></trkpt><trkpt lat="43.9729867" lon="8.1452917"><ele>117.66666666666666</ele><time>2026-04-17T17:30:55.068Z</time></trkpt><trkpt lat="43.9728983" lon="8.1452817"><ele>114.0</ele><time>2026-04-17T17:30:56.069Z</time></trkpt><trkpt lat="43.9728117" lon="8.1452717"><ele>110.33333333333334</ele><time>2026-04-17T17:30:57.068Z</time></trkpt><trkpt lat="43.97272" lon="8.1452683"><ele>106.66666666666667</ele><time>2026-04-17T17:30:58.069Z</time></trkpt><trkpt lat="43.9726317" lon="8.1452533"><ele>103.0</ele><time>2026-04-17T17:30:59.069Z</time></trkpt><trkpt lat="43.97256" lon="8.1452567"><ele>101.66666666666667</ele><time>2026-04-17T17:31:00.069Z</time></trkpt><trkpt lat="43.9724267" lon="8.1452917"><ele>100.33333333333334</ele><time>2026-04-17T17:31:02.069Z</time></trkpt><trkpt lat="43.9723467" lon="8.1453083"><ele>99.0</ele><time>2026-04-17T17:31:03.068Z</time></trkpt><trkpt lat="43.9722683" lon="8.1453417"><ele>97.66666666666667</ele><time>2026-04-17T17:31:04.068Z</time></trkpt><trkpt lat="43.9722067" lon="8.1453667"><ele>96.33333333333334</ele><time>2026-04-17T17:31:05.069Z</time></trkpt><trkpt lat="43.9721433" lon="8.14539"><ele>95.0</ele><time>2026-04-17T17:31:06.069Z</time></trkpt><trkpt lat="43.9720333" lon="8.1454567"><ele>95.0</ele><time>2026-04-17T17:31:08.068Z</time></trkpt><trkpt lat="43.97193" lon="8.1454717"><ele>95.0</ele><time>2026-04-17T17:31:10.069Z</time></trkpt><trkpt lat="43.9718667" lon="8.1455"><ele>95.0</ele><time>2026-04-17T17:31:12.069Z</time></trkpt><trkpt lat="43.9717967" lon="8.1455667"><ele>95.0</ele><time>2026-04-17T17:31:14.068Z</time></trkpt><trkpt lat="43.9717317" lon="8.1456317"><ele>95.0</ele><time>2026-04-17T17:31:16.069Z</time></trkpt><trkpt lat="43.9716667" lon="8.14568"><ele>95.0</ele><time>2026-04-17T17:31:18.069Z</time></trkpt><trkpt lat="43.9715967" lon="8.1456833"><ele>93.66666666666667</ele><time>2026-04-17T17:31:20.068Z</time></trkpt><trkpt lat="43.9715633" lon="8.1456083"><ele>92.33333333333334</ele><time>2026-04-17T17:31:23.068Z</time></trkpt><trkpt lat="43.9715767" lon="8.1454433"><ele>91.0</ele><time>2026-04-17T17:31:25.069Z</time></trkpt><trkpt lat="43.9715817" lon="8.1453433"><ele>89.66666666666667</ele><time>2026-04-17T17:31:26.068Z</time></trkpt><trkpt lat="43.971585" lon="8.1452033"><ele>88.33333333333333</ele><time>2026-04-17T17:31:28.068Z</time></trkpt><trkpt lat="43.9714983" lon="8.14519"><ele>87.0</ele><time>2026-04-17T17:31:32.068Z</time></trkpt><trkpt lat="43.9713983" lon="8.14526"><ele>87.0</ele><time>2026-04-17T17:31:34.068Z</time></trkpt><trkpt lat="43.9712767" lon="8.14529"><ele>87.0</ele><time>2026-04-17T17:31:36.069Z</time></trkpt><trkpt lat="43.9711833" lon="8.145275"><ele>87.0</ele><time>2026-04-17T17:31:38.068Z</time></trkpt><trkpt lat="43.971125" lon="8.1452217"><ele>87.0</ele><time>2026-04-17T17:31:39.069Z</time></trkpt><trkpt lat="43.9710383" lon="8.1451033"><ele>87.0</ele><time>2026-04-17T17:31:41.069Z</time></trkpt><trkpt lat="43.970955" lon="8.1449983"><ele>87.0</ele><time>2026-04-17T17:31:43.069Z</time></trkpt><trkpt lat="43.9708867" lon="8.144885"><ele>87.0</ele><time>2026-04-17T17:31:45.069Z</time></trkpt><trkpt lat="43.9707983" lon="8.144745"><ele>87.0</ele><time>2026-04-17T17:31:47.069Z</time></trkpt><trkpt lat="43.97075" lon="8.1446733"><ele>87.0</ele><time>2026-04-17T17:31:48.069Z</time></trkpt><trkpt lat="43.9706833" lon="8.1445983"><ele>87.0</ele><time>2026-04-17T17:31:49.068Z</time></trkpt><trkpt lat="43.9706117" lon="8.1445333"><ele>81.83333333333333</ele><time>2026-04-17T17:31:50.068Z</time></trkpt><trkpt lat="43.9705467" lon="8.14447"><ele>76.66666666666667</ele><time>2026-04-17T17:31:51.069Z</time></trkpt><trkpt lat="43.97048" lon="8.1443967"><ele>71.5</ele><time>2026-04-17T17:31:52.069Z</time></trkpt><trkpt lat="43.9704117" lon="8.1443367"><ele>66.33333333333334</ele><time>2026-04-17T17:31:53.069Z</time></trkpt><trkpt lat="43.9703533" lon="8.1442783"><ele>61.16666666666667</ele><time>2026-04-17T17:31:54.069Z</time></trkpt><trkpt lat="43.9702767" lon="8.1441467"><ele>56.0</ele><time>2026-04-17T17:31:56.069Z</time></trkpt><trkpt lat="43.9702583" lon="8.1440617"><ele>53.66666666666667</ele><time>2026-04-17T17:31:57.069Z</time></trkpt><trkpt lat="43.9702483" lon="8.14394"><ele>51.333333333333336</ele><time>2026-04-17T17:31:58.069Z</time></trkpt><trkpt lat="43.9702383" lon="8.1438033"><ele>49.0</ele><time>2026-04-17T17:31:59.068Z</time></trkpt><trkpt lat="43.97024" lon="8.1436917"><ele>46.66666666666667</ele><time>2026-04-17T17:32:00.069Z</time></trkpt><trkpt lat="43.9702283" lon="8.1435983"><ele>44.333333333333336</ele><time>2026-04-17T17:32:01.068Z</time></trkpt><trkpt lat="43.97018" lon="8.1435167"><ele>42.0</ele><time>2026-04-17T17:32:03.069Z</time></trkpt><trkpt lat="43.9701533" lon="8.1434183"><ele>42.0</ele><time>2026-04-17T17:32:05.068Z</time></trkpt><trkpt lat="43.970195" lon="8.1433133"><ele>42.0</ele><time>2026-04-17T17:32:07.068Z</time></trkpt><trkpt lat="43.970285" lon="8.1432817"><ele>42.0</ele><time>2026-04-17T17:32:09.069Z</time></trkpt><trkpt lat="43.9704167" lon="8.1433133"><ele>42.0</ele><time>2026-04-17T17:32:11.068Z</time></trkpt><trkpt lat="43.9704867" lon="8.14332"><ele>42.0</ele><time>2026-04-17T17:32:12.068Z</time></trkpt><trkpt lat="43.970565" lon="8.1433067"><ele>42.0</ele><time>2026-04-17T17:32:13.068Z</time></trkpt><trkpt lat="43.9706267" lon="8.1432883"><ele>42.0</ele><time>2026-04-17T17:32:14.069Z</time></trkpt><trkpt lat="43.9706883" lon="8.14322"><ele>42.0</ele><time>2026-04-17T17:32:16.069Z</time></trkpt><trkpt lat="43.9707017" lon="8.1430783"><ele>42.0</ele><time>2026-04-17T17:32:18.068Z</time></trkpt><trkpt lat="43.9706683" lon="8.1429783"><ele>42.0</ele><time>2026-04-17T17:32:19.069Z</time></trkpt><trkpt lat="43.9706283" lon="8.1428933"><ele>42.0</ele><time>2026-04-17T17:32:20.069Z</time></trkpt><trkpt lat="43.97053" lon="8.14283"><ele>39.25</ele><time>2026-04-17T17:32:22.068Z</time></trkpt><trkpt lat="43.9703917" lon="8.142855"><ele>36.5</ele><time>2026-04-17T17:32:24.068Z</time></trkpt><trkpt lat="43.97032" lon="8.1428783"><ele>33.75</ele><time>2026-04-17T17:32:25.068Z</time></trkpt><trkpt lat="43.9701967" lon="8.142835"><ele>31.0</ele><time>2026-04-17T17:32:26.068Z</time></trkpt><trkpt lat="43.9700617" lon="8.1427567"><ele>30.0</ele><time>2026-04-17T17:32:27.069Z</time></trkpt><trkpt lat="43.9699417" lon="8.1426933"><ele>29.0</ele><time>2026-04-17T17:32:28.068Z</time></trkpt><trkpt lat="43.969855" lon="8.1426517"><ele>28.0</ele><time>2026-04-17T17:32:29.069Z</time></trkpt><trkpt lat="43.96979" lon="8.142615"><ele>27.0</ele><time>2026-04-17T17:32:30.068Z</time></trkpt><trkpt lat="43.9697783" lon="8.1424883"><ele>26.0</ele><time>2026-04-17T17:32:32.069Z</time></trkpt><trkpt lat="43.9698767" lon="8.1423833"><ele>25.200000000000003</ele><time>2026-04-17T17:32:34.069Z</time></trkpt><trkpt lat="43.9699567" lon="8.1423317"><ele>24.400000000000002</ele><time>2026-04-17T17:32:35.069Z</time></trkpt><trkpt lat="43.9700183" lon="8.1422883"><ele>23.6</ele><time>2026-04-17T17:32:36.069Z</time></trkpt><trkpt lat="43.9700983" lon="8.142215"><ele>22.8</ele><time>2026-04-17T17:32:38.068Z</time></trkpt><trkpt lat="43.97012" lon="8.1420833"><ele>22.0</ele><time>2026-04-17T17:32:41.069Z</time></trkpt><trkpt lat="43.9701017" lon="8.1418783"><ele>22.0</ele><time>2026-04-17T17:32:43.069Z</time></trkpt><trkpt lat="43.9700883" lon="8.1417133"><ele>22.0</ele><time>2026-04-17T17:32:44.068Z</time></trkpt><trkpt lat="43.9700683" lon="8.14155"><ele>22.0</ele><time>2026-04-17T17:32:45.069Z</time></trkpt><trkpt lat="43.9700283" lon="8.1414"><ele>22.0</ele><time>2026-04-17T17:32:46.069Z</time></trkpt><trkpt lat="43.9699867" lon="8.141275"><ele>21.0</ele><time>2026-04-17T17:32:47.069Z</time></trkpt><trkpt lat="43.96995" lon="8.14116"><ele>20.0</ele><time>2026-04-17T17:32:48.068Z</time></trkpt><trkpt lat="43.9699117" lon="8.1410467"><ele>19.0</ele><time>2026-04-17T17:32:49.069Z</time></trkpt><trkpt lat="43.9698733" lon="8.1409317"><ele>18.0</ele><time>2026-04-17T17:32:50.068Z</time></trkpt><trkpt lat="43.9698383" lon="8.140825"><ele>17.0</ele><time>2026-04-17T17:32:51.069Z</time></trkpt><trkpt lat="43.9698067" lon="8.1407267"><ele>16.0</ele><time>2026-04-17T17:32:52.068Z</time></trkpt><trkpt lat="43.9697717" lon="8.1406383"><ele>15.666666666666666</ele><time>2026-04-17T17:32:53.069Z</time></trkpt><trkpt lat="43.969755" lon="8.1405517"><ele>15.333333333333332</ele><time>2026-04-17T17:32:54.069Z</time></trkpt><trkpt lat="43.9697467" lon="8.140435"><ele>15.0</ele><time>2026-04-17T17:32:56.069Z</time></trkpt><trkpt lat="43.9697317" lon="8.1403383"><ele>14.666666666666668</ele><time>2026-04-17T17:35:53.068Z</time></trkpt><trkpt lat="43.9697917" lon="8.140285"><ele>14.333333333333334</ele><time>2026-04-17T17:35:55.068Z</time></trkpt><trkpt lat="43.96986" lon="8.14024"><ele>14.0</ele><time>2026-04-17T17:35:56.068Z</time></trkpt><trkpt lat="43.9699567" lon="8.140185"><ele>14.25</ele><time>2026-04-17T17:35:57.068Z</time></trkpt><trkpt lat="43.9700633" lon="8.1401117"><ele>14.5</ele><time>2026-04-17T17:35:58.067Z</time></trkpt><trkpt lat="43.9701833" lon="8.1400433"><ele>14.75</ele><time>2026-04-17T17:35:59.067Z</time></trkpt><trkpt lat="43.9703083" lon="8.1399717"><ele>15.0</ele><time>2026-04-17T17:36:00.067Z</time></trkpt><trkpt lat="43.970425" lon="8.139895"><ele>15.0</ele><time>2026-04-17T17:36:01.067Z</time></trkpt><trkpt lat="43.9705367" lon="8.1398067"><ele>15.0</ele><time>2026-04-17T17:36:02.068Z</time></trkpt><trkpt lat="43.9706433" lon="8.139715"><ele>15.0</ele><time>2026-04-17T17:36:03.067Z</time></trkpt><trkpt lat="43.9707583" lon="8.1396233"><ele>15.0</ele><time>2026-04-17T17:36:04.068Z</time></trkpt><trkpt lat="43.9708717" lon="8.13955"><ele>15.0</ele><time>2026-04-17T17:36:05.067Z</time></trkpt><trkpt lat="43.9709833" lon="8.139465"><ele>15.0</ele><time>2026-04-17T17:36:06.067Z</time></trkpt><trkpt lat="43.971085" lon="8.1393733"><ele>15.0</ele><time>2026-04-17T17:36:07.068Z</time></trkpt><trkpt lat="43.9711983" lon="8.1392817"><ele>15.0</ele><time>2026-04-17T17:36:08.068Z</time></trkpt><trkpt lat="43.9713133" lon="8.1391967"><ele>15.0</ele><time>2026-04-17T17:36:09.068Z</time></trkpt><trkpt lat="43.9714233" lon="8.1391067"><ele>15.0</ele><time>2026-04-17T17:36:10.068Z</time></trkpt><trkpt lat="43.9715383" lon="8.1390183"><ele>15.0</ele><time>2026-04-17T17:36:11.067Z</time></trkpt><trkpt lat="43.9716567" lon="8.13893"><ele>15.0</ele><time>2026-04-17T17:36:12.068Z</time></trkpt><trkpt lat="43.9717767" lon="8.138835"><ele>15.5</ele><time>2026-04-17T17:36:13.068Z</time></trkpt><trkpt lat="43.9719" lon="8.138735"><ele>16.0</ele><time>2026-04-17T17:36:14.067Z</time></trkpt><trkpt lat="43.9720267" lon="8.1386317"><ele>16.5</ele><time>2026-04-17T17:36:15.067Z</time></trkpt><trkpt lat="43.9721483" lon="8.1385333"><ele>17.0</ele><time>2026-04-17T17:36:16.068Z</time></trkpt><trkpt lat="43.97227" lon="8.1384367"><ele>17.0</ele><time>2026-04-17T17:36:17.068Z</time></trkpt><trkpt lat="43.9723917" lon="8.1383383"><ele>17.0</ele><time>2026-04-17T17:36:18.067Z</time></trkpt><trkpt lat="43.9725117" lon="8.138225"><ele>17.0</ele><time>2026-04-17T17:36:19.067Z</time></trkpt><trkpt lat="43.9726417" lon="8.1381183"><ele>17.0</ele><time>2026-04-17T17:36:20.067Z</time></trkpt><trkpt lat="43.972775" lon="8.1380017"><ele>17.5</ele><time>2026-04-17T17:36:21.068Z</time></trkpt><trkpt lat="43.9729017" lon="8.1378933"><ele>18.0</ele><time>2026-04-17T17:36:22.068Z</time></trkpt><trkpt lat="43.9730217" lon="8.1378017"><ele>18.5</ele><time>2026-04-17T17:36:23.068Z</time></trkpt><trkpt lat="43.973135" lon="8.1377117"><ele>19.0</ele><time>2026-04-17T17:36:24.067Z</time></trkpt><trkpt lat="43.973245" lon="8.1376433"><ele>19.25</ele><time>2026-04-17T17:36:25.068Z</time></trkpt><trkpt lat="43.9733567" lon="8.137595"><ele>19.5</ele><time>2026-04-17T17:36:26.068Z</time></trkpt><trkpt lat="43.9734617" lon="8.1375467"><ele>19.75</ele><time>2026-04-17T17:36:27.068Z</time></trkpt><trkpt lat="43.97357" lon="8.137505"><ele>20.0</ele><time>2026-04-17T17:36:28.068Z</time></trkpt><trkpt lat="43.9736817" lon="8.1374467"><ele>20.0</ele><time>2026-04-17T17:36:29.068Z</time></trkpt><trkpt lat="43.9737967" lon="8.1373933"><ele>20.0</ele><time>2026-04-17T17:36:30.067Z</time></trkpt><trkpt lat="43.9739283" lon="8.1373267"><ele>20.0</ele><time>2026-04-17T17:36:31.068Z</time></trkpt><trkpt lat="43.97405" lon="8.13728"><ele>20.0</ele><time>2026-04-17T17:36:32.067Z</time></trkpt><trkpt lat="43.9741567" lon="8.1372217"><ele>20.0</ele><time>2026-04-17T17:36:33.067Z</time></trkpt><trkpt lat="43.97426" lon="8.137175"><ele>20.0</ele><time>2026-04-17T17:36:34.067Z</time></trkpt><trkpt lat="43.9743483" lon="8.1371383"><ele>20.0</ele><time>2026-04-17T17:36:35.068Z</time></trkpt><trkpt lat="43.9744383" lon="8.1371017"><ele>20.0</ele><time>2026-04-17T17:36:36.067Z</time></trkpt><trkpt lat="43.97452" lon="8.1370667"><ele>20.0</ele><time>2026-04-17T17:36:37.068Z</time></trkpt><trkpt lat="43.9745917" lon="8.1370333"><ele>20.0</ele><time>2026-04-17T17:36:38.068Z</time></trkpt><trkpt lat="43.9746567" lon="8.1370083"><ele>20.0</ele><time>2026-04-17T17:36:39.068Z</time></trkpt><trkpt lat="43.9747833" lon="8.1369567"><ele>20.0</ele><time>2026-04-17T17:36:41.067Z</time></trkpt><trkpt lat="43.9748483" lon="8.1369267"><ele>20.0</ele><time>2026-04-17T17:36:42.067Z</time></trkpt><trkpt lat="43.974915" lon="8.136885"><ele>20.0</ele><time>2026-04-17T17:36:43.068Z</time></trkpt><trkpt lat="43.9750033" lon="8.1368233"><ele>20.0</ele><time>2026-04-17T17:36:44.068Z</time></trkpt><trkpt lat="43.9751067" lon="8.1367367"><ele>20.0</ele><time>2026-04-17T17:36:45.068Z</time></trkpt><trkpt lat="43.975215" lon="8.1366483"><ele>20.0</ele><time>2026-04-17T17:36:46.068Z</time></trkpt><trkpt lat="43.9753233" lon="8.1365633"><ele>20.0</ele><time>2026-04-17T17:36:47.067Z</time></trkpt><trkpt lat="43.9754333" lon="8.136475"><ele>20.0</ele><time>2026-04-17T17:36:48.067Z</time></trkpt><trkpt lat="43.97554" lon="8.136395"><ele>20.0</ele><time>2026-04-17T17:36:49.067Z</time></trkpt><trkpt lat="43.9756517" lon="8.136325"><ele>20.0</ele><time>2026-04-17T17:36:50.068Z</time></trkpt><trkpt lat="43.9757617" lon="8.136275"><ele>20.0</ele><time>2026-04-17T17:36:51.067Z</time></trkpt><trkpt lat="43.9758517" lon="8.1362267"><ele>20.0</ele><time>2026-04-17T17:36:52.068Z</time></trkpt><trkpt lat="43.9759333" lon="8.136195"><ele>20.0</ele><time>2026-04-17T17:36:53.068Z</time></trkpt><trkpt lat="43.9760117" lon="8.1361667"><ele>20.333333333333336</ele><time>2026-04-17T17:36:54.068Z</time></trkpt><trkpt lat="43.97608" lon="8.1361517"><ele>20.666666666666668</ele><time>2026-04-17T17:36:55.068Z</time></trkpt><trkpt lat="43.97619" lon="8.1361133"><ele>21.0</ele><time>2026-04-17T17:36:57.068Z</time></trkpt><trkpt lat="43.97625" lon="8.1360833"><ele>21.333333333333332</ele><time>2026-04-17T17:36:59.067Z</time></trkpt><trkpt lat="43.976325" lon="8.136035"><ele>21.666666666666664</ele><time>2026-04-17T17:37:19.067Z</time></trkpt><trkpt lat="43.97639" lon="8.1360067"><ele>22.0</ele><time>2026-04-17T17:37:20.068Z</time></trkpt><trkpt lat="43.9764717" lon="8.1359717"><ele>22.0</ele><time>2026-04-17T17:37:21.067Z</time></trkpt><trkpt lat="43.9765633" lon="8.13594"><ele>22.0</ele><time>2026-04-17T17:37:22.067Z</time></trkpt><trkpt lat="43.9766783" lon="8.1359133"><ele>22.0</ele><time>2026-04-17T17:37:23.068Z</time></trkpt><trkpt lat="43.9768183" lon="8.135895"><ele>22.0</ele><time>2026-04-17T17:37:24.067Z</time></trkpt><trkpt lat="43.9769633" lon="8.1358833"><ele>22.333333333333332</ele><time>2026-04-17T17:37:25.068Z</time></trkpt><trkpt lat="43.9771267" lon="8.1358767"><ele>22.666666666666668</ele><time>2026-04-17T17:37:26.068Z</time></trkpt><trkpt lat="43.9772983" lon="8.13587"><ele>23.0</ele><time>2026-04-17T17:37:27.068Z</time></trkpt><trkpt lat="43.9774783" lon="8.13587"><ele>23.666666666666668</ele><time>2026-04-17T17:37:28.067Z</time></trkpt><trkpt lat="43.9776567" lon="8.1358883"><ele>24.333333333333336</ele><time>2026-04-17T17:37:29.068Z</time></trkpt><trkpt lat="43.977845" lon="8.1359183"><ele>25.0</ele><time>2026-04-17T17:37:30.067Z</time></trkpt><trkpt lat="43.97803" lon="8.135925"><ele>25.0</ele><time>2026-04-17T17:37:31.068Z</time></trkpt><trkpt lat="43.9782217" lon="8.135915"><ele>25.0</ele><time>2026-04-17T17:37:32.068Z</time></trkpt><trkpt lat="43.9784017" lon="8.135905"><ele>25.0</ele><time>2026-04-17T17:37:33.068Z</time></trkpt><trkpt lat="43.9785883" lon="8.1358883"><ele>25.666666666666668</ele><time>2026-04-17T17:37:34.068Z</time></trkpt><trkpt lat="43.9787667" lon="8.1358733"><ele>26.333333333333336</ele><time>2026-04-17T17:37:35.067Z</time></trkpt><trkpt lat="43.9789317" lon="8.1358233"><ele>27.0</ele><time>2026-04-17T17:37:36.068Z</time></trkpt><trkpt lat="43.9791083" lon="8.1357467"><ele>26.666666666666664</ele><time>2026-04-17T17:37:37.068Z</time></trkpt><trkpt lat="43.9792667" lon="8.1356383"><ele>26.333333333333332</ele><time>2026-04-17T17:37:38.068Z</time></trkpt><trkpt lat="43.9794117" lon="8.135515"><ele>26.0</ele><time>2026-04-17T17:37:39.068Z</time></trkpt><trkpt lat="43.97955" lon="8.1353817"><ele>26.0</ele><time>2026-04-17T17:37:40.068Z</time></trkpt><trkpt lat="43.9796767" lon="8.13526"><ele>26.0</ele><time>2026-04-17T17:37:41.068Z</time></trkpt><trkpt lat="43.979795" lon="8.1351467"><ele>26.0</ele><time>2026-04-17T17:37:42.068Z</time></trkpt><trkpt lat="43.9799283" lon="8.135055"><ele>26.0</ele><time>2026-04-17T17:37:43.067Z</time></trkpt><trkpt lat="43.9800767" lon="8.13497"><ele>25.333333333333332</ele><time>2026-04-17T17:37:44.067Z</time></trkpt><trkpt lat="43.9802383" lon="8.1349033"><ele>24.666666666666664</ele><time>2026-04-17T17:37:45.067Z</time></trkpt><trkpt lat="43.980405" lon="8.13485"><ele>24.0</ele><time>2026-04-17T17:37:46.067Z</time></trkpt><trkpt lat="43.9805817" lon="8.1348083"><ele>24.0</ele><time>2026-04-17T17:37:47.067Z</time></trkpt><trkpt lat="43.9807683" lon="8.1347667"><ele>24.0</ele><time>2026-04-17T17:37:48.067Z</time></trkpt><trkpt lat="43.9809567" lon="8.134725"><ele>24.0</ele><time>2026-04-17T17:37:49.068Z</time></trkpt><trkpt lat="43.981135" lon="8.1346833"><ele>25.333333333333336</ele><time>2026-04-17T17:37:50.067Z</time></trkpt><trkpt lat="43.9813217" lon="8.1346267"><ele>26.666666666666668</ele><time>2026-04-17T17:37:51.068Z</time></trkpt><trkpt lat="43.98151" lon="8.1345367"><ele>28.0</ele><time>2026-04-17T17:37:52.068Z</time></trkpt><trkpt lat="43.98169" lon="8.1344283"><ele>28.0</ele><time>2026-04-17T17:37:53.068Z</time></trkpt><trkpt lat="43.9818733" lon="8.1342833"><ele>28.0</ele><time>2026-04-17T17:37:54.067Z</time></trkpt><trkpt lat="43.98205" lon="8.1341183"><ele>28.0</ele><time>2026-04-17T17:37:55.068Z</time></trkpt><trkpt lat="43.9822233" lon="8.1339683"><ele>28.0</ele><time>2026-04-17T17:37:56.067Z</time></trkpt><trkpt lat="43.9823917" lon="8.133805"><ele>28.0</ele><time>2026-04-17T17:37:57.068Z</time></trkpt><trkpt lat="43.9825617" lon="8.1336433"><ele>28.0</ele><time>2026-04-17T17:37:58.068Z</time></trkpt><trkpt lat="43.9827267" lon="8.13349"><ele>27.666666666666668</ele><time>2026-04-17T17:37:59.068Z</time></trkpt><trkpt lat="43.9828917" lon="8.1333317"><ele>27.333333333333336</ele><time>2026-04-17T17:38:00.067Z</time></trkpt><trkpt lat="43.98305" lon="8.1331867"><ele>27.0</ele><time>2026-04-17T17:38:01.068Z</time></trkpt><trkpt lat="43.98322" lon="8.1330267"><ele>28.0</ele><time>2026-04-17T17:38:02.068Z</time></trkpt><trkpt lat="43.9833933" lon="8.1328717"><ele>29.0</ele><time>2026-04-17T17:38:03.067Z</time></trkpt><trkpt lat="43.9835583" lon="8.1327083"><ele>30.0</ele><time>2026-04-17T17:38:04.068Z</time></trkpt><trkpt lat="43.9837317" lon="8.132525"><ele>29.333333333333336</ele><time>2026-04-17T17:38:05.068Z</time></trkpt><trkpt lat="43.983885" lon="8.1323083"><ele>28.666666666666668</ele><time>2026-04-17T17:38:06.067Z</time></trkpt><trkpt lat="43.9840117" lon="8.1320933"><ele>28.0</ele><time>2026-04-17T17:38:07.067Z</time></trkpt><trkpt lat="43.984125" lon="8.1318583"><ele>29.0</ele><time>2026-04-17T17:38:08.067Z</time></trkpt><trkpt lat="43.98424" lon="8.1316317"><ele>30.0</ele><time>2026-04-17T17:38:09.068Z</time></trkpt><trkpt lat="43.98435" lon="8.1314417"><ele>31.0</ele><time>2026-04-17T17:38:10.067Z</time></trkpt><trkpt lat="43.9844433" lon="8.1312683"><ele>31.000000000000004</ele><time>2026-04-17T17:38:11.067Z</time></trkpt><trkpt lat="43.9845183" lon="8.1311433"><ele>31.0</ele><time>2026-04-17T17:38:12.068Z</time></trkpt><trkpt lat="43.9845883" lon="8.1310517"><ele>31.0</ele><time>2026-04-17T17:38:13.067Z</time></trkpt><trkpt lat="43.984645" lon="8.1310133"><ele>31.0</ele><time>2026-04-17T17:38:14.068Z</time></trkpt><trkpt lat="43.9847067" lon="8.1309917"><ele>31.000000000000004</ele><time>2026-04-17T17:38:15.067Z</time></trkpt><trkpt lat="43.984815" lon="8.1310033"><ele>31.0</ele><time>2026-04-17T17:38:17.068Z</time></trkpt><trkpt lat="43.9849083" lon="8.1310683"><ele>31.000000000000004</ele><time>2026-04-17T17:38:19.068Z</time></trkpt><trkpt lat="43.9849667" lon="8.1311033"><ele>31.0</ele><time>2026-04-17T17:38:20.067Z</time></trkpt><trkpt lat="43.9850317" lon="8.1311233"><ele>31.0</ele><time>2026-04-17T17:38:21.067Z</time></trkpt><trkpt lat="43.98511" lon="8.1311217"><ele>31.0</ele><time>2026-04-17T17:38:22.067Z</time></trkpt><trkpt lat="43.9852067" lon="8.131105"><ele>31.000000000000004</ele><time>2026-04-17T17:38:23.068Z</time></trkpt><trkpt lat="43.98531" lon="8.1310783"><ele>31.0</ele><time>2026-04-17T17:38:24.068Z</time></trkpt><trkpt lat="43.9854233" lon="8.13105"><ele>31.25</ele><time>2026-04-17T17:38:25.068Z</time></trkpt><trkpt lat="43.9855433" lon="8.131035"><ele>31.5</ele><time>2026-04-17T17:38:26.068Z</time></trkpt><trkpt lat="43.9856633" lon="8.13104"><ele>31.75</ele><time>2026-04-17T17:38:27.068Z</time></trkpt><trkpt lat="43.9857733" lon="8.1310733"><ele>32.0</ele><time>2026-04-17T17:38:28.067Z</time></trkpt><trkpt lat="43.9858817" lon="8.13108"><ele>34.25</ele><time>2026-04-17T17:38:29.067Z</time></trkpt><trkpt lat="43.98599" lon="8.1310517"><ele>36.5</ele><time>2026-04-17T17:38:30.068Z</time></trkpt><trkpt lat="43.9861017" lon="8.13099"><ele>38.75</ele><time>2026-04-17T17:38:31.067Z</time></trkpt><trkpt lat="43.9862267" lon="8.1309367"><ele>41.0</ele><time>2026-04-17T17:38:32.068Z</time></trkpt><trkpt lat="43.9863567" lon="8.1309183"><ele>41.0</ele><time>2026-04-17T17:38:33.068Z</time></trkpt><trkpt lat="43.986485" lon="8.1309283"><ele>41.0</ele><time>2026-04-17T17:38:34.067Z</time></trkpt><trkpt lat="43.9866267" lon="8.1309483"><ele>41.0</ele><time>2026-04-17T17:38:35.068Z</time></trkpt><trkpt lat="43.9867667" lon="8.13098"><ele>41.0</ele><time>2026-04-17T17:38:36.068Z</time></trkpt><trkpt lat="43.9868983" lon="8.1310083"><ele>44.5</ele><time>2026-04-17T17:38:37.067Z</time></trkpt><trkpt lat="43.9870283" lon="8.131025"><ele>48.0</ele><time>2026-04-17T17:38:38.067Z</time></trkpt><trkpt lat="43.987165" lon="8.1310417"><ele>51.5</ele><time>2026-04-17T17:38:39.068Z</time></trkpt><trkpt lat="43.9873033" lon="8.1310717"><ele>55.0</ele><time>2026-04-17T17:38:40.068Z</time></trkpt><trkpt lat="43.98744" lon="8.1311017"><ele>55.5</ele><time>2026-04-17T17:38:41.068Z</time></trkpt><trkpt lat="43.987575" lon="8.1311633"><ele>56.0</ele><time>2026-04-17T17:38:42.068Z</time></trkpt><trkpt lat="43.9876983" lon="8.131235"><ele>56.5</ele><time>2026-04-17T17:38:43.068Z</time></trkpt><trkpt lat="43.9878117" lon="8.1313133"><ele>57.0</ele><time>2026-04-17T17:38:44.068Z</time></trkpt><trkpt lat="43.9879283" lon="8.131395"><ele>57.0</ele><time>2026-04-17T17:38:45.068Z</time></trkpt><trkpt lat="43.9880283" lon="8.1314817"><ele>57.0</ele><time>2026-04-17T17:38:46.068Z</time></trkpt><trkpt lat="43.9881383" lon="8.1315867"><ele>57.0</ele><time>2026-04-17T17:38:47.068Z</time></trkpt><trkpt lat="43.9882433" lon="8.1316967"><ele>57.0</ele><time>2026-04-17T17:38:48.067Z</time></trkpt><trkpt lat="43.988345" lon="8.1318017"><ele>58.400000000000006</ele><time>2026-04-17T17:38:49.067Z</time></trkpt><trkpt lat="43.9884267" lon="8.1318833"><ele>59.800000000000004</ele><time>2026-04-17T17:38:50.068Z</time></trkpt><trkpt lat="43.9885117" lon="8.1319417"><ele>61.2</ele><time>2026-04-17T17:38:51.068Z</time></trkpt><trkpt lat="43.9885733" lon="8.1319717"><ele>62.6</ele><time>2026-04-17T17:38:52.068Z</time></trkpt><trkpt lat="43.9886583" lon="8.1320033"><ele>64.0</ele><time>2026-04-17T17:38:54.067Z</time></trkpt><trkpt lat="43.9885367" lon="8.1319233"><ele>64.0</ele><time>2026-04-17T17:41:44.068Z</time></trkpt><trkpt lat="43.9884583" lon="8.1318733"><ele>64.0</ele><time>2026-04-17T17:41:45.067Z</time></trkpt><trkpt lat="43.9883733" lon="8.1318167"><ele>64.0</ele><time>2026-04-17T17:41:46.068Z</time></trkpt><trkpt lat="43.9882983" lon="8.1317517"><ele>64.0</ele><time>2026-04-17T17:41:47.067Z</time></trkpt><trkpt lat="43.98822" lon="8.13168"><ele>64.0</ele><time>2026-04-17T17:41:48.067Z</time></trkpt><trkpt lat="43.98814" lon="8.1315983"><ele>62.6</ele><time>2026-04-17T17:41:49.068Z</time></trkpt><trkpt lat="43.9880533" lon="8.131505"><ele>61.2</ele><time>2026-04-17T17:41:50.067Z</time></trkpt><trkpt lat="43.9879617" lon="8.1314217"><ele>59.800000000000004</ele><time>2026-04-17T17:41:51.068Z</time></trkpt><trkpt lat="43.987865" lon="8.1313483"><ele>58.400000000000006</ele><time>2026-04-17T17:41:52.067Z</time></trkpt><trkpt lat="43.9877617" lon="8.1312733"><ele>57.0</ele><time>2026-04-17T17:41:53.067Z</time></trkpt><trkpt lat="43.987655" lon="8.1312083"><ele>57.0</ele><time>2026-04-17T17:41:54.067Z</time></trkpt><trkpt lat="43.9875433" lon="8.13114"><ele>57.0</ele><time>2026-04-17T17:41:55.067Z</time></trkpt><trkpt lat="43.9874217" lon="8.131085"><ele>57.0</ele><time>2026-04-17T17:41:56.068Z</time></trkpt><trkpt lat="43.9873" lon="8.1310533"><ele>57.0</ele><time>2026-04-17T17:41:57.068Z</time></trkpt><trkpt lat="43.98718" lon="8.1310067"><ele>56.5</ele><time>2026-04-17T17:41:58.067Z</time></trkpt><trkpt lat="43.987055" lon="8.1309933"><ele>56.0</ele><time>2026-04-17T17:41:59.068Z</time></trkpt><trkpt lat="43.986935" lon="8.1309883"><ele>55.5</ele><time>2026-04-17T17:42:00.068Z</time></trkpt><trkpt lat="43.9868217" lon="8.1309717"><ele>55.0</ele><time>2026-04-17T17:42:01.067Z</time></trkpt><trkpt lat="43.98671" lon="8.13096"><ele>51.5</ele><time>2026-04-17T17:42:02.068Z</time></trkpt><trkpt lat="43.98659" lon="8.1309317"><ele>48.0</ele><time>2026-04-17T17:42:03.068Z</time></trkpt><trkpt lat="43.986475" lon="8.13091"><ele>44.5</ele><time>2026-04-17T17:42:04.068Z</time></trkpt><trkpt lat="43.9863533" lon="8.1308833"><ele>41.0</ele><time>2026-04-17T17:42:05.068Z</time></trkpt><trkpt lat="43.9862333" lon="8.1308783"><ele>41.0</ele><time>2026-04-17T17:42:06.067Z</time></trkpt><trkpt lat="43.9861083" lon="8.1309167"><ele>41.0</ele><time>2026-04-17T17:42:07.066Z</time></trkpt><trkpt lat="43.9860033" lon="8.130985"><ele>41.0</ele><time>2026-04-17T17:42:08.066Z</time></trkpt><trkpt lat="43.9858983" lon="8.1310467"><ele>41.0</ele><time>2026-04-17T17:42:09.067Z</time></trkpt><trkpt lat="43.9857867" lon="8.1310617"><ele>38.75</ele><time>2026-04-17T17:42:10.066Z</time></trkpt><trkpt lat="43.9856833" lon="8.1310383"><ele>36.5</ele><time>2026-04-17T17:42:11.066Z</time></trkpt><trkpt lat="43.985575" lon="8.13101"><ele>34.25</ele><time>2026-04-17T17:42:12.066Z</time></trkpt><trkpt lat="43.9854567" lon="8.1310117"><ele>32.0</ele><time>2026-04-17T17:42:13.066Z</time></trkpt><trkpt lat="43.9853367" lon="8.13103"><ele>32.0</ele><time>2026-04-17T17:42:14.066Z</time></trkpt><trkpt lat="43.9852217" lon="8.1310517"><ele>32.0</ele><time>2026-04-17T17:42:15.067Z</time></trkpt><trkpt lat="43.98512" lon="8.1310667"><ele>32.0</ele><time>2026-04-17T17:42:16.067Z</time></trkpt><trkpt lat="43.9850217" lon="8.131075"><ele>32.0</ele><time>2026-04-17T17:42:17.067Z</time></trkpt><trkpt lat="43.9849317" lon="8.1310783"><ele>32.0</ele><time>2026-04-17T17:42:18.067Z</time></trkpt><trkpt lat="43.9848683" lon="8.1310517"><ele>31.833333333333332</ele><time>2026-04-17T17:42:19.066Z</time></trkpt><trkpt lat="43.9848333" lon="8.1309667"><ele>31.666666666666664</ele><time>2026-04-17T17:42:22.067Z</time></trkpt><trkpt lat="43.98485" lon="8.13087"><ele>31.5</ele><time>2026-04-17T17:42:32.067Z</time></trkpt><trkpt lat="43.9848533" lon="8.1307617"><ele>31.333333333333336</ele><time>2026-04-17T17:42:33.066Z</time></trkpt><trkpt lat="43.984865" lon="8.130655"><ele>31.166666666666668</ele><time>2026-04-17T17:42:34.067Z</time></trkpt><trkpt lat="43.9848983" lon="8.1305483"><ele>31.0</ele><time>2026-04-17T17:42:35.066Z</time></trkpt><trkpt lat="43.98496" lon="8.1304433"><ele>31.25</ele><time>2026-04-17T17:42:36.066Z</time></trkpt><trkpt lat="43.9850367" lon="8.130325"><ele>31.5</ele><time>2026-04-17T17:42:37.067Z</time></trkpt><trkpt lat="43.9851267" lon="8.1301967"><ele>31.75</ele><time>2026-04-17T17:42:38.067Z</time></trkpt><trkpt lat="43.985205" lon="8.1300633"><ele>32.0</ele><time>2026-04-17T17:42:39.066Z</time></trkpt><trkpt lat="43.9853" lon="8.12991"><ele>31.75</ele><time>2026-04-17T17:42:40.067Z</time></trkpt><trkpt lat="43.9853917" lon="8.1297583"><ele>31.5</ele><time>2026-04-17T17:42:41.067Z</time></trkpt><trkpt lat="43.98548" lon="8.129595"><ele>31.25</ele><time>2026-04-17T17:42:42.067Z</time></trkpt><trkpt lat="43.985575" lon="8.1294267"><ele>31.0</ele><time>2026-04-17T17:42:43.066Z</time></trkpt><trkpt lat="43.9856717" lon="8.12926"><ele>31.0</ele><time>2026-04-17T17:42:44.066Z</time></trkpt><trkpt lat="43.98576" lon="8.129105"><ele>31.0</ele><time>2026-04-17T17:42:45.067Z</time></trkpt><trkpt lat="43.98585" lon="8.1289433"><ele>31.0</ele><time>2026-04-17T17:42:46.066Z</time></trkpt><trkpt lat="43.98592" lon="8.12876"><ele>31.0</ele><time>2026-04-17T17:42:47.066Z</time></trkpt><trkpt lat="43.9859717" lon="8.12855"><ele>32.333333333333336</ele><time>2026-04-17T17:42:48.067Z</time></trkpt><trkpt lat="43.9860167" lon="8.1283367"><ele>33.666666666666664</ele><time>2026-04-17T17:42:49.067Z</time></trkpt><trkpt lat="43.9860533" lon="8.1281083"><ele>35.0</ele><time>2026-04-17T17:42:50.066Z</time></trkpt><trkpt lat="43.98609" lon="8.1278683"><ele>35.0</ele><time>2026-04-17T17:42:51.066Z</time></trkpt><trkpt lat="43.986125" lon="8.1276517"><ele>35.0</ele><time>2026-04-17T17:42:52.067Z</time></trkpt><trkpt lat="43.986165" lon="8.1274333"><ele>35.0</ele><time>2026-04-17T17:42:53.067Z</time></trkpt><trkpt lat="43.9862" lon="8.1272317"><ele>35.33333333333333</ele><time>2026-04-17T17:42:54.067Z</time></trkpt><trkpt lat="43.98624" lon="8.1270317"><ele>35.666666666666664</ele><time>2026-04-17T17:42:55.067Z</time></trkpt><trkpt lat="43.986275" lon="8.126825"><ele>36.0</ele><time>2026-04-17T17:42:56.066Z</time></trkpt><trkpt lat="43.98631" lon="8.1266217"><ele>35.75</ele><time>2026-04-17T17:42:57.066Z</time></trkpt><trkpt lat="43.9863383" lon="8.126415"><ele>35.5</ele><time>2026-04-17T17:42:58.066Z</time></trkpt><trkpt lat="43.986355" lon="8.1262067"><ele>35.25</ele><time>2026-04-17T17:42:59.067Z</time></trkpt><trkpt lat="43.9863617" lon="8.126005"><ele>35.0</ele><time>2026-04-17T17:43:00.066Z</time></trkpt><trkpt lat="43.986365" lon="8.1257983"><ele>35.0</ele><time>2026-04-17T17:43:01.066Z</time></trkpt><trkpt lat="43.9863683" lon="8.125585"><ele>35.0</ele><time>2026-04-17T17:43:02.066Z</time></trkpt><trkpt lat="43.9863517" lon="8.125365"><ele>35.0</ele><time>2026-04-17T17:43:03.067Z</time></trkpt><trkpt lat="43.9863583" lon="8.1251667"><ele>35.0</ele><time>2026-04-17T17:43:04.066Z</time></trkpt><trkpt lat="43.9863717" lon="8.12499"><ele>35.0</ele><time>2026-04-17T17:43:05.066Z</time></trkpt><trkpt lat="43.9864183" lon="8.1248283"><ele>35.0</ele><time>2026-04-17T17:43:06.066Z</time></trkpt><trkpt lat="43.9864983" lon="8.1246633"><ele>35.0</ele><time>2026-04-17T17:43:07.066Z</time></trkpt><trkpt lat="43.9866033" lon="8.1245167"><ele>36.33333333333333</ele><time>2026-04-17T17:43:08.067Z</time></trkpt><trkpt lat="43.986725" lon="8.1243783"><ele>37.666666666666664</ele><time>2026-04-17T17:43:09.067Z</time></trkpt><trkpt lat="43.9868367" lon="8.1242367"><ele>39.0</ele><time>2026-04-17T17:43:10.066Z</time></trkpt><trkpt lat="43.9869467" lon="8.1241033"><ele>38.75</ele><time>2026-04-17T17:43:11.067Z</time></trkpt><trkpt lat="43.9870567" lon="8.1239717"><ele>38.5</ele><time>2026-04-17T17:43:12.066Z</time></trkpt><trkpt lat="43.98716" lon="8.123835"><ele>38.25</ele><time>2026-04-17T17:43:13.066Z</time></trkpt><trkpt lat="43.9872667" lon="8.1237017"><ele>38.0</ele><time>2026-04-17T17:43:14.066Z</time></trkpt><trkpt lat="43.9873667" lon="8.123575"><ele>38.0</ele><time>2026-04-17T17:43:15.066Z</time></trkpt><trkpt lat="43.9874533" lon="8.12346"><ele>38.0</ele><time>2026-04-17T17:43:16.067Z</time></trkpt><trkpt lat="43.987545" lon="8.1233467"><ele>38.0</ele><time>2026-04-17T17:43:17.067Z</time></trkpt><trkpt lat="43.9876383" lon="8.12323"><ele>38.0</ele><time>2026-04-17T17:43:18.067Z</time></trkpt><trkpt lat="43.9877433" lon="8.1231167"><ele>37.75</ele><time>2026-04-17T17:43:19.066Z</time></trkpt><trkpt lat="43.9878567" lon="8.1230117"><ele>37.5</ele><time>2026-04-17T17:43:20.067Z</time></trkpt><trkpt lat="43.9879683" lon="8.1229317"><ele>37.25</ele><time>2026-04-17T17:43:21.066Z</time></trkpt><trkpt lat="43.9880867" lon="8.12286"><ele>37.0</ele><time>2026-04-17T17:43:22.067Z</time></trkpt><trkpt lat="43.9882267" lon="8.1228283"><ele>37.0</ele><time>2026-04-17T17:43:23.067Z</time></trkpt><trkpt lat="43.988365" lon="8.1228217"><ele>37.0</ele><time>2026-04-17T17:43:24.066Z</time></trkpt><trkpt lat="43.9884967" lon="8.122815"><ele>37.0</ele><time>2026-04-17T17:43:25.067Z</time></trkpt><trkpt lat="43.9886283" lon="8.1228117"><ele>37.0</ele><time>2026-04-17T17:43:26.066Z</time></trkpt><trkpt lat="43.9887667" lon="8.1228067"><ele>37.0</ele><time>2026-04-17T17:43:27.067Z</time></trkpt><trkpt lat="43.988915" lon="8.122805"><ele>37.0</ele><time>2026-04-17T17:43:28.066Z</time></trkpt><trkpt lat="43.9890633" lon="8.122805"><ele>37.0</ele><time>2026-04-17T17:43:29.067Z</time></trkpt><trkpt lat="43.9892083" lon="8.12279"><ele>37.0</ele><time>2026-04-17T17:43:30.066Z</time></trkpt><trkpt lat="43.9893467" lon="8.122775"><ele>38.0</ele><time>2026-04-17T17:43:31.066Z</time></trkpt><trkpt lat="43.9894817" lon="8.1227433"><ele>39.0</ele><time>2026-04-17T17:43:32.066Z</time></trkpt><trkpt lat="43.9896167" lon="8.1227017"><ele>40.0</ele><time>2026-04-17T17:43:33.067Z</time></trkpt><trkpt lat="43.9897467" lon="8.12265"><ele>41.0</ele><time>2026-04-17T17:43:34.067Z</time></trkpt><trkpt lat="43.9898733" lon="8.122585"><ele>41.0</ele><time>2026-04-17T17:43:35.066Z</time></trkpt><trkpt lat="43.99" lon="8.1225017"><ele>41.0</ele><time>2026-04-17T17:43:36.066Z</time></trkpt><trkpt lat="43.9901333" lon="8.12242"><ele>41.0</ele><time>2026-04-17T17:43:37.066Z</time></trkpt><trkpt lat="43.9902767" lon="8.1223567"><ele>41.0</ele><time>2026-04-17T17:43:38.067Z</time></trkpt><trkpt lat="43.9904067" lon="8.122285"><ele>40.75</ele><time>2026-04-17T17:43:39.067Z</time></trkpt><trkpt lat="43.99054" lon="8.12223"><ele>40.5</ele><time>2026-04-17T17:43:40.067Z</time></trkpt><trkpt lat="43.9906583" lon="8.1221783"><ele>40.25</ele><time>2026-04-17T17:43:41.067Z</time></trkpt><trkpt lat="43.9907817" lon="8.12212"><ele>40.0</ele><time>2026-04-17T17:43:42.066Z</time></trkpt><trkpt lat="43.9908933" lon="8.12206"><ele>41.0</ele><time>2026-04-17T17:43:43.066Z</time></trkpt><trkpt lat="43.990995" lon="8.1219983"><ele>42.0</ele><time>2026-04-17T17:43:44.066Z</time></trkpt><trkpt lat="43.991095" lon="8.1219217"><ele>43.0</ele><time>2026-04-17T17:43:45.066Z</time></trkpt><trkpt lat="43.9912067" lon="8.12184"><ele>44.0</ele><time>2026-04-17T17:43:46.067Z</time></trkpt><trkpt lat="43.9913183" lon="8.1217667"><ele>44.0</ele><time>2026-04-17T17:43:47.066Z</time></trkpt><trkpt lat="43.9914333" lon="8.1216883"><ele>44.0</ele><time>2026-04-17T17:43:48.067Z</time></trkpt><trkpt lat="43.9915533" lon="8.1216117"><ele>44.0</ele><time>2026-04-17T17:43:49.067Z</time></trkpt><trkpt lat="43.99167" lon="8.1215233"><ele>44.0</ele><time>2026-04-17T17:43:50.067Z</time></trkpt><trkpt lat="43.9917883" lon="8.1214333"><ele>44.0</ele><time>2026-04-17T17:43:51.067Z</time></trkpt><trkpt lat="43.9919067" lon="8.1213017"><ele>44.0</ele><time>2026-04-17T17:43:52.067Z</time></trkpt><trkpt lat="43.9920133" lon="8.12117"><ele>44.0</ele><time>2026-04-17T17:43:53.067Z</time></trkpt><trkpt lat="43.992115" lon="8.1210333"><ele>44.0</ele><time>2026-04-17T17:43:54.067Z</time></trkpt><trkpt lat="43.9922183" lon="8.1209067"><ele>44.0</ele><time>2026-04-17T17:43:55.067Z</time></trkpt><trkpt lat="43.9923133" lon="8.12078"><ele>44.0</ele><time>2026-04-17T17:43:56.066Z</time></trkpt><trkpt lat="43.99243" lon="8.1206783"><ele>44.0</ele><time>2026-04-17T17:43:57.066Z</time></trkpt><trkpt lat="43.9925383" lon="8.1205583"><ele>44.0</ele><time>2026-04-17T17:43:58.067Z</time></trkpt><trkpt lat="43.9926383" lon="8.120435"><ele>45.0</ele><time>2026-04-17T17:43:59.067Z</time></trkpt><trkpt lat="43.99273" lon="8.12032"><ele>46.0</ele><time>2026-04-17T17:44:00.067Z</time></trkpt><trkpt lat="43.992825" lon="8.1202117"><ele>47.0</ele><time>2026-04-17T17:44:01.067Z</time></trkpt><trkpt lat="43.9929267" lon="8.1200883"><ele>48.0</ele><time>2026-04-17T17:44:02.066Z</time></trkpt><trkpt lat="43.993045" lon="8.119935"><ele>47.0</ele><time>2026-04-17T17:44:03.066Z</time></trkpt><trkpt lat="43.9931483" lon="8.11979"><ele>46.0</ele><time>2026-04-17T17:44:04.066Z</time></trkpt><trkpt lat="43.9932417" lon="8.1196183"><ele>45.0</ele><time>2026-04-17T17:44:05.066Z</time></trkpt><trkpt lat="43.9933167" lon="8.1194317"><ele>48.0</ele><time>2026-04-17T17:44:06.067Z</time></trkpt><trkpt lat="43.993385" lon="8.1192417"><ele>51.0</ele><time>2026-04-17T17:44:07.066Z</time></trkpt><trkpt lat="43.9934483" lon="8.119045"><ele>54.0</ele><time>2026-04-17T17:44:08.067Z</time></trkpt><trkpt lat="43.9935083" lon="8.1188467"><ele>54.0</ele><time>2026-04-17T17:44:09.067Z</time></trkpt><trkpt lat="43.9935717" lon="8.1186533"><ele>54.0</ele><time>2026-04-17T17:44:10.066Z</time></trkpt><trkpt lat="43.993625" lon="8.11845"><ele>54.0</ele><time>2026-04-17T17:44:11.067Z</time></trkpt><trkpt lat="43.9936817" lon="8.118255"><ele>53.25</ele><time>2026-04-17T17:44:12.067Z</time></trkpt><trkpt lat="43.9937467" lon="8.11806"><ele>52.5</ele><time>2026-04-17T17:44:13.067Z</time></trkpt><trkpt lat="43.9937967" lon="8.1178717"><ele>51.75</ele><time>2026-04-17T17:44:14.067Z</time></trkpt><trkpt lat="43.9938383" lon="8.1176783"><ele>51.0</ele><time>2026-04-17T17:44:15.067Z</time></trkpt><trkpt lat="43.9938817" lon="8.117485"><ele>50.33333333333333</ele><time>2026-04-17T17:44:16.067Z</time></trkpt><trkpt lat="43.9939233" lon="8.1172783"><ele>49.666666666666664</ele><time>2026-04-17T17:44:17.067Z</time></trkpt><trkpt lat="43.99396" lon="8.11706"><ele>49.0</ele><time>2026-04-17T17:44:18.066Z</time></trkpt><trkpt lat="43.9939983" lon="8.11684"><ele>49.0</ele><time>2026-04-17T17:44:19.066Z</time></trkpt><trkpt lat="43.994025" lon="8.1166283"><ele>49.0</ele><time>2026-04-17T17:44:20.066Z</time></trkpt><trkpt lat="43.9940567" lon="8.1164133"><ele>49.0</ele><time>2026-04-17T17:44:21.067Z</time></trkpt><trkpt lat="43.9940867" lon="8.116185"><ele>49.0</ele><time>2026-04-17T17:44:22.066Z</time></trkpt><trkpt lat="43.994125" lon="8.1159583"><ele>49.0</ele><time>2026-04-17T17:44:23.066Z</time></trkpt><trkpt lat="43.994175" lon="8.11574"><ele>49.0</ele><time>2026-04-17T17:44:24.066Z</time></trkpt><trkpt lat="43.99425" lon="8.1155617"><ele>51.0</ele><time>2026-04-17T17:44:25.067Z</time></trkpt><trkpt lat="43.99434" lon="8.1154117"><ele>53.0</ele><time>2026-04-17T17:44:26.066Z</time></trkpt><trkpt lat="43.9944583" lon="8.1152767"><ele>55.0</ele><time>2026-04-17T17:44:27.067Z</time></trkpt><trkpt lat="43.9945933" lon="8.11513"><ele>55.0</ele><time>2026-04-17T17:44:28.066Z</time></trkpt><trkpt lat="43.9947383" lon="8.1150067"><ele>55.0</ele><time>2026-04-17T17:44:29.067Z</time></trkpt><trkpt lat="43.9948867" lon="8.1148867"><ele>55.0</ele><time>2026-04-17T17:44:30.067Z</time></trkpt><trkpt lat="43.9950233" lon="8.114765"><ele>54.33333333333333</ele><time>2026-04-17T17:44:31.067Z</time></trkpt><trkpt lat="43.9951633" lon="8.1146233"><ele>53.66666666666667</ele><time>2026-04-17T17:44:32.067Z</time></trkpt><trkpt lat="43.9952983" lon="8.1144867"><ele>53.0</ele><time>2026-04-17T17:44:33.067Z</time></trkpt><trkpt lat="43.9954383" lon="8.1143483"><ele>53.0</ele><time>2026-04-17T17:44:34.066Z</time></trkpt><trkpt lat="43.9955767" lon="8.1142217"><ele>53.0</ele><time>2026-04-17T17:44:35.067Z</time></trkpt><trkpt lat="43.99572" lon="8.11409"><ele>53.0</ele><time>2026-04-17T17:44:36.067Z</time></trkpt><trkpt lat="43.9958617" lon="8.1139583"><ele>54.0</ele><time>2026-04-17T17:44:37.067Z</time></trkpt><trkpt lat="43.9959967" lon="8.1138267"><ele>55.0</ele><time>2026-04-17T17:44:38.066Z</time></trkpt><trkpt lat="43.9961317" lon="8.1137033"><ele>56.0</ele><time>2026-04-17T17:44:39.067Z</time></trkpt><trkpt lat="43.996265" lon="8.1135767"><ele>56.0</ele><time>2026-04-17T17:44:40.067Z</time></trkpt><trkpt lat="43.9963983" lon="8.113425"><ele>56.0</ele><time>2026-04-17T17:44:41.067Z</time></trkpt><trkpt lat="43.9965183" lon="8.1132533"><ele>56.0</ele><time>2026-04-17T17:44:42.066Z</time></trkpt><trkpt lat="43.9966433" lon="8.1130967"><ele>56.66666666666667</ele><time>2026-04-17T17:44:43.066Z</time></trkpt><trkpt lat="43.99677" lon="8.1129383"><ele>57.33333333333333</ele><time>2026-04-17T17:44:44.066Z</time></trkpt><trkpt lat="43.99691" lon="8.1127867"><ele>58.0</ele><time>2026-04-17T17:44:45.067Z</time></trkpt><trkpt lat="43.9970567" lon="8.112655"><ele>58.0</ele><time>2026-04-17T17:44:46.066Z</time></trkpt><trkpt lat="43.9972033" lon="8.11251"><ele>58.0</ele><time>2026-04-17T17:44:47.066Z</time></trkpt><trkpt lat="43.9973417" lon="8.1123667"><ele>58.0</ele><time>2026-04-17T17:44:48.067Z</time></trkpt><trkpt lat="43.9974817" lon="8.1122267"><ele>59.666666666666664</ele><time>2026-04-17T17:44:49.067Z</time></trkpt><trkpt lat="43.99763" lon="8.1120767"><ele>61.33333333333333</ele><time>2026-04-17T17:44:50.066Z</time></trkpt><trkpt lat="43.997775" lon="8.1119283"><ele>63.0</ele><time>2026-04-17T17:44:51.067Z</time></trkpt><trkpt lat="43.997915" lon="8.111775"><ele>63.0</ele><time>2026-04-17T17:44:52.066Z</time></trkpt><trkpt lat="43.9980583" lon="8.1116333"><ele>63.0</ele><time>2026-04-17T17:44:53.067Z</time></trkpt><trkpt lat="43.998185" lon="8.1114783"><ele>63.0</ele><time>2026-04-17T17:44:54.067Z</time></trkpt><trkpt lat="43.9983067" lon="8.11131"><ele>62.66666666666667</ele><time>2026-04-17T17:44:55.066Z</time></trkpt><trkpt lat="43.9984383" lon="8.1111383"><ele>62.333333333333336</ele><time>2026-04-17T17:44:56.066Z</time></trkpt><trkpt lat="43.99857" lon="8.1109767"><ele>62.0</ele><time>2026-04-17T17:44:57.066Z</time></trkpt><trkpt lat="43.9986933" lon="8.11082"><ele>61.0</ele><time>2026-04-17T17:44:58.067Z</time></trkpt><trkpt lat="43.9988317" lon="8.1106617"><ele>60.0</ele><time>2026-04-17T17:44:59.067Z</time></trkpt><trkpt lat="43.9989633" lon="8.1104933"><ele>59.0</ele><time>2026-04-17T17:45:00.067Z</time></trkpt><trkpt lat="43.9990917" lon="8.1103567"><ele>61.66666666666667</ele><time>2026-04-17T17:45:01.066Z</time></trkpt><trkpt lat="43.9992167" lon="8.1102017"><ele>64.33333333333333</ele><time>2026-04-17T17:45:02.067Z</time></trkpt><trkpt lat="43.9993533" lon="8.1100233"><ele>67.0</ele><time>2026-04-17T17:45:03.066Z</time></trkpt><trkpt lat="43.9994717" lon="8.1098483"><ele>67.0</ele><time>2026-04-17T17:45:04.067Z</time></trkpt><trkpt lat="43.99957" lon="8.1096617"><ele>67.0</ele><time>2026-04-17T17:45:05.067Z</time></trkpt><trkpt lat="43.999675" lon="8.1094567"><ele>67.0</ele><time>2026-04-17T17:45:06.066Z</time></trkpt><trkpt lat="43.99977" lon="8.1092367"><ele>65.0</ele><time>2026-04-17T17:45:07.066Z</time></trkpt><trkpt lat="43.99986" lon="8.109035"><ele>63.0</ele><time>2026-04-17T17:45:08.066Z</time></trkpt><trkpt lat="43.9999467" lon="8.1088167"><ele>61.0</ele><time>2026-04-17T17:45:09.067Z</time></trkpt><trkpt lat="44.0000417" lon="8.1086217"><ele>61.0</ele><time>2026-04-17T17:45:10.067Z</time></trkpt><trkpt lat="44.000125" lon="8.1083933"><ele>61.0</ele><time>2026-04-17T17:45:11.067Z</time></trkpt><trkpt lat="44.0001817" lon="8.1081617"><ele>61.0</ele><time>2026-04-17T17:45:12.066Z</time></trkpt><trkpt lat="44.0002183" lon="8.1079317"><ele>61.0</ele><time>2026-04-17T17:45:13.066Z</time></trkpt><trkpt lat="44.00025" lon="8.1076883"><ele>61.0</ele><time>2026-04-17T17:45:14.067Z</time></trkpt><trkpt lat="44.0002683" lon="8.1074483"><ele>61.0</ele><time>2026-04-17T17:45:15.066Z</time></trkpt><trkpt lat="44.0003" lon="8.1072167"><ele>60.666666666666664</ele><time>2026-04-17T17:45:16.066Z</time></trkpt><trkpt lat="44.0003433" lon="8.1069817"><ele>60.33333333333333</ele><time>2026-04-17T17:45:17.067Z</time></trkpt><trkpt lat="44.0004067" lon="8.1067667"><ele>60.0</ele><time>2026-04-17T17:45:18.066Z</time></trkpt><trkpt lat="44.00051" lon="8.10656"><ele>59.66666666666667</ele><time>2026-04-17T17:45:19.067Z</time></trkpt><trkpt lat="44.0006167" lon="8.10636"><ele>59.333333333333336</ele><time>2026-04-17T17:45:20.067Z</time></trkpt><trkpt lat="44.0007417" lon="8.10618"><ele>59.0</ele><time>2026-04-17T17:45:21.066Z</time></trkpt><trkpt lat="44.0008633" lon="8.1059933"><ele>60.333333333333336</ele><time>2026-04-17T17:45:22.066Z</time></trkpt><trkpt lat="44.0009783" lon="8.1058"><ele>61.66666666666667</ele><time>2026-04-17T17:45:23.066Z</time></trkpt><trkpt lat="44.0010933" lon="8.1056067"><ele>63.0</ele><time>2026-04-17T17:45:24.066Z</time></trkpt><trkpt lat="44.0012083" lon="8.105435"><ele>63.0</ele><time>2026-04-17T17:45:25.066Z</time></trkpt><trkpt lat="44.00133" lon="8.1052583"><ele>63.0</ele><time>2026-04-17T17:45:26.066Z</time></trkpt><trkpt lat="44.0014433" lon="8.1050817"><ele>63.0</ele><time>2026-04-17T17:45:27.067Z</time></trkpt><trkpt lat="44.0015667" lon="8.104905"><ele>64.66666666666667</ele><time>2026-04-17T17:45:28.066Z</time></trkpt><trkpt lat="44.0016967" lon="8.1047267"><ele>66.33333333333334</ele><time>2026-04-17T17:45:29.066Z</time></trkpt><trkpt lat="44.0018183" lon="8.104545"><ele>68.0</ele><time>2026-04-17T17:45:30.067Z</time></trkpt><trkpt lat="44.0019383" lon="8.1043617"><ele>68.0</ele><time>2026-04-17T17:45:31.067Z</time></trkpt><trkpt lat="44.0020233" lon="8.1041467"><ele>68.0</ele><time>2026-04-17T17:45:32.067Z</time></trkpt><trkpt lat="44.002095" lon="8.10391"><ele>68.0</ele><time>2026-04-17T17:45:33.067Z</time></trkpt><trkpt lat="44.00214" lon="8.1036583"><ele>66.66666666666667</ele><time>2026-04-17T17:45:34.067Z</time></trkpt><trkpt lat="44.0021617" lon="8.10339"><ele>65.33333333333333</ele><time>2026-04-17T17:45:35.067Z</time></trkpt><trkpt lat="44.002185" lon="8.103145"><ele>64.0</ele><time>2026-04-17T17:45:36.066Z</time></trkpt><trkpt lat="44.0022" lon="8.1028783"><ele>63.666666666666664</ele><time>2026-04-17T17:45:37.067Z</time></trkpt><trkpt lat="44.0022217" lon="8.1026183"><ele>63.33333333333333</ele><time>2026-04-17T17:45:38.066Z</time></trkpt><trkpt lat="44.0022383" lon="8.1023667"><ele>63.0</ele><time>2026-04-17T17:45:39.066Z</time></trkpt><trkpt lat="44.00225" lon="8.1021067"><ele>63.66666666666667</ele><time>2026-04-17T17:45:40.067Z</time></trkpt><trkpt lat="44.0022667" lon="8.101865"><ele>64.33333333333334</ele><time>2026-04-17T17:45:41.067Z</time></trkpt><trkpt lat="44.002285" lon="8.1016167"><ele>65.0</ele><time>2026-04-17T17:45:42.066Z</time></trkpt><trkpt lat="44.002305" lon="8.10137"><ele>65.66666666666667</ele><time>2026-04-17T17:45:43.066Z</time></trkpt><trkpt lat="44.0023317" lon="8.10113"><ele>66.33333333333333</ele><time>2026-04-17T17:45:44.066Z</time></trkpt><trkpt lat="44.0023617" lon="8.1008783"><ele>67.0</ele><time>2026-04-17T17:45:45.066Z</time></trkpt><trkpt lat="44.0023917" lon="8.10064"><ele>68.33333333333333</ele><time>2026-04-17T17:45:46.067Z</time></trkpt><trkpt lat="44.0024133" lon="8.1003917"><ele>69.66666666666667</ele><time>2026-04-17T17:45:47.066Z</time></trkpt><trkpt lat="44.0024667" lon="8.1001717"><ele>71.0</ele><time>2026-04-17T17:45:48.066Z</time></trkpt><trkpt lat="44.0025283" lon="8.0999467"><ele>71.0</ele><time>2026-04-17T17:45:49.067Z</time></trkpt><trkpt lat="44.0026083" lon="8.0997167"><ele>71.0</ele><time>2026-04-17T17:45:50.067Z</time></trkpt><trkpt lat="44.0026933" lon="8.0995"><ele>71.0</ele><time>2026-04-17T17:45:51.067Z</time></trkpt><trkpt lat="44.0027767" lon="8.0992767"><ele>71.0</ele><time>2026-04-17T17:45:52.066Z</time></trkpt><trkpt lat="44.0028683" lon="8.09908"><ele>71.0</ele><time>2026-04-17T17:45:53.067Z</time></trkpt><trkpt lat="44.002965" lon="8.0988867"><ele>71.0</ele><time>2026-04-17T17:45:54.067Z</time></trkpt><trkpt lat="44.0030867" lon="8.0986967"><ele>71.0</ele><time>2026-04-17T17:45:55.066Z</time></trkpt><trkpt lat="44.0032133" lon="8.09854"><ele>71.0</ele><time>2026-04-17T17:45:56.067Z</time></trkpt><trkpt lat="44.003325" lon="8.09838"><ele>71.0</ele><time>2026-04-17T17:45:57.067Z</time></trkpt><trkpt lat="44.003415" lon="8.0981783"><ele>73.66666666666667</ele><time>2026-04-17T17:45:58.067Z</time></trkpt><trkpt lat="44.0034783" lon="8.097955"><ele>76.33333333333333</ele><time>2026-04-17T17:45:59.067Z</time></trkpt><trkpt lat="44.003535" lon="8.09772"><ele>79.0</ele><time>2026-04-17T17:46:00.066Z</time></trkpt><trkpt lat="44.00357" lon="8.097485"><ele>78.0</ele><time>2026-04-17T17:46:01.067Z</time></trkpt><trkpt lat="44.0035833" lon="8.0972517"><ele>77.0</ele><time>2026-04-17T17:46:02.067Z</time></trkpt><trkpt lat="44.003605" lon="8.097025"><ele>76.0</ele><time>2026-04-17T17:46:03.067Z</time></trkpt><trkpt lat="44.0036267" lon="8.0968133"><ele>76.0</ele><time>2026-04-17T17:46:04.066Z</time></trkpt><trkpt lat="44.00364" lon="8.0966083"><ele>76.0</ele><time>2026-04-17T17:46:05.067Z</time></trkpt><trkpt lat="44.0036617" lon="8.0964317"><ele>76.0</ele><time>2026-04-17T17:46:06.066Z</time></trkpt><trkpt lat="44.00368" lon="8.0963167"><ele>76.0</ele><time>2026-04-17T17:46:07.067Z</time></trkpt><trkpt lat="44.00367" lon="8.0962133"><ele>76.0</ele><time>2026-04-17T17:46:08.067Z</time></trkpt><trkpt lat="44.00365" lon="8.0961083"><ele>76.0</ele><time>2026-04-17T17:46:10.066Z</time></trkpt><trkpt lat="44.0035867" lon="8.0962033"><ele>76.0</ele><time>2026-04-17T17:48:24.067Z</time></trkpt><trkpt lat="44.003585" lon="8.096345"><ele>76.0</ele><time>2026-04-17T17:48:25.067Z</time></trkpt><trkpt lat="44.0035933" lon="8.0965383"><ele>76.0</ele><time>2026-04-17T17:48:26.066Z</time></trkpt><trkpt lat="44.00359" lon="8.0967633"><ele>76.0</ele><time>2026-04-17T17:48:27.066Z</time></trkpt><trkpt lat="44.0035633" lon="8.0969833"><ele>76.0</ele><time>2026-04-17T17:48:28.067Z</time></trkpt><trkpt lat="44.003535" lon="8.0971817"><ele>76.0</ele><time>2026-04-17T17:48:29.067Z</time></trkpt><trkpt lat="44.003505" lon="8.09736"><ele>76.0</ele><time>2026-04-17T17:48:30.066Z</time></trkpt><trkpt lat="44.0034867" lon="8.09751"><ele>76.6</ele><time>2026-04-17T17:48:31.067Z</time></trkpt><trkpt lat="44.0034667" lon="8.09765"><ele>77.19999999999999</ele><time>2026-04-17T17:48:32.067Z</time></trkpt><trkpt lat="44.0034417" lon="8.0977933"><ele>77.80000000000001</ele><time>2026-04-17T17:48:33.066Z</time></trkpt><trkpt lat="44.0034133" lon="8.0979483"><ele>78.4</ele><time>2026-04-17T17:48:34.066Z</time></trkpt><trkpt lat="44.0033833" lon="8.098115"><ele>79.0</ele><time>2026-04-17T17:48:35.067Z</time></trkpt><trkpt lat="44.00334" lon="8.0982533"><ele>77.0</ele><time>2026-04-17T17:48:36.067Z</time></trkpt><trkpt lat="44.0032867" lon="8.0983933"><ele>75.0</ele><time>2026-04-17T17:48:37.066Z</time></trkpt><trkpt lat="44.0032133" lon="8.0985183"><ele>73.0</ele><time>2026-04-17T17:48:38.066Z</time></trkpt><trkpt lat="44.0031267" lon="8.0986517"><ele>71.0</ele><time>2026-04-17T17:48:39.065Z</time></trkpt><trkpt lat="44.00302" lon="8.0987617"><ele>71.0</ele><time>2026-04-17T17:48:40.066Z</time></trkpt><trkpt lat="44.0029167" lon="8.0989133"><ele>71.0</ele><time>2026-04-17T17:48:41.066Z</time></trkpt><trkpt lat="44.00282" lon="8.0991117"><ele>71.0</ele><time>2026-04-17T17:48:42.066Z</time></trkpt><trkpt lat="44.002735" lon="8.09932"><ele>71.0</ele><time>2026-04-17T17:48:43.066Z</time></trkpt><trkpt lat="44.0026517" lon="8.0995317"><ele>71.0</ele><time>2026-04-17T17:48:44.066Z</time></trkpt><trkpt lat="44.002585" lon="8.0997383"><ele>71.0</ele><time>2026-04-17T17:48:45.066Z</time></trkpt><trkpt lat="44.0025317" lon="8.0999183"><ele>71.0</ele><time>2026-04-17T17:48:46.065Z</time></trkpt><trkpt lat="44.0024783" lon="8.1000883"><ele>71.0</ele><time>2026-04-17T17:48:47.066Z</time></trkpt><trkpt lat="44.0024217" lon="8.1002617"><ele>71.0</ele><time>2026-04-17T17:48:48.066Z</time></trkpt><trkpt lat="44.00238" lon="8.1004233"><ele>71.0</ele><time>2026-04-17T17:48:49.065Z</time></trkpt><trkpt lat="44.0023533" lon="8.1006033"><ele>70.0</ele><time>2026-04-17T17:48:50.065Z</time></trkpt><trkpt lat="44.0023383" lon="8.1007967"><ele>69.0</ele><time>2026-04-17T17:48:51.065Z</time></trkpt><trkpt lat="44.0023267" lon="8.1009833"><ele>68.0</ele><time>2026-04-17T17:48:52.066Z</time></trkpt><trkpt lat="44.0023183" lon="8.1011667"><ele>67.0</ele><time>2026-04-17T17:48:53.066Z</time></trkpt><trkpt lat="44.0023" lon="8.1013483"><ele>67.0</ele><time>2026-04-17T17:48:54.066Z</time></trkpt><trkpt lat="44.002275" lon="8.1015367"><ele>67.0</ele><time>2026-04-17T17:48:55.066Z</time></trkpt><trkpt lat="44.0022517" lon="8.1017433"><ele>67.0</ele><time>2026-04-17T17:48:56.066Z</time></trkpt><trkpt lat="44.0022317" lon="8.101965"><ele>67.0</ele><time>2026-04-17T17:48:57.066Z</time></trkpt><trkpt lat="44.0022117" lon="8.1021867"><ele>66.5</ele><time>2026-04-17T17:48:58.066Z</time></trkpt><trkpt lat="44.002195" lon="8.1024"><ele>66.0</ele><time>2026-04-17T17:48:59.066Z</time></trkpt><trkpt lat="44.0021667" lon="8.1026083"><ele>65.5</ele><time>2026-04-17T17:49:00.066Z</time></trkpt><trkpt lat="44.0021467" lon="8.1028"><ele>65.0</ele><time>2026-04-17T17:49:01.066Z</time></trkpt><trkpt lat="44.0021283" lon="8.10298"><ele>64.75</ele><time>2026-04-17T17:49:02.065Z</time></trkpt><trkpt lat="44.0021067" lon="8.103155"><ele>64.5</ele><time>2026-04-17T17:49:03.066Z</time></trkpt><trkpt lat="44.0020883" lon="8.1033433"><ele>64.25</ele><time>2026-04-17T17:49:04.065Z</time></trkpt><trkpt lat="44.0020717" lon="8.1035433"><ele>64.0</ele><time>2026-04-17T17:49:05.065Z</time></trkpt><trkpt lat="44.00205" lon="8.1037517"><ele>64.0</ele><time>2026-04-17T17:49:06.065Z</time></trkpt><trkpt lat="44.0020133" lon="8.1039417"><ele>64.0</ele><time>2026-04-17T17:49:07.065Z</time></trkpt><trkpt lat="44.0019717" lon="8.104115"><ele>64.0</ele><time>2026-04-17T17:49:08.065Z</time></trkpt><trkpt lat="44.0019167" lon="8.1042633"><ele>64.0</ele><time>2026-04-17T17:49:09.066Z</time></trkpt><trkpt lat="44.0018517" lon="8.1044067"><ele>63.75</ele><time>2026-04-17T17:49:10.065Z</time></trkpt><trkpt lat="44.001765" lon="8.1045417"><ele>63.5</ele><time>2026-04-17T17:49:11.065Z</time></trkpt><trkpt lat="44.0016767" lon="8.10468"><ele>63.25</ele><time>2026-04-17T17:49:12.066Z</time></trkpt><trkpt lat="44.001585" lon="8.104815"><ele>63.0</ele><time>2026-04-17T17:49:13.066Z</time></trkpt><trkpt lat="44.0015" lon="8.1049517"><ele>63.0</ele><time>2026-04-17T17:49:14.065Z</time></trkpt><trkpt lat="44.0014183" lon="8.1051033"><ele>63.0</ele><time>2026-04-17T17:49:15.066Z</time></trkpt><trkpt lat="44.0013167" lon="8.1052567"><ele>63.0</ele><time>2026-04-17T17:49:16.065Z</time></trkpt><trkpt lat="44.0012433" lon="8.1054333"><ele>63.0</ele><time>2026-04-17T17:49:17.066Z</time></trkpt><trkpt lat="44.0011317" lon="8.1055867"><ele>63.0</ele><time>2026-04-17T17:49:18.066Z</time></trkpt><trkpt lat="44.00103" lon="8.10574"><ele>63.0</ele><time>2026-04-17T17:49:19.065Z</time></trkpt><trkpt lat="44.0009233" lon="8.1059083"><ele>63.0</ele><time>2026-04-17T17:49:20.065Z</time></trkpt><trkpt lat="44.00082" lon="8.106075"><ele>61.66666666666667</ele><time>2026-04-17T17:49:21.066Z</time></trkpt><trkpt lat="44.0007167" lon="8.10623"><ele>60.333333333333336</ele><time>2026-04-17T17:49:22.065Z</time></trkpt><trkpt lat="44.0006017" lon="8.1063983"><ele>59.0</ele><time>2026-04-17T17:49:23.065Z</time></trkpt><trkpt lat="44.00049" lon="8.1065667"><ele>59.333333333333336</ele><time>2026-04-17T17:49:24.065Z</time></trkpt><trkpt lat="44.0004033" lon="8.1067533"><ele>59.66666666666667</ele><time>2026-04-17T17:49:25.065Z</time></trkpt><trkpt lat="44.0003417" lon="8.1069433"><ele>60.0</ele><time>2026-04-17T17:49:26.066Z</time></trkpt><trkpt lat="44.0002883" lon="8.1071567"><ele>60.0</ele><time>2026-04-17T17:49:27.066Z</time></trkpt><trkpt lat="44.000245" lon="8.1073733"><ele>60.0</ele><time>2026-04-17T17:49:28.066Z</time></trkpt><trkpt lat="44.0002067" lon="8.1075917"><ele>60.0</ele><time>2026-04-17T17:49:29.066Z</time></trkpt><trkpt lat="44.0001783" lon="8.10782"><ele>60.25</ele><time>2026-04-17T17:49:30.065Z</time></trkpt><trkpt lat="44.0001433" lon="8.1080217"><ele>60.5</ele><time>2026-04-17T17:49:31.066Z</time></trkpt><trkpt lat="44.0001067" lon="8.108215"><ele>60.75</ele><time>2026-04-17T17:49:32.066Z</time></trkpt><trkpt lat="44.000065" lon="8.1084033"><ele>61.0</ele><time>2026-04-17T17:49:33.066Z</time></trkpt><trkpt lat="43.9999967" lon="8.1086017"><ele>61.0</ele><time>2026-04-17T17:49:34.066Z</time></trkpt><trkpt lat="43.9999167" lon="8.1088083"><ele>61.0</ele><time>2026-04-17T17:49:35.065Z</time></trkpt><trkpt lat="43.9998267" lon="8.10902"><ele>61.0</ele><time>2026-04-17T17:49:36.066Z</time></trkpt><trkpt lat="43.9997233" lon="8.109235"><ele>63.0</ele><time>2026-04-17T17:49:37.066Z</time></trkpt><trkpt lat="43.9996383" lon="8.1094267"><ele>65.0</ele><time>2026-04-17T17:49:38.066Z</time></trkpt><trkpt lat="43.9995517" lon="8.10961"><ele>67.0</ele><time>2026-04-17T17:49:39.066Z</time></trkpt><trkpt lat="43.99947" lon="8.10979"><ele>64.33333333333333</ele><time>2026-04-17T17:49:40.066Z</time></trkpt><trkpt lat="43.9993583" lon="8.1099683"><ele>61.66666666666667</ele><time>2026-04-17T17:49:41.065Z</time></trkpt><trkpt lat="43.9992267" lon="8.1101333"><ele>59.0</ele><time>2026-04-17T17:49:42.065Z</time></trkpt><trkpt lat="43.9990933" lon="8.1103017"><ele>59.0</ele><time>2026-04-17T17:49:43.066Z</time></trkpt><trkpt lat="43.998955" lon="8.1104667"><ele>59.0</ele><time>2026-04-17T17:49:44.065Z</time></trkpt><trkpt lat="43.9988233" lon="8.1106417"><ele>59.0</ele><time>2026-04-17T17:49:45.065Z</time></trkpt><trkpt lat="43.9986817" lon="8.1108133"><ele>60.0</ele><time>2026-04-17T17:49:46.065Z</time></trkpt><trkpt lat="43.99855" lon="8.110975"><ele>61.0</ele><time>2026-04-17T17:49:47.066Z</time></trkpt><trkpt lat="43.9984333" lon="8.11112"><ele>62.0</ele><time>2026-04-17T17:49:48.065Z</time></trkpt><trkpt lat="43.998325" lon="8.11126"><ele>62.333333333333336</ele><time>2026-04-17T17:49:49.066Z</time></trkpt><trkpt lat="43.9982033" lon="8.1113867"><ele>62.66666666666667</ele><time>2026-04-17T17:49:50.065Z</time></trkpt><trkpt lat="43.9980817" lon="8.1115283"><ele>63.0</ele><time>2026-04-17T17:49:51.066Z</time></trkpt><trkpt lat="43.997955" lon="8.1116617"><ele>63.0</ele><time>2026-04-17T17:49:52.065Z</time></trkpt><trkpt lat="43.9978267" lon="8.1117967"><ele>63.0</ele><time>2026-04-17T17:49:53.066Z</time></trkpt><trkpt lat="43.9977083" lon="8.111925"><ele>63.0</ele><time>2026-04-17T17:49:54.066Z</time></trkpt><trkpt lat="43.99758" lon="8.1120433"><ele>61.33333333333333</ele><time>2026-04-17T17:49:55.066Z</time></trkpt><trkpt lat="43.9974567" lon="8.1121817"><ele>59.666666666666664</ele><time>2026-04-17T17:49:56.066Z</time></trkpt><trkpt lat="43.9973167" lon="8.112325"><ele>58.0</ele><time>2026-04-17T17:49:57.066Z</time></trkpt><trkpt lat="43.99719" lon="8.1124583"><ele>58.0</ele><time>2026-04-17T17:49:58.065Z</time></trkpt><trkpt lat="43.997055" lon="8.11259"><ele>58.0</ele><time>2026-04-17T17:49:59.065Z</time></trkpt><trkpt lat="43.9969167" lon="8.1127333"><ele>58.0</ele><time>2026-04-17T17:50:00.066Z</time></trkpt><trkpt lat="43.9967683" lon="8.1128833"><ele>57.33333333333333</ele><time>2026-04-17T17:50:01.065Z</time></trkpt><trkpt lat="43.9966383" lon="8.1130333"><ele>56.66666666666667</ele><time>2026-04-17T17:50:02.065Z</time></trkpt><trkpt lat="43.9965317" lon="8.1131783"><ele>56.0</ele><time>2026-04-17T17:50:03.066Z</time></trkpt><trkpt lat="43.9964367" lon="8.113325"><ele>56.0</ele><time>2026-04-17T17:50:04.066Z</time></trkpt><trkpt lat="43.9963317" lon="8.1134733"><ele>56.0</ele><time>2026-04-17T17:50:05.066Z</time></trkpt><trkpt lat="43.996225" lon="8.113585"><ele>56.0</ele><time>2026-04-17T17:50:06.066Z</time></trkpt><trkpt lat="43.9961167" lon="8.1136817"><ele>56.0</ele><time>2026-04-17T17:50:07.066Z</time></trkpt><trkpt lat="43.9960267" lon="8.1137683"><ele>56.00000000000001</ele><time>2026-04-17T17:50:08.066Z</time></trkpt><trkpt lat="43.995965" lon="8.1138317"><ele>56.0</ele><time>2026-04-17T17:50:09.066Z</time></trkpt><trkpt lat="43.995905" lon="8.1138933"><ele>56.0</ele><time>2026-04-17T17:50:10.066Z</time></trkpt><trkpt lat="43.995835" lon="8.113955"><ele>56.0</ele><time>2026-04-17T17:50:12.066Z</time></trkpt><trkpt lat="43.9958917" lon="8.1140167"><ele>56.00000000000001</ele><time>2026-04-17T17:50:16.066Z</time></trkpt><trkpt lat="43.9959417" lon="8.11409"><ele>56.0</ele><time>2026-04-17T17:50:35.065Z</time></trkpt><trkpt lat="43.9960017" lon="8.114185"><ele>57.199999999999996</ele><time>2026-04-17T17:50:37.066Z</time></trkpt><trkpt lat="43.9960517" lon="8.1142833"><ele>58.39999999999999</ele><time>2026-04-17T17:50:39.066Z</time></trkpt><trkpt lat="43.99611" lon="8.114355"><ele>59.6</ele><time>2026-04-17T17:50:42.066Z</time></trkpt><trkpt lat="43.99619" lon="8.114425"><ele>60.8</ele><time>2026-04-17T17:51:14.066Z</time></trkpt><trkpt lat="43.996315" lon="8.1144717"><ele>62.0</ele><time>2026-04-17T17:51:16.065Z</time></trkpt><trkpt lat="43.9964033" lon="8.1144533"><ele>62.0</ele><time>2026-04-17T17:51:17.066Z</time></trkpt><trkpt lat="43.996495" lon="8.11441"><ele>62.0</ele><time>2026-04-17T17:51:18.065Z</time></trkpt><trkpt lat="43.9966033" lon="8.114345"><ele>62.0</ele><time>2026-04-17T17:51:19.065Z</time></trkpt><trkpt lat="43.9967183" lon="8.1142767"><ele>62.0</ele><time>2026-04-17T17:51:20.065Z</time></trkpt><trkpt lat="43.9968267" lon="8.1142367"><ele>64.4</ele><time>2026-04-17T17:51:21.065Z</time></trkpt><trkpt lat="43.996945" lon="8.1142267"><ele>66.80000000000001</ele><time>2026-04-17T17:51:22.065Z</time></trkpt><trkpt lat="43.9970533" lon="8.1142333"><ele>69.2</ele><time>2026-04-17T17:51:23.065Z</time></trkpt><trkpt lat="43.9971583" lon="8.1142417"><ele>71.60000000000001</ele><time>2026-04-17T17:51:24.066Z</time></trkpt><trkpt lat="43.99725" lon="8.1142633"><ele>74.0</ele><time>2026-04-17T17:51:25.065Z</time></trkpt><trkpt lat="43.99734" lon="8.114305"><ele>74.0</ele><time>2026-04-17T17:51:26.066Z</time></trkpt><trkpt lat="43.9974317" lon="8.1143583"><ele>74.0</ele><time>2026-04-17T17:51:27.066Z</time></trkpt><trkpt lat="43.9975117" lon="8.1144083"><ele>74.0</ele><time>2026-04-17T17:51:28.066Z</time></trkpt><trkpt lat="43.9975883" lon="8.1144267"><ele>74.0</ele><time>2026-04-17T17:51:29.066Z</time></trkpt><trkpt lat="43.997675" lon="8.1144283"><ele>74.0</ele><time>2026-04-17T17:51:30.065Z</time></trkpt><trkpt lat="43.9977733" lon="8.1144267"><ele>76.75</ele><time>2026-04-17T17:51:31.066Z</time></trkpt><trkpt lat="43.9978817" lon="8.114415"><ele>79.5</ele><time>2026-04-17T17:51:32.065Z</time></trkpt><trkpt lat="43.9979983" lon="8.1143917"><ele>82.25</ele><time>2026-04-17T17:51:33.065Z</time></trkpt><trkpt lat="43.99812" lon="8.11438"><ele>85.0</ele><time>2026-04-17T17:51:34.065Z</time></trkpt><trkpt lat="43.9982283" lon="8.1143867"><ele>85.0</ele><time>2026-04-17T17:51:35.066Z</time></trkpt><trkpt lat="43.9983167" lon="8.11441"><ele>85.0</ele><time>2026-04-17T17:51:36.065Z</time></trkpt><trkpt lat="43.9983933" lon="8.1144517"><ele>85.0</ele><time>2026-04-17T17:51:37.065Z</time></trkpt><trkpt lat="43.9984617" lon="8.114495"><ele>85.0</ele><time>2026-04-17T17:51:38.066Z</time></trkpt><trkpt lat="43.9985267" lon="8.1145333"><ele>85.0</ele><time>2026-04-17T17:51:39.066Z</time></trkpt><trkpt lat="43.998615" lon="8.1145967"><ele>85.0</ele><time>2026-04-17T17:51:41.065Z</time></trkpt><trkpt lat="43.9987067" lon="8.11465"><ele>84.5</ele><time>2026-04-17T17:51:43.065Z</time></trkpt><trkpt lat="43.9987833" lon="8.11472"><ele>84.0</ele><time>2026-04-17T17:51:45.066Z</time></trkpt><trkpt lat="43.998865" lon="8.1147883"><ele>83.5</ele><time>2026-04-17T17:51:47.066Z</time></trkpt><trkpt lat="43.9989617" lon="8.1148967"><ele>83.0</ele><time>2026-04-17T17:51:49.066Z</time></trkpt><trkpt lat="43.9990117" lon="8.1149517"><ele>82.5</ele><time>2026-04-17T17:51:50.066Z</time></trkpt><trkpt lat="43.9990617" lon="8.115005"><ele>82.0</ele><time>2026-04-17T17:51:51.065Z</time></trkpt><trkpt lat="43.9991117" lon="8.1150683"><ele>83.85714285714285</ele><time>2026-04-17T17:51:52.066Z</time></trkpt><trkpt lat="43.999165" lon="8.1151233"><ele>85.71428571428571</ele><time>2026-04-17T17:51:53.066Z</time></trkpt><trkpt lat="43.9992233" lon="8.11518"><ele>87.57142857142857</ele><time>2026-04-17T17:51:54.065Z</time></trkpt><trkpt lat="43.999285" lon="8.1152317"><ele>89.42857142857142</ele><time>2026-04-17T17:51:55.065Z</time></trkpt><trkpt lat="43.9993467" lon="8.1152967"><ele>91.28571428571429</ele><time>2026-04-17T17:51:56.065Z</time></trkpt><trkpt lat="43.999405" lon="8.1153717"><ele>93.14285714285714</ele><time>2026-04-17T17:51:57.065Z</time></trkpt><trkpt lat="43.999445" lon="8.1154483"><ele>95.0</ele><time>2026-04-17T17:51:58.066Z</time></trkpt><trkpt lat="43.9994967" lon="8.1155033"><ele>95.0</ele><time>2026-04-17T17:51:59.065Z</time></trkpt><trkpt lat="43.999565" lon="8.1155783"><ele>95.0</ele><time>2026-04-17T17:52:01.066Z</time></trkpt><trkpt lat="43.99963" lon="8.11567"><ele>95.0</ele><time>2026-04-17T17:53:28.065Z</time></trkpt><trkpt lat="43.9997333" lon="8.11572"><ele>95.0</ele><time>2026-04-17T17:53:30.065Z</time></trkpt><trkpt lat="43.9998033" lon="8.1157583"><ele>95.0</ele><time>2026-04-17T17:53:31.066Z</time></trkpt><trkpt lat="43.9998783" lon="8.1158117"><ele>95.0</ele><time>2026-04-17T17:53:32.066Z</time></trkpt><trkpt lat="43.9999417" lon="8.1158733"><ele>98.42857142857143</ele><time>2026-04-17T17:53:33.065Z</time></trkpt><trkpt lat="44.0000167" lon="8.115925"><ele>101.85714285714286</ele><time>2026-04-17T17:53:34.066Z</time></trkpt><trkpt lat="44.0000867" lon="8.1159733"><ele>105.28571428571428</ele><time>2026-04-17T17:53:35.065Z</time></trkpt><trkpt lat="44.0001483" lon="8.116015"><ele>108.71428571428572</ele><time>2026-04-17T17:53:36.066Z</time></trkpt><trkpt lat="44.00021" lon="8.1160333"><ele>112.14285714285714</ele><time>2026-04-17T17:53:37.066Z</time></trkpt><trkpt lat="44.0002717" lon="8.1160567"><ele>115.57142857142857</ele><time>2026-04-17T17:53:38.066Z</time></trkpt><trkpt lat="44.0003433" lon="8.11608"><ele>119.0</ele><time>2026-04-17T17:53:39.066Z</time></trkpt><trkpt lat="44.0004233" lon="8.116105"><ele>118.99999999999999</ele><time>2026-04-17T17:53:40.066Z</time></trkpt><trkpt lat="44.0004967" lon="8.116135"><ele>119.0</ele><time>2026-04-17T17:53:41.065Z</time></trkpt><trkpt lat="44.0005783" lon="8.1161767"><ele>119.0</ele><time>2026-04-17T17:53:42.066Z</time></trkpt><trkpt lat="44.0006617" lon="8.116225"><ele>119.0</ele><time>2026-04-17T17:53:43.066Z</time></trkpt><trkpt lat="44.0007567" lon="8.116275"><ele>118.99999999999999</ele><time>2026-04-17T17:53:44.065Z</time></trkpt><trkpt lat="44.000835" lon="8.1163283"><ele>119.0</ele><time>2026-04-17T17:53:45.066Z</time></trkpt><trkpt lat="44.00092" lon="8.1163767"><ele>117.99999999999999</ele><time>2026-04-17T17:53:46.065Z</time></trkpt><trkpt lat="44.000995" lon="8.1164183"><ele>117.0</ele><time>2026-04-17T17:53:47.065Z</time></trkpt><trkpt lat="44.001065" lon="8.1164583"><ele>116.0</ele><time>2026-04-17T17:53:48.065Z</time></trkpt><trkpt lat="44.001145" lon="8.1164883"><ele>115.0</ele><time>2026-04-17T17:53:49.066Z</time></trkpt><trkpt lat="44.00122" lon="8.1165017"><ele>113.99999999999999</ele><time>2026-04-17T17:53:50.065Z</time></trkpt><trkpt lat="44.0013417" lon="8.11654"><ele>113.0</ele><time>2026-04-17T17:53:52.065Z</time></trkpt><trkpt lat="44.001415" lon="8.11656"><ele>116.49999999999999</ele><time>2026-04-17T17:53:53.066Z</time></trkpt><trkpt lat="44.001485" lon="8.116585"><ele>120.0</ele><time>2026-04-17T17:53:54.065Z</time></trkpt><trkpt lat="44.0015467" lon="8.1166117"><ele>123.5</ele><time>2026-04-17T17:53:55.065Z</time></trkpt><trkpt lat="44.0016533" lon="8.1166583"><ele>127.0</ele><time>2026-04-17T17:53:57.065Z</time></trkpt><trkpt lat="44.0015767" lon="8.1166433"><ele>130.5</ele><time>2026-04-17T17:54:28.065Z</time></trkpt><trkpt lat="44.0015033" lon="8.1166167"><ele>134.0</ele><time>2026-04-17T17:54:29.066Z</time></trkpt><trkpt lat="44.0014167" lon="8.11659"><ele>130.5</ele><time>2026-04-17T17:54:30.066Z</time></trkpt><trkpt lat="44.0013333" lon="8.11656"><ele>127.0</ele><time>2026-04-17T17:54:31.066Z</time></trkpt><trkpt lat="44.0012533" lon="8.1165333"><ele>123.5</ele><time>2026-04-17T17:54:32.066Z</time></trkpt><trkpt lat="44.0011617" lon="8.1165083"><ele>120.0</ele><time>2026-04-17T17:54:33.065Z</time></trkpt><trkpt lat="44.00109" lon="8.1164883"><ele>116.49999999999999</ele><time>2026-04-17T17:54:34.066Z</time></trkpt><trkpt lat="44.001015" lon="8.1164667"><ele>113.0</ele><time>2026-04-17T17:54:35.066Z</time></trkpt><trkpt lat="44.0009317" lon="8.116435"><ele>113.0</ele><time>2026-04-17T17:54:36.066Z</time></trkpt><trkpt lat="44.0008467" lon="8.1163883"><ele>113.00000000000001</ele><time>2026-04-17T17:54:37.065Z</time></trkpt><trkpt lat="44.0007667" lon="8.11634"><ele>113.00000000000001</ele><time>2026-04-17T17:54:38.065Z</time></trkpt><trkpt lat="44.000685" lon="8.1162917"><ele>113.0</ele><time>2026-04-17T17:54:39.065Z</time></trkpt><trkpt lat="44.0006017" lon="8.1162467"><ele>113.0</ele><time>2026-04-17T17:54:40.065Z</time></trkpt><trkpt lat="44.00051" lon="8.1161983"><ele>114.2</ele><time>2026-04-17T17:54:41.065Z</time></trkpt><trkpt lat="44.0004167" lon="8.1161583"><ele>115.4</ele><time>2026-04-17T17:54:42.065Z</time></trkpt><trkpt lat="44.0003217" lon="8.1161183"><ele>116.60000000000001</ele><time>2026-04-17T17:54:43.065Z</time></trkpt><trkpt lat="44.0002283" lon="8.1160667"><ele>117.80000000000001</ele><time>2026-04-17T17:54:44.065Z</time></trkpt><trkpt lat="44.0001433" lon="8.1160117"><ele>119.0</ele><time>2026-04-17T17:54:45.066Z</time></trkpt><trkpt lat="44.00007" lon="8.115955"><ele>119.0</ele><time>2026-04-17T17:54:46.066Z</time></trkpt><trkpt lat="44.000005" lon="8.115905"><ele>119.0</ele><time>2026-04-17T17:54:47.065Z</time></trkpt><trkpt lat="43.99995" lon="8.1158517"><ele>119.0</ele><time>2026-04-17T17:54:48.066Z</time></trkpt><trkpt lat="43.9998883" lon="8.1158033"><ele>119.0</ele><time>2026-04-17T17:54:49.065Z</time></trkpt><trkpt lat="43.9998217" lon="8.115765"><ele>119.0</ele><time>2026-04-17T17:54:50.065Z</time></trkpt><trkpt lat="43.9997617" lon="8.11573"><ele>119.0</ele><time>2026-04-17T17:54:51.065Z</time></trkpt><trkpt lat="43.9997" lon="8.1156933"><ele>119.0</ele><time>2026-04-17T17:54:52.066Z</time></trkpt><trkpt lat="43.9995833" lon="8.115645"><ele>118.99999999999999</ele><time>2026-04-17T17:54:54.065Z</time></trkpt><trkpt lat="43.9995083" lon="8.1156083"><ele>119.0</ele><time>2026-04-17T17:54:56.066Z</time></trkpt><trkpt lat="43.999545" lon="8.115525"><ele>119.0</ele><time>2026-04-17T17:55:00.066Z</time></trkpt><trkpt lat="43.9994783" lon="8.1155817"><ele>119.0</ele><time>2026-04-17T17:55:39.065Z</time></trkpt><trkpt lat="43.9995383" lon="8.1156933"><ele>118.99999999999999</ele><time>2026-04-17T17:55:55.066Z</time></trkpt><trkpt lat="43.9996317" lon="8.115785"><ele>119.0</ele><time>2026-04-17T17:55:57.065Z</time></trkpt><trkpt lat="43.9997333" lon="8.1158683"><ele>118.99999999999999</ele><time>2026-04-17T17:55:59.066Z</time></trkpt><trkpt lat="43.9997883" lon="8.1159233"><ele>119.0</ele><time>2026-04-17T17:56:00.065Z</time></trkpt><trkpt lat="43.9998483" lon="8.1159817"><ele>119.0</ele><time>2026-04-17T17:56:01.066Z</time></trkpt><trkpt lat="43.99994" lon="8.116085"><ele>119.0</ele><time>2026-04-17T17:56:03.066Z</time></trkpt><trkpt lat="44.00002" lon="8.1161717"><ele>118.99999999999999</ele><time>2026-04-17T17:56:05.066Z</time></trkpt><trkpt lat="44.00009" lon="8.1162233"><ele>119.0</ele><time>2026-04-17T17:56:07.065Z</time></trkpt><trkpt lat="44.0001683" lon="8.1163033"><ele>118.99999999999999</ele><time>2026-04-17T17:56:09.065Z</time></trkpt><trkpt lat="44.0002283" lon="8.1163767"><ele>119.0</ele><time>2026-04-17T17:56:11.065Z</time></trkpt><trkpt lat="44.000305" lon="8.11644"><ele>119.0</ele><time>2026-04-17T17:56:13.066Z</time></trkpt><trkpt lat="44.0003617" lon="8.1164917"><ele>119.0</ele><time>2026-04-17T17:56:15.066Z</time></trkpt><trkpt lat="44.0004417" lon="8.11657"><ele>118.99999999999999</ele><time>2026-04-17T17:56:17.066Z</time></trkpt><trkpt lat="44.0005167" lon="8.1166283"><ele>119.0</ele><time>2026-04-17T17:56:19.065Z</time></trkpt><trkpt lat="44.0006" lon="8.1167033"><ele>118.99999999999999</ele><time>2026-04-17T17:56:21.065Z</time></trkpt><trkpt lat="44.000525" lon="8.1166383"><ele>119.0</ele><time>2026-04-17T17:58:11.065Z</time></trkpt><trkpt lat="44.000445" lon="8.1165733"><ele>119.0</ele><time>2026-04-17T17:58:13.065Z</time></trkpt><trkpt lat="44.000375" lon="8.1164983"><ele>119.0</ele><time>2026-04-17T17:58:15.066Z</time></trkpt><trkpt lat="44.00031" lon="8.1164433"><ele>118.99999999999999</ele><time>2026-04-17T17:58:17.065Z</time></trkpt><trkpt lat="44.00024" lon="8.1163667"><ele>119.0</ele><time>2026-04-17T17:58:19.066Z</time></trkpt><trkpt lat="44.0001567" lon="8.1162867"><ele>119.0</ele><time>2026-04-17T17:58:21.065Z</time></trkpt><trkpt lat="44.0000667" lon="8.1162083"><ele>119.0</ele><time>2026-04-17T17:58:23.065Z</time></trkpt><trkpt lat="43.9999767" lon="8.1161183"><ele>119.0</ele><time>2026-04-17T17:58:25.065Z</time></trkpt><trkpt lat="43.9998867" lon="8.11601"><ele>119.0</ele><time>2026-04-17T17:58:27.066Z</time></trkpt><trkpt lat="43.9998" lon="8.1159167"><ele>119.0</ele><time>2026-04-17T17:58:29.065Z</time></trkpt><trkpt lat="43.9997483" lon="8.1158667"><ele>118.99999999999999</ele><time>2026-04-17T17:58:30.066Z</time></trkpt><trkpt lat="43.9996583" lon="8.115795"><ele>119.0</ele><time>2026-04-17T17:58:32.065Z</time></trkpt><trkpt lat="43.9995767" lon="8.1157083"><ele>119.0</ele><time>2026-04-17T17:58:34.066Z</time></trkpt><trkpt lat="43.9995317" lon="8.11562"><ele>119.0</ele><time>2026-04-17T17:58:37.066Z</time></trkpt><trkpt lat="43.9995083" lon="8.11552"><ele>118.99999999999999</ele><time>2026-04-17T17:58:39.065Z</time></trkpt><trkpt lat="43.999475" lon="8.115425"><ele>119.0</ele><time>2026-04-17T17:58:40.065Z</time></trkpt><trkpt lat="43.9994367" lon="8.1153517"><ele>115.66666666666666</ele><time>2026-04-17T17:58:41.065Z</time></trkpt><trkpt lat="43.9993817" lon="8.1152817"><ele>112.33333333333333</ele><time>2026-04-17T17:58:42.066Z</time></trkpt><trkpt lat="43.99932" lon="8.1152167"><ele>109.0</ele><time>2026-04-17T17:58:43.066Z</time></trkpt><trkpt lat="43.999245" lon="8.1151583"><ele>105.66666666666666</ele><time>2026-04-17T17:58:44.065Z</time></trkpt><trkpt lat="43.9991833" lon="8.1150983"><ele>102.33333333333333</ele><time>2026-04-17T17:58:45.065Z</time></trkpt><trkpt lat="43.99912" lon="8.1150383"><ele>99.0</ele><time>2026-04-17T17:58:46.065Z</time></trkpt><trkpt lat="43.9990617" lon="8.1149917"><ele>96.16666666666667</ele><time>2026-04-17T17:58:47.066Z</time></trkpt><trkpt lat="43.998965" lon="8.11488"><ele>93.33333333333333</ele><time>2026-04-17T17:58:49.065Z</time></trkpt><trkpt lat="43.9989167" lon="8.11482"><ele>90.5</ele><time>2026-04-17T17:58:50.066Z</time></trkpt><trkpt lat="43.99887" lon="8.11476"><ele>87.66666666666666</ele><time>2026-04-17T17:58:51.066Z</time></trkpt><trkpt lat="43.998795" lon="8.1147383"><ele>84.83333333333333</ele><time>2026-04-17T17:58:52.065Z</time></trkpt><trkpt lat="43.9987333" lon="8.1146817"><ele>82.0</ele><time>2026-04-17T17:58:53.065Z</time></trkpt><trkpt lat="43.998665" lon="8.1146217"><ele>82.0</ele><time>2026-04-17T17:58:54.066Z</time></trkpt><trkpt lat="43.9985833" lon="8.1145483"><ele>82.0</ele><time>2026-04-17T17:58:55.065Z</time></trkpt><trkpt lat="43.99849" lon="8.11449"><ele>82.0</ele><time>2026-04-17T17:58:56.066Z</time></trkpt><trkpt lat="43.9983883" lon="8.1144217"><ele>82.0</ele><time>2026-04-17T17:58:57.066Z</time></trkpt><trkpt lat="43.998285" lon="8.1143617"><ele>82.0</ele><time>2026-04-17T17:58:58.066Z</time></trkpt><trkpt lat="43.9981983" lon="8.114335"><ele>82.6</ele><time>2026-04-17T17:58:59.066Z</time></trkpt><trkpt lat="43.9981083" lon="8.114335"><ele>83.19999999999999</ele><time>2026-04-17T17:59:00.065Z</time></trkpt><trkpt lat="43.9980033" lon="8.11436"><ele>83.8</ele><time>2026-04-17T17:59:01.066Z</time></trkpt><trkpt lat="43.9978967" lon="8.1143917"><ele>84.4</ele><time>2026-04-17T17:59:02.065Z</time></trkpt><trkpt lat="43.9977883" lon="8.1144167"><ele>85.0</ele><time>2026-04-17T17:59:03.066Z</time></trkpt><trkpt lat="43.99769" lon="8.1144233"><ele>85.0</ele><time>2026-04-17T17:59:04.066Z</time></trkpt><trkpt lat="43.9975967" lon="8.114405"><ele>85.0</ele><time>2026-04-17T17:59:05.065Z</time></trkpt><trkpt lat="43.9975167" lon="8.1143933"><ele>85.0</ele><time>2026-04-17T17:59:06.065Z</time></trkpt><trkpt lat="43.997425" lon="8.1143567"><ele>85.0</ele><time>2026-04-17T17:59:07.066Z</time></trkpt><trkpt lat="43.997335" lon="8.114295"><ele>85.0</ele><time>2026-04-17T17:59:08.065Z</time></trkpt><trkpt lat="43.997235" lon="8.1142383"><ele>82.8</ele><time>2026-04-17T17:59:09.065Z</time></trkpt><trkpt lat="43.997135" lon="8.1142117"><ele>80.6</ele><time>2026-04-17T17:59:10.066Z</time></trkpt><trkpt lat="43.9970283" lon="8.1142"><ele>78.4</ele><time>2026-04-17T17:59:11.065Z</time></trkpt><trkpt lat="43.9969233" lon="8.1141967"><ele>76.2</ele><time>2026-04-17T17:59:12.066Z</time></trkpt><trkpt lat="43.9968367" lon="8.11421"><ele>74.0</ele><time>2026-04-17T17:59:13.066Z</time></trkpt><trkpt lat="43.9967533" lon="8.11425"><ele>72.0</ele><time>2026-04-17T17:59:14.065Z</time></trkpt><trkpt lat="43.9966667" lon="8.1142933"><ele>70.0</ele><time>2026-04-17T17:59:15.066Z</time></trkpt><trkpt lat="43.99658" lon="8.114345"><ele>68.0</ele><time>2026-04-17T17:59:16.066Z</time></trkpt><trkpt lat="43.9965" lon="8.1144"><ele>66.0</ele><time>2026-04-17T17:59:17.066Z</time></trkpt><trkpt lat="43.9964167" lon="8.114445"><ele>64.0</ele><time>2026-04-17T17:59:18.066Z</time></trkpt><trkpt lat="43.9963417" lon="8.114475"><ele>62.0</ele><time>2026-04-17T17:59:19.066Z</time></trkpt><trkpt lat="43.996275" lon="8.11448"><ele>62.00000000000001</ele><time>2026-04-17T17:59:20.065Z</time></trkpt><trkpt lat="43.9961967" lon="8.114445"><ele>62.0</ele><time>2026-04-17T17:59:22.065Z</time></trkpt><trkpt lat="43.996115" lon="8.1143167"><ele>62.0</ele><time>2026-04-17T17:59:24.065Z</time></trkpt><trkpt lat="43.9960633" lon="8.114235"><ele>62.0</ele><time>2026-04-17T17:59:25.066Z</time></trkpt><trkpt lat="43.996015" lon="8.1141383"><ele>62.00000000000001</ele><time>2026-04-17T17:59:26.066Z</time></trkpt><trkpt lat="43.99597" lon="8.1140583"><ele>62.0</ele><time>2026-04-17T17:59:27.065Z</time></trkpt><trkpt lat="43.995935" lon="8.1139717"><ele>60.8</ele><time>2026-04-17T17:59:29.065Z</time></trkpt><trkpt lat="43.99587" lon="8.1139767"><ele>59.6</ele><time>2026-04-17T17:59:34.065Z</time></trkpt><trkpt lat="43.9957517" lon="8.114065"><ele>58.39999999999999</ele><time>2026-04-17T17:59:36.066Z</time></trkpt><trkpt lat="43.9956667" lon="8.1141383"><ele>57.199999999999996</ele><time>2026-04-17T17:59:37.065Z</time></trkpt><trkpt lat="43.9955583" lon="8.114235"><ele>56.0</ele><time>2026-04-17T17:59:38.066Z</time></trkpt><trkpt lat="43.9954483" lon="8.11434"><ele>55.25</ele><time>2026-04-17T17:59:39.066Z</time></trkpt><trkpt lat="43.9953367" lon="8.11444"><ele>54.5</ele><time>2026-04-17T17:59:40.065Z</time></trkpt><trkpt lat="43.9952233" lon="8.1145333"><ele>53.75</ele><time>2026-04-17T17:59:41.065Z</time></trkpt><trkpt lat="43.99514" lon="8.1146267"><ele>53.0</ele><time>2026-04-17T17:59:42.066Z</time></trkpt><trkpt lat="43.9950617" lon="8.1146983"><ele>52.599999999999994</ele><time>2026-04-17T17:59:43.065Z</time></trkpt><trkpt lat="43.994985" lon="8.114775"><ele>52.199999999999996</ele><time>2026-04-17T17:59:44.066Z</time></trkpt><trkpt lat="43.9949117" lon="8.1148417"><ele>51.8</ele><time>2026-04-17T17:59:45.065Z</time></trkpt><trkpt lat="43.994835" lon="8.114905"><ele>51.4</ele><time>2026-04-17T17:59:46.066Z</time></trkpt><trkpt lat="43.9947583" lon="8.1149883"><ele>51.0</ele><time>2026-04-17T17:59:47.066Z</time></trkpt><trkpt lat="43.9946833" lon="8.1150617"><ele>51.8</ele><time>2026-04-17T17:59:48.066Z</time></trkpt><trkpt lat="43.9946033" lon="8.11512"><ele>52.599999999999994</ele><time>2026-04-17T17:59:49.065Z</time></trkpt><trkpt lat="43.99452" lon="8.1151917"><ele>53.4</ele><time>2026-04-17T17:59:50.065Z</time></trkpt><trkpt lat="43.9944317" lon="8.115275"><ele>54.2</ele><time>2026-04-17T17:59:51.066Z</time></trkpt><trkpt lat="43.9943517" lon="8.115365"><ele>55.0</ele><time>2026-04-17T17:59:52.066Z</time></trkpt><trkpt lat="43.9942717" lon="8.11547"><ele>55.0</ele><time>2026-04-17T17:59:53.066Z</time></trkpt><trkpt lat="43.9941933" lon="8.115595"><ele>55.0</ele><time>2026-04-17T17:59:54.066Z</time></trkpt><trkpt lat="43.9941367" lon="8.1157517"><ele>55.0</ele><time>2026-04-17T17:59:55.065Z</time></trkpt><trkpt lat="43.9940933" lon="8.1158917"><ele>55.0</ele><time>2026-04-17T17:59:56.066Z</time></trkpt><trkpt lat="43.9940633" lon="8.11606"><ele>53.8</ele><time>2026-04-17T17:59:57.065Z</time></trkpt><trkpt lat="43.9940433" lon="8.1162"><ele>52.6</ele><time>2026-04-17T17:59:58.065Z</time></trkpt><trkpt lat="43.994025" lon="8.1163467"><ele>51.400000000000006</ele><time>2026-04-17T17:59:59.066Z</time></trkpt><trkpt lat="43.9940033" lon="8.1164917"><ele>50.2</ele><time>2026-04-17T18:00:00.066Z</time></trkpt><trkpt lat="43.9939783" lon="8.1166583"><ele>49.0</ele><time>2026-04-17T18:00:01.065Z</time></trkpt><trkpt lat="43.993945" lon="8.11683"><ele>49.0</ele><time>2026-04-17T18:00:02.065Z</time></trkpt><trkpt lat="43.993915" lon="8.1169917"><ele>49.0</ele><time>2026-04-17T18:00:03.065Z</time></trkpt><trkpt lat="43.9938883" lon="8.117135"><ele>49.0</ele><time>2026-04-17T18:00:04.066Z</time></trkpt><trkpt lat="43.993865" lon="8.1172583"><ele>49.0</ele><time>2026-04-17T18:00:05.066Z</time></trkpt><trkpt lat="43.9938467" lon="8.1173533"><ele>49.0</ele><time>2026-04-17T18:00:06.065Z</time></trkpt><trkpt lat="43.9938283" lon="8.117445"><ele>49.400000000000006</ele><time>2026-04-17T18:00:07.065Z</time></trkpt><trkpt lat="43.9938" lon="8.117605"><ele>49.8</ele><time>2026-04-17T18:00:09.066Z</time></trkpt><trkpt lat="43.9938033" lon="8.11772"><ele>50.2</ele><time>2026-04-17T18:00:11.065Z</time></trkpt><trkpt lat="43.9938767" lon="8.11778"><ele>50.599999999999994</ele><time>2026-04-17T18:00:13.066Z</time></trkpt><trkpt lat="43.99395" lon="8.1178083"><ele>51.0</ele><time>2026-04-17T18:00:14.065Z</time></trkpt><trkpt lat="43.99404" lon="8.1178283"><ele>51.0</ele><time>2026-04-17T18:00:15.066Z</time></trkpt><trkpt lat="43.9941183" lon="8.11786"><ele>51.0</ele><time>2026-04-17T18:00:16.066Z</time></trkpt><trkpt lat="43.9941883" lon="8.1178817"><ele>51.0</ele><time>2026-04-17T18:00:17.065Z</time></trkpt><trkpt lat="43.9942783" lon="8.117885"><ele>51.0</ele><time>2026-04-17T18:00:18.066Z</time></trkpt><trkpt lat="43.9943733" lon="8.117865"><ele>51.0</ele><time>2026-04-17T18:00:19.066Z</time></trkpt><trkpt lat="43.9944817" lon="8.117825"><ele>53.0</ele><time>2026-04-17T18:00:20.065Z</time></trkpt><trkpt lat="43.9946" lon="8.117785"><ele>55.0</ele><time>2026-04-17T18:00:21.065Z</time></trkpt><trkpt lat="43.9947267" lon="8.1177267"><ele>57.0</ele><time>2026-04-17T18:00:22.065Z</time></trkpt><trkpt lat="43.9948467" lon="8.117685"><ele>59.0</ele><time>2026-04-17T18:00:23.065Z</time></trkpt><trkpt lat="43.9949533" lon="8.1176417"><ele>60.50000000000001</ele><time>2026-04-17T18:00:24.066Z</time></trkpt><trkpt lat="43.9950583" lon="8.1175933"><ele>62.0</ele><time>2026-04-17T18:00:25.066Z</time></trkpt><trkpt lat="43.9951417" lon="8.1175567"><ele>63.5</ele><time>2026-04-17T18:00:26.065Z</time></trkpt><trkpt lat="43.9952083" lon="8.11753"><ele>65.0</ele><time>2026-04-17T18:00:27.066Z</time></trkpt><trkpt lat="43.9953" lon="8.11751"><ele>66.5</ele><time>2026-04-17T18:00:29.066Z</time></trkpt><trkpt lat="43.99533" lon="8.11761"><ele>68.0</ele><time>2026-04-17T18:00:32.065Z</time></trkpt><trkpt lat="43.99529" lon="8.1177883"><ele>68.0</ele><time>2026-04-17T18:00:34.066Z</time></trkpt><trkpt lat="43.99526" lon="8.1179267"><ele>68.0</ele><time>2026-04-17T18:00:35.065Z</time></trkpt><trkpt lat="43.9952333" lon="8.11809"><ele>68.0</ele><time>2026-04-17T18:00:36.066Z</time></trkpt><trkpt lat="43.9951967" lon="8.1182567"><ele>68.0</ele><time>2026-04-17T18:00:37.066Z</time></trkpt><trkpt lat="43.99515" lon="8.1184367"><ele>67.8</ele><time>2026-04-17T18:00:38.066Z</time></trkpt><trkpt lat="43.9950983" lon="8.1185983"><ele>67.6</ele><time>2026-04-17T18:00:39.065Z</time></trkpt><trkpt lat="43.9950567" lon="8.1187317"><ele>67.4</ele><time>2026-04-17T18:00:40.065Z</time></trkpt><trkpt lat="43.995025" lon="8.1188333"><ele>67.2</ele><time>2026-04-17T18:00:41.066Z</time></trkpt><trkpt lat="43.9949967" lon="8.11892"><ele>67.0</ele><time>2026-04-17T18:00:42.065Z</time></trkpt><trkpt lat="43.9950217" lon="8.119015"><ele>68.66666666666666</ele><time>2026-04-17T18:00:45.065Z</time></trkpt><trkpt lat="43.9951033" lon="8.11904"><ele>70.33333333333333</ele><time>2026-04-17T18:01:02.065Z</time></trkpt><trkpt lat="43.9951733" lon="8.119075"><ele>72.0</ele><time>2026-04-17T18:01:03.065Z</time></trkpt><trkpt lat="43.9952583" lon="8.1191033"><ele>73.66666666666667</ele><time>2026-04-17T18:01:04.064Z</time></trkpt><trkpt lat="43.9953483" lon="8.1191417"><ele>75.33333333333334</ele><time>2026-04-17T18:01:05.064Z</time></trkpt><trkpt lat="43.99545" lon="8.1191717"><ele>77.0</ele><time>2026-04-17T18:01:06.064Z</time></trkpt><trkpt lat="43.995555" lon="8.1191867"><ele>78.6</ele><time>2026-04-17T18:01:07.064Z</time></trkpt><trkpt lat="43.9956617" lon="8.1192133"><ele>80.2</ele><time>2026-04-17T18:01:08.064Z</time></trkpt><trkpt lat="43.9957617" lon="8.1192333"><ele>81.8</ele><time>2026-04-17T18:01:09.064Z</time></trkpt><trkpt lat="43.99586" lon="8.119255"><ele>83.4</ele><time>2026-04-17T18:01:10.064Z</time></trkpt><trkpt lat="43.995945" lon="8.1192833"><ele>85.0</ele><time>2026-04-17T18:01:11.065Z</time></trkpt><trkpt lat="43.9960267" lon="8.119315"><ele>86.4</ele><time>2026-04-17T18:01:12.065Z</time></trkpt><trkpt lat="43.9960967" lon="8.1193417"><ele>87.8</ele><time>2026-04-17T18:01:13.064Z</time></trkpt><trkpt lat="43.99616" lon="8.1193667"><ele>89.19999999999999</ele><time>2026-04-17T18:01:14.065Z</time></trkpt><trkpt lat="43.9962717" lon="8.1194083"><ele>90.6</ele><time>2026-04-17T18:01:16.064Z</time></trkpt><trkpt lat="43.996355" lon="8.1194967"><ele>92.0</ele><time>2026-04-17T18:01:18.064Z</time></trkpt><trkpt lat="43.9964433" lon="8.1195867"><ele>92.0</ele><time>2026-04-17T18:01:20.064Z</time></trkpt><trkpt lat="43.9965233" lon="8.1196933"><ele>92.0</ele><time>2026-04-17T18:01:22.064Z</time></trkpt><trkpt lat="43.996545" lon="8.119835"><ele>92.0</ele><time>2026-04-17T18:01:24.064Z</time></trkpt><trkpt lat="43.9965567" lon="8.119925"><ele>92.0</ele><time>2026-04-17T18:01:25.065Z</time></trkpt><trkpt lat="43.996585" lon="8.1200767"><ele>92.0</ele><time>2026-04-17T18:01:27.064Z</time></trkpt><trkpt lat="43.99661" lon="8.1201933"><ele>94.0</ele><time>2026-04-17T18:01:29.064Z</time></trkpt><trkpt lat="43.99666" lon="8.12029"><ele>96.0</ele><time>2026-04-17T18:01:31.064Z</time></trkpt><trkpt lat="43.9967517" lon="8.1203017"><ele>98.0</ele><time>2026-04-17T18:01:33.064Z</time></trkpt><trkpt lat="43.996855" lon="8.120275"><ele>100.0</ele><time>2026-04-17T18:01:35.064Z</time></trkpt><trkpt lat="43.996955" lon="8.120265"><ele>102.0</ele><time>2026-04-17T18:01:37.065Z</time></trkpt><trkpt lat="43.997055" lon="8.1202783"><ele>103.16666666666667</ele><time>2026-04-17T18:01:39.065Z</time></trkpt><trkpt lat="43.9971267" lon="8.12032"><ele>104.33333333333334</ele><time>2026-04-17T18:01:41.064Z</time></trkpt><trkpt lat="43.9971883" lon="8.1203883"><ele>105.5</ele><time>2026-04-17T18:01:43.065Z</time></trkpt><trkpt lat="43.9972683" lon="8.1204733"><ele>106.66666666666667</ele><time>2026-04-17T18:01:45.065Z</time></trkpt><trkpt lat="43.9973217" lon="8.1205217"><ele>107.83333333333334</ele><time>2026-04-17T18:01:46.065Z</time></trkpt><trkpt lat="43.9974117" lon="8.12062"><ele>109.0</ele><time>2026-04-17T18:01:48.065Z</time></trkpt><trkpt lat="43.9974733" lon="8.1206683"><ele>111.16666666666667</ele><time>2026-04-17T18:01:50.064Z</time></trkpt><trkpt lat="43.9975483" lon="8.1206483"><ele>113.33333333333334</ele><time>2026-04-17T18:02:31.065Z</time></trkpt><trkpt lat="43.997625" lon="8.120655"><ele>115.5</ele><time>2026-04-17T18:02:33.064Z</time></trkpt><trkpt lat="43.9977083" lon="8.12065"><ele>117.66666666666666</ele><time>2026-04-17T18:02:35.064Z</time></trkpt><trkpt lat="43.9977817" lon="8.1206483"><ele>119.83333333333333</ele><time>2026-04-17T18:02:37.065Z</time></trkpt><trkpt lat="43.99785" lon="8.1206683"><ele>122.0</ele><time>2026-04-17T18:02:39.064Z</time></trkpt><trkpt lat="43.9979233" lon="8.12071"><ele>125.6</ele><time>2026-04-17T18:02:42.064Z</time></trkpt><trkpt lat="43.998" lon="8.120775"><ele>129.2</ele><time>2026-04-17T18:02:45.064Z</time></trkpt><trkpt lat="43.9980733" lon="8.1207917"><ele>132.8</ele><time>2026-04-17T18:02:48.064Z</time></trkpt><trkpt lat="43.9981433" lon="8.1208367"><ele>136.4</ele><time>2026-04-17T18:02:51.064Z</time></trkpt><trkpt lat="43.99821" lon="8.120885"><ele>140.0</ele><time>2026-04-17T18:02:54.064Z</time></trkpt><trkpt lat="43.9983717" lon="8.121005"><ele>144.0</ele><time>2026-04-17T18:03:07.064Z</time></trkpt><trkpt lat="43.9984717" lon="8.1210717"><ele>148.0</ele><time>2026-04-17T18:03:13.065Z</time></trkpt><trkpt lat="43.99856" lon="8.1211117"><ele>152.0</ele><time>2026-04-17T18:03:25.064Z</time></trkpt><trkpt lat="43.9986433" lon="8.1211467"><ele>156.0</ele><time>2026-04-17T18:03:28.065Z</time></trkpt><trkpt lat="43.99871" lon="8.12117"><ele>160.0</ele><time>2026-04-17T18:03:30.064Z</time></trkpt><trkpt lat="43.9987733" lon="8.1212067"><ele>164.0</ele><time>2026-04-17T18:03:32.064Z</time></trkpt><trkpt lat="43.9988483" lon="8.121245"><ele>164.0</ele><time>2026-04-17T18:03:34.065Z</time></trkpt><trkpt lat="43.998925" lon="8.1212783"><ele>164.0</ele><time>2026-04-17T18:03:36.065Z</time></trkpt><trkpt lat="43.9990033" lon="8.1212983"><ele>164.0</ele><time>2026-04-17T18:03:39.064Z</time></trkpt><trkpt lat="43.9990717" lon="8.1213283"><ele>164.0</ele><time>2026-04-17T18:03:42.065Z</time></trkpt><trkpt lat="43.9991633" lon="8.121315"><ele>164.0</ele><time>2026-04-17T18:03:49.065Z</time></trkpt><trkpt lat="43.999335" lon="8.1213133"><ele>167.79999999999998</ele><time>2026-04-17T18:04:01.064Z</time></trkpt><trkpt lat="43.99946" lon="8.1213317"><ele>171.6</ele><time>2026-04-17T18:04:24.065Z</time></trkpt><trkpt lat="43.9995833" lon="8.1213517"><ele>175.4</ele><time>2026-04-17T18:04:34.065Z</time></trkpt><trkpt lat="43.9996767" lon="8.121345"><ele>179.2</ele><time>2026-04-17T18:04:38.064Z</time></trkpt><trkpt lat="43.9997583" lon="8.121335"><ele>183.0</ele><time>2026-04-17T18:04:40.065Z</time></trkpt><trkpt lat="43.9998283" lon="8.1213467"><ele>183.0</ele><time>2026-04-17T18:04:42.065Z</time></trkpt><trkpt lat="43.9999067" lon="8.121375"><ele>183.0</ele><time>2026-04-17T18:04:44.064Z</time></trkpt><trkpt lat="43.9999733" lon="8.1213933"><ele>183.0</ele><time>2026-04-17T18:04:46.065Z</time></trkpt><trkpt lat="44.000045" lon="8.1214033"><ele>183.0</ele><time>2026-04-17T18:04:48.065Z</time></trkpt><trkpt lat="44.0001267" lon="8.1213883"><ele>183.0</ele><time>2026-04-17T18:04:51.064Z</time></trkpt><trkpt lat="44.000205" lon="8.121375"><ele>183.0</ele><time>2026-04-17T18:04:54.064Z</time></trkpt><trkpt lat="44.00027" lon="8.1213233"><ele>183.0</ele><time>2026-04-17T18:05:07.064Z</time></trkpt><trkpt lat="44.000315" lon="8.1212583"><ele>183.0</ele><time>2026-04-17T18:05:09.065Z</time></trkpt><trkpt lat="44.0003783" lon="8.1211933"><ele>183.0</ele><time>2026-04-17T18:05:11.064Z</time></trkpt><trkpt lat="44.0004433" lon="8.12118"><ele>183.0</ele><time>2026-04-17T18:05:13.064Z</time></trkpt><trkpt lat="44.0005183" lon="8.1211783"><ele>183.0</ele><time>2026-04-17T18:05:15.064Z</time></trkpt><trkpt lat="44.0006183" lon="8.1211467"><ele>183.0</ele><time>2026-04-17T18:05:17.064Z</time></trkpt><trkpt lat="44.000715" lon="8.1211317"><ele>183.0</ele><time>2026-04-17T18:05:19.065Z</time></trkpt><trkpt lat="44.00079" lon="8.12113"><ele>183.0</ele><time>2026-04-17T18:05:21.065Z</time></trkpt><trkpt lat="44.0008617" lon="8.121125"><ele>183.0</ele><time>2026-04-17T18:05:24.065Z</time></trkpt><trkpt lat="44.0009283" lon="8.12109"><ele>183.0</ele><time>2026-04-17T18:05:28.064Z</time></trkpt><trkpt lat="44.000995" lon="8.1210833"><ele>183.0</ele><time>2026-04-17T18:05:31.065Z</time></trkpt><trkpt lat="44.0011067" lon="8.1210633"><ele>183.0</ele><time>2026-04-17T18:05:59.064Z</time></trkpt><trkpt lat="44.0012133" lon="8.1209883"><ele>187.66666666666666</ele><time>2026-04-17T18:06:53.064Z</time></trkpt><trkpt lat="44.0013067" lon="8.1210683"><ele>192.33333333333331</ele><time>2026-04-17T18:08:06.065Z</time></trkpt><trkpt lat="44.0013" lon="8.1211667"><ele>197.0</ele><time>2026-04-17T18:08:09.065Z</time></trkpt><trkpt lat="44.0012517" lon="8.121265"><ele>201.66666666666666</ele><time>2026-04-17T18:08:12.065Z</time></trkpt><trkpt lat="44.0012" lon="8.121335"><ele>206.33333333333331</ele><time>2026-04-17T18:08:14.065Z</time></trkpt><trkpt lat="44.00118" lon="8.1214183"><ele>211.0</ele><time>2026-04-17T18:08:17.064Z</time></trkpt><trkpt lat="44.0011317" lon="8.1215033"><ele>212.99999999999997</ele><time>2026-04-17T18:08:23.064Z</time></trkpt><trkpt lat="44.00106" lon="8.1217017"><ele>215.0</ele><time>2026-04-17T18:08:37.065Z</time></trkpt><trkpt lat="44.00109" lon="8.1218"><ele>217.0</ele><time>2026-04-17T18:08:41.064Z</time></trkpt><trkpt lat="44.0011517" lon="8.1218333"><ele>219.0</ele><time>2026-04-17T18:08:45.064Z</time></trkpt><trkpt lat="44.0012217" lon="8.1218317"><ele>220.99999999999997</ele><time>2026-04-17T18:08:50.064Z</time></trkpt><trkpt lat="44.001285" lon="8.1218283"><ele>223.0</ele><time>2026-04-17T18:08:52.064Z</time></trkpt><trkpt lat="44.00136" lon="8.1218167"><ele>222.99999999999997</ele><time>2026-04-17T18:08:54.064Z</time></trkpt><trkpt lat="44.0014367" lon="8.121775"><ele>223.0</ele><time>2026-04-17T18:08:57.065Z</time></trkpt><trkpt lat="44.001505" lon="8.12175"><ele>223.0</ele><time>2026-04-17T18:09:00.064Z</time></trkpt><trkpt lat="44.0015767" lon="8.1217467"><ele>223.0</ele><time>2026-04-17T18:09:04.064Z</time></trkpt><trkpt lat="44.0016533" lon="8.1217183"><ele>222.99999999999997</ele><time>2026-04-17T18:09:08.065Z</time></trkpt><trkpt lat="44.0017367" lon="8.1217217"><ele>223.0</ele><time>2026-04-17T18:09:12.064Z</time></trkpt><trkpt lat="44.00179" lon="8.121655"><ele>226.16666666666666</ele><time>2026-04-17T18:09:15.065Z</time></trkpt><trkpt lat="44.00185" lon="8.1216033"><ele>229.33333333333331</ele><time>2026-04-17T18:09:18.064Z</time></trkpt><trkpt lat="44.00193" lon="8.1215717"><ele>232.5</ele><time>2026-04-17T18:09:21.065Z</time></trkpt><trkpt lat="44.002" lon="8.1215417"><ele>235.66666666666669</ele><time>2026-04-17T18:09:24.065Z</time></trkpt><trkpt lat="44.0020667" lon="8.1215033"><ele>238.83333333333334</ele><time>2026-04-17T18:09:28.065Z</time></trkpt><trkpt lat="44.002135" lon="8.1214667"><ele>242.0</ele><time>2026-04-17T18:09:33.064Z</time></trkpt><trkpt lat="44.0022217" lon="8.1214867"><ele>242.00000000000003</ele><time>2026-04-17T18:09:41.064Z</time></trkpt><trkpt lat="44.0023033" lon="8.121515"><ele>242.0</ele><time>2026-04-17T18:09:45.064Z</time></trkpt><trkpt lat="44.00237" lon="8.1214683"><ele>242.0</ele><time>2026-04-17T18:09:48.064Z</time></trkpt><trkpt lat="44.00245" lon="8.1214267"><ele>242.0</ele><time>2026-04-17T18:09:51.065Z</time></trkpt><trkpt lat="44.0025433" lon="8.1214333"><ele>242.00000000000003</ele><time>2026-04-17T18:09:53.064Z</time></trkpt><trkpt lat="44.00265" lon="8.1214367"><ele>242.0</ele><time>2026-04-17T18:09:55.064Z</time></trkpt><trkpt lat="44.00273" lon="8.1214583"><ele>245.6</ele><time>2026-04-17T18:13:25.065Z</time></trkpt><trkpt lat="44.00283" lon="8.1215067"><ele>249.2</ele><time>2026-04-17T18:13:27.065Z</time></trkpt><trkpt lat="44.0029383" lon="8.1215317"><ele>252.8</ele><time>2026-04-17T18:13:29.065Z</time></trkpt><trkpt lat="44.0030167" lon="8.1215533"><ele>256.4</ele><time>2026-04-17T18:13:31.065Z</time></trkpt><trkpt lat="44.003085" lon="8.1216017"><ele>260.0</ele><time>2026-04-17T18:13:33.064Z</time></trkpt><trkpt lat="44.0031333" lon="8.1217067"><ele>261.83333333333337</ele><time>2026-04-17T18:13:35.064Z</time></trkpt><trkpt lat="44.0031733" lon="8.12184"><ele>263.6666666666667</ele><time>2026-04-17T18:13:37.065Z</time></trkpt><trkpt lat="44.00321" lon="8.1219133"><ele>265.5</ele><time>2026-04-17T18:13:38.065Z</time></trkpt><trkpt lat="44.0032517" lon="8.1219883"><ele>267.3333333333333</ele><time>2026-04-17T18:13:39.064Z</time></trkpt><trkpt lat="44.0033017" lon="8.1220767"><ele>269.16666666666663</ele><time>2026-04-17T18:13:40.065Z</time></trkpt><trkpt lat="44.003365" lon="8.12217"><ele>271.0</ele><time>2026-04-17T18:13:41.065Z</time></trkpt><trkpt lat="44.0034367" lon="8.1222683"><ele>271.0</ele><time>2026-04-17T18:13:42.065Z</time></trkpt><trkpt lat="44.003495" lon="8.1223717"><ele>271.0</ele><time>2026-04-17T18:13:43.065Z</time></trkpt><trkpt lat="44.0035617" lon="8.122475"><ele>271.0</ele><time>2026-04-17T18:13:44.065Z</time></trkpt><trkpt lat="44.0036233" lon="8.1225883"><ele>271.0</ele><time>2026-04-17T18:13:45.065Z</time></trkpt><trkpt lat="44.0036667" lon="8.12268"><ele>271.0</ele><time>2026-04-17T18:13:46.065Z</time></trkpt><trkpt lat="44.0037017" lon="8.1227533"><ele>271.0</ele><time>2026-04-17T18:13:47.064Z</time></trkpt><trkpt lat="44.0037967" lon="8.1228783"><ele>271.3333333333333</ele><time>2026-04-17T18:13:49.065Z</time></trkpt><trkpt lat="44.0038683" lon="8.122935"><ele>271.66666666666663</ele><time>2026-04-17T18:13:50.064Z</time></trkpt><trkpt lat="44.003945" lon="8.1229917"><ele>272.0</ele><time>2026-04-17T18:13:51.064Z</time></trkpt><trkpt lat="44.0040217" lon="8.1230283"><ele>272.3333333333333</ele><time>2026-04-17T18:13:52.065Z</time></trkpt><trkpt lat="44.004085" lon="8.1230783"><ele>272.6666666666667</ele><time>2026-04-17T18:13:53.064Z</time></trkpt><trkpt lat="44.00414" lon="8.1231383"><ele>273.0</ele><time>2026-04-17T18:13:54.065Z</time></trkpt><trkpt lat="44.0041883" lon="8.12322"><ele>273.42857142857144</ele><time>2026-04-17T18:13:55.064Z</time></trkpt><trkpt lat="44.00423" lon="8.12332"><ele>273.8571428571429</ele><time>2026-04-17T18:13:56.065Z</time></trkpt><trkpt lat="44.0042683" lon="8.1234067"><ele>274.2857142857143</ele><time>2026-04-17T18:13:57.064Z</time></trkpt><trkpt lat="44.00431" lon="8.1234817"><ele>274.7142857142857</ele><time>2026-04-17T18:13:58.065Z</time></trkpt><trkpt lat="44.00434" lon="8.12356"><ele>275.14285714285717</ele><time>2026-04-17T18:13:59.064Z</time></trkpt><trkpt lat="44.0043817" lon="8.12363"><ele>275.57142857142856</ele><time>2026-04-17T18:14:00.065Z</time></trkpt><trkpt lat="44.00442" lon="8.1237"><ele>276.0</ele><time>2026-04-17T18:14:01.064Z</time></trkpt><trkpt lat="44.0044833" lon="8.1238267"><ele>276.0</ele><time>2026-04-17T18:14:03.064Z</time></trkpt><trkpt lat="44.00454" lon="8.1239267"><ele>276.0</ele><time>2026-04-17T18:14:05.065Z</time></trkpt><trkpt lat="44.0045833" lon="8.12401"><ele>276.0</ele><time>2026-04-17T18:14:07.065Z</time></trkpt><trkpt lat="44.0046417" lon="8.1241067"><ele>276.0</ele><time>2026-04-17T18:14:09.065Z</time></trkpt><trkpt lat="44.00468" lon="8.1242067"><ele>276.0</ele><time>2026-04-17T18:14:11.064Z</time></trkpt><trkpt lat="44.0047283" lon="8.124345"><ele>276.0</ele><time>2026-04-17T18:14:13.065Z</time></trkpt><trkpt lat="44.0047983" lon="8.1244633"><ele>277.40000000000003</ele><time>2026-04-17T18:14:15.064Z</time></trkpt><trkpt lat="44.0048867" lon="8.1245617"><ele>278.8</ele><time>2026-04-17T18:14:17.064Z</time></trkpt><trkpt lat="44.00496" lon="8.1245883"><ele>280.20000000000005</ele><time>2026-04-17T18:14:19.064Z</time></trkpt><trkpt lat="44.0050567" lon="8.1246767"><ele>281.6</ele><time>2026-04-17T18:14:32.065Z</time></trkpt><trkpt lat="44.00514" lon="8.1247583"><ele>283.0</ele><time>2026-04-17T18:14:34.065Z</time></trkpt><trkpt lat="44.0052283" lon="8.1248383"><ele>284.5</ele><time>2026-04-17T18:14:36.065Z</time></trkpt><trkpt lat="44.005305" lon="8.124885"><ele>286.0</ele><time>2026-04-17T18:14:38.064Z</time></trkpt><trkpt lat="44.005385" lon="8.124935"><ele>287.5</ele><time>2026-04-17T18:14:40.065Z</time></trkpt><trkpt lat="44.0054633" lon="8.124975"><ele>289.0</ele><time>2026-04-17T18:14:42.064Z</time></trkpt><trkpt lat="44.00554" lon="8.1250017"><ele>290.5</ele><time>2026-04-17T18:14:44.064Z</time></trkpt><trkpt lat="44.005605" lon="8.125035"><ele>292.0</ele><time>2026-04-17T18:14:46.064Z</time></trkpt><trkpt lat="44.0056783" lon="8.1250467"><ele>293.16666666666663</ele><time>2026-04-17T18:14:48.065Z</time></trkpt><trkpt lat="44.0057683" lon="8.12504"><ele>294.3333333333333</ele><time>2026-04-17T18:14:50.065Z</time></trkpt><trkpt lat="44.005835" lon="8.12505"><ele>295.5</ele><time>2026-04-17T18:14:52.065Z</time></trkpt><trkpt lat="44.0058767" lon="8.12512"><ele>296.6666666666667</ele><time>2026-04-17T18:14:54.064Z</time></trkpt><trkpt lat="44.0059567" lon="8.1251267"><ele>297.83333333333337</ele><time>2026-04-17T18:14:57.064Z</time></trkpt><trkpt lat="44.00602" lon="8.1251417"><ele>299.0</ele><time>2026-04-17T18:15:00.064Z</time></trkpt><trkpt lat="44.0061167" lon="8.1251667"><ele>301.1666666666667</ele><time>2026-04-17T18:15:02.065Z</time></trkpt><trkpt lat="44.0062033" lon="8.1251967"><ele>303.33333333333337</ele><time>2026-04-17T18:15:03.064Z</time></trkpt><trkpt lat="44.006285" lon="8.1252167"><ele>305.5</ele><time>2026-04-17T18:15:04.065Z</time></trkpt><trkpt lat="44.0063633" lon="8.1252267"><ele>307.6666666666667</ele><time>2026-04-17T18:15:05.064Z</time></trkpt><trkpt lat="44.0064367" lon="8.1252333"><ele>309.8333333333333</ele><time>2026-04-17T18:15:06.064Z</time></trkpt><trkpt lat="44.006515" lon="8.1252383"><ele>312.0</ele><time>2026-04-17T18:15:07.064Z</time></trkpt><trkpt lat="44.0065917" lon="8.1252483"><ele>312.8</ele><time>2026-04-17T18:15:08.065Z</time></trkpt><trkpt lat="44.0067233" lon="8.125275"><ele>313.6</ele><time>2026-04-17T18:15:10.064Z</time></trkpt><trkpt lat="44.0068567" lon="8.12535"><ele>314.40000000000003</ele><time>2026-04-17T18:15:12.065Z</time></trkpt><trkpt lat="44.0069233" lon="8.125415"><ele>315.2</ele><time>2026-04-17T18:15:13.065Z</time></trkpt><trkpt lat="44.0069833" lon="8.1254617"><ele>316.0</ele><time>2026-04-17T18:15:14.064Z</time></trkpt><trkpt lat="44.00708" lon="8.1255133"><ele>316.0</ele><time>2026-04-17T18:15:16.065Z</time></trkpt><trkpt lat="44.0071717" lon="8.1255667"><ele>316.0</ele><time>2026-04-17T18:15:18.064Z</time></trkpt><trkpt lat="44.0072383" lon="8.1256117"><ele>316.0</ele><time>2026-04-17T18:15:20.065Z</time></trkpt><trkpt lat="44.0073017" lon="8.12565"><ele>316.0</ele><time>2026-04-17T18:15:22.064Z</time></trkpt><trkpt lat="44.007355" lon="8.1257"><ele>316.0</ele><time>2026-04-17T18:15:24.065Z</time></trkpt><trkpt lat="44.00743" lon="8.1257417"><ele>316.0</ele><time>2026-04-17T18:15:26.064Z</time></trkpt><trkpt lat="44.007505" lon="8.1257783"><ele>320.8333333333333</ele><time>2026-04-17T18:15:28.064Z</time></trkpt><trkpt lat="44.0075783" lon="8.1258283"><ele>325.66666666666663</ele><time>2026-04-17T18:15:31.065Z</time></trkpt><trkpt lat="44.0076683" lon="8.12584"><ele>330.5</ele><time>2026-04-17T18:15:34.065Z</time></trkpt><trkpt lat="44.00773" lon="8.1258667"><ele>335.3333333333333</ele><time>2026-04-17T18:15:37.064Z</time></trkpt><trkpt lat="44.0078133" lon="8.1258933"><ele>340.1666666666667</ele><time>2026-04-17T18:15:40.065Z</time></trkpt><trkpt lat="44.0079" lon="8.1258783"><ele>345.0</ele><time>2026-04-17T18:15:42.064Z</time></trkpt><trkpt lat="44.0079967" lon="8.125865"><ele>345.0</ele><time>2026-04-17T18:15:44.065Z</time></trkpt><trkpt lat="44.0080817" lon="8.1258833"><ele>345.0</ele><time>2026-04-17T18:15:46.065Z</time></trkpt><trkpt lat="44.0081717" lon="8.125885"><ele>345.0</ele><time>2026-04-17T18:15:49.065Z</time></trkpt><trkpt lat="44.0082433" lon="8.125905"><ele>345.0</ele><time>2026-04-17T18:15:51.064Z</time></trkpt><trkpt lat="44.0083017" lon="8.1259617"><ele>345.0</ele><time>2026-04-17T18:15:53.065Z</time></trkpt><trkpt lat="44.008375" lon="8.1260433"><ele>345.0</ele><time>2026-04-17T18:15:55.064Z</time></trkpt><trkpt lat="44.0084283" lon="8.12609"><ele>349.6</ele><time>2026-04-17T18:15:56.065Z</time></trkpt><trkpt lat="44.0085383" lon="8.1261767"><ele>354.2</ele><time>2026-04-17T18:15:58.064Z</time></trkpt><trkpt lat="44.0086133" lon="8.126245"><ele>358.79999999999995</ele><time>2026-04-17T18:16:00.064Z</time></trkpt><trkpt lat="44.00869" lon="8.12632"><ele>363.4</ele><time>2026-04-17T18:16:02.064Z</time></trkpt><trkpt lat="44.0087667" lon="8.126435"><ele>368.0</ele><time>2026-04-17T18:16:04.065Z</time></trkpt><trkpt lat="44.008865" lon="8.12652"><ele>368.1666666666667</ele><time>2026-04-17T18:16:06.065Z</time></trkpt><trkpt lat="44.00896" lon="8.1265833"><ele>368.33333333333337</ele><time>2026-04-17T18:16:08.064Z</time></trkpt><trkpt lat="44.0090167" lon="8.1266283"><ele>368.5</ele><time>2026-04-17T18:16:10.065Z</time></trkpt><trkpt lat="44.009095" lon="8.126695"><ele>368.6666666666667</ele><time>2026-04-17T18:16:13.065Z</time></trkpt><trkpt lat="44.0091617" lon="8.12675"><ele>368.8333333333333</ele><time>2026-04-17T18:16:15.064Z</time></trkpt><trkpt lat="44.0092083" lon="8.1268283"><ele>369.0</ele><time>2026-04-17T18:16:17.064Z</time></trkpt><trkpt lat="44.0092967" lon="8.1269017"><ele>373.1666666666667</ele><time>2026-04-17T18:16:20.065Z</time></trkpt><trkpt lat="44.0093783" lon="8.1269883"><ele>377.33333333333337</ele><time>2026-04-17T18:16:22.065Z</time></trkpt><trkpt lat="44.0094533" lon="8.12707"><ele>381.5</ele><time>2026-04-17T18:16:24.064Z</time></trkpt><trkpt lat="44.0095133" lon="8.12717"><ele>385.6666666666667</ele><time>2026-04-17T18:16:26.064Z</time></trkpt><trkpt lat="44.0095517" lon="8.1272433"><ele>389.83333333333337</ele><time>2026-04-17T18:16:28.064Z</time></trkpt><trkpt lat="44.0096217" lon="8.12732"><ele>394.0</ele><time>2026-04-17T18:16:31.064Z</time></trkpt><trkpt lat="44.0096917" lon="8.1273667"><ele>394.6666666666667</ele><time>2026-04-17T18:16:34.065Z</time></trkpt><trkpt lat="44.0097483" lon="8.1274133"><ele>395.33333333333337</ele><time>2026-04-17T18:16:36.065Z</time></trkpt><trkpt lat="44.0097983" lon="8.127515"><ele>396.0</ele><time>2026-04-17T18:16:42.065Z</time></trkpt><trkpt lat="44.0098517" lon="8.1276467"><ele>396.66666666666663</ele><time>2026-04-17T18:16:44.065Z</time></trkpt><trkpt lat="44.0098917" lon="8.1277383"><ele>397.3333333333333</ele><time>2026-04-17T18:16:46.065Z</time></trkpt><trkpt lat="44.00993" lon="8.127845"><ele>398.0</ele><time>2026-04-17T18:16:48.064Z</time></trkpt><trkpt lat="44.00997" lon="8.127955"><ele>401.8333333333333</ele><time>2026-04-17T18:16:50.065Z</time></trkpt><trkpt lat="44.01001" lon="8.12811"><ele>405.66666666666663</ele><time>2026-04-17T18:16:52.064Z</time></trkpt><trkpt lat="44.0100217" lon="8.1281983"><ele>409.5</ele><time>2026-04-17T18:16:53.064Z</time></trkpt><trkpt lat="44.0100317" lon="8.1282933"><ele>413.33333333333337</ele><time>2026-04-17T18:16:54.064Z</time></trkpt><trkpt lat="44.010025" lon="8.1283967"><ele>417.1666666666667</ele><time>2026-04-17T18:16:55.065Z</time></trkpt><trkpt lat="44.0100167" lon="8.1285333"><ele>421.0</ele><time>2026-04-17T18:16:56.064Z</time></trkpt><trkpt lat="44.01001" lon="8.1286867"><ele>421.0</ele><time>2026-04-17T18:16:57.065Z</time></trkpt><trkpt lat="44.0100117" lon="8.128845"><ele>421.0</ele><time>2026-04-17T18:16:58.065Z</time></trkpt><trkpt lat="44.01001" lon="8.1290017"><ele>421.0</ele><time>2026-04-17T18:16:59.064Z</time></trkpt><trkpt lat="44.0100067" lon="8.1291567"><ele>421.0</ele><time>2026-04-17T18:17:00.064Z</time></trkpt><trkpt lat="44.0099817" lon="8.1292883"><ele>421.0</ele><time>2026-04-17T18:17:01.064Z</time></trkpt><trkpt lat="44.00997" lon="8.1294133"><ele>420.6</ele><time>2026-04-17T18:17:02.064Z</time></trkpt><trkpt lat="44.0099833" lon="8.1295183"><ele>420.20000000000005</ele><time>2026-04-17T18:17:03.065Z</time></trkpt><trkpt lat="44.0100317" lon="8.12964"><ele>419.79999999999995</ele><time>2026-04-17T18:17:04.065Z</time></trkpt><trkpt lat="44.0100933" lon="8.1297467"><ele>419.4</ele><time>2026-04-17T18:17:05.065Z</time></trkpt><trkpt lat="44.01013" lon="8.12987"><ele>419.0</ele><time>2026-04-17T18:17:06.064Z</time></trkpt><trkpt lat="44.01014" lon="8.1300033"><ele>419.0</ele><time>2026-04-17T18:17:07.065Z</time></trkpt><trkpt lat="44.010105" lon="8.1301533"><ele>419.0</ele><time>2026-04-17T18:17:08.064Z</time></trkpt><trkpt lat="44.0100417" lon="8.1302933"><ele>419.0</ele><time>2026-04-17T18:17:09.065Z</time></trkpt><trkpt lat="44.00997" lon="8.1304233"><ele>419.0</ele><time>2026-04-17T18:17:10.064Z</time></trkpt><trkpt lat="44.0098683" lon="8.13049"><ele>413.5</ele><time>2026-04-17T18:17:11.065Z</time></trkpt><trkpt lat="44.0097583" lon="8.1305017"><ele>408.0</ele><time>2026-04-17T18:17:12.064Z</time></trkpt><trkpt lat="44.009635" lon="8.1304767"><ele>402.5</ele><time>2026-04-17T18:17:13.065Z</time></trkpt><trkpt lat="44.0095017" lon="8.13047"><ele>397.0</ele><time>2026-04-17T18:17:14.064Z</time></trkpt><trkpt lat="44.00937" lon="8.1304667"><ele>397.0</ele><time>2026-04-17T18:17:15.065Z</time></trkpt><trkpt lat="44.0092433" lon="8.1304917"><ele>397.0</ele><time>2026-04-17T18:17:16.065Z</time></trkpt><trkpt lat="44.0091417" lon="8.130495"><ele>397.0</ele><time>2026-04-17T18:17:17.064Z</time></trkpt><trkpt lat="44.0090467" lon="8.1305017"><ele>397.0</ele><time>2026-04-17T18:17:18.065Z</time></trkpt><trkpt lat="44.0089667" lon="8.13051"><ele>397.0</ele><time>2026-04-17T18:17:19.064Z</time></trkpt><trkpt lat="44.0088833" lon="8.1305717"><ele>395.8</ele><time>2026-04-17T18:17:21.065Z</time></trkpt><trkpt lat="44.0088683" lon="8.1306683"><ele>394.6</ele><time>2026-04-17T18:17:24.065Z</time></trkpt><trkpt lat="44.0089417" lon="8.13077"><ele>393.40000000000003</ele><time>2026-04-17T18:18:05.065Z</time></trkpt><trkpt lat="44.0090617" lon="8.1308833"><ele>392.20000000000005</ele><time>2026-04-17T18:18:07.065Z</time></trkpt><trkpt lat="44.0091567" lon="8.13096"><ele>391.0</ele><time>2026-04-17T18:18:08.065Z</time></trkpt><trkpt lat="44.0092783" lon="8.13103"><ele>394.75</ele><time>2026-04-17T18:18:09.064Z</time></trkpt><trkpt lat="44.0093967" lon="8.13112"><ele>398.5</ele><time>2026-04-17T18:18:10.064Z</time></trkpt><trkpt lat="44.0094967" lon="8.1312167"><ele>402.25</ele><time>2026-04-17T18:18:11.064Z</time></trkpt><trkpt lat="44.0095667" lon="8.1313283"><ele>406.0</ele><time>2026-04-17T18:18:12.064Z</time></trkpt><trkpt lat="44.009625" lon="8.1314417"><ele>406.0</ele><time>2026-04-17T18:18:13.065Z</time></trkpt><trkpt lat="44.0097067" lon="8.1315233"><ele>406.0</ele><time>2026-04-17T18:18:14.065Z</time></trkpt><trkpt lat="44.00981" lon="8.1315467"><ele>406.0</ele><time>2026-04-17T18:18:15.065Z</time></trkpt><trkpt lat="44.0099417" lon="8.131525"><ele>406.0</ele><time>2026-04-17T18:18:16.065Z</time></trkpt><trkpt lat="44.0100833" lon="8.1315083"><ele>404.0</ele><time>2026-04-17T18:18:17.064Z</time></trkpt><trkpt lat="44.0102267" lon="8.1315017"><ele>402.0</ele><time>2026-04-17T18:18:18.065Z</time></trkpt><trkpt lat="44.0103467" lon="8.1315167"><ele>400.0</ele><time>2026-04-17T18:18:19.064Z</time></trkpt><trkpt lat="44.0104517" lon="8.1315617"><ele>398.0</ele><time>2026-04-17T18:18:20.064Z</time></trkpt><trkpt lat="44.0105317" lon="8.1316317"><ele>398.0</ele><time>2026-04-17T18:18:21.065Z</time></trkpt><trkpt lat="44.0105717" lon="8.131765"><ele>398.0</ele><time>2026-04-17T18:18:22.064Z</time></trkpt><trkpt lat="44.0105983" lon="8.1319567"><ele>398.0</ele><time>2026-04-17T18:18:23.064Z</time></trkpt><trkpt lat="44.0106017" lon="8.1322083"><ele>398.0</ele><time>2026-04-17T18:18:24.065Z</time></trkpt><trkpt lat="44.0105983" lon="8.132455"><ele>391.66666666666663</ele><time>2026-04-17T18:18:25.065Z</time></trkpt><trkpt lat="44.0106133" lon="8.1326733"><ele>385.3333333333333</ele><time>2026-04-17T18:18:26.064Z</time></trkpt><trkpt lat="44.0106417" lon="8.1328717"><ele>379.0</ele><time>2026-04-17T18:18:27.064Z</time></trkpt><trkpt lat="44.01072" lon="8.1330767"><ele>377.75</ele><time>2026-04-17T18:18:28.065Z</time></trkpt><trkpt lat="44.0108217" lon="8.1332533"><ele>376.5</ele><time>2026-04-17T18:18:29.064Z</time></trkpt><trkpt lat="44.010905" lon="8.13341"><ele>375.25</ele><time>2026-04-17T18:18:30.064Z</time></trkpt><trkpt lat="44.0109783" lon="8.1335683"><ele>374.0</ele><time>2026-04-17T18:18:31.065Z</time></trkpt><trkpt lat="44.01103" lon="8.1336817"><ele>376.5</ele><time>2026-04-17T18:18:32.065Z</time></trkpt><trkpt lat="44.01107" lon="8.1337733"><ele>379.0</ele><time>2026-04-17T18:18:33.064Z</time></trkpt><trkpt lat="44.0111283" lon="8.133845"><ele>381.5</ele><time>2026-04-17T18:18:35.064Z</time></trkpt><trkpt lat="44.0111467" lon="8.1337167"><ele>384.0</ele><time>2026-04-17T18:18:38.065Z</time></trkpt><trkpt lat="44.0111417" lon="8.1336133"><ele>386.49999999999994</ele><time>2026-04-17T18:18:40.065Z</time></trkpt><trkpt lat="44.01113" lon="8.1334983"><ele>389.0</ele><time>2026-04-17T18:18:42.064Z</time></trkpt><trkpt lat="44.0110967" lon="8.1334217"><ele>388.99999999999994</ele><time>2026-04-17T18:18:44.065Z</time></trkpt><trkpt lat="44.0111767" lon="8.13344"><ele>389.0</ele><time>2026-04-17T18:18:50.064Z</time></trkpt><trkpt lat="44.0112517" lon="8.13344"><ele>389.0</ele><time>2026-04-17T18:18:52.065Z</time></trkpt><trkpt lat="44.0113467" lon="8.1334267"><ele>389.0</ele><time>2026-04-17T18:18:54.065Z</time></trkpt><trkpt lat="44.0114583" lon="8.1334217"><ele>388.99999999999994</ele><time>2026-04-17T18:18:56.063Z</time></trkpt><trkpt lat="44.0115383" lon="8.1334417"><ele>389.0</ele><time>2026-04-17T18:18:58.063Z</time></trkpt><trkpt lat="44.0116333" lon="8.1334933"><ele>387.0</ele><time>2026-04-17T18:19:00.064Z</time></trkpt><trkpt lat="44.0117217" lon="8.1335667"><ele>385.0</ele><time>2026-04-17T18:19:02.064Z</time></trkpt><trkpt lat="44.0118017" lon="8.13368"><ele>383.0</ele><time>2026-04-17T18:19:04.064Z</time></trkpt><trkpt lat="44.0118567" lon="8.13378"><ele>381.0</ele><time>2026-04-17T18:19:06.063Z</time></trkpt><trkpt lat="44.0119233" lon="8.1338533"><ele>379.0</ele><time>2026-04-17T18:19:08.064Z</time></trkpt><trkpt lat="44.0119967" lon="8.1339167"><ele>379.0</ele><time>2026-04-17T18:19:10.064Z</time></trkpt><trkpt lat="44.0120867" lon="8.133935"><ele>379.0</ele><time>2026-04-17T18:19:12.064Z</time></trkpt><trkpt lat="44.0121683" lon="8.13395"><ele>379.0</ele><time>2026-04-17T18:19:14.063Z</time></trkpt><trkpt lat="44.01223" lon="8.1339133"><ele>379.0</ele><time>2026-04-17T18:19:18.063Z</time></trkpt><trkpt lat="44.0121767" lon="8.133865"><ele>379.0</ele><time>2026-04-17T18:19:20.063Z</time></trkpt><trkpt lat="44.0120983" lon="8.1337917"><ele>379.0</ele><time>2026-04-17T18:19:22.064Z</time></trkpt><trkpt lat="44.0120267" lon="8.13371"><ele>379.0</ele><time>2026-04-17T18:19:24.063Z</time></trkpt><trkpt lat="44.0120033" lon="8.1336167"><ele>379.0</ele><time>2026-04-17T18:19:26.064Z</time></trkpt><trkpt lat="44.0119617" lon="8.13347"><ele>379.0</ele><time>2026-04-17T18:19:28.064Z</time></trkpt><trkpt lat="44.0119333" lon="8.1333517"><ele>379.0</ele><time>2026-04-17T18:19:29.063Z</time></trkpt><trkpt lat="44.011905" lon="8.1332317"><ele>379.0</ele><time>2026-04-17T18:19:30.063Z</time></trkpt><trkpt lat="44.011875" lon="8.1331383"><ele>379.0</ele><time>2026-04-17T18:19:31.063Z</time></trkpt><trkpt lat="44.0118267" lon="8.1330433"><ele>377.0</ele><time>2026-04-17T18:19:32.064Z</time></trkpt><trkpt lat="44.011775" lon="8.13296"><ele>375.0</ele><time>2026-04-17T18:19:33.063Z</time></trkpt><trkpt lat="44.0117217" lon="8.13286"><ele>373.0</ele><time>2026-04-17T18:19:35.064Z</time></trkpt><trkpt lat="44.0116583" lon="8.1327883"><ele>371.0</ele><time>2026-04-17T18:19:37.064Z</time></trkpt><trkpt lat="44.0115883" lon="8.1327"><ele>369.0</ele><time>2026-04-17T18:19:39.064Z</time></trkpt><trkpt lat="44.0115617" lon="8.132555"><ele>369.79999999999995</ele><time>2026-04-17T18:19:41.063Z</time></trkpt><trkpt lat="44.0115567" lon="8.1324217"><ele>370.59999999999997</ele><time>2026-04-17T18:19:43.064Z</time></trkpt><trkpt lat="44.0115617" lon="8.1323217"><ele>371.4</ele><time>2026-04-17T18:19:45.063Z</time></trkpt><trkpt lat="44.01162" lon="8.1322267"><ele>372.2</ele><time>2026-04-17T18:19:47.064Z</time></trkpt><trkpt lat="44.0117133" lon="8.1321"><ele>373.0</ele><time>2026-04-17T18:19:49.063Z</time></trkpt><trkpt lat="44.0117717" lon="8.1320283"><ele>373.0</ele><time>2026-04-17T18:19:50.063Z</time></trkpt><trkpt lat="44.01183" lon="8.1319633"><ele>373.0</ele><time>2026-04-17T18:19:51.063Z</time></trkpt><trkpt lat="44.011885" lon="8.13192"><ele>373.0</ele><time>2026-04-17T18:19:52.063Z</time></trkpt><trkpt lat="44.0119783" lon="8.1318517"><ele>373.0</ele><time>2026-04-17T18:19:54.064Z</time></trkpt><trkpt lat="44.0120383" lon="8.1317817"><ele>373.0</ele><time>2026-04-17T18:19:56.063Z</time></trkpt><trkpt lat="44.012115" lon="8.131685"><ele>373.0</ele><time>2026-04-17T18:19:59.063Z</time></trkpt><trkpt lat="44.0121867" lon="8.1316083"><ele>370.25</ele><time>2026-04-17T18:20:01.064Z</time></trkpt><trkpt lat="44.0123033" lon="8.1315233"><ele>367.5</ele><time>2026-04-17T18:20:03.064Z</time></trkpt><trkpt lat="44.0124117" lon="8.1314233"><ele>364.75</ele><time>2026-04-17T18:20:05.064Z</time></trkpt><trkpt lat="44.0124733" lon="8.1313783"><ele>362.0</ele><time>2026-04-17T18:20:06.064Z</time></trkpt><trkpt lat="44.012585" lon="8.131285"><ele>362.0</ele><time>2026-04-17T18:20:08.064Z</time></trkpt><trkpt lat="44.0126617" lon="8.13117"><ele>362.0</ele><time>2026-04-17T18:20:10.064Z</time></trkpt><trkpt lat="44.01272" lon="8.1310183"><ele>362.0</ele><time>2026-04-17T18:20:12.063Z</time></trkpt><trkpt lat="44.0127633" lon="8.1309317"><ele>362.0</ele><time>2026-04-17T18:20:13.064Z</time></trkpt><trkpt lat="44.012835" lon="8.1307917"><ele>362.0</ele><time>2026-04-17T18:20:15.064Z</time></trkpt><trkpt lat="44.0129317" lon="8.1307083"><ele>364.6</ele><time>2026-04-17T18:20:17.064Z</time></trkpt><trkpt lat="44.0130483" lon="8.1306967"><ele>367.20000000000005</ele><time>2026-04-17T18:20:19.063Z</time></trkpt><trkpt lat="44.0131433" lon="8.1306967"><ele>369.8</ele><time>2026-04-17T18:20:21.064Z</time></trkpt><trkpt lat="44.0132067" lon="8.130675"><ele>372.4</ele><time>2026-04-17T18:20:22.063Z</time></trkpt><trkpt lat="44.0133233" lon="8.130655"><ele>375.0</ele><time>2026-04-17T18:20:24.064Z</time></trkpt><trkpt lat="44.0133883" lon="8.1306467"><ele>370.1666666666667</ele><time>2026-04-17T18:20:25.063Z</time></trkpt><trkpt lat="44.0134567" lon="8.1306383"><ele>365.3333333333333</ele><time>2026-04-17T18:20:26.063Z</time></trkpt><trkpt lat="44.0135267" lon="8.1306467"><ele>360.5</ele><time>2026-04-17T18:20:27.064Z</time></trkpt><trkpt lat="44.01361" lon="8.1306433"><ele>355.66666666666663</ele><time>2026-04-17T18:20:28.063Z</time></trkpt><trkpt lat="44.0137067" lon="8.13066"><ele>350.8333333333333</ele><time>2026-04-17T18:20:29.063Z</time></trkpt><trkpt lat="44.0138" lon="8.1306667"><ele>346.0</ele><time>2026-04-17T18:20:30.063Z</time></trkpt><trkpt lat="44.013885" lon="8.1306617"><ele>346.0</ele><time>2026-04-17T18:20:31.063Z</time></trkpt><trkpt lat="44.013955" lon="8.130655"><ele>346.0</ele><time>2026-04-17T18:20:32.064Z</time></trkpt><trkpt lat="44.0140517" lon="8.13066"><ele>346.0</ele><time>2026-04-17T18:20:34.063Z</time></trkpt><trkpt lat="44.01412" lon="8.1307"><ele>346.0</ele><time>2026-04-17T18:20:36.064Z</time></trkpt><trkpt lat="44.0141983" lon="8.1307233"><ele>346.0</ele><time>2026-04-17T18:20:38.064Z</time></trkpt><trkpt lat="44.0142717" lon="8.1306633"><ele>346.0</ele><time>2026-04-17T18:20:40.064Z</time></trkpt><trkpt lat="44.0143283" lon="8.1306183"><ele>340.3333333333333</ele><time>2026-04-17T18:20:51.063Z</time></trkpt><trkpt lat="44.01437" lon="8.1307033"><ele>334.66666666666663</ele><time>2026-04-17T18:20:54.063Z</time></trkpt><trkpt lat="44.0143017" lon="8.1307767"><ele>329.0</ele><time>2026-04-17T18:20:58.063Z</time></trkpt><trkpt lat="44.01432" lon="8.13087"><ele>323.3333333333333</ele><time>2026-04-17T18:21:02.063Z</time></trkpt><trkpt lat="44.014405" lon="8.1308817"><ele>317.6666666666667</ele><time>2026-04-17T18:21:04.064Z</time></trkpt><trkpt lat="44.01448" lon="8.1308633"><ele>312.0</ele><time>2026-04-17T18:21:06.064Z</time></trkpt><trkpt lat="44.0145467" lon="8.1308283"><ele>312.0</ele><time>2026-04-17T18:21:08.064Z</time></trkpt><trkpt lat="44.0146083" lon="8.1307717"><ele>312.0</ele><time>2026-04-17T18:21:11.064Z</time></trkpt><trkpt lat="44.0146817" lon="8.1307983"><ele>312.0</ele><time>2026-04-17T18:21:14.063Z</time></trkpt><trkpt lat="44.0147333" lon="8.13085"><ele>312.0</ele><time>2026-04-17T18:21:20.064Z</time></trkpt><trkpt lat="44.01476" lon="8.1307483"><ele>312.0</ele><time>2026-04-17T18:21:23.063Z</time></trkpt><trkpt lat="44.0147733" lon="8.13062"><ele>312.0</ele><time>2026-04-17T18:22:26.063Z</time></trkpt><trkpt lat="44.014785" lon="8.1304883"><ele>311.7142857142857</ele><time>2026-04-17T18:22:29.064Z</time></trkpt><trkpt lat="44.0147767" lon="8.1303883"><ele>311.4285714285714</ele><time>2026-04-17T18:22:31.064Z</time></trkpt><trkpt lat="44.0147783" lon="8.1303"><ele>311.1428571428571</ele><time>2026-04-17T18:22:33.063Z</time></trkpt><trkpt lat="44.014755" lon="8.1302067"><ele>310.8571428571429</ele><time>2026-04-17T18:22:35.064Z</time></trkpt><trkpt lat="44.0147317" lon="8.1301183"><ele>310.57142857142856</ele><time>2026-04-17T18:22:37.064Z</time></trkpt><trkpt lat="44.01472" lon="8.129985"><ele>310.2857142857143</ele><time>2026-04-17T18:22:40.064Z</time></trkpt><trkpt lat="44.0146817" lon="8.1299033"><ele>310.0</ele><time>2026-04-17T18:22:42.064Z</time></trkpt><trkpt lat="44.0146283" lon="8.1298183"><ele>308.5</ele><time>2026-04-17T18:22:44.064Z</time></trkpt><trkpt lat="44.0145717" lon="8.129755"><ele>307.0</ele><time>2026-04-17T18:22:46.064Z</time></trkpt><trkpt lat="44.0145417" lon="8.12966"><ele>305.5</ele><time>2026-04-17T18:22:48.063Z</time></trkpt><trkpt lat="44.014525" lon="8.1295217"><ele>304.0</ele><time>2026-04-17T18:22:50.063Z</time></trkpt><trkpt lat="44.0145067" lon="8.1293833"><ele>302.5</ele><time>2026-04-17T18:22:52.063Z</time></trkpt><trkpt lat="44.0145267" lon="8.129285"><ele>301.0</ele><time>2026-04-17T18:22:54.064Z</time></trkpt><trkpt lat="44.014585" lon="8.1292217"><ele>301.0</ele><time>2026-04-17T18:22:56.063Z</time></trkpt><trkpt lat="44.014655" lon="8.12917"><ele>301.0</ele><time>2026-04-17T18:22:58.063Z</time></trkpt><trkpt lat="44.0147483" lon="8.1290967"><ele>301.0</ele><time>2026-04-17T18:23:00.064Z</time></trkpt><trkpt lat="44.0147933" lon="8.1289717"><ele>301.0</ele><time>2026-04-17T18:23:02.063Z</time></trkpt><trkpt lat="44.0148033" lon="8.1288767"><ele>301.0</ele><time>2026-04-17T18:23:04.063Z</time></trkpt><trkpt lat="44.0148033" lon="8.1287367"><ele>302.3333333333333</ele><time>2026-04-17T18:23:07.063Z</time></trkpt><trkpt lat="44.0147767" lon="8.1286167"><ele>303.66666666666663</ele><time>2026-04-17T18:23:09.064Z</time></trkpt><trkpt lat="44.014745" lon="8.1284983"><ele>305.0</ele><time>2026-04-17T18:23:11.064Z</time></trkpt><trkpt lat="44.0147967" lon="8.12842"><ele>306.3333333333333</ele><time>2026-04-17T18:23:15.064Z</time></trkpt><trkpt lat="44.0148667" lon="8.1284167"><ele>307.6666666666667</ele><time>2026-04-17T18:23:17.064Z</time></trkpt><trkpt lat="44.0149733" lon="8.128455"><ele>309.0</ele><time>2026-04-17T18:23:19.064Z</time></trkpt><trkpt lat="44.01508" lon="8.1284833"><ele>301.2</ele><time>2026-04-17T18:23:21.064Z</time></trkpt><trkpt lat="44.0151933" lon="8.1284683"><ele>293.4</ele><time>2026-04-17T18:23:23.063Z</time></trkpt><trkpt lat="44.0152967" lon="8.1284333"><ele>285.6</ele><time>2026-04-17T18:23:25.063Z</time></trkpt><trkpt lat="44.0153783" lon="8.1283717"><ele>277.8</ele><time>2026-04-17T18:23:27.063Z</time></trkpt><trkpt lat="44.0154383" lon="8.1283033"><ele>270.0</ele><time>2026-04-17T18:23:29.063Z</time></trkpt><trkpt lat="44.0155133" lon="8.1282267"><ele>273.1666666666667</ele><time>2026-04-17T18:23:31.064Z</time></trkpt><trkpt lat="44.0155683" lon="8.1281017"><ele>276.3333333333333</ele><time>2026-04-17T18:23:33.064Z</time></trkpt><trkpt lat="44.0155933" lon="8.1280133"><ele>279.5</ele><time>2026-04-17T18:23:34.063Z</time></trkpt><trkpt lat="44.01561" lon="8.1279133"><ele>282.66666666666663</ele><time>2026-04-17T18:23:35.063Z</time></trkpt><trkpt lat="44.0156183" lon="8.1278217"><ele>285.8333333333333</ele><time>2026-04-17T18:23:36.064Z</time></trkpt><trkpt lat="44.0156283" lon="8.1276883"><ele>289.0</ele><time>2026-04-17T18:23:38.063Z</time></trkpt><trkpt lat="44.01569" lon="8.1276083"><ele>289.0</ele><time>2026-04-17T18:23:40.063Z</time></trkpt><trkpt lat="44.0157683" lon="8.1275883"><ele>289.0</ele><time>2026-04-17T18:23:42.064Z</time></trkpt><trkpt lat="44.01585" lon="8.1275933"><ele>289.0</ele><time>2026-04-17T18:23:44.064Z</time></trkpt><trkpt lat="44.015925" lon="8.12761"><ele>289.0</ele><time>2026-04-17T18:23:46.064Z</time></trkpt><trkpt lat="44.01601" lon="8.1276017"><ele>289.0</ele><time>2026-04-17T18:23:48.063Z</time></trkpt><trkpt lat="44.016085" lon="8.1275883"><ele>289.0</ele><time>2026-04-17T18:23:51.063Z</time></trkpt><trkpt lat="44.016145" lon="8.12756"><ele>286.66666666666663</ele><time>2026-04-17T18:23:53.063Z</time></trkpt><trkpt lat="44.016235" lon="8.127515"><ele>284.3333333333333</ele><time>2026-04-17T18:23:55.064Z</time></trkpt><trkpt lat="44.0163117" lon="8.1274533"><ele>282.0</ele><time>2026-04-17T18:23:57.064Z</time></trkpt><trkpt lat="44.0163733" lon="8.12737"><ele>279.6666666666667</ele><time>2026-04-17T18:23:59.063Z</time></trkpt><trkpt lat="44.0164367" lon="8.1273467"><ele>277.33333333333337</ele><time>2026-04-17T18:24:01.063Z</time></trkpt><trkpt lat="44.0165167" lon="8.127375"><ele>275.0</ele><time>2026-04-17T18:24:03.063Z</time></trkpt><trkpt lat="44.0165917" lon="8.1273467"><ele>275.0</ele><time>2026-04-17T18:24:05.064Z</time></trkpt><trkpt lat="44.016645" lon="8.1272767"><ele>275.0</ele><time>2026-04-17T18:24:07.063Z</time></trkpt><trkpt lat="44.0167083" lon="8.1271967"><ele>275.0</ele><time>2026-04-17T18:24:09.063Z</time></trkpt><trkpt lat="44.01678" lon="8.1270783"><ele>275.0</ele><time>2026-04-17T18:24:11.063Z</time></trkpt><trkpt lat="44.01681" lon="8.1269967"><ele>275.0</ele><time>2026-04-17T18:24:12.063Z</time></trkpt><trkpt lat="44.0168683" lon="8.12687"><ele>275.0</ele><time>2026-04-17T18:24:14.064Z</time></trkpt><trkpt lat="44.0169233" lon="8.12677"><ele>272.75</ele><time>2026-04-17T18:24:16.064Z</time></trkpt><trkpt lat="44.0170217" lon="8.126765"><ele>270.5</ele><time>2026-04-17T18:24:19.064Z</time></trkpt><trkpt lat="44.01713" lon="8.126785"><ele>268.25</ele><time>2026-04-17T18:24:21.063Z</time></trkpt><trkpt lat="44.0172417" lon="8.1268117"><ele>266.0</ele><time>2026-04-17T18:24:23.063Z</time></trkpt><trkpt lat="44.0173683" lon="8.1268483"><ele>266.0</ele><time>2026-04-17T18:24:25.063Z</time></trkpt><trkpt lat="44.0174367" lon="8.1268583"><ele>266.0</ele><time>2026-04-17T18:24:26.064Z</time></trkpt><trkpt lat="44.0175067" lon="8.1268733"><ele>266.0</ele><time>2026-04-17T18:24:27.063Z</time></trkpt><trkpt lat="44.0175767" lon="8.1269017"><ele>266.0</ele><time>2026-04-17T18:24:28.064Z</time></trkpt><trkpt lat="44.0176583" lon="8.12691"><ele>266.0</ele><time>2026-04-17T18:24:29.063Z</time></trkpt><trkpt lat="44.0177417" lon="8.1269183"><ele>266.0</ele><time>2026-04-17T18:24:30.064Z</time></trkpt><trkpt lat="44.0178117" lon="8.126915"><ele>266.0</ele><time>2026-04-17T18:24:31.064Z</time></trkpt><trkpt lat="44.0179183" lon="8.126895"><ele>266.5</ele><time>2026-04-17T18:24:33.063Z</time></trkpt><trkpt lat="44.0179833" lon="8.1268833"><ele>267.0</ele><time>2026-04-17T18:24:34.063Z</time></trkpt><trkpt lat="44.0180967" lon="8.1268817"><ele>267.5</ele><time>2026-04-17T18:24:36.064Z</time></trkpt><trkpt lat="44.018195" lon="8.1268733"><ele>268.0</ele><time>2026-04-17T18:24:38.063Z</time></trkpt><trkpt lat="44.018295" lon="8.1268783"><ele>268.5</ele><time>2026-04-17T18:24:40.063Z</time></trkpt><trkpt lat="44.0183617" lon="8.1269"><ele>269.0</ele><time>2026-04-17T18:24:42.064Z</time></trkpt><trkpt lat="44.0184417" lon="8.12689"><ele>269.2</ele><time>2026-04-17T18:24:44.064Z</time></trkpt><trkpt lat="44.0185683" lon="8.1268933"><ele>269.4</ele><time>2026-04-17T18:24:46.064Z</time></trkpt><trkpt lat="44.0186683" lon="8.1269483"><ele>269.6</ele><time>2026-04-17T18:24:48.063Z</time></trkpt><trkpt lat="44.01878" lon="8.1269783"><ele>269.8</ele><time>2026-04-17T18:24:50.063Z</time></trkpt><trkpt lat="44.0188517" lon="8.1269867"><ele>270.0</ele><time>2026-04-17T18:24:51.064Z</time></trkpt><trkpt lat="44.0189183" lon="8.1269917"><ele>270.0</ele><time>2026-04-17T18:24:52.064Z</time></trkpt><trkpt lat="44.0190283" lon="8.1269983"><ele>270.0</ele><time>2026-04-17T18:24:54.064Z</time></trkpt><trkpt lat="44.0191267" lon="8.12695"><ele>270.0</ele><time>2026-04-17T18:24:56.063Z</time></trkpt><trkpt lat="44.0191817" lon="8.1269017"><ele>270.0</ele><time>2026-04-17T18:24:57.064Z</time></trkpt><trkpt lat="44.019235" lon="8.1268417"><ele>270.0</ele><time>2026-04-17T18:24:58.063Z</time></trkpt><trkpt lat="44.0193283" lon="8.12678"><ele>270.6</ele><time>2026-04-17T18:25:00.064Z</time></trkpt><trkpt lat="44.01942" lon="8.1267467"><ele>271.2</ele><time>2026-04-17T18:25:02.063Z</time></trkpt><trkpt lat="44.0195017" lon="8.126655"><ele>271.8</ele><time>2026-04-17T18:25:04.064Z</time></trkpt><trkpt lat="44.0195583" lon="8.1265117"><ele>272.4</ele><time>2026-04-17T18:25:06.064Z</time></trkpt><trkpt lat="44.0196017" lon="8.1264417"><ele>273.0</ele><time>2026-04-17T18:25:07.064Z</time></trkpt><trkpt lat="44.01971" lon="8.126345"><ele>273.0</ele><time>2026-04-17T18:25:09.063Z</time></trkpt><trkpt lat="44.01982" lon="8.126295"><ele>273.0</ele><time>2026-04-17T18:25:11.064Z</time></trkpt><trkpt lat="44.01993" lon="8.1262717"><ele>273.0</ele><time>2026-04-17T18:25:13.063Z</time></trkpt><trkpt lat="44.0200083" lon="8.12624"><ele>273.0</ele><time>2026-04-17T18:25:14.064Z</time></trkpt><trkpt lat="44.0201033" lon="8.1262017"><ele>273.0</ele><time>2026-04-17T18:25:15.064Z</time></trkpt><trkpt lat="44.0201983" lon="8.1261683"><ele>268.1666666666667</ele><time>2026-04-17T18:25:16.064Z</time></trkpt><trkpt lat="44.0202917" lon="8.1261233"><ele>263.3333333333333</ele><time>2026-04-17T18:25:17.064Z</time></trkpt><trkpt lat="44.0203467" lon="8.1260783"><ele>258.5</ele><time>2026-04-17T18:25:18.063Z</time></trkpt><trkpt lat="44.0204133" lon="8.1260517"><ele>253.66666666666666</ele><time>2026-04-17T18:25:19.063Z</time></trkpt><trkpt lat="44.020485" lon="8.12603"><ele>248.83333333333331</ele><time>2026-04-17T18:25:20.063Z</time></trkpt><trkpt lat="44.0205583" lon="8.1260217"><ele>244.0</ele><time>2026-04-17T18:25:21.064Z</time></trkpt><trkpt lat="44.02064" lon="8.126045"><ele>243.99999999999997</ele><time>2026-04-17T18:25:22.063Z</time></trkpt><trkpt lat="44.0207367" lon="8.1260633"><ele>244.0</ele><time>2026-04-17T18:25:23.063Z</time></trkpt><trkpt lat="44.02081" lon="8.12609"><ele>244.0</ele><time>2026-04-17T18:25:24.064Z</time></trkpt><trkpt lat="44.0209083" lon="8.1261"><ele>244.0</ele><time>2026-04-17T18:25:26.063Z</time></trkpt><trkpt lat="44.0209983" lon="8.1260617"><ele>243.99999999999997</ele><time>2026-04-17T18:25:28.064Z</time></trkpt><trkpt lat="44.0210617" lon="8.1260283"><ele>244.0</ele><time>2026-04-17T18:25:29.064Z</time></trkpt><trkpt lat="44.021115" lon="8.1259817"><ele>241.0</ele><time>2026-04-17T18:25:30.064Z</time></trkpt><trkpt lat="44.0211967" lon="8.1258717"><ele>237.99999999999997</ele><time>2026-04-17T18:25:32.063Z</time></trkpt><trkpt lat="44.021275" lon="8.125795"><ele>234.99999999999997</ele><time>2026-04-17T18:25:34.064Z</time></trkpt><trkpt lat="44.0213533" lon="8.1257267"><ele>232.0</ele><time>2026-04-17T18:25:36.064Z</time></trkpt><trkpt lat="44.021435" lon="8.1256683"><ele>229.0</ele><time>2026-04-17T18:25:38.063Z</time></trkpt><trkpt lat="44.021525" lon="8.1256333"><ele>227.39999999999998</ele><time>2026-04-17T18:25:40.063Z</time></trkpt><trkpt lat="44.0216167" lon="8.1256033"><ele>225.79999999999998</ele><time>2026-04-17T18:25:42.064Z</time></trkpt><trkpt lat="44.02171" lon="8.1256317"><ele>224.20000000000002</ele><time>2026-04-17T18:25:44.064Z</time></trkpt><trkpt lat="44.0218167" lon="8.1257167"><ele>222.60000000000002</ele><time>2026-04-17T18:25:46.064Z</time></trkpt><trkpt lat="44.0218867" lon="8.1257683"><ele>221.0</ele><time>2026-04-17T18:25:48.064Z</time></trkpt><trkpt lat="44.0219533" lon="8.1257767"><ele>219.60000000000002</ele><time>2026-04-17T18:27:08.063Z</time></trkpt><trkpt lat="44.02208" lon="8.1257617"><ele>218.20000000000002</ele><time>2026-04-17T18:27:10.063Z</time></trkpt><trkpt lat="44.0221583" lon="8.1257217"><ele>216.79999999999998</ele><time>2026-04-17T18:27:11.063Z</time></trkpt><trkpt lat="44.0222367" lon="8.1256817"><ele>215.39999999999998</ele><time>2026-04-17T18:27:12.064Z</time></trkpt><trkpt lat="44.0223117" lon="8.1256333"><ele>214.0</ele><time>2026-04-17T18:27:13.063Z</time></trkpt><trkpt lat="44.0223833" lon="8.125585"><ele>212.99999999999997</ele><time>2026-04-17T18:27:14.063Z</time></trkpt><trkpt lat="44.022455" lon="8.1255483"><ele>212.0</ele><time>2026-04-17T18:27:15.064Z</time></trkpt><trkpt lat="44.02253" lon="8.125525"><ele>211.0</ele><time>2026-04-17T18:27:16.064Z</time></trkpt><trkpt lat="44.0226133" lon="8.125515"><ele>210.0</ele><time>2026-04-17T18:27:17.064Z</time></trkpt><trkpt lat="44.0226983" lon="8.1255283"><ele>208.99999999999997</ele><time>2026-04-17T18:27:18.064Z</time></trkpt><trkpt lat="44.022785" lon="8.1255433"><ele>208.0</ele><time>2026-04-17T18:27:19.063Z</time></trkpt><trkpt lat="44.0228717" lon="8.1255533"><ele>207.99999999999997</ele><time>2026-04-17T18:27:20.063Z</time></trkpt><trkpt lat="44.02296" lon="8.125555"><ele>208.0</ele><time>2026-04-17T18:27:21.064Z</time></trkpt><trkpt lat="44.0230467" lon="8.1255367"><ele>208.0</ele><time>2026-04-17T18:27:22.064Z</time></trkpt><trkpt lat="44.0231133" lon="8.1254933"><ele>208.0</ele><time>2026-04-17T18:27:23.064Z</time></trkpt><trkpt lat="44.0232" lon="8.1253683"><ele>207.99999999999997</ele><time>2026-04-17T18:27:25.063Z</time></trkpt><trkpt lat="44.0232317" lon="8.1252833"><ele>208.0</ele><time>2026-04-17T18:27:26.063Z</time></trkpt><trkpt lat="44.02326" lon="8.1251967"><ele>207.99999999999997</ele><time>2026-04-17T18:27:27.064Z</time></trkpt><trkpt lat="44.0232883" lon="8.125095"><ele>208.0</ele><time>2026-04-17T18:27:28.064Z</time></trkpt><trkpt lat="44.023325" lon="8.125"><ele>208.0</ele><time>2026-04-17T18:27:29.063Z</time></trkpt><trkpt lat="44.0233733" lon="8.1249217"><ele>208.0</ele><time>2026-04-17T18:27:30.064Z</time></trkpt><trkpt lat="44.0234283" lon="8.1248533"><ele>207.99999999999997</ele><time>2026-04-17T18:27:31.063Z</time></trkpt><trkpt lat="44.0235017" lon="8.124785"><ele>208.0</ele><time>2026-04-17T18:27:32.063Z</time></trkpt><trkpt lat="44.02359" lon="8.1247067"><ele>206.33333333333331</ele><time>2026-04-17T18:27:33.063Z</time></trkpt><trkpt lat="44.0236767" lon="8.1246267"><ele>204.66666666666666</ele><time>2026-04-17T18:27:34.063Z</time></trkpt><trkpt lat="44.0237567" lon="8.1245667"><ele>203.0</ele><time>2026-04-17T18:27:35.063Z</time></trkpt><trkpt lat="44.02383" lon="8.1245117"><ele>201.33333333333331</ele><time>2026-04-17T18:27:36.064Z</time></trkpt><trkpt lat="44.0238983" lon="8.1244633"><ele>199.66666666666666</ele><time>2026-04-17T18:27:37.064Z</time></trkpt><trkpt lat="44.02396" lon="8.1244033"><ele>198.0</ele><time>2026-04-17T18:27:38.064Z</time></trkpt><trkpt lat="44.024005" lon="8.12432"><ele>198.0</ele><time>2026-04-17T18:27:39.064Z</time></trkpt><trkpt lat="44.0240367" lon="8.12422"><ele>198.0</ele><time>2026-04-17T18:27:40.064Z</time></trkpt><trkpt lat="44.024055" lon="8.1241217"><ele>198.0</ele><time>2026-04-17T18:27:41.064Z</time></trkpt><trkpt lat="44.0240567" lon="8.124015"><ele>198.0</ele><time>2026-04-17T18:27:42.063Z</time></trkpt><trkpt lat="44.0240733" lon="8.123885"><ele>198.0</ele><time>2026-04-17T18:27:43.064Z</time></trkpt><trkpt lat="44.0240933" lon="8.1237483"><ele>198.0</ele><time>2026-04-17T18:27:44.063Z</time></trkpt><trkpt lat="44.024115" lon="8.1236317"><ele>197.60000000000002</ele><time>2026-04-17T18:27:45.063Z</time></trkpt><trkpt lat="44.024155" lon="8.1235217"><ele>197.20000000000002</ele><time>2026-04-17T18:27:46.064Z</time></trkpt><trkpt lat="44.0242083" lon="8.123405"><ele>196.8</ele><time>2026-04-17T18:27:47.064Z</time></trkpt><trkpt lat="44.0242767" lon="8.12328"><ele>196.4</ele><time>2026-04-17T18:27:48.063Z</time></trkpt><trkpt lat="44.024355" lon="8.12316"><ele>196.0</ele><time>2026-04-17T18:27:49.064Z</time></trkpt><trkpt lat="44.0244333" lon="8.1230417"><ele>196.0</ele><time>2026-04-17T18:27:50.064Z</time></trkpt><trkpt lat="44.0245067" lon="8.1229183"><ele>196.0</ele><time>2026-04-17T18:27:51.064Z</time></trkpt><trkpt lat="44.02457" lon="8.1227917"><ele>196.0</ele><time>2026-04-17T18:27:52.064Z</time></trkpt><trkpt lat="44.024615" lon="8.12267"><ele>196.0</ele><time>2026-04-17T18:27:53.063Z</time></trkpt><trkpt lat="44.024665" lon="8.12258"><ele>196.0</ele><time>2026-04-17T18:27:54.063Z</time></trkpt><trkpt lat="44.0246933" lon="8.1225"><ele>196.0</ele><time>2026-04-17T18:27:55.064Z</time></trkpt><trkpt lat="44.0247967" lon="8.122435"><ele>196.0</ele><time>2026-04-17T18:27:57.064Z</time></trkpt><trkpt lat="44.0249517" lon="8.1224517"><ele>196.0</ele><time>2026-04-17T18:27:59.064Z</time></trkpt><trkpt lat="44.02505" lon="8.12248"><ele>196.0</ele><time>2026-04-17T18:28:00.063Z</time></trkpt><trkpt lat="44.0251367" lon="8.1225233"><ele>198.20000000000002</ele><time>2026-04-17T18:28:01.063Z</time></trkpt><trkpt lat="44.0252183" lon="8.122555"><ele>200.4</ele><time>2026-04-17T18:28:02.064Z</time></trkpt><trkpt lat="44.02532" lon="8.1225783"><ele>202.6</ele><time>2026-04-17T18:28:03.064Z</time></trkpt><trkpt lat="44.025435" lon="8.1226"><ele>204.8</ele><time>2026-04-17T18:28:04.064Z</time></trkpt><trkpt lat="44.0255317" lon="8.1226283"><ele>207.0</ele><time>2026-04-17T18:28:05.063Z</time></trkpt><trkpt lat="44.0256517" lon="8.12264"><ele>207.0</ele><time>2026-04-17T18:28:06.063Z</time></trkpt><trkpt lat="44.025765" lon="8.1226383"><ele>207.0</ele><time>2026-04-17T18:28:07.064Z</time></trkpt><trkpt lat="44.0258733" lon="8.12265"><ele>207.0</ele><time>2026-04-17T18:28:08.064Z</time></trkpt><trkpt lat="44.0259917" lon="8.1226617"><ele>207.0</ele><time>2026-04-17T18:28:09.063Z</time></trkpt><trkpt lat="44.0261167" lon="8.1226617"><ele>205.2</ele><time>2026-04-17T18:28:10.064Z</time></trkpt><trkpt lat="44.0262433" lon="8.1226667"><ele>203.39999999999998</ele><time>2026-04-17T18:28:11.063Z</time></trkpt><trkpt lat="44.0263533" lon="8.1226633"><ele>201.60000000000002</ele><time>2026-04-17T18:28:12.064Z</time></trkpt><trkpt lat="44.0264567" lon="8.122645"><ele>199.8</ele><time>2026-04-17T18:28:13.063Z</time></trkpt><trkpt lat="44.0265433" lon="8.1226317"><ele>198.0</ele><time>2026-04-17T18:28:14.064Z</time></trkpt><trkpt lat="44.026645" lon="8.1225983"><ele>198.0</ele><time>2026-04-17T18:28:15.064Z</time></trkpt><trkpt lat="44.02673" lon="8.1225667"><ele>198.0</ele><time>2026-04-17T18:28:16.063Z</time></trkpt><trkpt lat="44.0268133" lon="8.1225117"><ele>198.0</ele><time>2026-04-17T18:28:17.064Z</time></trkpt><trkpt lat="44.02688" lon="8.1224483"><ele>198.0</ele><time>2026-04-17T18:28:18.063Z</time></trkpt><trkpt lat="44.026955" lon="8.1223467"><ele>198.0</ele><time>2026-04-17T18:28:19.063Z</time></trkpt><trkpt lat="44.027025" lon="8.1222433"><ele>194.8</ele><time>2026-04-17T18:28:20.063Z</time></trkpt><trkpt lat="44.02708" lon="8.1221217"><ele>191.60000000000002</ele><time>2026-04-17T18:28:21.064Z</time></trkpt><trkpt lat="44.027145" lon="8.1220033"><ele>188.39999999999998</ele><time>2026-04-17T18:28:22.064Z</time></trkpt><trkpt lat="44.027195" lon="8.1218633"><ele>185.2</ele><time>2026-04-17T18:28:23.064Z</time></trkpt><trkpt lat="44.0272533" lon="8.12173"><ele>182.0</ele><time>2026-04-17T18:28:24.063Z</time></trkpt><trkpt lat="44.0273083" lon="8.1215917"><ele>181.6</ele><time>2026-04-17T18:28:25.063Z</time></trkpt><trkpt lat="44.027355" lon="8.1214683"><ele>181.2</ele><time>2026-04-17T18:28:26.063Z</time></trkpt><trkpt lat="44.0273967" lon="8.1213533"><ele>180.8</ele><time>2026-04-17T18:28:27.063Z</time></trkpt><trkpt lat="44.0274517" lon="8.1212533"><ele>180.4</ele><time>2026-04-17T18:28:28.063Z</time></trkpt><trkpt lat="44.0275267" lon="8.1211667"><ele>180.0</ele><time>2026-04-17T18:28:29.063Z</time></trkpt><trkpt lat="44.0275933" lon="8.121065"><ele>180.0</ele><time>2026-04-17T18:28:30.063Z</time></trkpt><trkpt lat="44.0276533" lon="8.1209917"><ele>180.0</ele><time>2026-04-17T18:28:31.063Z</time></trkpt><trkpt lat="44.02772" lon="8.12094"><ele>180.0</ele><time>2026-04-17T18:28:32.064Z</time></trkpt><trkpt lat="44.0277883" lon="8.120895"><ele>180.0</ele><time>2026-04-17T18:28:33.064Z</time></trkpt><trkpt lat="44.0278583" lon="8.1208317"><ele>180.0</ele><time>2026-04-17T18:28:35.063Z</time></trkpt><trkpt lat="44.0278067" lon="8.1206767"><ele>180.0</ele><time>2026-04-17T18:28:37.063Z</time></trkpt><trkpt lat="44.02775" lon="8.1206117"><ele>177.0</ele><time>2026-04-17T18:28:38.064Z</time></trkpt><trkpt lat="44.0276383" lon="8.120595"><ele>174.0</ele><time>2026-04-17T18:28:40.063Z</time></trkpt><trkpt lat="44.0275517" lon="8.1206533"><ele>171.0</ele><time>2026-04-17T18:28:41.063Z</time></trkpt><trkpt lat="44.02746" lon="8.120735"><ele>168.0</ele><time>2026-04-17T18:28:42.063Z</time></trkpt><trkpt lat="44.0273783" lon="8.1208367"><ele>165.0</ele><time>2026-04-17T18:28:43.064Z</time></trkpt><trkpt lat="44.0272833" lon="8.120935"><ele>164.8</ele><time>2026-04-17T18:28:44.063Z</time></trkpt><trkpt lat="44.0272083" lon="8.12103"><ele>164.6</ele><time>2026-04-17T18:28:45.064Z</time></trkpt><trkpt lat="44.0271183" lon="8.1211283"><ele>164.39999999999998</ele><time>2026-04-17T18:28:46.064Z</time></trkpt><trkpt lat="44.0270283" lon="8.1212083"><ele>164.2</ele><time>2026-04-17T18:28:47.063Z</time></trkpt><trkpt lat="44.0269433" lon="8.12127"><ele>164.0</ele><time>2026-04-17T18:28:48.063Z</time></trkpt><trkpt lat="44.0268567" lon="8.1213217"><ele>164.0</ele><time>2026-04-17T18:28:49.064Z</time></trkpt><trkpt lat="44.0267733" lon="8.1213717"><ele>164.0</ele><time>2026-04-17T18:28:50.064Z</time></trkpt><trkpt lat="44.0266933" lon="8.1213933"><ele>164.0</ele><time>2026-04-17T18:28:51.064Z</time></trkpt><trkpt lat="44.0265983" lon="8.1214033"><ele>164.0</ele><time>2026-04-17T18:28:52.064Z</time></trkpt><trkpt lat="44.0265" lon="8.1213867"><ele>164.0</ele><time>2026-04-17T18:28:53.063Z</time></trkpt><trkpt lat="44.0264017" lon="8.12136"><ele>163.66666666666666</ele><time>2026-04-17T18:28:54.063Z</time></trkpt><trkpt lat="44.0263117" lon="8.1213283"><ele>163.33333333333331</ele><time>2026-04-17T18:28:55.063Z</time></trkpt><trkpt lat="44.02622" lon="8.12129"><ele>163.0</ele><time>2026-04-17T18:28:56.064Z</time></trkpt><trkpt lat="44.0261533" lon="8.1212517"><ele>162.66666666666666</ele><time>2026-04-17T18:28:57.063Z</time></trkpt><trkpt lat="44.026095" lon="8.1211833"><ele>162.33333333333334</ele><time>2026-04-17T18:28:59.064Z</time></trkpt><trkpt lat="44.02617" lon="8.12112"><ele>162.0</ele><time>2026-04-17T18:29:02.063Z</time></trkpt><trkpt lat="44.0262467" lon="8.1211017"><ele>162.0</ele><time>2026-04-17T18:29:03.063Z</time></trkpt><trkpt lat="44.026335" lon="8.1210583"><ele>162.0</ele><time>2026-04-17T18:29:04.064Z</time></trkpt><trkpt lat="44.02643" lon="8.120985"><ele>162.0</ele><time>2026-04-17T18:29:05.063Z</time></trkpt><trkpt lat="44.02654" lon="8.1208833"><ele>162.0</ele><time>2026-04-17T18:29:06.064Z</time></trkpt><trkpt lat="44.0266417" lon="8.1207433"><ele>158.33333333333334</ele><time>2026-04-17T18:29:07.064Z</time></trkpt><trkpt lat="44.0267433" lon="8.1205783"><ele>154.66666666666669</ele><time>2026-04-17T18:29:08.063Z</time></trkpt><trkpt lat="44.0268317" lon="8.1204117"><ele>151.0</ele><time>2026-04-17T18:29:09.063Z</time></trkpt><trkpt lat="44.0269133" lon="8.1202267"><ele>151.0</ele><time>2026-04-17T18:29:10.063Z</time></trkpt><trkpt lat="44.0270083" lon="8.12005"><ele>151.0</ele><time>2026-04-17T18:29:11.063Z</time></trkpt><trkpt lat="44.027105" lon="8.119875"><ele>151.0</ele><time>2026-04-17T18:29:12.064Z</time></trkpt><trkpt lat="44.02719" lon="8.1197067"><ele>148.25</ele><time>2026-04-17T18:29:13.064Z</time></trkpt><trkpt lat="44.0272567" lon="8.1195517"><ele>145.5</ele><time>2026-04-17T18:29:14.064Z</time></trkpt><trkpt lat="44.0273083" lon="8.119405"><ele>142.75</ele><time>2026-04-17T18:29:15.063Z</time></trkpt><trkpt lat="44.0273483" lon="8.11927"><ele>140.0</ele><time>2026-04-17T18:29:16.064Z</time></trkpt><trkpt lat="44.0274" lon="8.1191333"><ele>137.8</ele><time>2026-04-17T18:29:17.063Z</time></trkpt><trkpt lat="44.0274633" lon="8.11902"><ele>135.6</ele><time>2026-04-17T18:29:18.063Z</time></trkpt><trkpt lat="44.02756" lon="8.1189467"><ele>133.4</ele><time>2026-04-17T18:29:19.063Z</time></trkpt><trkpt lat="44.027665" lon="8.118895"><ele>131.2</ele><time>2026-04-17T18:29:20.063Z</time></trkpt><trkpt lat="44.0277683" lon="8.1188683"><ele>129.0</ele><time>2026-04-17T18:29:21.063Z</time></trkpt><trkpt lat="44.0278617" lon="8.1188683"><ele>128.66666666666666</ele><time>2026-04-17T18:29:22.064Z</time></trkpt><trkpt lat="44.027955" lon="8.1188983"><ele>128.33333333333334</ele><time>2026-04-17T18:29:23.064Z</time></trkpt><trkpt lat="44.0280433" lon="8.1189567"><ele>128.0</ele><time>2026-04-17T18:29:24.064Z</time></trkpt><trkpt lat="44.0281367" lon="8.11899"><ele>127.66666666666667</ele><time>2026-04-17T18:29:25.064Z</time></trkpt><trkpt lat="44.0282167" lon="8.118985"><ele>127.33333333333334</ele><time>2026-04-17T18:29:26.064Z</time></trkpt><trkpt lat="44.028245" lon="8.11889"><ele>127.0</ele><time>2026-04-17T18:29:28.064Z</time></trkpt><trkpt lat="44.0281883" lon="8.1188317"><ele>127.0</ele><time>2026-04-17T18:29:29.064Z</time></trkpt><trkpt lat="44.0281033" lon="8.11877"><ele>126.99999999999999</ele><time>2026-04-17T18:29:30.064Z</time></trkpt><trkpt lat="44.0279933" lon="8.118735"><ele>126.99999999999999</ele><time>2026-04-17T18:29:31.064Z</time></trkpt><trkpt lat="44.02788" lon="8.1187"><ele>127.0</ele><time>2026-04-17T18:29:32.063Z</time></trkpt><trkpt lat="44.02777" lon="8.118685"><ele>127.0</ele><time>2026-04-17T18:29:33.064Z</time></trkpt><trkpt lat="44.0276717" lon="8.1186717"><ele>127.0</ele><time>2026-04-17T18:29:34.064Z</time></trkpt><trkpt lat="44.02758" lon="8.1186783"><ele>126.99999999999999</ele><time>2026-04-17T18:29:35.063Z</time></trkpt><trkpt lat="44.0274883" lon="8.11866"><ele>126.99999999999999</ele><time>2026-04-17T18:29:36.064Z</time></trkpt><trkpt lat="44.0273933" lon="8.1186333"><ele>127.0</ele><time>2026-04-17T18:29:37.064Z</time></trkpt><trkpt lat="44.0272917" lon="8.1185733"><ele>127.0</ele><time>2026-04-17T18:29:38.063Z</time></trkpt><trkpt lat="44.0271883" lon="8.1184867"><ele>127.39999999999999</ele><time>2026-04-17T18:29:39.063Z</time></trkpt><trkpt lat="44.0270817" lon="8.118415"><ele>127.79999999999998</ele><time>2026-04-17T18:29:40.063Z</time></trkpt><trkpt lat="44.0269767" lon="8.1183783"><ele>128.2</ele><time>2026-04-17T18:29:41.064Z</time></trkpt><trkpt lat="44.0268733" lon="8.1183683"><ele>128.6</ele><time>2026-04-17T18:29:42.064Z</time></trkpt><trkpt lat="44.0267833" lon="8.1183533"><ele>129.0</ele><time>2026-04-17T18:29:43.063Z</time></trkpt><trkpt lat="44.02671" lon="8.1183283"><ele>127.6</ele><time>2026-04-17T18:29:44.064Z</time></trkpt><trkpt lat="44.0266117" lon="8.1182567"><ele>126.2</ele><time>2026-04-17T18:29:46.064Z</time></trkpt><trkpt lat="44.0266967" lon="8.1181867"><ele>124.79999999999998</ele><time>2026-04-17T18:29:49.064Z</time></trkpt><trkpt lat="44.0267767" lon="8.1181917"><ele>123.39999999999999</ele><time>2026-04-17T18:29:50.064Z</time></trkpt><trkpt lat="44.02691" lon="8.118205"><ele>122.0</ele><time>2026-04-17T18:29:51.064Z</time></trkpt><trkpt lat="44.02704" lon="8.11822"><ele>123.25</ele><time>2026-04-17T18:29:52.064Z</time></trkpt><trkpt lat="44.027165" lon="8.118235"><ele>124.5</ele><time>2026-04-17T18:29:53.064Z</time></trkpt><trkpt lat="44.027305" lon="8.1182583"><ele>125.75</ele><time>2026-04-17T18:29:54.063Z</time></trkpt><trkpt lat="44.0274617" lon="8.1182767"><ele>127.0</ele><time>2026-04-17T18:29:55.064Z</time></trkpt><trkpt lat="44.0276167" lon="8.118305"><ele>127.0</ele><time>2026-04-17T18:29:56.063Z</time></trkpt><trkpt lat="44.02779" lon="8.1183"><ele>127.0</ele><time>2026-04-17T18:29:57.064Z</time></trkpt><trkpt lat="44.02795" lon="8.118295"><ele>127.0</ele><time>2026-04-17T18:29:58.064Z</time></trkpt><trkpt lat="44.028095" lon="8.1182883"><ele>127.0</ele><time>2026-04-17T18:29:59.064Z</time></trkpt><trkpt lat="44.0282283" lon="8.1182783"><ele>127.0</ele><time>2026-04-17T18:30:00.064Z</time></trkpt><trkpt lat="44.02836" lon="8.1182833"><ele>127.0</ele><time>2026-04-17T18:30:01.064Z</time></trkpt><trkpt lat="44.0284867" lon="8.1183"><ele>127.0</ele><time>2026-04-17T18:30:02.063Z</time></trkpt><trkpt lat="44.028605" lon="8.1183133"><ele>124.8</ele><time>2026-04-17T18:30:03.064Z</time></trkpt><trkpt lat="44.0287117" lon="8.1183467"><ele>122.6</ele><time>2026-04-17T18:30:04.063Z</time></trkpt><trkpt lat="44.0288167" lon="8.1183733"><ele>120.39999999999999</ele><time>2026-04-17T18:30:05.063Z</time></trkpt><trkpt lat="44.0289133" lon="8.118425"><ele>118.19999999999999</ele><time>2026-04-17T18:30:06.063Z</time></trkpt><trkpt lat="44.02899" lon="8.1185083"><ele>116.0</ele><time>2026-04-17T18:30:07.063Z</time></trkpt><trkpt lat="44.0290483" lon="8.1186217"><ele>116.0</ele><time>2026-04-17T18:30:08.063Z</time></trkpt><trkpt lat="44.029095" lon="8.118765"><ele>116.0</ele><time>2026-04-17T18:30:09.064Z</time></trkpt><trkpt lat="44.0291533" lon="8.1189217"><ele>116.0</ele><time>2026-04-17T18:30:10.063Z</time></trkpt><trkpt lat="44.0292217" lon="8.11907"><ele>116.0</ele><time>2026-04-17T18:30:11.063Z</time></trkpt><trkpt lat="44.029285" lon="8.119205"><ele>115.0</ele><time>2026-04-17T18:30:12.064Z</time></trkpt><trkpt lat="44.02936" lon="8.119325"><ele>114.0</ele><time>2026-04-17T18:30:13.063Z</time></trkpt><trkpt lat="44.0294383" lon="8.1194133"><ele>113.0</ele><time>2026-04-17T18:30:14.063Z</time></trkpt><trkpt lat="44.0295133" lon="8.1194667"><ele>112.0</ele><time>2026-04-17T18:30:15.064Z</time></trkpt><trkpt lat="44.029595" lon="8.119495"><ele>111.0</ele><time>2026-04-17T18:30:16.063Z</time></trkpt><trkpt lat="44.0296967" lon="8.11949"><ele>111.0</ele><time>2026-04-17T18:30:17.063Z</time></trkpt><trkpt lat="44.0298083" lon="8.1194533"><ele>111.0</ele><time>2026-04-17T18:30:18.064Z</time></trkpt><trkpt lat="44.02993" lon="8.1194133"><ele>111.0</ele><time>2026-04-17T18:30:19.064Z</time></trkpt><trkpt lat="44.0300517" lon="8.1193767"><ele>111.0</ele><time>2026-04-17T18:30:20.064Z</time></trkpt><trkpt lat="44.0301533" lon="8.1193717"><ele>108.33333333333333</ele><time>2026-04-17T18:30:21.063Z</time></trkpt><trkpt lat="44.03024" lon="8.1193983"><ele>105.66666666666667</ele><time>2026-04-17T18:30:22.063Z</time></trkpt><trkpt lat="44.0303" lon="8.1194567"><ele>103.0</ele><time>2026-04-17T18:30:23.063Z</time></trkpt><trkpt lat="44.03034" lon="8.1195267"><ele>100.33333333333334</ele><time>2026-04-17T18:30:24.063Z</time></trkpt><trkpt lat="44.03041" lon="8.11962"><ele>97.66666666666667</ele><time>2026-04-17T18:30:26.063Z</time></trkpt><trkpt lat="44.0304483" lon="8.119465"><ele>95.0</ele><time>2026-04-17T18:30:29.064Z</time></trkpt><trkpt lat="44.030415" lon="8.1193483"><ele>95.0</ele><time>2026-04-17T18:30:30.064Z</time></trkpt><trkpt lat="44.03038" lon="8.1192233"><ele>95.0</ele><time>2026-04-17T18:30:31.063Z</time></trkpt><trkpt lat="44.0303533" lon="8.1191033"><ele>95.0</ele><time>2026-04-17T18:30:32.063Z</time></trkpt><trkpt lat="44.0303517" lon="8.119005"><ele>95.0</ele><time>2026-04-17T18:30:33.064Z</time></trkpt><trkpt lat="44.030415" lon="8.118905"><ele>95.0</ele><time>2026-04-17T18:30:35.063Z</time></trkpt><trkpt lat="44.0305083" lon="8.1190467"><ele>95.0</ele><time>2026-04-17T18:30:37.064Z</time></trkpt><trkpt lat="44.0305533" lon="8.119175"><ele>95.0</ele><time>2026-04-17T18:30:38.063Z</time></trkpt><trkpt lat="44.0306117" lon="8.11934"><ele>95.0</ele><time>2026-04-17T18:30:39.063Z</time></trkpt><trkpt lat="44.0306767" lon="8.1195117"><ele>95.0</ele><time>2026-04-17T18:30:40.063Z</time></trkpt><trkpt lat="44.03075" lon="8.1197033"><ele>92.0</ele><time>2026-04-17T18:30:41.064Z</time></trkpt><trkpt lat="44.03082" lon="8.1198833"><ele>89.0</ele><time>2026-04-17T18:30:42.064Z</time></trkpt><trkpt lat="44.030895" lon="8.1200633"><ele>86.0</ele><time>2026-04-17T18:30:43.064Z</time></trkpt><trkpt lat="44.0309817" lon="8.1202217"><ele>83.0</ele><time>2026-04-17T18:30:44.064Z</time></trkpt><trkpt lat="44.031095" lon="8.1203617"><ele>83.0</ele><time>2026-04-17T18:30:45.063Z</time></trkpt><trkpt lat="44.0312" lon="8.12047"><ele>83.0</ele><time>2026-04-17T18:30:46.063Z</time></trkpt><trkpt lat="44.0312833" lon="8.1205533"><ele>83.0</ele><time>2026-04-17T18:30:47.064Z</time></trkpt><trkpt lat="44.0313383" lon="8.120635"><ele>83.0</ele><time>2026-04-17T18:30:48.063Z</time></trkpt><trkpt lat="44.0313817" lon="8.1207183"><ele>83.0</ele><time>2026-04-17T18:30:49.064Z</time></trkpt><trkpt lat="44.0313867" lon="8.1208117"><ele>82.4</ele><time>2026-04-17T18:30:50.064Z</time></trkpt><trkpt lat="44.0313183" lon="8.1209233"><ele>81.80000000000001</ele><time>2026-04-17T18:30:51.064Z</time></trkpt><trkpt lat="44.0312467" lon="8.1210167"><ele>81.2</ele><time>2026-04-17T18:30:52.063Z</time></trkpt><trkpt lat="44.03118" lon="8.121055"><ele>80.6</ele><time>2026-04-17T18:30:53.064Z</time></trkpt><trkpt lat="44.0310917" lon="8.1211367"><ele>80.0</ele><time>2026-04-17T18:30:55.064Z</time></trkpt><trkpt lat="44.0311533" lon="8.1212567"><ele>80.0</ele><time>2026-04-17T18:30:57.063Z</time></trkpt><trkpt lat="44.0313067" lon="8.1212117"><ele>80.0</ele><time>2026-04-17T18:30:59.064Z</time></trkpt><trkpt lat="44.0313883" lon="8.1211383"><ele>80.0</ele><time>2026-04-17T18:31:00.064Z</time></trkpt><trkpt lat="44.0314667" lon="8.1210333"><ele>80.0</ele><time>2026-04-17T18:31:01.064Z</time></trkpt><trkpt lat="44.0315317" lon="8.1209233"><ele>80.0</ele><time>2026-04-17T18:31:02.063Z</time></trkpt><trkpt lat="44.03158" lon="8.1208083"><ele>80.0</ele><time>2026-04-17T18:31:03.064Z</time></trkpt><trkpt lat="44.0316217" lon="8.1207183"><ele>80.0</ele><time>2026-04-17T18:31:04.063Z</time></trkpt><trkpt lat="44.03168" lon="8.1206517"><ele>80.0</ele><time>2026-04-17T18:31:05.063Z</time></trkpt><trkpt lat="44.03173" lon="8.1205817"><ele>80.0</ele><time>2026-04-17T18:31:06.063Z</time></trkpt><trkpt lat="44.0317617" lon="8.120495"><ele>80.0</ele><time>2026-04-17T18:31:07.063Z</time></trkpt><trkpt lat="44.0317183" lon="8.120325"><ele>80.6</ele><time>2026-04-17T18:31:09.063Z</time></trkpt><trkpt lat="44.03165" lon="8.1202283"><ele>81.2</ele><time>2026-04-17T18:31:10.064Z</time></trkpt><trkpt lat="44.031575" lon="8.120125"><ele>81.80000000000001</ele><time>2026-04-17T18:31:11.064Z</time></trkpt><trkpt lat="44.0314933" lon="8.120025"><ele>82.4</ele><time>2026-04-17T18:31:12.063Z</time></trkpt><trkpt lat="44.0314267" lon="8.1199217"><ele>83.0</ele><time>2026-04-17T18:31:13.063Z</time></trkpt><trkpt lat="44.03137" lon="8.119835"><ele>83.0</ele><time>2026-04-17T18:31:14.063Z</time></trkpt><trkpt lat="44.0313433" lon="8.1197117"><ele>83.0</ele><time>2026-04-17T18:31:16.064Z</time></trkpt><trkpt lat="44.0314383" lon="8.11971"><ele>83.0</ele><time>2026-04-17T18:31:19.063Z</time></trkpt><trkpt lat="44.03151" lon="8.1198"><ele>83.0</ele><time>2026-04-17T18:31:20.063Z</time></trkpt><trkpt lat="44.0316" lon="8.11991"><ele>83.0</ele><time>2026-04-17T18:31:21.064Z</time></trkpt><trkpt lat="44.0316967" lon="8.1199983"><ele>78.60000000000001</ele><time>2026-04-17T18:31:22.064Z</time></trkpt><trkpt lat="44.0317883" lon="8.1200917"><ele>74.2</ele><time>2026-04-17T18:31:23.064Z</time></trkpt><trkpt lat="44.0318833" lon="8.1201833"><ele>69.8</ele><time>2026-04-17T18:31:24.063Z</time></trkpt><trkpt lat="44.03196" lon="8.1202633"><ele>65.4</ele><time>2026-04-17T18:31:25.063Z</time></trkpt><trkpt lat="44.032025" lon="8.120365"><ele>61.0</ele><time>2026-04-17T18:31:26.064Z</time></trkpt><trkpt lat="44.0320733" lon="8.120485"><ele>61.0</ele><time>2026-04-17T18:31:27.064Z</time></trkpt><trkpt lat="44.0321117" lon="8.1206233"><ele>60.99999999999999</ele><time>2026-04-17T18:31:28.064Z</time></trkpt><trkpt lat="44.0321567" lon="8.1207583"><ele>60.99999999999999</ele><time>2026-04-17T18:31:29.064Z</time></trkpt><trkpt lat="44.0321967" lon="8.1209"><ele>61.0</ele><time>2026-04-17T18:31:30.063Z</time></trkpt><trkpt lat="44.032245" lon="8.1210383"><ele>61.0</ele><time>2026-04-17T18:31:31.064Z</time></trkpt><trkpt lat="44.032285" lon="8.121175"><ele>61.49999999999999</ele><time>2026-04-17T18:31:32.063Z</time></trkpt><trkpt lat="44.0323167" lon="8.1213033"><ele>62.0</ele><time>2026-04-17T18:31:33.063Z</time></trkpt><trkpt lat="44.0323533" lon="8.121415"><ele>62.5</ele><time>2026-04-17T18:31:34.063Z</time></trkpt><trkpt lat="44.0323883" lon="8.121505"><ele>63.0</ele><time>2026-04-17T18:31:35.064Z</time></trkpt><trkpt lat="44.0324833" lon="8.1216017"><ele>63.49999999999999</ele><time>2026-04-17T18:31:37.063Z</time></trkpt><trkpt lat="44.032555" lon="8.1216083"><ele>64.0</ele><time>2026-04-17T18:31:38.064Z</time></trkpt><trkpt lat="44.0326617" lon="8.121605"><ele>60.400000000000006</ele><time>2026-04-17T18:31:39.064Z</time></trkpt><trkpt lat="44.0327633" lon="8.1216017"><ele>56.800000000000004</ele><time>2026-04-17T18:31:40.063Z</time></trkpt><trkpt lat="44.032865" lon="8.1216117"><ele>53.2</ele><time>2026-04-17T18:31:41.064Z</time></trkpt><trkpt lat="44.032965" lon="8.12164"><ele>49.599999999999994</ele><time>2026-04-17T18:31:42.063Z</time></trkpt><trkpt lat="44.033065" lon="8.1216717"><ele>46.0</ele><time>2026-04-17T18:31:43.063Z</time></trkpt><trkpt lat="44.033155" lon="8.1217067"><ele>46.0</ele><time>2026-04-17T18:31:44.064Z</time></trkpt><trkpt lat="44.033245" lon="8.1217033"><ele>46.0</ele><time>2026-04-17T18:31:45.063Z</time></trkpt><trkpt lat="44.033335" lon="8.121675"><ele>46.0</ele><time>2026-04-17T18:31:46.064Z</time></trkpt><trkpt lat="44.0334183" lon="8.121625"><ele>46.0</ele><time>2026-04-17T18:31:47.064Z</time></trkpt><trkpt lat="44.0335133" lon="8.1215633"><ele>46.0</ele><time>2026-04-17T18:31:48.064Z</time></trkpt><trkpt lat="44.03361" lon="8.1214717"><ele>44.25</ele><time>2026-04-17T18:31:49.064Z</time></trkpt><trkpt lat="44.0337167" lon="8.1213917"><ele>42.5</ele><time>2026-04-17T18:31:50.064Z</time></trkpt><trkpt lat="44.0338183" lon="8.1213117"><ele>40.75</ele><time>2026-04-17T18:31:51.063Z</time></trkpt><trkpt lat="44.0339167" lon="8.1212267"><ele>39.0</ele><time>2026-04-17T18:31:52.063Z</time></trkpt><trkpt lat="44.0340017" lon="8.121155"><ele>39.0</ele><time>2026-04-17T18:31:53.064Z</time></trkpt><trkpt lat="44.03408" lon="8.1211067"><ele>39.0</ele><time>2026-04-17T18:31:54.063Z</time></trkpt><trkpt lat="44.0341517" lon="8.1210667"><ele>39.0</ele><time>2026-04-17T18:31:55.064Z</time></trkpt><trkpt lat="44.0342467" lon="8.12109"><ele>39.0</ele><time>2026-04-17T18:31:57.064Z</time></trkpt><trkpt lat="44.034355" lon="8.1212467"><ele>39.0</ele><time>2026-04-17T18:31:59.063Z</time></trkpt><trkpt lat="44.034425" lon="8.12138"><ele>38.75</ele><time>2026-04-17T18:32:00.063Z</time></trkpt><trkpt lat="44.0344983" lon="8.121535"><ele>38.5</ele><time>2026-04-17T18:32:01.064Z</time></trkpt><trkpt lat="44.0345817" lon="8.121685"><ele>38.25</ele><time>2026-04-17T18:32:02.063Z</time></trkpt><trkpt lat="44.0346617" lon="8.12182"><ele>38.0</ele><time>2026-04-17T18:32:03.064Z</time></trkpt><trkpt lat="44.0347333" lon="8.1219433"><ele>38.0</ele><time>2026-04-17T18:32:04.063Z</time></trkpt><trkpt lat="44.0348333" lon="8.122025"><ele>38.0</ele><time>2026-04-17T18:32:05.063Z</time></trkpt><trkpt lat="44.0349483" lon="8.1220933"><ele>38.0</ele><time>2026-04-17T18:32:06.064Z</time></trkpt><trkpt lat="44.0350683" lon="8.1221667"><ele>38.0</ele><time>2026-04-17T18:32:07.064Z</time></trkpt><trkpt lat="44.0351733" lon="8.1222433"><ele>38.0</ele><time>2026-04-17T18:32:08.064Z</time></trkpt><trkpt lat="44.0352817" lon="8.122305"><ele>38.0</ele><time>2026-04-17T18:32:09.064Z</time></trkpt><trkpt lat="44.03538" lon="8.1223933"><ele>38.0</ele><time>2026-04-17T18:32:10.063Z</time></trkpt><trkpt lat="44.0354817" lon="8.1224483"><ele>38.0</ele><time>2026-04-17T18:32:11.064Z</time></trkpt><trkpt lat="44.0355533" lon="8.1224783"><ele>38.0</ele><time>2026-04-17T18:32:12.064Z</time></trkpt><trkpt lat="44.035625" lon="8.1224817"><ele>38.0</ele><time>2026-04-17T18:32:13.063Z</time></trkpt><trkpt lat="44.0357083" lon="8.1224317"><ele>38.0</ele><time>2026-04-17T18:32:14.063Z</time></trkpt><trkpt lat="44.0357967" lon="8.12238"><ele>38.0</ele><time>2026-04-17T18:32:15.064Z</time></trkpt><trkpt lat="44.035875" lon="8.122325"><ele>38.0</ele><time>2026-04-17T18:32:16.064Z</time></trkpt><trkpt lat="44.03595" lon="8.12229"><ele>38.0</ele><time>2026-04-17T18:32:17.063Z</time></trkpt><trkpt lat="44.0360117" lon="8.1222633"><ele>38.0</ele><time>2026-04-17T18:32:18.064Z</time></trkpt><trkpt lat="44.036075" lon="8.122245"><ele>37.8</ele><time>2026-04-17T18:32:19.063Z</time></trkpt><trkpt lat="44.0361783" lon="8.1222433"><ele>37.599999999999994</ele><time>2026-04-17T18:32:21.063Z</time></trkpt><trkpt lat="44.036265" lon="8.1222133"><ele>37.400000000000006</ele><time>2026-04-17T18:32:23.064Z</time></trkpt><trkpt lat="44.0363483" lon="8.1221833"><ele>37.2</ele><time>2026-04-17T18:32:25.064Z</time></trkpt><trkpt lat="44.0364533" lon="8.1221417"><ele>37.0</ele><time>2026-04-17T18:32:27.064Z</time></trkpt><trkpt lat="44.0365383" lon="8.1220617"><ele>37.0</ele><time>2026-04-17T18:32:29.064Z</time></trkpt><trkpt lat="44.0365967" lon="8.1219517"><ele>37.0</ele><time>2026-04-17T18:32:31.063Z</time></trkpt><trkpt lat="44.0366583" lon="8.12184"><ele>37.0</ele><time>2026-04-17T18:32:33.063Z</time></trkpt><trkpt lat="44.03675" lon="8.1217783"><ele>37.0</ele><time>2026-04-17T18:32:35.063Z</time></trkpt><trkpt lat="44.0368283" lon="8.121755"><ele>37.0</ele><time>2026-04-17T18:33:00.064Z</time></trkpt><trkpt lat="44.0367433" lon="8.121785"><ele>37.0</ele><time>2026-04-17T18:33:03.064Z</time></trkpt><trkpt lat="44.0366733" lon="8.121845"><ele>37.0</ele><time>2026-04-17T18:33:04.063Z</time></trkpt><trkpt lat="44.03661" lon="8.12191"><ele>37.0</ele><time>2026-04-17T18:33:05.063Z</time></trkpt><trkpt lat="44.0365583" lon="8.1219833"><ele>37.0</ele><time>2026-04-17T18:33:06.063Z</time></trkpt><trkpt lat="44.03648" lon="8.12209"><ele>37.0</ele><time>2026-04-17T18:33:08.064Z</time></trkpt><trkpt lat="44.03639" lon="8.1221367"><ele>37.0</ele><time>2026-04-17T18:33:10.063Z</time></trkpt><trkpt lat="44.0363" lon="8.1221733"><ele>37.0</ele><time>2026-04-17T18:33:12.064Z</time></trkpt><trkpt lat="44.0362567" lon="8.1222383"><ele>37.0</ele><time>2026-04-17T18:33:14.064Z</time></trkpt><trkpt lat="44.036275" lon="8.122335"><ele>37.0</ele><time>2026-04-17T18:33:17.063Z</time></trkpt><trkpt lat="44.036295" lon="8.1224567"><ele>37.0</ele><time>2026-04-17T18:33:20.064Z</time></trkpt><trkpt lat="44.0363067" lon="8.1225617"><ele>37.0</ele><time>2026-04-17T18:33:21.063Z</time></trkpt><trkpt lat="44.036335" lon="8.1226917"><ele>37.0</ele><time>2026-04-17T18:33:22.063Z</time></trkpt><trkpt lat="44.03638" lon="8.1228367"><ele>36.800000000000004</ele><time>2026-04-17T18:33:23.064Z</time></trkpt><trkpt lat="44.0364383" lon="8.1229717"><ele>36.6</ele><time>2026-04-17T18:33:24.064Z</time></trkpt><trkpt lat="44.0364933" lon="8.1231033"><ele>36.400000000000006</ele><time>2026-04-17T18:33:25.063Z</time></trkpt><trkpt lat="44.0365467" lon="8.1232267"><ele>36.2</ele><time>2026-04-17T18:33:26.064Z</time></trkpt><trkpt lat="44.0366083" lon="8.1233417"><ele>36.0</ele><time>2026-04-17T18:33:27.063Z</time></trkpt><trkpt lat="44.0366567" lon="8.123465"><ele>35.666666666666664</ele><time>2026-04-17T18:33:28.063Z</time></trkpt><trkpt lat="44.0367067" lon="8.1235833"><ele>35.333333333333336</ele><time>2026-04-17T18:33:29.063Z</time></trkpt><trkpt lat="44.0367567" lon="8.1236833"><ele>35.0</ele><time>2026-04-17T18:33:30.064Z</time></trkpt><trkpt lat="44.0368183" lon="8.1237517"><ele>34.66666666666667</ele><time>2026-04-17T18:33:31.063Z</time></trkpt><trkpt lat="44.03688" lon="8.1238167"><ele>34.333333333333336</ele><time>2026-04-17T18:33:32.063Z</time></trkpt><trkpt lat="44.036935" lon="8.1238683"><ele>34.0</ele><time>2026-04-17T18:33:33.064Z</time></trkpt><trkpt lat="44.0369783" lon="8.1239467"><ele>34.0</ele><time>2026-04-17T18:33:34.064Z</time></trkpt><trkpt lat="44.0370233" lon="8.1240567"><ele>34.0</ele><time>2026-04-17T18:33:35.064Z</time></trkpt><trkpt lat="44.0370683" lon="8.124185"><ele>34.0</ele><time>2026-04-17T18:33:36.063Z</time></trkpt><trkpt lat="44.037115" lon="8.1243067"><ele>34.0</ele><time>2026-04-17T18:33:37.063Z</time></trkpt><trkpt lat="44.037165" lon="8.1244383"><ele>34.0</ele><time>2026-04-17T18:33:38.064Z</time></trkpt><trkpt lat="44.03723" lon="8.12456"><ele>34.4</ele><time>2026-04-17T18:33:39.063Z</time></trkpt><trkpt lat="44.0372933" lon="8.1246817"><ele>34.8</ele><time>2026-04-17T18:33:40.064Z</time></trkpt><trkpt lat="44.0373433" lon="8.1248033"><ele>35.2</ele><time>2026-04-17T18:33:41.063Z</time></trkpt><trkpt lat="44.0373917" lon="8.1249317"><ele>35.6</ele><time>2026-04-17T18:33:42.063Z</time></trkpt><trkpt lat="44.037435" lon="8.1250483"><ele>36.0</ele><time>2026-04-17T18:33:43.063Z</time></trkpt><trkpt lat="44.0374917" lon="8.1251683"><ele>36.0</ele><time>2026-04-17T18:33:44.064Z</time></trkpt><trkpt lat="44.0375633" lon="8.12528"><ele>36.0</ele><time>2026-04-17T18:33:45.064Z</time></trkpt><trkpt lat="44.0376283" lon="8.12539"><ele>36.0</ele><time>2026-04-17T18:33:46.063Z</time></trkpt><trkpt lat="44.0377017" lon="8.1255"><ele>36.0</ele><time>2026-04-17T18:33:47.064Z</time></trkpt><trkpt lat="44.0377717" lon="8.1256117"><ele>36.0</ele><time>2026-04-17T18:33:48.064Z</time></trkpt><trkpt lat="44.0378333" lon="8.1257267"><ele>36.8</ele><time>2026-04-17T18:33:49.063Z</time></trkpt><trkpt lat="44.0378833" lon="8.1258333"><ele>37.6</ele><time>2026-04-17T18:33:50.063Z</time></trkpt><trkpt lat="44.037955" lon="8.12592"><ele>38.4</ele><time>2026-04-17T18:33:51.064Z</time></trkpt><trkpt lat="44.0380333" lon="8.1260183"><ele>39.2</ele><time>2026-04-17T18:33:52.063Z</time></trkpt><trkpt lat="44.0381183" lon="8.1261"><ele>40.0</ele><time>2026-04-17T18:33:53.063Z</time></trkpt><trkpt lat="44.0382117" lon="8.1261683"><ele>38.833333333333336</ele><time>2026-04-17T18:33:54.064Z</time></trkpt><trkpt lat="44.0383017" lon="8.12623"><ele>37.66666666666667</ele><time>2026-04-17T18:33:55.063Z</time></trkpt><trkpt lat="44.03839" lon="8.126275"><ele>36.5</ele><time>2026-04-17T18:33:56.064Z</time></trkpt><trkpt lat="44.0384733" lon="8.1263183"><ele>35.333333333333336</ele><time>2026-04-17T18:33:57.063Z</time></trkpt><trkpt lat="44.03855" lon="8.12634"><ele>34.166666666666664</ele><time>2026-04-17T18:33:58.064Z</time></trkpt><trkpt lat="44.0386233" lon="8.1263417"><ele>33.0</ele><time>2026-04-17T18:33:59.063Z</time></trkpt><trkpt lat="44.0386917" lon="8.1263433"><ele>33.0</ele><time>2026-04-17T18:34:00.064Z</time></trkpt><trkpt lat="44.038755" lon="8.1263183"><ele>33.0</ele><time>2026-04-17T18:34:01.064Z</time></trkpt><trkpt lat="44.03884" lon="8.1262867"><ele>33.0</ele><time>2026-04-17T18:34:03.063Z</time></trkpt><trkpt lat="44.0389033" lon="8.1263233"><ele>33.0</ele><time>2026-04-17T18:34:33.063Z</time></trkpt><trkpt lat="44.0390083" lon="8.126415"><ele>33.0</ele><time>2026-04-17T18:34:35.064Z</time></trkpt><trkpt lat="44.0391183" lon="8.1264467"><ele>33.333333333333336</ele><time>2026-04-17T18:34:36.064Z</time></trkpt><trkpt lat="44.0392583" lon="8.1264717"><ele>33.66666666666667</ele><time>2026-04-17T18:34:37.063Z</time></trkpt><trkpt lat="44.0394033" lon="8.126505"><ele>34.0</ele><time>2026-04-17T18:34:38.063Z</time></trkpt><trkpt lat="44.0395633" lon="8.12655"><ele>33.66666666666667</ele><time>2026-04-17T18:34:39.063Z</time></trkpt><trkpt lat="44.0397233" lon="8.1266117"><ele>33.333333333333336</ele><time>2026-04-17T18:34:40.064Z</time></trkpt><trkpt lat="44.03986" lon="8.1266833"><ele>33.0</ele><time>2026-04-17T18:34:41.063Z</time></trkpt><trkpt lat="44.0399933" lon="8.1267467"><ele>32.75</ele><time>2026-04-17T18:34:42.064Z</time></trkpt><trkpt lat="44.0401183" lon="8.1268283"><ele>32.5</ele><time>2026-04-17T18:34:43.063Z</time></trkpt><trkpt lat="44.0402467" lon="8.126915"><ele>32.25</ele><time>2026-04-17T18:34:44.064Z</time></trkpt><trkpt lat="44.040375" lon="8.1270017"><ele>32.0</ele><time>2026-04-17T18:34:45.064Z</time></trkpt><trkpt lat="44.0404933" lon="8.1270967"><ele>32.0</ele><time>2026-04-17T18:34:46.064Z</time></trkpt><trkpt lat="44.0406167" lon="8.1271917"><ele>32.0</ele><time>2026-04-17T18:34:47.064Z</time></trkpt><trkpt lat="44.0407467" lon="8.1273033"><ele>32.0</ele><time>2026-04-17T18:34:48.063Z</time></trkpt><trkpt lat="44.0408683" lon="8.1274067"><ele>32.0</ele><time>2026-04-17T18:34:49.064Z</time></trkpt><trkpt lat="44.04098" lon="8.1275133"><ele>32.0</ele><time>2026-04-17T18:34:50.063Z</time></trkpt><trkpt lat="44.0410867" lon="8.1276283"><ele>32.0</ele><time>2026-04-17T18:34:51.063Z</time></trkpt><trkpt lat="44.0411917" lon="8.1277583"><ele>32.0</ele><time>2026-04-17T18:34:52.064Z</time></trkpt><trkpt lat="44.0412967" lon="8.1278983"><ele>32.0</ele><time>2026-04-17T18:34:53.063Z</time></trkpt><trkpt lat="44.0413983" lon="8.1280517"><ele>32.0</ele><time>2026-04-17T18:34:54.063Z</time></trkpt><trkpt lat="44.0414967" lon="8.1282133"><ele>32.0</ele><time>2026-04-17T18:34:55.064Z</time></trkpt><trkpt lat="44.0415917" lon="8.1283717"><ele>32.0</ele><time>2026-04-17T18:34:56.064Z</time></trkpt><trkpt lat="44.0416733" lon="8.1285317"><ele>32.0</ele><time>2026-04-17T18:34:57.064Z</time></trkpt><trkpt lat="44.0417367" lon="8.1286883"><ele>32.25</ele><time>2026-04-17T18:34:58.064Z</time></trkpt><trkpt lat="44.0417967" lon="8.12884"><ele>32.5</ele><time>2026-04-17T18:34:59.064Z</time></trkpt><trkpt lat="44.0418533" lon="8.1290067"><ele>32.75</ele><time>2026-04-17T18:35:00.064Z</time></trkpt><trkpt lat="44.0418917" lon="8.12919"><ele>33.0</ele><time>2026-04-17T18:35:01.064Z</time></trkpt><trkpt lat="44.0419217" lon="8.1293683"><ele>33.0</ele><time>2026-04-17T18:35:02.063Z</time></trkpt><trkpt lat="44.041955" lon="8.1295317"><ele>33.0</ele><time>2026-04-17T18:35:03.064Z</time></trkpt><trkpt lat="44.041975" lon="8.1296883"><ele>33.0</ele><time>2026-04-17T18:35:04.063Z</time></trkpt><trkpt lat="44.041995" lon="8.1298417"><ele>33.0</ele><time>2026-04-17T18:35:05.063Z</time></trkpt><trkpt lat="44.0420167" lon="8.129985"><ele>32.8</ele><time>2026-04-17T18:35:06.064Z</time></trkpt><trkpt lat="44.042045" lon="8.1301317"><ele>32.599999999999994</ele><time>2026-04-17T18:35:07.064Z</time></trkpt><trkpt lat="44.0420667" lon="8.1302633"><ele>32.400000000000006</ele><time>2026-04-17T18:35:08.064Z</time></trkpt><trkpt lat="44.0421017" lon="8.130425"><ele>32.2</ele><time>2026-04-17T18:35:09.063Z</time></trkpt><trkpt lat="44.042135" lon="8.130575"><ele>32.0</ele><time>2026-04-17T18:35:10.064Z</time></trkpt><trkpt lat="44.04216" lon="8.13071"><ele>31.6</ele><time>2026-04-17T18:35:11.063Z</time></trkpt><trkpt lat="44.042185" lon="8.1308217"><ele>31.200000000000003</ele><time>2026-04-17T18:35:12.063Z</time></trkpt><trkpt lat="44.042205" lon="8.13092"><ele>30.8</ele><time>2026-04-17T18:35:13.064Z</time></trkpt><trkpt lat="44.04222" lon="8.13101"><ele>30.4</ele><time>2026-04-17T18:35:14.063Z</time></trkpt><trkpt lat="44.0422217" lon="8.1311617"><ele>30.0</ele><time>2026-04-17T18:35:16.063Z</time></trkpt><trkpt lat="44.042155" lon="8.1313483"><ele>30.0</ele><time>2026-04-17T18:35:18.063Z</time></trkpt><trkpt lat="44.0420967" lon="8.1314683"><ele>30.0</ele><time>2026-04-17T18:35:19.063Z</time></trkpt><trkpt lat="44.042045" lon="8.13159"><ele>30.0</ele><time>2026-04-17T18:35:20.064Z</time></trkpt><trkpt lat="44.04199" lon="8.1316983"><ele>30.0</ele><time>2026-04-17T18:35:21.064Z</time></trkpt><trkpt lat="44.0419317" lon="8.131805"><ele>30.0</ele><time>2026-04-17T18:35:22.064Z</time></trkpt><trkpt lat="44.0418733" lon="8.13191"><ele>30.0</ele><time>2026-04-17T18:35:23.064Z</time></trkpt><trkpt lat="44.04182" lon="8.1320183"><ele>30.0</ele><time>2026-04-17T18:35:24.064Z</time></trkpt><trkpt lat="44.0417733" lon="8.1321417"><ele>30.0</ele><time>2026-04-17T18:35:25.063Z</time></trkpt><trkpt lat="44.04173" lon="8.1322883"><ele>30.0</ele><time>2026-04-17T18:35:26.064Z</time></trkpt><trkpt lat="44.0417067" lon="8.1324417"><ele>30.0</ele><time>2026-04-17T18:35:27.063Z</time></trkpt><trkpt lat="44.0416817" lon="8.1325967"><ele>30.2</ele><time>2026-04-17T18:35:28.063Z</time></trkpt><trkpt lat="44.04167" lon="8.13274"><ele>30.4</ele><time>2026-04-17T18:35:29.064Z</time></trkpt><trkpt lat="44.041665" lon="8.1328683"><ele>30.6</ele><time>2026-04-17T18:35:30.064Z</time></trkpt><trkpt lat="44.0416633" lon="8.1330017"><ele>30.8</ele><time>2026-04-17T18:35:31.063Z</time></trkpt><trkpt lat="44.0416683" lon="8.13313"><ele>31.0</ele><time>2026-04-17T18:35:32.063Z</time></trkpt><trkpt lat="44.0416967" lon="8.13326"><ele>32.0</ele><time>2026-04-17T18:35:33.064Z</time></trkpt><trkpt lat="44.0417367" lon="8.1333917"><ele>33.0</ele><time>2026-04-17T18:35:34.064Z</time></trkpt><trkpt lat="44.0418" lon="8.13351"><ele>34.0</ele><time>2026-04-17T18:35:35.064Z</time></trkpt><trkpt lat="44.0418567" lon="8.1336333"><ele>35.0</ele><time>2026-04-17T18:35:36.063Z</time></trkpt><trkpt lat="44.0418917" lon="8.1337733"><ele>36.0</ele><time>2026-04-17T18:35:37.064Z</time></trkpt><trkpt lat="44.041905" lon="8.13392"><ele>36.8</ele><time>2026-04-17T18:35:38.063Z</time></trkpt><trkpt lat="44.0419133" lon="8.1340667"><ele>37.6</ele><time>2026-04-17T18:35:39.063Z</time></trkpt><trkpt lat="44.0419067" lon="8.1342217"><ele>38.4</ele><time>2026-04-17T18:35:40.064Z</time></trkpt><trkpt lat="44.0418983" lon="8.1343783"><ele>39.2</ele><time>2026-04-17T18:35:41.063Z</time></trkpt><trkpt lat="44.0418867" lon="8.134525"><ele>40.0</ele><time>2026-04-17T18:35:42.064Z</time></trkpt><trkpt lat="44.041885" lon="8.1346733"><ele>40.0</ele><time>2026-04-17T18:35:43.064Z</time></trkpt><trkpt lat="44.0419017" lon="8.1348267"><ele>40.0</ele><time>2026-04-17T18:35:44.063Z</time></trkpt><trkpt lat="44.0419217" lon="8.1349883"><ele>40.0</ele><time>2026-04-17T18:35:45.064Z</time></trkpt><trkpt lat="44.041945" lon="8.1351417"><ele>40.0</ele><time>2026-04-17T18:35:46.063Z</time></trkpt><trkpt lat="44.0419617" lon="8.1352867"><ele>40.0</ele><time>2026-04-17T18:35:47.064Z</time></trkpt><trkpt lat="44.0419667" lon="8.1354367"><ele>40.2</ele><time>2026-04-17T18:35:48.063Z</time></trkpt><trkpt lat="44.04196" lon="8.135585"><ele>40.4</ele><time>2026-04-17T18:35:49.063Z</time></trkpt><trkpt lat="44.0419417" lon="8.1357133"><ele>40.599999999999994</ele><time>2026-04-17T18:35:50.063Z</time></trkpt><trkpt lat="44.0419283" lon="8.135845"><ele>40.8</ele><time>2026-04-17T18:35:51.063Z</time></trkpt><trkpt lat="44.041935" lon="8.1359633"><ele>41.0</ele><time>2026-04-17T18:35:52.063Z</time></trkpt><trkpt lat="44.0419633" lon="8.13608"><ele>41.0</ele><time>2026-04-17T18:35:53.063Z</time></trkpt><trkpt lat="44.042015" lon="8.1362033"><ele>41.0</ele><time>2026-04-17T18:35:54.064Z</time></trkpt><trkpt lat="44.0420733" lon="8.13632"><ele>41.0</ele><time>2026-04-17T18:35:55.063Z</time></trkpt><trkpt lat="44.04213" lon="8.1364317"><ele>41.0</ele><time>2026-04-17T18:35:56.064Z</time></trkpt><trkpt lat="44.0421817" lon="8.1365533"><ele>41.0</ele><time>2026-04-17T18:35:57.064Z</time></trkpt><trkpt lat="44.04223" lon="8.13668"><ele>41.83333333333333</ele><time>2026-04-17T18:35:58.064Z</time></trkpt><trkpt lat="44.04227" lon="8.1368067"><ele>42.666666666666664</ele><time>2026-04-17T18:35:59.063Z</time></trkpt><trkpt lat="44.0423033" lon="8.1369233"><ele>43.5</ele><time>2026-04-17T18:36:00.064Z</time></trkpt><trkpt lat="44.042335" lon="8.137015"><ele>44.333333333333336</ele><time>2026-04-17T18:36:01.063Z</time></trkpt><trkpt lat="44.042345" lon="8.1371017"><ele>45.16666666666667</ele><time>2026-04-17T18:36:02.063Z</time></trkpt><trkpt lat="44.0423317" lon="8.137205"><ele>46.0</ele><time>2026-04-17T18:36:03.063Z</time></trkpt><trkpt lat="44.042325" lon="8.1373083"><ele>47.4</ele><time>2026-04-17T18:36:04.064Z</time></trkpt><trkpt lat="44.04233" lon="8.137405"><ele>48.8</ele><time>2026-04-17T18:36:05.063Z</time></trkpt><trkpt lat="44.0423667" lon="8.13758"><ele>50.199999999999996</ele><time>2026-04-17T18:36:07.064Z</time></trkpt><trkpt lat="44.0423967" lon="8.1376833"><ele>51.599999999999994</ele><time>2026-04-17T18:36:08.064Z</time></trkpt><trkpt lat="44.042405" lon="8.1378017"><ele>53.0</ele><time>2026-04-17T18:36:09.063Z</time></trkpt><trkpt lat="44.04242" lon="8.1379267"><ele>53.0</ele><time>2026-04-17T18:36:10.063Z</time></trkpt><trkpt lat="44.04244" lon="8.13806"><ele>53.0</ele><time>2026-04-17T18:36:11.064Z</time></trkpt><trkpt lat="44.04247" lon="8.1381983"><ele>53.0</ele><time>2026-04-17T18:36:12.064Z</time></trkpt><trkpt lat="44.0424933" lon="8.1383217"><ele>53.0</ele><time>2026-04-17T18:36:13.064Z</time></trkpt><trkpt lat="44.0425317" lon="8.138455"><ele>53.0</ele><time>2026-04-17T18:36:14.063Z</time></trkpt><trkpt lat="44.042565" lon="8.138585"><ele>51.8</ele><time>2026-04-17T18:36:15.063Z</time></trkpt><trkpt lat="44.0426167" lon="8.138725"><ele>50.599999999999994</ele><time>2026-04-17T18:36:16.064Z</time></trkpt><trkpt lat="44.0426633" lon="8.1388617"><ele>49.400000000000006</ele><time>2026-04-17T18:36:17.064Z</time></trkpt><trkpt lat="44.0427133" lon="8.1389967"><ele>48.2</ele><time>2026-04-17T18:36:18.063Z</time></trkpt><trkpt lat="44.0427567" lon="8.1391383"><ele>47.0</ele><time>2026-04-17T18:36:19.063Z</time></trkpt><trkpt lat="44.0427967" lon="8.13928"><ele>47.0</ele><time>2026-04-17T18:36:20.064Z</time></trkpt><trkpt lat="44.0428333" lon="8.139425"><ele>47.0</ele><time>2026-04-17T18:36:21.064Z</time></trkpt><trkpt lat="44.0428833" lon="8.1395733"><ele>47.0</ele><time>2026-04-17T18:36:22.064Z</time></trkpt><trkpt lat="44.0429317" lon="8.139725"><ele>47.0</ele><time>2026-04-17T18:36:23.063Z</time></trkpt><trkpt lat="44.042995" lon="8.1398783"><ele>51.0</ele><time>2026-04-17T18:36:24.064Z</time></trkpt><trkpt lat="44.043055" lon="8.1400317"><ele>55.0</ele><time>2026-04-17T18:36:25.064Z</time></trkpt><trkpt lat="44.0431133" lon="8.1401767"><ele>59.0</ele><time>2026-04-17T18:36:26.063Z</time></trkpt><trkpt lat="44.0431683" lon="8.1403217"><ele>63.0</ele><time>2026-04-17T18:36:27.063Z</time></trkpt><trkpt lat="44.0432233" lon="8.1404667"><ele>63.0</ele><time>2026-04-17T18:36:28.063Z</time></trkpt><trkpt lat="44.0432817" lon="8.1405933"><ele>63.0</ele><time>2026-04-17T18:36:29.063Z</time></trkpt><trkpt lat="44.0433367" lon="8.1407133"><ele>63.0</ele><time>2026-04-17T18:36:30.064Z</time></trkpt><trkpt lat="44.0433867" lon="8.1408467"><ele>63.0</ele><time>2026-04-17T18:36:31.063Z</time></trkpt><trkpt lat="44.04345" lon="8.1409883"><ele>63.0</ele><time>2026-04-17T18:36:32.064Z</time></trkpt><trkpt lat="44.04351" lon="8.1411283"><ele>60.0</ele><time>2026-04-17T18:36:33.063Z</time></trkpt><trkpt lat="44.0435667" lon="8.1412583"><ele>57.0</ele><time>2026-04-17T18:36:34.063Z</time></trkpt><trkpt lat="44.04362" lon="8.1413817"><ele>54.0</ele><time>2026-04-17T18:36:35.063Z</time></trkpt><trkpt lat="44.04366" lon="8.1414817"><ele>51.0</ele><time>2026-04-17T18:36:36.064Z</time></trkpt><trkpt lat="44.0437067" lon="8.1415617"><ele>48.0</ele><time>2026-04-17T18:36:37.064Z</time></trkpt><trkpt lat="44.04379" lon="8.14166"><ele>48.0</ele><time>2026-04-17T18:36:39.064Z</time></trkpt><trkpt lat="44.0438633" lon="8.141755"><ele>48.0</ele><time>2026-04-17T18:36:41.064Z</time></trkpt><trkpt lat="44.04392" lon="8.14187"><ele>48.0</ele><time>2026-04-17T18:36:43.063Z</time></trkpt><trkpt lat="44.043955" lon="8.1419483"><ele>48.0</ele><time>2026-04-17T18:36:44.063Z</time></trkpt><trkpt lat="44.04399" lon="8.1420367"><ele>48.0</ele><time>2026-04-17T18:36:45.063Z</time></trkpt><trkpt lat="44.0440217" lon="8.1421233"><ele>48.0</ele><time>2026-04-17T18:36:46.064Z</time></trkpt><trkpt lat="44.0440383" lon="8.14222"><ele>48.0</ele><time>2026-04-17T18:36:47.064Z</time></trkpt><trkpt lat="44.0440483" lon="8.14232"><ele>48.0</ele><time>2026-04-17T18:36:48.064Z</time></trkpt><trkpt lat="44.0440683" lon="8.14241"><ele>48.0</ele><time>2026-04-17T18:36:49.063Z</time></trkpt><trkpt lat="44.044115" lon="8.1425067"><ele>48.0</ele><time>2026-04-17T18:36:50.064Z</time></trkpt><trkpt lat="44.0441667" lon="8.1426233"><ele>48.0</ele><time>2026-04-17T18:36:51.064Z</time></trkpt><trkpt lat="44.0442433" lon="8.1427433"><ele>48.0</ele><time>2026-04-17T18:36:52.064Z</time></trkpt><trkpt lat="44.044315" lon="8.1428667"><ele>46.599999999999994</ele><time>2026-04-17T18:36:53.064Z</time></trkpt><trkpt lat="44.0444" lon="8.142985"><ele>45.199999999999996</ele><time>2026-04-17T18:36:54.064Z</time></trkpt><trkpt lat="44.0444733" lon="8.14311"><ele>43.8</ele><time>2026-04-17T18:36:55.064Z</time></trkpt><trkpt lat="44.044535" lon="8.1432267"><ele>42.4</ele><time>2026-04-17T18:36:56.064Z</time></trkpt><trkpt lat="44.0446083" lon="8.1433317"><ele>41.0</ele><time>2026-04-17T18:36:57.064Z</time></trkpt><trkpt lat="44.0446717" lon="8.1434267"><ele>41.0</ele><time>2026-04-17T18:36:58.063Z</time></trkpt><trkpt lat="44.0447283" lon="8.14352"><ele>41.0</ele><time>2026-04-17T18:36:59.064Z</time></trkpt><trkpt lat="44.0447633" lon="8.143615"><ele>41.0</ele><time>2026-04-17T18:37:00.063Z</time></trkpt><trkpt lat="44.044815" lon="8.1436867"><ele>41.0</ele><time>2026-04-17T18:37:01.064Z</time></trkpt><trkpt lat="44.04488" lon="8.1437433"><ele>41.0</ele><time>2026-04-17T18:37:03.064Z</time></trkpt><trkpt lat="44.0449417" lon="8.1436883"><ele>41.0</ele><time>2026-04-17T18:37:05.064Z</time></trkpt><trkpt lat="44.0450033" lon="8.14363"><ele>39.33333333333333</ele><time>2026-04-17T18:38:36.063Z</time></trkpt><trkpt lat="44.0451083" lon="8.1435383"><ele>37.666666666666664</ele><time>2026-04-17T18:38:38.064Z</time></trkpt><trkpt lat="44.0451683" lon="8.1435"><ele>36.0</ele><time>2026-04-17T18:38:39.064Z</time></trkpt><trkpt lat="44.0452617" lon="8.1434717"><ele>34.333333333333336</ele><time>2026-04-17T18:38:41.063Z</time></trkpt><trkpt lat="44.04532" lon="8.143515"><ele>32.66666666666667</ele><time>2026-04-17T18:38:43.063Z</time></trkpt><trkpt lat="44.04536" lon="8.14361"><ele>31.0</ele><time>2026-04-17T18:38:45.063Z</time></trkpt><trkpt lat="44.04538" lon="8.1437133"><ele>31.0</ele><time>2026-04-17T18:38:48.064Z</time></trkpt><trkpt lat="44.0454817" lon="8.143735"><ele>31.0</ele><time>2026-04-17T18:38:51.064Z</time></trkpt><trkpt lat="44.0456" lon="8.1436417"><ele>31.0</ele><time>2026-04-17T18:38:53.064Z</time></trkpt><trkpt lat="44.0456617" lon="8.1436"><ele>31.0</ele><time>2026-04-17T18:38:54.063Z</time></trkpt><trkpt lat="44.04574" lon="8.1435533"><ele>31.0</ele><time>2026-04-17T18:38:56.064Z</time></trkpt><trkpt lat="44.045825" lon="8.143515"><ele>30.8</ele><time>2026-04-17T18:39:10.064Z</time></trkpt><trkpt lat="44.045935" lon="8.1434167"><ele>30.6</ele><time>2026-04-17T18:39:12.063Z</time></trkpt><trkpt lat="44.045995" lon="8.1433267"><ele>30.4</ele><time>2026-04-17T18:39:14.064Z</time></trkpt><trkpt lat="44.0460683" lon="8.1433283"><ele>30.2</ele><time>2026-04-17T18:39:18.063Z</time></trkpt><trkpt lat="44.04608" lon="8.143425"><ele>30.0</ele><time>2026-04-17T18:39:20.064Z</time></trkpt><trkpt lat="44.0460717" lon="8.1435867"><ele>30.0</ele><time>2026-04-17T18:39:22.064Z</time></trkpt><trkpt lat="44.0461183" lon="8.1436583"><ele>30.0</ele><time>2026-04-17T18:39:24.064Z</time></trkpt><trkpt lat="44.04619" lon="8.1436783"><ele>30.0</ele><time>2026-04-17T18:39:27.063Z</time></trkpt><trkpt lat="44.0462683" lon="8.1436533"><ele>30.0</ele><time>2026-04-17T18:44:38.062Z</time></trkpt><trkpt lat="44.0462217" lon="8.1435917"><ele>30.0</ele><time>2026-04-17T18:45:48.062Z</time></trkpt><trkpt lat="44.04614" lon="8.14351"><ele>30.0</ele><time>2026-04-17T18:53:25.062Z</time></trkpt><trkpt lat="44.046225" lon="8.1435483"><ele>30.0</ele><time>2026-04-17T18:54:28.063Z</time></trkpt><trkpt lat="44.04625" lon="8.14367"><ele>30.0</ele><time>2026-04-17T18:59:48.062Z</time></trkpt><trkpt lat="44.046195" lon="8.1436183"><ele>30.0</ele><time>2026-04-17T19:01:03.063Z</time></trkpt><trkpt lat="44.0461983" lon="8.1434967"><ele>30.0</ele><time>2026-04-17T19:01:05.063Z</time></trkpt><trkpt lat="44.046205" lon="8.143395"><ele>30.0</ele><time>2026-04-17T19:01:07.063Z</time></trkpt><trkpt lat="44.046155" lon="8.1433133"><ele>30.0</ele><time>2026-04-17T19:01:11.062Z</time></trkpt><trkpt lat="44.046085" lon="8.1433117"><ele>30.0</ele><time>2026-04-17T19:01:13.062Z</time></trkpt><trkpt lat="44.0459967" lon="8.1433033"><ele>30.0</ele><time>2026-04-17T19:01:16.063Z</time></trkpt><trkpt lat="44.045935" lon="8.143285"><ele>30.0</ele><time>2026-04-17T19:01:19.063Z</time></trkpt><trkpt lat="44.04584" lon="8.1433267"><ele>30.0</ele><time>2026-04-17T19:01:22.062Z</time></trkpt><trkpt lat="44.0458183" lon="8.1434467"><ele>30.0</ele><time>2026-04-17T19:01:24.063Z</time></trkpt><trkpt lat="44.0458583" lon="8.1435433"><ele>30.0</ele><time>2026-04-17T19:01:25.062Z</time></trkpt><trkpt lat="44.045925" lon="8.1436617"><ele>30.0</ele><time>2026-04-17T19:01:26.063Z</time></trkpt><trkpt lat="44.0459917" lon="8.1438133"><ele>30.0</ele><time>2026-04-17T19:01:27.062Z</time></trkpt><trkpt lat="44.0460633" lon="8.1439833"><ele>30.0</ele><time>2026-04-17T19:01:28.063Z</time></trkpt><trkpt lat="44.04614" lon="8.1441467"><ele>30.0</ele><time>2026-04-17T19:01:29.062Z</time></trkpt><trkpt lat="44.0462417" lon="8.1443167"><ele>29.666666666666664</ele><time>2026-04-17T19:01:30.062Z</time></trkpt><trkpt lat="44.0463767" lon="8.1444683"><ele>29.333333333333332</ele><time>2026-04-17T19:01:31.063Z</time></trkpt><trkpt lat="44.0465183" lon="8.1446167"><ele>29.0</ele><time>2026-04-17T19:01:32.063Z</time></trkpt><trkpt lat="44.0466683" lon="8.1447683"><ele>28.0</ele><time>2026-04-17T19:01:33.063Z</time></trkpt><trkpt lat="44.0468433" lon="8.1449333"><ele>27.0</ele><time>2026-04-17T19:01:34.063Z</time></trkpt><trkpt lat="44.0470367" lon="8.14513"><ele>27.0</ele><time>2026-04-17T19:01:35.063Z</time></trkpt><trkpt lat="44.0472483" lon="8.1453517"><ele>27.0</ele><time>2026-04-17T19:01:36.063Z</time></trkpt><trkpt lat="44.04745" lon="8.1455633"><ele>25.666666666666668</ele><time>2026-04-17T19:01:37.063Z</time></trkpt><trkpt lat="44.0476367" lon="8.14575"><ele>24.333333333333336</ele><time>2026-04-17T19:01:38.063Z</time></trkpt><trkpt lat="44.047815" lon="8.1459267"><ele>23.0</ele><time>2026-04-17T19:01:39.062Z</time></trkpt><trkpt lat="44.04799" lon="8.146105"><ele>23.0</ele><time>2026-04-17T19:01:40.063Z</time></trkpt><trkpt lat="44.0481717" lon="8.146275"><ele>23.0</ele><time>2026-04-17T19:01:41.062Z</time></trkpt><trkpt lat="44.0483383" lon="8.1464533"><ele>23.0</ele><time>2026-04-17T19:01:42.062Z</time></trkpt><trkpt lat="44.048495" lon="8.146625"><ele>24.0</ele><time>2026-04-17T19:01:43.062Z</time></trkpt><trkpt lat="44.0486517" lon="8.1467917"><ele>25.0</ele><time>2026-04-17T19:01:44.063Z</time></trkpt><trkpt lat="44.048795" lon="8.14695"><ele>26.0</ele><time>2026-04-17T19:01:45.062Z</time></trkpt><trkpt lat="44.048945" lon="8.1471017"><ele>26.0</ele><time>2026-04-17T19:01:46.062Z</time></trkpt><trkpt lat="44.049085" lon="8.1472467"><ele>26.0</ele><time>2026-04-17T19:01:47.062Z</time></trkpt><trkpt lat="44.0492183" lon="8.14738"><ele>26.0</ele><time>2026-04-17T19:01:48.063Z</time></trkpt><trkpt lat="44.0493383" lon="8.1474983"><ele>26.25</ele><time>2026-04-17T19:01:49.063Z</time></trkpt><trkpt lat="44.0494567" lon="8.1476"><ele>26.5</ele><time>2026-04-17T19:01:50.063Z</time></trkpt><trkpt lat="44.0495783" lon="8.14766"><ele>26.75</ele><time>2026-04-17T19:01:51.062Z</time></trkpt><trkpt lat="44.049705" lon="8.147705"><ele>27.0</ele><time>2026-04-17T19:01:52.062Z</time></trkpt><trkpt lat="44.0498467" lon="8.1477083"><ele>27.666666666666664</ele><time>2026-04-17T19:01:53.063Z</time></trkpt><trkpt lat="44.050005" lon="8.14767"><ele>28.333333333333332</ele><time>2026-04-17T19:01:54.063Z</time></trkpt><trkpt lat="44.0501717" lon="8.1475783"><ele>29.0</ele><time>2026-04-17T19:01:55.062Z</time></trkpt><trkpt lat="44.05033" lon="8.1474767"><ele>29.0</ele><time>2026-04-17T19:01:56.062Z</time></trkpt><trkpt lat="44.050475" lon="8.14739"><ele>29.0</ele><time>2026-04-17T19:01:57.062Z</time></trkpt><trkpt lat="44.0506" lon="8.14732"><ele>29.0</ele><time>2026-04-17T19:01:58.062Z</time></trkpt><trkpt lat="44.050695" lon="8.1472783"><ele>29.0</ele><time>2026-04-17T19:01:59.063Z</time></trkpt><trkpt lat="44.05076" lon="8.14728"><ele>29.25</ele><time>2026-04-17T19:02:00.063Z</time></trkpt><trkpt lat="44.0508317" lon="8.1473067"><ele>29.5</ele><time>2026-04-17T19:02:02.063Z</time></trkpt><trkpt lat="44.0508883" lon="8.1474533"><ele>29.75</ele><time>2026-04-17T19:02:04.062Z</time></trkpt><trkpt lat="44.050935" lon="8.1476117"><ele>30.0</ele><time>2026-04-17T19:02:05.062Z</time></trkpt><trkpt lat="44.05098" lon="8.1478117"><ele>30.0</ele><time>2026-04-17T19:02:06.063Z</time></trkpt><trkpt lat="44.0510333" lon="8.1480067"><ele>30.0</ele><time>2026-04-17T19:02:07.062Z</time></trkpt><trkpt lat="44.05108" lon="8.14821"><ele>30.0</ele><time>2026-04-17T19:02:08.063Z</time></trkpt><trkpt lat="44.0511283" lon="8.1484217"><ele>29.333333333333336</ele><time>2026-04-17T19:02:09.062Z</time></trkpt><trkpt lat="44.0511783" lon="8.148645"><ele>28.666666666666668</ele><time>2026-04-17T19:02:10.062Z</time></trkpt><trkpt lat="44.051205" lon="8.1488483"><ele>28.0</ele><time>2026-04-17T19:02:11.062Z</time></trkpt><trkpt lat="44.0512383" lon="8.149035"><ele>27.25</ele><time>2026-04-17T19:02:12.062Z</time></trkpt><trkpt lat="44.051265" lon="8.1492033"><ele>26.5</ele><time>2026-04-17T19:02:13.063Z</time></trkpt><trkpt lat="44.0512967" lon="8.1493683"><ele>25.75</ele><time>2026-04-17T19:02:14.062Z</time></trkpt><trkpt lat="44.0513333" lon="8.149535"><ele>25.0</ele><time>2026-04-17T19:02:15.062Z</time></trkpt><trkpt lat="44.0513817" lon="8.149705"><ele>25.0</ele><time>2026-04-17T19:02:16.063Z</time></trkpt><trkpt lat="44.0514467" lon="8.14987"><ele>25.0</ele><time>2026-04-17T19:02:17.062Z</time></trkpt><trkpt lat="44.0515317" lon="8.1500467"><ele>25.0</ele><time>2026-04-17T19:02:18.063Z</time></trkpt><trkpt lat="44.05163" lon="8.1502233"><ele>25.0</ele><time>2026-04-17T19:02:19.063Z</time></trkpt><trkpt lat="44.05176" lon="8.1503967"><ele>24.666666666666668</ele><time>2026-04-17T19:02:20.062Z</time></trkpt><trkpt lat="44.0518917" lon="8.150565"><ele>24.333333333333336</ele><time>2026-04-17T19:02:21.062Z</time></trkpt><trkpt lat="44.0520283" lon="8.1507283"><ele>24.0</ele><time>2026-04-17T19:02:22.063Z</time></trkpt><trkpt lat="44.0521733" lon="8.1509067"><ele>23.666666666666668</ele><time>2026-04-17T19:02:23.063Z</time></trkpt><trkpt lat="44.0523183" lon="8.151085"><ele>23.333333333333336</ele><time>2026-04-17T19:02:24.062Z</time></trkpt><trkpt lat="44.0524567" lon="8.1512733"><ele>23.0</ele><time>2026-04-17T19:02:25.062Z</time></trkpt><trkpt lat="44.0526" lon="8.1514617"><ele>23.0</ele><time>2026-04-17T19:02:26.063Z</time></trkpt><trkpt lat="44.0527333" lon="8.151675"><ele>23.0</ele><time>2026-04-17T19:02:27.063Z</time></trkpt><trkpt lat="44.0528533" lon="8.15188"><ele>23.0</ele><time>2026-04-17T19:02:28.063Z</time></trkpt><trkpt lat="44.0529667" lon="8.1520933"><ele>23.0</ele><time>2026-04-17T19:02:29.063Z</time></trkpt><trkpt lat="44.0530983" lon="8.1522867"><ele>23.0</ele><time>2026-04-17T19:02:30.063Z</time></trkpt><trkpt lat="44.05323" lon="8.1524567"><ele>23.0</ele><time>2026-04-17T19:02:31.062Z</time></trkpt><trkpt lat="44.053365" lon="8.1526217"><ele>23.666666666666668</ele><time>2026-04-17T19:02:32.062Z</time></trkpt><trkpt lat="44.053495" lon="8.1527917"><ele>24.333333333333336</ele><time>2026-04-17T19:02:33.063Z</time></trkpt><trkpt lat="44.0536167" lon="8.1529567"><ele>25.0</ele><time>2026-04-17T19:02:34.062Z</time></trkpt><trkpt lat="44.0537317" lon="8.1531333"><ele>24.0</ele><time>2026-04-17T19:02:35.063Z</time></trkpt><trkpt lat="44.05383" lon="8.1533317"><ele>23.0</ele><time>2026-04-17T19:02:36.063Z</time></trkpt><trkpt lat="44.0539267" lon="8.1535483"><ele>22.0</ele><time>2026-04-17T19:02:37.063Z</time></trkpt><trkpt lat="44.054025" lon="8.1537567"><ele>23.333333333333332</ele><time>2026-04-17T19:02:38.062Z</time></trkpt><trkpt lat="44.0541283" lon="8.1539517"><ele>24.666666666666664</ele><time>2026-04-17T19:02:39.062Z</time></trkpt><trkpt lat="44.0542417" lon="8.1541617"><ele>26.0</ele><time>2026-04-17T19:02:40.062Z</time></trkpt><trkpt lat="44.054345" lon="8.1543783"><ele>26.0</ele><time>2026-04-17T19:02:41.063Z</time></trkpt><trkpt lat="44.0544517" lon="8.1545983"><ele>26.0</ele><time>2026-04-17T19:02:42.063Z</time></trkpt><trkpt lat="44.0545567" lon="8.1548217"><ele>26.0</ele><time>2026-04-17T19:02:43.062Z</time></trkpt><trkpt lat="44.0546517" lon="8.15504"><ele>25.333333333333332</ele><time>2026-04-17T19:02:44.063Z</time></trkpt><trkpt lat="44.05475" lon="8.155245"><ele>24.666666666666664</ele><time>2026-04-17T19:02:45.062Z</time></trkpt><trkpt lat="44.0548367" lon="8.1554383"><ele>24.0</ele><time>2026-04-17T19:02:46.063Z</time></trkpt><trkpt lat="44.0549067" lon="8.1556267"><ele>23.5</ele><time>2026-04-17T19:02:47.061Z</time></trkpt><trkpt lat="44.0549817" lon="8.1557917"><ele>23.0</ele><time>2026-04-17T19:02:48.062Z</time></trkpt><trkpt lat="44.0550717" lon="8.15594"><ele>22.5</ele><time>2026-04-17T19:02:49.063Z</time></trkpt><trkpt lat="44.055165" lon="8.1560633"><ele>22.0</ele><time>2026-04-17T19:02:50.063Z</time></trkpt><trkpt lat="44.0552733" lon="8.1561517"><ele>22.0</ele><time>2026-04-17T19:02:51.063Z</time></trkpt><trkpt lat="44.0553967" lon="8.1562233"><ele>22.0</ele><time>2026-04-17T19:02:52.062Z</time></trkpt><trkpt lat="44.055525" lon="8.1563067"><ele>22.0</ele><time>2026-04-17T19:02:53.062Z</time></trkpt><trkpt lat="44.0556567" lon="8.1563967"><ele>22.0</ele><time>2026-04-17T19:02:54.062Z</time></trkpt><trkpt lat="44.0557783" lon="8.1565"><ele>22.0</ele><time>2026-04-17T19:02:55.063Z</time></trkpt><trkpt lat="44.0558967" lon="8.1566183"><ele>22.0</ele><time>2026-04-17T19:02:56.063Z</time></trkpt><trkpt lat="44.056015" lon="8.15677"><ele>22.0</ele><time>2026-04-17T19:02:57.063Z</time></trkpt><trkpt lat="44.05611" lon="8.1569567"><ele>22.0</ele><time>2026-04-17T19:02:58.063Z</time></trkpt><trkpt lat="44.056195" lon="8.1571683"><ele>22.0</ele><time>2026-04-17T19:02:59.063Z</time></trkpt><trkpt lat="44.0562567" lon="8.15742"><ele>22.0</ele><time>2026-04-17T19:03:00.063Z</time></trkpt><trkpt lat="44.0563" lon="8.1576767"><ele>21.333333333333332</ele><time>2026-04-17T19:03:01.062Z</time></trkpt><trkpt lat="44.056345" lon="8.1579317"><ele>20.666666666666668</ele><time>2026-04-17T19:03:02.063Z</time></trkpt><trkpt lat="44.0563817" lon="8.1582017"><ele>20.0</ele><time>2026-04-17T19:03:03.062Z</time></trkpt><trkpt lat="44.05642" lon="8.1584583"><ele>19.666666666666668</ele><time>2026-04-17T19:03:04.062Z</time></trkpt><trkpt lat="44.0564533" lon="8.1587083"><ele>19.333333333333332</ele><time>2026-04-17T19:03:05.062Z</time></trkpt><trkpt lat="44.0564917" lon="8.158955"><ele>19.0</ele><time>2026-04-17T19:03:06.063Z</time></trkpt><trkpt lat="44.056525" lon="8.1592033"><ele>19.0</ele><time>2026-04-17T19:03:07.062Z</time></trkpt><trkpt lat="44.056565" lon="8.1594533"><ele>19.0</ele><time>2026-04-17T19:03:08.062Z</time></trkpt><trkpt lat="44.0566017" lon="8.15971"><ele>19.0</ele><time>2026-04-17T19:03:09.063Z</time></trkpt><trkpt lat="44.0566333" lon="8.159965"><ele>21.0</ele><time>2026-04-17T19:03:10.062Z</time></trkpt><trkpt lat="44.056645" lon="8.1602117"><ele>23.0</ele><time>2026-04-17T19:03:11.063Z</time></trkpt><trkpt lat="44.0566533" lon="8.1604567"><ele>25.0</ele><time>2026-04-17T19:03:12.063Z</time></trkpt><trkpt lat="44.0566617" lon="8.160695"><ele>25.666666666666668</ele><time>2026-04-17T19:03:13.063Z</time></trkpt><trkpt lat="44.056675" lon="8.16095"><ele>26.333333333333336</ele><time>2026-04-17T19:03:14.063Z</time></trkpt><trkpt lat="44.0566817" lon="8.1612283"><ele>27.0</ele><time>2026-04-17T19:03:15.063Z</time></trkpt><trkpt lat="44.056695" lon="8.1614983"><ele>26.666666666666664</ele><time>2026-04-17T19:03:16.062Z</time></trkpt><trkpt lat="44.0567133" lon="8.1617667"><ele>26.333333333333332</ele><time>2026-04-17T19:03:17.062Z</time></trkpt><trkpt lat="44.056725" lon="8.1620383"><ele>26.0</ele><time>2026-04-17T19:03:18.062Z</time></trkpt><trkpt lat="44.0567367" lon="8.1623067"><ele>25.666666666666664</ele><time>2026-04-17T19:03:19.063Z</time></trkpt><trkpt lat="44.0567417" lon="8.1625817"><ele>25.333333333333336</ele><time>2026-04-17T19:03:20.063Z</time></trkpt><trkpt lat="44.05675" lon="8.1628567"><ele>25.0</ele><time>2026-04-17T19:03:21.063Z</time></trkpt><trkpt lat="44.0567717" lon="8.1631233"><ele>23.666666666666668</ele><time>2026-04-17T19:03:22.063Z</time></trkpt><trkpt lat="44.0568067" lon="8.1633967"><ele>22.333333333333336</ele><time>2026-04-17T19:03:23.063Z</time></trkpt><trkpt lat="44.056855" lon="8.16364"><ele>21.0</ele><time>2026-04-17T19:03:24.062Z</time></trkpt><trkpt lat="44.0569283" lon="8.16387"><ele>20.0</ele><time>2026-04-17T19:03:25.063Z</time></trkpt><trkpt lat="44.0570067" lon="8.16408"><ele>19.0</ele><time>2026-04-17T19:03:26.063Z</time></trkpt><trkpt lat="44.0571017" lon="8.16429"><ele>18.0</ele><time>2026-04-17T19:03:27.063Z</time></trkpt><trkpt lat="44.05719" lon="8.1644967"><ele>18.0</ele><time>2026-04-17T19:03:28.063Z</time></trkpt><trkpt lat="44.0572817" lon="8.164725"><ele>18.0</ele><time>2026-04-17T19:03:29.063Z</time></trkpt><trkpt lat="44.057365" lon="8.1649533"><ele>18.0</ele><time>2026-04-17T19:03:30.062Z</time></trkpt><trkpt lat="44.0574367" lon="8.1651833"><ele>19.666666666666668</ele><time>2026-04-17T19:03:31.062Z</time></trkpt><trkpt lat="44.0574867" lon="8.1654333"><ele>21.333333333333336</ele><time>2026-04-17T19:03:32.063Z</time></trkpt><trkpt lat="44.0575167" lon="8.1656783"><ele>23.0</ele><time>2026-04-17T19:03:33.063Z</time></trkpt><trkpt lat="44.0575217" lon="8.1659183"><ele>23.0</ele><time>2026-04-17T19:03:34.062Z</time></trkpt><trkpt lat="44.057495" lon="8.1661467"><ele>23.0</ele><time>2026-04-17T19:03:35.062Z</time></trkpt><trkpt lat="44.0574567" lon="8.1663733"><ele>23.0</ele><time>2026-04-17T19:03:36.062Z</time></trkpt><trkpt lat="44.057415" lon="8.166615"><ele>22.666666666666668</ele><time>2026-04-17T19:03:37.063Z</time></trkpt><trkpt lat="44.0573733" lon="8.166865"><ele>22.333333333333332</ele><time>2026-04-17T19:03:38.062Z</time></trkpt><trkpt lat="44.057325" lon="8.16711"><ele>22.0</ele><time>2026-04-17T19:03:39.063Z</time></trkpt><trkpt lat="44.0572967" lon="8.167375"><ele>20.333333333333332</ele><time>2026-04-17T19:03:40.062Z</time></trkpt><trkpt lat="44.057265" lon="8.16763"><ele>18.666666666666668</ele><time>2026-04-17T19:03:41.062Z</time></trkpt><trkpt lat="44.0572317" lon="8.1678767"><ele>17.0</ele><time>2026-04-17T19:03:42.063Z</time></trkpt><trkpt lat="44.057195" lon="8.168135"><ele>17.0</ele><time>2026-04-17T19:03:43.062Z</time></trkpt><trkpt lat="44.05715" lon="8.1683867"><ele>17.0</ele><time>2026-04-17T19:03:44.063Z</time></trkpt><trkpt lat="44.057095" lon="8.1686283"><ele>17.0</ele><time>2026-04-17T19:03:45.062Z</time></trkpt><trkpt lat="44.0570533" lon="8.1688733"><ele>17.666666666666668</ele><time>2026-04-17T19:03:46.062Z</time></trkpt><trkpt lat="44.0570083" lon="8.16912"><ele>18.333333333333332</ele><time>2026-04-17T19:03:47.063Z</time></trkpt><trkpt lat="44.05695" lon="8.1693683"><ele>19.0</ele><time>2026-04-17T19:03:48.062Z</time></trkpt><trkpt lat="44.0568983" lon="8.16962"><ele>19.666666666666664</ele><time>2026-04-17T19:03:49.063Z</time></trkpt><trkpt lat="44.056845" lon="8.1698683"><ele>20.333333333333332</ele><time>2026-04-17T19:03:50.063Z</time></trkpt><trkpt lat="44.0567783" lon="8.1701117"><ele>21.0</ele><time>2026-04-17T19:03:51.063Z</time></trkpt><trkpt lat="44.0567183" lon="8.1703383"><ele>21.0</ele><time>2026-04-17T19:03:52.063Z</time></trkpt><trkpt lat="44.05667" lon="8.1705517"><ele>21.0</ele><time>2026-04-17T19:03:53.063Z</time></trkpt><trkpt lat="44.05662" lon="8.1707467"><ele>21.0</ele><time>2026-04-17T19:03:54.063Z</time></trkpt><trkpt lat="44.0565817" lon="8.1709333"><ele>21.0</ele><time>2026-04-17T19:03:55.062Z</time></trkpt><trkpt lat="44.0565633" lon="8.171125"><ele>19.25</ele><time>2026-04-17T19:03:56.062Z</time></trkpt><trkpt lat="44.0565617" lon="8.1713033"><ele>17.5</ele><time>2026-04-17T19:03:57.062Z</time></trkpt><trkpt lat="44.05656" lon="8.1714867"><ele>15.75</ele><time>2026-04-17T19:03:58.063Z</time></trkpt><trkpt lat="44.0565567" lon="8.17165"><ele>14.0</ele><time>2026-04-17T19:03:59.062Z</time></trkpt><trkpt lat="44.0565417" lon="8.17181"><ele>14.0</ele><time>2026-04-17T19:04:00.062Z</time></trkpt><trkpt lat="44.0565383" lon="8.17197"><ele>14.0</ele><time>2026-04-17T19:04:01.062Z</time></trkpt><trkpt lat="44.0565317" lon="8.1721367"><ele>14.0</ele><time>2026-04-17T19:04:02.062Z</time></trkpt><trkpt lat="44.056525" lon="8.1723133"><ele>14.0</ele><time>2026-04-17T19:04:03.062Z</time></trkpt><trkpt lat="44.0565383" lon="8.172475"><ele>14.0</ele><time>2026-04-17T19:04:04.063Z</time></trkpt><trkpt lat="44.0565683" lon="8.17265"><ele>13.999999999999998</ele><time>2026-04-17T19:04:05.063Z</time></trkpt><trkpt lat="44.0565983" lon="8.1727833"><ele>13.999999999999998</ele><time>2026-04-17T19:04:06.062Z</time></trkpt><trkpt lat="44.05664" lon="8.1729067"><ele>14.0</ele><time>2026-04-17T19:04:07.063Z</time></trkpt><trkpt lat="44.05668" lon="8.1730267"><ele>14.0</ele><time>2026-04-17T19:04:08.063Z</time></trkpt><trkpt lat="44.0567267" lon="8.1731233"><ele>14.799999999999999</ele><time>2026-04-17T19:04:09.063Z</time></trkpt><trkpt lat="44.05677" lon="8.1732383"><ele>15.599999999999998</ele><time>2026-04-17T19:04:10.063Z</time></trkpt><trkpt lat="44.05681" lon="8.173375"><ele>16.4</ele><time>2026-04-17T19:04:11.063Z</time></trkpt><trkpt lat="44.056855" lon="8.1735267"><ele>17.2</ele><time>2026-04-17T19:04:12.063Z</time></trkpt><trkpt lat="44.0568867" lon="8.1736867"><ele>18.0</ele><time>2026-04-17T19:04:13.062Z</time></trkpt><trkpt lat="44.056945" lon="8.17385"><ele>17.25</ele><time>2026-04-17T19:04:14.062Z</time></trkpt><trkpt lat="44.0569933" lon="8.1740283"><ele>16.5</ele><time>2026-04-17T19:04:15.063Z</time></trkpt><trkpt lat="44.057045" lon="8.1742117"><ele>15.75</ele><time>2026-04-17T19:04:16.063Z</time></trkpt><trkpt lat="44.0570933" lon="8.174405"><ele>15.0</ele><time>2026-04-17T19:04:17.063Z</time></trkpt><trkpt lat="44.0571433" lon="8.1746"><ele>15.0</ele><time>2026-04-17T19:04:18.062Z</time></trkpt><trkpt lat="44.0571983" lon="8.174795"><ele>15.0</ele><time>2026-04-17T19:04:19.063Z</time></trkpt><trkpt lat="44.0572517" lon="8.1749917"><ele>15.0</ele><time>2026-04-17T19:04:20.062Z</time></trkpt><trkpt lat="44.0572983" lon="8.1751767"><ele>15.0</ele><time>2026-04-17T19:04:21.062Z</time></trkpt><trkpt lat="44.0573567" lon="8.1753717"><ele>14.666666666666668</ele><time>2026-04-17T19:04:22.063Z</time></trkpt><trkpt lat="44.0574183" lon="8.1755667"><ele>14.333333333333334</ele><time>2026-04-17T19:04:23.062Z</time></trkpt><trkpt lat="44.0574633" lon="8.1757833"><ele>14.0</ele><time>2026-04-17T19:04:24.062Z</time></trkpt><trkpt lat="44.0575183" lon="8.176"><ele>13.666666666666668</ele><time>2026-04-17T19:04:25.062Z</time></trkpt><trkpt lat="44.05757" lon="8.176215"><ele>13.333333333333332</ele><time>2026-04-17T19:04:26.062Z</time></trkpt><trkpt lat="44.05762" lon="8.176415"><ele>13.0</ele><time>2026-04-17T19:04:27.063Z</time></trkpt><trkpt lat="44.057665" lon="8.1766217"><ele>12.666666666666666</ele><time>2026-04-17T19:04:28.063Z</time></trkpt><trkpt lat="44.0577133" lon="8.1768417"><ele>12.333333333333332</ele><time>2026-04-17T19:04:29.063Z</time></trkpt><trkpt lat="44.0577717" lon="8.1770567"><ele>12.0</ele><time>2026-04-17T19:04:30.063Z</time></trkpt><trkpt lat="44.0578367" lon="8.177255"><ele>12.333333333333332</ele><time>2026-04-17T19:04:31.062Z</time></trkpt><trkpt lat="44.05789" lon="8.1774617"><ele>12.666666666666666</ele><time>2026-04-17T19:04:32.062Z</time></trkpt><trkpt lat="44.0579417" lon="8.1776483"><ele>13.0</ele><time>2026-04-17T19:04:33.062Z</time></trkpt><trkpt lat="44.0579883" lon="8.177845"><ele>13.0</ele><time>2026-04-17T19:04:34.063Z</time></trkpt><trkpt lat="44.05805" lon="8.1780383"><ele>13.0</ele><time>2026-04-17T19:04:35.062Z</time></trkpt><trkpt lat="44.0581133" lon="8.1782083"><ele>13.0</ele><time>2026-04-17T19:04:36.062Z</time></trkpt><trkpt lat="44.058185" lon="8.1783733"><ele>13.0</ele><time>2026-04-17T19:04:37.063Z</time></trkpt><trkpt lat="44.0582717" lon="8.17854"><ele>13.0</ele><time>2026-04-17T19:04:38.062Z</time></trkpt><trkpt lat="44.0583633" lon="8.1786867"><ele>13.0</ele><time>2026-04-17T19:04:39.062Z</time></trkpt><trkpt lat="44.05845" lon="8.1788317"><ele>13.0</ele><time>2026-04-17T19:04:40.062Z</time></trkpt><trkpt lat="44.058545" lon="8.1789767"><ele>13.0</ele><time>2026-04-17T19:04:41.062Z</time></trkpt><trkpt lat="44.0586417" lon="8.1791167"><ele>12.5</ele><time>2026-04-17T19:04:42.063Z</time></trkpt><trkpt lat="44.0587317" lon="8.1792667"><ele>12.0</ele><time>2026-04-17T19:04:43.063Z</time></trkpt><trkpt lat="44.05883" lon="8.179405"><ele>11.5</ele><time>2026-04-17T19:04:44.062Z</time></trkpt><trkpt lat="44.0589217" lon="8.1795467"><ele>11.0</ele><time>2026-04-17T19:04:45.063Z</time></trkpt><trkpt lat="44.0590133" lon="8.1796783"><ele>11.0</ele><time>2026-04-17T19:04:46.063Z</time></trkpt><trkpt lat="44.0591067" lon="8.1798233"><ele>11.0</ele><time>2026-04-17T19:04:47.063Z</time></trkpt><trkpt lat="44.05919" lon="8.1799533"><ele>11.0</ele><time>2026-04-17T19:04:48.063Z</time></trkpt><trkpt lat="44.0592767" lon="8.1800783"><ele>11.0</ele><time>2026-04-17T19:04:49.063Z</time></trkpt><trkpt lat="44.0593533" lon="8.1801917"><ele>11.0</ele><time>2026-04-17T19:04:50.063Z</time></trkpt><trkpt lat="44.0594233" lon="8.1802933"><ele>11.0</ele><time>2026-04-17T19:04:51.062Z</time></trkpt><trkpt lat="44.0594833" lon="8.1803883"><ele>11.0</ele><time>2026-04-17T19:04:52.062Z</time></trkpt><trkpt lat="44.0595333" lon="8.180465"><ele>11.0</ele><time>2026-04-17T19:04:53.062Z</time></trkpt><trkpt lat="44.0595983" lon="8.1805733"><ele>11.0</ele><time>2026-04-17T19:04:55.062Z</time></trkpt><trkpt lat="44.059625" lon="8.1806617"><ele>11.0</ele><time>2026-04-17T19:04:57.062Z</time></trkpt><trkpt lat="44.0596117" lon="8.1808317"><ele>11.0</ele><time>2026-04-17T19:04:59.062Z</time></trkpt><trkpt lat="44.0596217" lon="8.1809333"><ele>11.0</ele><time>2026-04-17T19:05:00.063Z</time></trkpt><trkpt lat="44.0596483" lon="8.1810183"><ele>11.0</ele><time>2026-04-17T19:05:01.062Z</time></trkpt><trkpt lat="44.0597167" lon="8.1810733"><ele>11.0</ele><time>2026-04-17T19:05:02.062Z</time></trkpt><trkpt lat="44.059805" lon="8.18109"><ele>11.0</ele><time>2026-04-17T19:05:03.062Z</time></trkpt><trkpt lat="44.0599" lon="8.1811117"><ele>11.0</ele><time>2026-04-17T19:05:04.063Z</time></trkpt><trkpt lat="44.0599833" lon="8.181175"><ele>11.600000000000001</ele><time>2026-04-17T19:05:05.063Z</time></trkpt><trkpt lat="44.0600633" lon="8.1812617"><ele>12.2</ele><time>2026-04-17T19:05:06.063Z</time></trkpt><trkpt lat="44.0601383" lon="8.181375"><ele>12.799999999999999</ele><time>2026-04-17T19:05:07.063Z</time></trkpt><trkpt lat="44.0602067" lon="8.1814917"><ele>13.399999999999999</ele><time>2026-04-17T19:05:08.062Z</time></trkpt><trkpt lat="44.0602767" lon="8.1816067"><ele>14.0</ele><time>2026-04-17T19:05:09.062Z</time></trkpt><trkpt lat="44.0603517" lon="8.181705"><ele>14.000000000000002</ele><time>2026-04-17T19:05:10.063Z</time></trkpt><trkpt lat="44.0604117" lon="8.181795"><ele>14.0</ele><time>2026-04-17T19:05:11.063Z</time></trkpt><trkpt lat="44.060475" lon="8.1818783"><ele>14.0</ele><time>2026-04-17T19:05:12.063Z</time></trkpt><trkpt lat="44.0605283" lon="8.181955"><ele>14.0</ele><time>2026-04-17T19:05:13.062Z</time></trkpt><trkpt lat="44.0605583" lon="8.182085"><ele>14.000000000000002</ele><time>2026-04-17T19:05:15.063Z</time></trkpt><trkpt lat="44.0605017" lon="8.1821667"><ele>14.0</ele><time>2026-04-17T19:05:16.063Z</time></trkpt><trkpt lat="44.060425" lon="8.182265"><ele>13.75</ele><time>2026-04-17T19:05:17.063Z</time></trkpt><trkpt lat="44.0603267" lon="8.1823867"><ele>13.5</ele><time>2026-04-17T19:05:18.062Z</time></trkpt><trkpt lat="44.0602183" lon="8.1825217"><ele>13.25</ele><time>2026-04-17T19:05:19.062Z</time></trkpt><trkpt lat="44.0601033" lon="8.18265"><ele>13.0</ele><time>2026-04-17T19:05:20.063Z</time></trkpt><trkpt lat="44.05999" lon="8.1827833"><ele>13.0</ele><time>2026-04-17T19:05:21.063Z</time></trkpt><trkpt lat="44.0598783" lon="8.182925"><ele>13.0</ele><time>2026-04-17T19:05:22.063Z</time></trkpt><trkpt lat="44.059775" lon="8.1830433"><ele>13.0</ele><time>2026-04-17T19:05:23.062Z</time></trkpt><trkpt lat="44.0596783" lon="8.1831717"><ele>13.0</ele><time>2026-04-17T19:05:24.062Z</time></trkpt><trkpt lat="44.0595817" lon="8.1832817"><ele>13.0</ele><time>2026-04-17T19:05:25.063Z</time></trkpt><trkpt lat="44.0594767" lon="8.1834033"><ele>13.0</ele><time>2026-04-17T19:05:26.063Z</time></trkpt><trkpt lat="44.0593733" lon="8.183515"><ele>13.0</ele><time>2026-04-17T19:05:27.062Z</time></trkpt><trkpt lat="44.059265" lon="8.1836067"><ele>13.0</ele><time>2026-04-17T19:05:28.062Z</time></trkpt><trkpt lat="44.0591567" lon="8.1836883"><ele>13.0</ele><time>2026-04-17T19:05:29.062Z</time></trkpt><trkpt lat="44.0590533" lon="8.18377"><ele>13.0</ele><time>2026-04-17T19:05:30.062Z</time></trkpt><trkpt lat="44.0589617" lon="8.18383"><ele>13.0</ele><time>2026-04-17T19:05:31.063Z</time></trkpt><trkpt lat="44.0588867" lon="8.18391"><ele>13.0</ele><time>2026-04-17T19:05:32.063Z</time></trkpt><trkpt lat="44.0588283" lon="8.1839767"><ele>13.0</ele><time>2026-04-17T19:05:33.063Z</time></trkpt><trkpt lat="44.0587567" lon="8.184065"><ele>12.999999999999998</ele><time>2026-04-17T19:05:34.063Z</time></trkpt><trkpt lat="44.058695" lon="8.1841617"><ele>13.0</ele><time>2026-04-17T19:05:35.062Z</time></trkpt><trkpt lat="44.0586367" lon="8.1842233"><ele>13.0</ele><time>2026-04-17T19:05:36.063Z</time></trkpt><trkpt lat="44.0585917" lon="8.1842967"><ele>13.0</ele><time>2026-04-17T19:05:37.063Z</time></trkpt><trkpt lat="44.0585167" lon="8.18441"><ele>12.999999999999998</ele><time>2026-04-17T19:05:39.063Z</time></trkpt><trkpt lat="44.0584667" lon="8.1845217"><ele>13.0</ele><time>2026-04-17T19:05:41.062Z</time></trkpt><trkpt lat="44.0584367" lon="8.1846133"><ele>13.0</ele><time>2026-04-17T19:05:42.062Z</time></trkpt><trkpt lat="44.058415" lon="8.1847867"><ele>13.0</ele><time>2026-04-17T19:05:43.063Z</time></trkpt><trkpt lat="44.05841" lon="8.1849683"><ele>13.0</ele><time>2026-04-17T19:05:44.063Z</time></trkpt><trkpt lat="44.0583983" lon="8.185155"><ele>13.0</ele><time>2026-04-17T19:05:45.062Z</time></trkpt><trkpt lat="44.0584067" lon="8.185335"><ele>12.75</ele><time>2026-04-17T19:05:46.063Z</time></trkpt><trkpt lat="44.0584217" lon="8.1855"><ele>12.5</ele><time>2026-04-17T19:05:47.062Z</time></trkpt><trkpt lat="44.0584533" lon="8.1856733"><ele>12.25</ele><time>2026-04-17T19:05:48.063Z</time></trkpt><trkpt lat="44.0584883" lon="8.1858017"><ele>12.0</ele><time>2026-04-17T19:05:49.062Z</time></trkpt><trkpt lat="44.0585633" lon="8.1859233"><ele>12.0</ele><time>2026-04-17T19:05:50.062Z</time></trkpt><trkpt lat="44.0586733" lon="8.1860367"><ele>12.0</ele><time>2026-04-17T19:05:51.063Z</time></trkpt><trkpt lat="44.05881" lon="8.1861267"><ele>12.0</ele><time>2026-04-17T19:05:52.063Z</time></trkpt><trkpt lat="44.05894" lon="8.186215"><ele>12.0</ele><time>2026-04-17T19:05:53.062Z</time></trkpt><trkpt lat="44.0590567" lon="8.1863133"><ele>12.0</ele><time>2026-04-17T19:05:54.062Z</time></trkpt><trkpt lat="44.0591617" lon="8.1864083"><ele>12.0</ele><time>2026-04-17T19:05:55.062Z</time></trkpt><trkpt lat="44.0592383" lon="8.1865267"><ele>12.0</ele><time>2026-04-17T19:05:56.063Z</time></trkpt><trkpt lat="44.0593" lon="8.1866883"><ele>12.0</ele><time>2026-04-17T19:05:57.063Z</time></trkpt><trkpt lat="44.0593517" lon="8.186875"><ele>11.666666666666666</ele><time>2026-04-17T19:05:58.062Z</time></trkpt><trkpt lat="44.0594067" lon="8.1870717"><ele>11.333333333333332</ele><time>2026-04-17T19:05:59.062Z</time></trkpt><trkpt lat="44.0594683" lon="8.187265"><ele>11.0</ele><time>2026-04-17T19:06:00.062Z</time></trkpt><trkpt lat="44.0595567" lon="8.18743"><ele>10.666666666666666</ele><time>2026-04-17T19:06:01.063Z</time></trkpt><trkpt lat="44.0596667" lon="8.1875867"><ele>10.333333333333334</ele><time>2026-04-17T19:06:02.062Z</time></trkpt><trkpt lat="44.0597867" lon="8.187755"><ele>10.0</ele><time>2026-04-17T19:06:03.063Z</time></trkpt><trkpt lat="44.0598983" lon="8.187935"><ele>9.666666666666668</ele><time>2026-04-17T19:06:04.063Z</time></trkpt><trkpt lat="44.0600017" lon="8.1881067"><ele>9.333333333333334</ele><time>2026-04-17T19:06:05.062Z</time></trkpt><trkpt lat="44.060115" lon="8.188285"><ele>9.0</ele><time>2026-04-17T19:06:06.062Z</time></trkpt><trkpt lat="44.0602267" lon="8.188465"><ele>8.666666666666666</ele><time>2026-04-17T19:06:07.063Z</time></trkpt><trkpt lat="44.0603367" lon="8.1886417"><ele>8.333333333333332</ele><time>2026-04-17T19:06:08.063Z</time></trkpt><trkpt lat="44.06044" lon="8.1888283"><ele>8.0</ele><time>2026-04-17T19:06:09.063Z</time></trkpt><trkpt lat="44.060545" lon="8.1890233"><ele>8.0</ele><time>2026-04-17T19:06:10.063Z</time></trkpt><trkpt lat="44.0606533" lon="8.1892083"><ele>8.0</ele><time>2026-04-17T19:06:11.062Z</time></trkpt><trkpt lat="44.0607417" lon="8.189385"><ele>8.0</ele><time>2026-04-17T19:06:12.063Z</time></trkpt><trkpt lat="44.0608233" lon="8.18955"><ele>8.0</ele><time>2026-04-17T19:06:13.062Z</time></trkpt><trkpt lat="44.0609" lon="8.1897"><ele>8.0</ele><time>2026-04-17T19:06:14.062Z</time></trkpt><trkpt lat="44.0609683" lon="8.1898017"><ele>8.0</ele><time>2026-04-17T19:06:15.062Z</time></trkpt><trkpt lat="44.0610433" lon="8.1898867"><ele>8.0</ele><time>2026-04-17T19:06:16.063Z</time></trkpt><trkpt lat="44.06113" lon="8.189935"><ele>8.0</ele><time>2026-04-17T19:06:17.063Z</time></trkpt><trkpt lat="44.0612383" lon="8.1899483"><ele>8.0</ele><time>2026-04-17T19:06:18.063Z</time></trkpt><trkpt lat="44.06135" lon="8.1899367"><ele>8.0</ele><time>2026-04-17T19:06:19.062Z</time></trkpt><trkpt lat="44.0614367" lon="8.1899317"><ele>8.0</ele><time>2026-04-17T19:06:20.062Z</time></trkpt><trkpt lat="44.0615383" lon="8.189965"><ele>8.0</ele><time>2026-04-17T19:06:22.063Z</time></trkpt><trkpt lat="44.061675" lon="8.190025"><ele>8.0</ele><time>2026-04-17T19:06:24.063Z</time></trkpt><trkpt lat="44.06179" lon="8.1900367"><ele>9.0</ele><time>2026-04-17T19:06:25.062Z</time></trkpt><trkpt lat="44.06192" lon="8.1900417"><ele>10.0</ele><time>2026-04-17T19:06:26.063Z</time></trkpt><trkpt lat="44.06206" lon="8.19006"><ele>11.0</ele><time>2026-04-17T19:06:27.062Z</time></trkpt><trkpt lat="44.0622033" lon="8.1900617"><ele>12.0</ele><time>2026-04-17T19:06:28.062Z</time></trkpt><trkpt lat="44.0623383" lon="8.1900617"><ele>12.0</ele><time>2026-04-17T19:06:29.063Z</time></trkpt><trkpt lat="44.062475" lon="8.190065"><ele>12.0</ele><time>2026-04-17T19:06:30.062Z</time></trkpt><trkpt lat="44.0626183" lon="8.1900717"><ele>12.0</ele><time>2026-04-17T19:06:31.062Z</time></trkpt><trkpt lat="44.0627633" lon="8.190075"><ele>12.0</ele><time>2026-04-17T19:06:32.062Z</time></trkpt><trkpt lat="44.0629067" lon="8.1900833"><ele>12.0</ele><time>2026-04-17T19:06:33.063Z</time></trkpt><trkpt lat="44.063055" lon="8.1900667"><ele>12.0</ele><time>2026-04-17T19:06:34.063Z</time></trkpt><trkpt lat="44.0631917" lon="8.1900317"><ele>12.0</ele><time>2026-04-17T19:06:35.062Z</time></trkpt><trkpt lat="44.0633183" lon="8.1899817"><ele>12.0</ele><time>2026-04-17T19:06:36.062Z</time></trkpt><trkpt lat="44.0634333" lon="8.189925"><ele>12.6</ele><time>2026-04-17T19:06:37.062Z</time></trkpt><trkpt lat="44.0635483" lon="8.18988"><ele>13.2</ele><time>2026-04-17T19:06:38.063Z</time></trkpt><trkpt lat="44.0636583" lon="8.1898683"><ele>13.8</ele><time>2026-04-17T19:06:39.062Z</time></trkpt><trkpt lat="44.0637567" lon="8.18989"><ele>14.4</ele><time>2026-04-17T19:06:40.062Z</time></trkpt><trkpt lat="44.0638533" lon="8.1899367"><ele>15.0</ele><time>2026-04-17T19:06:41.063Z</time></trkpt><trkpt lat="44.0639417" lon="8.1900283"><ele>15.0</ele><time>2026-04-17T19:06:42.063Z</time></trkpt><trkpt lat="44.06401" lon="8.1901633"><ele>15.0</ele><time>2026-04-17T19:06:43.063Z</time></trkpt><trkpt lat="44.0640767" lon="8.1903167"><ele>15.0</ele><time>2026-04-17T19:06:44.062Z</time></trkpt><trkpt lat="44.0641533" lon="8.1904867"><ele>15.0</ele><time>2026-04-17T19:06:45.063Z</time></trkpt><trkpt lat="44.0642233" lon="8.1906383"><ele>16.833333333333332</ele><time>2026-04-17T19:06:46.063Z</time></trkpt><trkpt lat="44.064275" lon="8.1907733"><ele>18.666666666666664</ele><time>2026-04-17T19:06:47.062Z</time></trkpt><trkpt lat="44.0643317" lon="8.1908833"><ele>20.5</ele><time>2026-04-17T19:06:48.063Z</time></trkpt><trkpt lat="44.064395" lon="8.190965"><ele>22.333333333333332</ele><time>2026-04-17T19:06:49.062Z</time></trkpt><trkpt lat="44.0644433" lon="8.1910317"><ele>24.166666666666664</ele><time>2026-04-17T19:06:50.063Z</time></trkpt><trkpt lat="44.064525" lon="8.1910267"><ele>26.0</ele><time>2026-04-17T19:06:52.062Z</time></trkpt><trkpt lat="44.064545" lon="8.1908583"><ele>26.0</ele><time>2026-04-17T19:06:54.063Z</time></trkpt><trkpt lat="44.0645467" lon="8.1907483"><ele>26.0</ele><time>2026-04-17T19:06:55.062Z</time></trkpt><trkpt lat="44.06456" lon="8.19063"><ele>26.0</ele><time>2026-04-17T19:06:56.062Z</time></trkpt><trkpt lat="44.0646033" lon="8.190505"><ele>26.0</ele><time>2026-04-17T19:06:57.062Z</time></trkpt><trkpt lat="44.0646717" lon="8.1903967"><ele>26.0</ele><time>2026-04-17T19:06:58.062Z</time></trkpt><trkpt lat="44.0647567" lon="8.1903"><ele>25.5</ele><time>2026-04-17T19:06:59.062Z</time></trkpt><trkpt lat="44.0648483" lon="8.1902067"><ele>25.0</ele><time>2026-04-17T19:07:00.062Z</time></trkpt><trkpt lat="44.0649567" lon="8.1901283"><ele>24.5</ele><time>2026-04-17T19:07:01.062Z</time></trkpt><trkpt lat="44.06506" lon="8.1900417"><ele>24.0</ele><time>2026-04-17T19:07:02.063Z</time></trkpt><trkpt lat="44.0651667" lon="8.18995"><ele>24.75</ele><time>2026-04-17T19:07:03.062Z</time></trkpt><trkpt lat="44.0652717" lon="8.18985"><ele>25.5</ele><time>2026-04-17T19:07:04.062Z</time></trkpt><trkpt lat="44.0653733" lon="8.189745"><ele>26.25</ele><time>2026-04-17T19:07:05.062Z</time></trkpt><trkpt lat="44.065465" lon="8.1896383"><ele>27.0</ele><time>2026-04-17T19:07:06.062Z</time></trkpt><trkpt lat="44.0655567" lon="8.1895217"><ele>27.0</ele><time>2026-04-17T19:07:07.063Z</time></trkpt><trkpt lat="44.065645" lon="8.189395"><ele>27.0</ele><time>2026-04-17T19:07:08.063Z</time></trkpt><trkpt lat="44.06574" lon="8.1892733"><ele>27.0</ele><time>2026-04-17T19:07:09.063Z</time></trkpt><trkpt lat="44.06584" lon="8.18916"><ele>27.0</ele><time>2026-04-17T19:07:10.062Z</time></trkpt><trkpt lat="44.06594" lon="8.1890517"><ele>27.5</ele><time>2026-04-17T19:07:11.063Z</time></trkpt><trkpt lat="44.06604" lon="8.1889467"><ele>28.0</ele><time>2026-04-17T19:07:12.062Z</time></trkpt><trkpt lat="44.0661567" lon="8.1888617"><ele>28.5</ele><time>2026-04-17T19:07:13.063Z</time></trkpt><trkpt lat="44.0662817" lon="8.188795"><ele>29.0</ele><time>2026-04-17T19:07:14.062Z</time></trkpt><trkpt lat="44.066405" lon="8.1887233"><ele>29.0</ele><time>2026-04-17T19:07:15.063Z</time></trkpt><trkpt lat="44.0665233" lon="8.1886567"><ele>29.0</ele><time>2026-04-17T19:07:16.062Z</time></trkpt><trkpt lat="44.06663" lon="8.18858"><ele>29.0</ele><time>2026-04-17T19:07:17.062Z</time></trkpt><trkpt lat="44.0667283" lon="8.1885167"><ele>29.0</ele><time>2026-04-17T19:07:18.063Z</time></trkpt><trkpt lat="44.0667983" lon="8.1884567"><ele>29.0</ele><time>2026-04-17T19:07:19.063Z</time></trkpt><trkpt lat="44.0668567" lon="8.1884183"><ele>28.75</ele><time>2026-04-17T19:07:20.063Z</time></trkpt><trkpt lat="44.0669833" lon="8.188385"><ele>28.5</ele><time>2026-04-17T19:07:22.063Z</time></trkpt><trkpt lat="44.0670767" lon="8.18842"><ele>28.25</ele><time>2026-04-17T19:07:23.062Z</time></trkpt><trkpt lat="44.0671833" lon="8.18848"><ele>28.0</ele><time>2026-04-17T19:07:24.062Z</time></trkpt><trkpt lat="44.0673083" lon="8.18855"><ele>28.0</ele><time>2026-04-17T19:07:25.063Z</time></trkpt><trkpt lat="44.0674483" lon="8.1886067"><ele>28.0</ele><time>2026-04-17T19:07:26.062Z</time></trkpt><trkpt lat="44.0675917" lon="8.1886683"><ele>28.0</ele><time>2026-04-17T19:07:27.062Z</time></trkpt><trkpt lat="44.0677283" lon="8.1887283"><ele>28.0</ele><time>2026-04-17T19:07:28.062Z</time></trkpt><trkpt lat="44.0678583" lon="8.1887867"><ele>28.0</ele><time>2026-04-17T19:07:29.062Z</time></trkpt><trkpt lat="44.0679833" lon="8.1888333"><ele>28.0</ele><time>2026-04-17T19:07:30.062Z</time></trkpt><trkpt lat="44.068105" lon="8.1888567"><ele>28.0</ele><time>2026-04-17T19:07:31.063Z</time></trkpt><trkpt lat="44.06823" lon="8.1888617"><ele>28.0</ele><time>2026-04-17T19:07:32.062Z</time></trkpt><trkpt lat="44.0683567" lon="8.188865"><ele>28.0</ele><time>2026-04-17T19:07:33.063Z</time></trkpt><trkpt lat="44.06848" lon="8.1888767"><ele>28.0</ele><time>2026-04-17T19:07:34.062Z</time></trkpt><trkpt lat="44.0686067" lon="8.1889117"><ele>28.0</ele><time>2026-04-17T19:07:35.063Z</time></trkpt><trkpt lat="44.0687383" lon="8.1889983"><ele>28.0</ele><time>2026-04-17T19:07:36.063Z</time></trkpt><trkpt lat="44.068875" lon="8.1890867"><ele>27.333333333333336</ele><time>2026-04-17T19:07:37.063Z</time></trkpt><trkpt lat="44.069015" lon="8.1891883"><ele>26.666666666666664</ele><time>2026-04-17T19:07:38.062Z</time></trkpt><trkpt lat="44.0691483" lon="8.1892817"><ele>26.0</ele><time>2026-04-17T19:07:39.063Z</time></trkpt><trkpt lat="44.0692733" lon="8.1893833"><ele>26.0</ele><time>2026-04-17T19:07:40.063Z</time></trkpt><trkpt lat="44.0694" lon="8.18948"><ele>26.0</ele><time>2026-04-17T19:07:41.062Z</time></trkpt><trkpt lat="44.0695233" lon="8.1895683"><ele>26.0</ele><time>2026-04-17T19:07:42.063Z</time></trkpt><trkpt lat="44.0696367" lon="8.1896583"><ele>26.0</ele><time>2026-04-17T19:07:43.062Z</time></trkpt><trkpt lat="44.0697483" lon="8.18976"><ele>25.5</ele><time>2026-04-17T19:07:44.063Z</time></trkpt><trkpt lat="44.0698533" lon="8.1898717"><ele>25.0</ele><time>2026-04-17T19:07:45.062Z</time></trkpt><trkpt lat="44.069965" lon="8.1900067"><ele>24.5</ele><time>2026-04-17T19:07:46.063Z</time></trkpt><trkpt lat="44.0700833" lon="8.1901567"><ele>24.0</ele><time>2026-04-17T19:07:47.062Z</time></trkpt><trkpt lat="44.0702" lon="8.1903083"><ele>22.666666666666668</ele><time>2026-04-17T19:07:48.062Z</time></trkpt><trkpt lat="44.0703233" lon="8.1904533"><ele>21.333333333333336</ele><time>2026-04-17T19:07:49.062Z</time></trkpt><trkpt lat="44.070455" lon="8.190595"><ele>20.0</ele><time>2026-04-17T19:07:50.063Z</time></trkpt><trkpt lat="44.0705817" lon="8.1907333"><ele>20.0</ele><time>2026-04-17T19:07:51.062Z</time></trkpt><trkpt lat="44.0706983" lon="8.1908817"><ele>20.0</ele><time>2026-04-17T19:07:52.063Z</time></trkpt><trkpt lat="44.0708117" lon="8.1910117"><ele>20.0</ele><time>2026-04-17T19:07:53.062Z</time></trkpt><trkpt lat="44.0709333" lon="8.1911333"><ele>20.0</ele><time>2026-04-17T19:07:54.063Z</time></trkpt><trkpt lat="44.0710583" lon="8.19126"><ele>20.0</ele><time>2026-04-17T19:07:55.062Z</time></trkpt><trkpt lat="44.0711917" lon="8.1913767"><ele>20.0</ele><time>2026-04-17T19:07:56.063Z</time></trkpt><trkpt lat="44.0713283" lon="8.1914933"><ele>20.0</ele><time>2026-04-17T19:07:57.063Z</time></trkpt><trkpt lat="44.0714633" lon="8.1916183"><ele>20.0</ele><time>2026-04-17T19:07:58.062Z</time></trkpt><trkpt lat="44.07159" lon="8.19173"><ele>20.0</ele><time>2026-04-17T19:07:59.063Z</time></trkpt><trkpt lat="44.0717183" lon="8.191835"><ele>21.333333333333336</ele><time>2026-04-17T19:08:00.063Z</time></trkpt><trkpt lat="44.0718517" lon="8.1919267"><ele>22.666666666666668</ele><time>2026-04-17T19:08:01.062Z</time></trkpt><trkpt lat="44.0719833" lon="8.192025"><ele>24.0</ele><time>2026-04-17T19:08:02.063Z</time></trkpt><trkpt lat="44.0721267" lon="8.1921183"><ele>24.0</ele><time>2026-04-17T19:08:03.063Z</time></trkpt><trkpt lat="44.072265" lon="8.1921917"><ele>24.0</ele><time>2026-04-17T19:08:04.062Z</time></trkpt><trkpt lat="44.0723933" lon="8.192285"><ele>24.0</ele><time>2026-04-17T19:08:05.062Z</time></trkpt><trkpt lat="44.0725183" lon="8.1923517"><ele>24.0</ele><time>2026-04-17T19:08:06.062Z</time></trkpt><trkpt lat="44.0726417" lon="8.1924233"><ele>24.2</ele><time>2026-04-17T19:08:07.062Z</time></trkpt><trkpt lat="44.0727417" lon="8.1924883"><ele>24.4</ele><time>2026-04-17T19:08:08.062Z</time></trkpt><trkpt lat="44.0728383" lon="8.1925383"><ele>24.6</ele><time>2026-04-17T19:08:09.062Z</time></trkpt><trkpt lat="44.072915" lon="8.1925717"><ele>24.8</ele><time>2026-04-17T19:08:10.062Z</time></trkpt><trkpt lat="44.073" lon="8.1926367"><ele>25.0</ele><time>2026-04-17T19:08:12.062Z</time></trkpt><trkpt lat="44.0730283" lon="8.19281"><ele>25.0</ele><time>2026-04-17T19:08:14.063Z</time></trkpt><trkpt lat="44.07307" lon="8.19291"><ele>25.0</ele><time>2026-04-17T19:08:15.062Z</time></trkpt><trkpt lat="44.0731717" lon="8.1930183"><ele>25.0</ele><time>2026-04-17T19:08:16.062Z</time></trkpt><trkpt lat="44.0733033" lon="8.19314"><ele>25.0</ele><time>2026-04-17T19:08:17.062Z</time></trkpt><trkpt lat="44.0734433" lon="8.193265"><ele>24.333333333333336</ele><time>2026-04-17T19:08:18.062Z</time></trkpt><trkpt lat="44.07359" lon="8.1933983"><ele>23.666666666666668</ele><time>2026-04-17T19:08:19.063Z</time></trkpt><trkpt lat="44.073735" lon="8.1935183"><ele>23.0</ele><time>2026-04-17T19:08:20.063Z</time></trkpt><trkpt lat="44.0738617" lon="8.19365"><ele>23.0</ele><time>2026-04-17T19:08:21.062Z</time></trkpt><trkpt lat="44.0739717" lon="8.19376"><ele>23.0</ele><time>2026-04-17T19:08:22.063Z</time></trkpt><trkpt lat="44.074085" lon="8.1938717"><ele>23.0</ele><time>2026-04-17T19:08:23.063Z</time></trkpt><trkpt lat="44.07419" lon="8.1939817"><ele>23.0</ele><time>2026-04-17T19:08:24.063Z</time></trkpt><trkpt lat="44.0743033" lon="8.1940967"><ele>24.0</ele><time>2026-04-17T19:08:25.062Z</time></trkpt><trkpt lat="44.0744183" lon="8.194205"><ele>25.0</ele><time>2026-04-17T19:08:26.063Z</time></trkpt><trkpt lat="44.0745283" lon="8.1942933"><ele>26.0</ele><time>2026-04-17T19:08:27.062Z</time></trkpt><trkpt lat="44.0746467" lon="8.194365"><ele>27.0</ele><time>2026-04-17T19:08:28.063Z</time></trkpt><trkpt lat="44.0747483" lon="8.1944317"><ele>27.0</ele><time>2026-04-17T19:08:29.063Z</time></trkpt><trkpt lat="44.07485" lon="8.1945083"><ele>27.0</ele><time>2026-04-17T19:08:30.062Z</time></trkpt><trkpt lat="44.0749617" lon="8.194585"><ele>27.0</ele><time>2026-04-17T19:08:31.062Z</time></trkpt><trkpt lat="44.07506" lon="8.194695"><ele>27.0</ele><time>2026-04-17T19:08:32.062Z</time></trkpt><trkpt lat="44.0751433" lon="8.1948117"><ele>26.333333333333332</ele><time>2026-04-17T19:08:33.062Z</time></trkpt><trkpt lat="44.0752217" lon="8.194915"><ele>25.666666666666668</ele><time>2026-04-17T19:08:34.062Z</time></trkpt><trkpt lat="44.07529" lon="8.1949867"><ele>25.0</ele><time>2026-04-17T19:08:35.063Z</time></trkpt><trkpt lat="44.07537" lon="8.19506"><ele>24.333333333333336</ele><time>2026-04-17T19:08:37.062Z</time></trkpt><trkpt lat="44.0754233" lon="8.19513"><ele>23.666666666666668</ele><time>2026-04-17T19:08:43.062Z</time></trkpt><trkpt lat="44.0754633" lon="8.1952117"><ele>23.0</ele><time>2026-04-17T19:08:44.063Z</time></trkpt><trkpt lat="44.075515" lon="8.1953083"><ele>23.0</ele><time>2026-04-17T19:08:45.062Z</time></trkpt><trkpt lat="44.075555" lon="8.19541"><ele>23.0</ele><time>2026-04-17T19:08:46.063Z</time></trkpt><trkpt lat="44.075595" lon="8.195505"><ele>23.0</ele><time>2026-04-17T19:08:47.063Z</time></trkpt><trkpt lat="44.07562" lon="8.1956083"><ele>23.0</ele><time>2026-04-17T19:08:48.062Z</time></trkpt><trkpt lat="44.0756483" lon="8.1957017"><ele>23.0</ele><time>2026-04-17T19:08:49.063Z</time></trkpt><trkpt lat="44.0756733" lon="8.195795"><ele>23.0</ele><time>2026-04-17T19:08:50.063Z</time></trkpt><trkpt lat="44.07569" lon="8.1959533"><ele>22.599999999999998</ele><time>2026-04-17T19:08:52.062Z</time></trkpt><trkpt lat="44.0756983" lon="8.196065"><ele>22.2</ele><time>2026-04-17T19:08:54.062Z</time></trkpt><trkpt lat="44.0756983" lon="8.1961533"><ele>21.8</ele><time>2026-04-17T19:08:56.063Z</time></trkpt><trkpt lat="44.0757133" lon="8.1963233"><ele>21.4</ele><time>2026-04-17T19:09:17.063Z</time></trkpt><trkpt lat="44.0757267" lon="8.1964633"><ele>21.0</ele><time>2026-04-17T19:09:18.063Z</time></trkpt><trkpt lat="44.0757467" lon="8.1966483"><ele>20.0</ele><time>2026-04-17T19:09:19.062Z</time></trkpt><trkpt lat="44.0757933" lon="8.1968417"><ele>19.0</ele><time>2026-04-17T19:09:20.062Z</time></trkpt><trkpt lat="44.0758667" lon="8.1970533"><ele>18.0</ele><time>2026-04-17T19:09:21.063Z</time></trkpt><trkpt lat="44.07595" lon="8.1972533"><ele>16.333333333333332</ele><time>2026-04-17T19:09:22.062Z</time></trkpt><trkpt lat="44.0760367" lon="8.197465"><ele>14.666666666666666</ele><time>2026-04-17T19:09:23.062Z</time></trkpt><trkpt lat="44.07612" lon="8.197675"><ele>13.0</ele><time>2026-04-17T19:09:24.063Z</time></trkpt><trkpt lat="44.07621" lon="8.1978933"><ele>13.0</ele><time>2026-04-17T19:09:25.062Z</time></trkpt><trkpt lat="44.076305" lon="8.1981033"><ele>13.0</ele><time>2026-04-17T19:09:26.063Z</time></trkpt><trkpt lat="44.0764" lon="8.19831"><ele>13.0</ele><time>2026-04-17T19:09:27.063Z</time></trkpt><trkpt lat="44.0764867" lon="8.1985283"><ele>13.0</ele><time>2026-04-17T19:09:28.063Z</time></trkpt><trkpt lat="44.0765517" lon="8.1987567"><ele>13.0</ele><time>2026-04-17T19:09:29.062Z</time></trkpt><trkpt lat="44.0766" lon="8.1989867"><ele>13.0</ele><time>2026-04-17T19:09:30.062Z</time></trkpt><trkpt lat="44.0766333" lon="8.1992283"><ele>14.333333333333332</ele><time>2026-04-17T19:09:31.062Z</time></trkpt><trkpt lat="44.07666" lon="8.19947"><ele>15.666666666666668</ele><time>2026-04-17T19:09:32.063Z</time></trkpt><trkpt lat="44.076685" lon="8.199715"><ele>17.0</ele><time>2026-04-17T19:09:33.062Z</time></trkpt><trkpt lat="44.0767067" lon="8.1999383"><ele>18.0</ele><time>2026-04-17T19:09:34.063Z</time></trkpt><trkpt lat="44.0767283" lon="8.200165"><ele>19.0</ele><time>2026-04-17T19:09:35.062Z</time></trkpt><trkpt lat="44.076745" lon="8.2003883"><ele>20.0</ele><time>2026-04-17T19:09:36.062Z</time></trkpt><trkpt lat="44.076765" lon="8.2006317"><ele>20.333333333333336</ele><time>2026-04-17T19:09:37.063Z</time></trkpt><trkpt lat="44.07678" lon="8.2008767"><ele>20.666666666666668</ele><time>2026-04-17T19:09:38.063Z</time></trkpt><trkpt lat="44.0767983" lon="8.20113"><ele>21.0</ele><time>2026-04-17T19:09:39.063Z</time></trkpt><trkpt lat="44.0768233" lon="8.201385"><ele>19.666666666666668</ele><time>2026-04-17T19:09:40.062Z</time></trkpt><trkpt lat="44.0768567" lon="8.20166"><ele>18.333333333333336</ele><time>2026-04-17T19:09:41.063Z</time></trkpt><trkpt lat="44.0768983" lon="8.2019117"><ele>17.0</ele><time>2026-04-17T19:09:42.062Z</time></trkpt><trkpt lat="44.0769233" lon="8.202155"><ele>16.666666666666668</ele><time>2026-04-17T19:09:43.062Z</time></trkpt><trkpt lat="44.0769467" lon="8.202385"><ele>16.333333333333332</ele><time>2026-04-17T19:09:44.063Z</time></trkpt><trkpt lat="44.0769717" lon="8.2026017"><ele>16.0</ele><time>2026-04-17T19:09:45.063Z</time></trkpt><trkpt lat="44.077" lon="8.202805"><ele>16.0</ele><time>2026-04-17T19:09:46.062Z</time></trkpt><trkpt lat="44.0770367" lon="8.2030017"><ele>16.0</ele><time>2026-04-17T19:09:47.063Z</time></trkpt><trkpt lat="44.07709" lon="8.2031883"><ele>16.0</ele><time>2026-04-17T19:09:48.063Z</time></trkpt><trkpt lat="44.0771633" lon="8.2033717"><ele>16.0</ele><time>2026-04-17T19:09:49.062Z</time></trkpt><trkpt lat="44.0772717" lon="8.2035367"><ele>16.333333333333332</ele><time>2026-04-17T19:09:50.063Z</time></trkpt><trkpt lat="44.0773817" lon="8.2037"><ele>16.666666666666668</ele><time>2026-04-17T19:09:51.063Z</time></trkpt><trkpt lat="44.0774933" lon="8.2038583"><ele>17.0</ele><time>2026-04-17T19:09:52.063Z</time></trkpt><trkpt lat="44.0776033" lon="8.20401"><ele>16.25</ele><time>2026-04-17T19:09:53.062Z</time></trkpt><trkpt lat="44.0777033" lon="8.20417"><ele>15.5</ele><time>2026-04-17T19:09:54.062Z</time></trkpt><trkpt lat="44.0777883" lon="8.2043233"><ele>14.75</ele><time>2026-04-17T19:09:55.062Z</time></trkpt><trkpt lat="44.0778533" lon="8.204485"><ele>14.0</ele><time>2026-04-17T19:09:56.062Z</time></trkpt><trkpt lat="44.0778867" lon="8.2046533"><ele>13.333333333333334</ele><time>2026-04-17T19:09:57.063Z</time></trkpt><trkpt lat="44.0778867" lon="8.20485"><ele>12.666666666666668</ele><time>2026-04-17T19:09:58.063Z</time></trkpt><trkpt lat="44.077865" lon="8.2050567"><ele>12.0</ele><time>2026-04-17T19:09:59.063Z</time></trkpt><trkpt lat="44.0778233" lon="8.20527"><ele>12.0</ele><time>2026-04-17T19:10:00.063Z</time></trkpt><trkpt lat="44.077795" lon="8.2054817"><ele>12.0</ele><time>2026-04-17T19:10:01.063Z</time></trkpt><trkpt lat="44.077755" lon="8.2056917"><ele>12.0</ele><time>2026-04-17T19:10:02.062Z</time></trkpt><trkpt lat="44.0777183" lon="8.2058967"><ele>11.0</ele><time>2026-04-17T19:10:03.063Z</time></trkpt><trkpt lat="44.0777033" lon="8.2060867"><ele>10.0</ele><time>2026-04-17T19:10:04.062Z</time></trkpt><trkpt lat="44.0777" lon="8.2062833"><ele>9.0</ele><time>2026-04-17T19:10:05.063Z</time></trkpt><trkpt lat="44.0777133" lon="8.2064867"><ele>8.0</ele><time>2026-04-17T19:10:06.063Z</time></trkpt><trkpt lat="44.0777183" lon="8.2066817"><ele>8.0</ele><time>2026-04-17T19:10:07.063Z</time></trkpt><trkpt lat="44.0777283" lon="8.2068633"><ele>8.0</ele><time>2026-04-17T19:10:08.062Z</time></trkpt><trkpt lat="44.0777183" lon="8.2070333"><ele>8.0</ele><time>2026-04-17T19:10:09.063Z</time></trkpt><trkpt lat="44.077675" lon="8.2071883"><ele>8.0</ele><time>2026-04-17T19:10:10.063Z</time></trkpt><trkpt lat="44.07761" lon="8.2073383"><ele>7.75</ele><time>2026-04-17T19:10:11.063Z</time></trkpt><trkpt lat="44.0775117" lon="8.20747"><ele>7.5</ele><time>2026-04-17T19:10:12.063Z</time></trkpt><trkpt lat="44.0774017" lon="8.2075967"><ele>7.25</ele><time>2026-04-17T19:10:13.063Z</time></trkpt><trkpt lat="44.0773" lon="8.2077233"><ele>7.0</ele><time>2026-04-17T19:10:14.063Z</time></trkpt><trkpt lat="44.0772033" lon="8.2078617"><ele>7.0</ele><time>2026-04-17T19:10:15.062Z</time></trkpt><trkpt lat="44.07712" lon="8.2080183"><ele>7.0</ele><time>2026-04-17T19:10:16.062Z</time></trkpt><trkpt lat="44.0770417" lon="8.2082033"><ele>7.0</ele><time>2026-04-17T19:10:17.063Z</time></trkpt><trkpt lat="44.076975" lon="8.208385"><ele>7.0</ele><time>2026-04-17T19:10:18.063Z</time></trkpt><trkpt lat="44.07692" lon="8.2085517"><ele>7.5</ele><time>2026-04-17T19:10:19.062Z</time></trkpt><trkpt lat="44.07687" lon="8.208725"><ele>8.0</ele><time>2026-04-17T19:10:20.062Z</time></trkpt><trkpt lat="44.0768417" lon="8.20888"><ele>8.5</ele><time>2026-04-17T19:10:21.063Z</time></trkpt><trkpt lat="44.0768217" lon="8.2090367"><ele>9.0</ele><time>2026-04-17T19:10:22.062Z</time></trkpt><trkpt lat="44.07681" lon="8.20919"><ele>9.0</ele><time>2026-04-17T19:10:23.062Z</time></trkpt><trkpt lat="44.07682" lon="8.2093267"><ele>9.0</ele><time>2026-04-17T19:10:24.062Z</time></trkpt><trkpt lat="44.0768633" lon="8.2094467"><ele>9.0</ele><time>2026-04-17T19:10:25.063Z</time></trkpt><trkpt lat="44.0769283" lon="8.2095667"><ele>9.0</ele><time>2026-04-17T19:10:26.063Z</time></trkpt><trkpt lat="44.0770133" lon="8.2096967"><ele>9.0</ele><time>2026-04-17T19:10:27.062Z</time></trkpt><trkpt lat="44.0770833" lon="8.20985"><ele>8.25</ele><time>2026-04-17T19:10:28.062Z</time></trkpt><trkpt lat="44.077115" lon="8.2100283"><ele>7.5</ele><time>2026-04-17T19:10:29.063Z</time></trkpt><trkpt lat="44.0771283" lon="8.2102167"><ele>6.75</ele><time>2026-04-17T19:10:30.062Z</time></trkpt><trkpt lat="44.0771233" lon="8.2104167"><ele>6.0</ele><time>2026-04-17T19:10:31.063Z</time></trkpt><trkpt lat="44.0771117" lon="8.210615"><ele>5.5</ele><time>2026-04-17T19:10:32.063Z</time></trkpt><trkpt lat="44.0771" lon="8.2108267"><ele>5.0</ele><time>2026-04-17T19:10:33.063Z</time></trkpt><trkpt lat="44.0771017" lon="8.2110233"><ele>4.5</ele><time>2026-04-17T19:10:34.063Z</time></trkpt><trkpt lat="44.0771283" lon="8.21122"><ele>4.0</ele><time>2026-04-17T19:10:35.062Z</time></trkpt><trkpt lat="44.0771567" lon="8.21142"><ele>4.0</ele><time>2026-04-17T19:10:36.062Z</time></trkpt><trkpt lat="44.0771933" lon="8.211605"><ele>4.0</ele><time>2026-04-17T19:10:37.063Z</time></trkpt><trkpt lat="44.0772417" lon="8.2117817"><ele>4.0</ele><time>2026-04-17T19:10:38.062Z</time></trkpt><trkpt lat="44.0773" lon="8.2119617"><ele>4.0</ele><time>2026-04-17T19:10:39.062Z</time></trkpt><trkpt lat="44.0773767" lon="8.212125"><ele>4.75</ele><time>2026-04-17T19:10:40.062Z</time></trkpt><trkpt lat="44.0774533" lon="8.212285"><ele>5.5</ele><time>2026-04-17T19:10:41.062Z</time></trkpt><trkpt lat="44.0775233" lon="8.2124333"><ele>6.25</ele><time>2026-04-17T19:10:42.063Z</time></trkpt><trkpt lat="44.0775967" lon="8.212585"><ele>7.0</ele><time>2026-04-17T19:10:43.062Z</time></trkpt><trkpt lat="44.07766" lon="8.2127333"><ele>7.0</ele><time>2026-04-17T19:10:44.062Z</time></trkpt><trkpt lat="44.0776967" lon="8.2128717"><ele>6.999999999999999</ele><time>2026-04-17T19:10:45.062Z</time></trkpt><trkpt lat="44.0777417" lon="8.2130117"><ele>6.999999999999999</ele><time>2026-04-17T19:10:46.063Z</time></trkpt><trkpt lat="44.077775" lon="8.2131367"><ele>7.0</ele><time>2026-04-17T19:10:47.063Z</time></trkpt><trkpt lat="44.077805" lon="8.2132333"><ele>7.0</ele><time>2026-04-17T19:10:48.063Z</time></trkpt><trkpt lat="44.0777867" lon="8.21339"><ele>6.8</ele><time>2026-04-17T19:10:50.063Z</time></trkpt><trkpt lat="44.0777317" lon="8.213445"><ele>6.6</ele><time>2026-04-17T19:10:51.063Z</time></trkpt><trkpt lat="44.077655" lon="8.2135"><ele>6.3999999999999995</ele><time>2026-04-17T19:10:52.063Z</time></trkpt><trkpt lat="44.0775567" lon="8.2135817"><ele>6.199999999999999</ele><time>2026-04-17T19:10:53.062Z</time></trkpt><trkpt lat="44.0774533" lon="8.213675"><ele>6.0</ele><time>2026-04-17T19:10:54.063Z</time></trkpt><trkpt lat="44.07736" lon="8.2137667"><ele>5.75</ele><time>2026-04-17T19:10:55.063Z</time></trkpt><trkpt lat="44.0772667" lon="8.21386"><ele>5.5</ele><time>2026-04-17T19:10:56.062Z</time></trkpt><trkpt lat="44.0771667" lon="8.2139583"><ele>5.25</ele><time>2026-04-17T19:10:57.062Z</time></trkpt><trkpt lat="44.07707" lon="8.2140633"><ele>5.0</ele><time>2026-04-17T19:10:58.062Z</time></trkpt><trkpt lat="44.0769917" lon="8.214165"><ele>5.0</ele><time>2026-04-17T19:10:59.062Z</time></trkpt><trkpt lat="44.07693" lon="8.21426"><ele>5.0</ele><time>2026-04-17T19:11:00.062Z</time></trkpt><trkpt lat="44.0768733" lon="8.2143317"><ele>5.0</ele><time>2026-04-17T19:11:01.063Z</time></trkpt><trkpt lat="44.0767867" lon="8.2143967"><ele>5.0</ele><time>2026-04-17T19:11:03.063Z</time></trkpt><trkpt lat="44.07669" lon="8.2143783"><ele>5.0</ele><time>2026-04-17T19:11:05.063Z</time></trkpt><trkpt lat="44.0765817" lon="8.2143283"><ele>4.666666666666667</ele><time>2026-04-17T19:11:07.062Z</time></trkpt><trkpt lat="44.0765167" lon="8.2143017"><ele>4.333333333333334</ele><time>2026-04-17T19:11:08.063Z</time></trkpt><trkpt lat="44.0764433" lon="8.2142617"><ele>4.0</ele><time>2026-04-17T19:11:09.063Z</time></trkpt><trkpt lat="44.0763633" lon="8.2142183"><ele>3.666666666666667</ele><time>2026-04-17T19:11:10.063Z</time></trkpt><trkpt lat="44.0762767" lon="8.21418"><ele>3.3333333333333335</ele><time>2026-04-17T19:11:11.063Z</time></trkpt><trkpt lat="44.07619" lon="8.21414"><ele>3.0</ele><time>2026-04-17T19:11:12.063Z</time></trkpt><trkpt lat="44.0761033" lon="8.214085"><ele>3.0</ele><time>2026-04-17T19:11:13.063Z</time></trkpt><trkpt lat="44.0760217" lon="8.214025"><ele>3.0</ele><time>2026-04-17T19:11:14.062Z</time></trkpt><trkpt lat="44.075945" lon="8.213965"><ele>3.0</ele><time>2026-04-17T19:11:15.063Z</time></trkpt><trkpt lat="44.0758717" lon="8.2139"><ele>3.0</ele><time>2026-04-17T19:11:16.063Z</time></trkpt><trkpt lat="44.0758033" lon="8.2138333"><ele>3.0</ele><time>2026-04-17T19:11:17.062Z</time></trkpt><trkpt lat="44.0757317" lon="8.2137717"><ele>3.0</ele><time>2026-04-17T19:11:18.063Z</time></trkpt><trkpt lat="44.0756633" lon="8.213705"><ele>3.2</ele><time>2026-04-17T19:11:19.062Z</time></trkpt><trkpt lat="44.0755917" lon="8.2136367"><ele>3.4</ele><time>2026-04-17T19:11:20.062Z</time></trkpt><trkpt lat="44.0755167" lon="8.21357"><ele>3.6000000000000005</ele><time>2026-04-17T19:11:21.063Z</time></trkpt><trkpt lat="44.0754317" lon="8.2135083"><ele>3.8000000000000003</ele><time>2026-04-17T19:11:22.062Z</time></trkpt><trkpt lat="44.07535" lon="8.2134417"><ele>4.0</ele><time>2026-04-17T19:11:23.063Z</time></trkpt><trkpt lat="44.075265" lon="8.21337"><ele>4.0</ele><time>2026-04-17T19:11:24.063Z</time></trkpt><trkpt lat="44.075185" lon="8.2132883"><ele>4.0</ele><time>2026-04-17T19:11:25.062Z</time></trkpt><trkpt lat="44.0751" lon="8.213215"><ele>4.0</ele><time>2026-04-17T19:11:26.063Z</time></trkpt><trkpt lat="44.075025" lon="8.2131483"><ele>4.0</ele><time>2026-04-17T19:11:27.063Z</time></trkpt><trkpt lat="44.0749517" lon="8.2130817"><ele>4.0</ele><time>2026-04-17T19:11:28.062Z</time></trkpt><trkpt lat="44.074875" lon="8.213035"><ele>3.9999999999999996</ele><time>2026-04-17T19:11:29.062Z</time></trkpt><trkpt lat="44.074805" lon="8.213"><ele>4.0</ele><time>2026-04-17T19:11:30.062Z</time></trkpt><trkpt lat="44.074735" lon="8.212965"><ele>4.0</ele><time>2026-04-17T19:11:31.062Z</time></trkpt><trkpt lat="44.0746633" lon="8.2129267"><ele>4.0</ele><time>2026-04-17T19:11:32.062Z</time></trkpt><trkpt lat="44.0745967" lon="8.2128833"><ele>3.9999999999999996</ele><time>2026-04-17T19:11:33.063Z</time></trkpt><trkpt lat="44.0745" lon="8.2128217"><ele>4.0</ele><time>2026-04-17T19:11:35.063Z</time></trkpt><trkpt lat="44.0744333" lon="8.2128233"><ele>4.0</ele><time>2026-04-17T19:11:37.063Z</time></trkpt><trkpt lat="44.0743733" lon="8.2127617"><ele>4.0</ele><time>2026-04-17T19:11:41.063Z</time></trkpt></trkseg></trk></gpx>